<?xml version="1.0" encoding="UTF-8"?>
<gpx version="1.1" creator="https://www.youtrack.es" xsi:schemaLocation="http://www.topografix.com/GPX/1/1 http://www.topografix.com/GPX/1/1/gpx.xsd http://www.garmin.com/xmlschemas/GpxExtensions/v3 http://www.garmin.com/xmlschemas/GpxExtensionsv3.xsd http://www.garmin.com/xmlschemas/TrackPointExtension/v1 http://www.garmin.com/xmlschemas/TrackPointExtensionv1.xsd" xmlns:gpxtpx="http://www.garmin.com/xmlschemas/TrackPointExtension/v1" xmlns:gpxx="http://www.garmin.com/xmlschemas/GpxExtensions/v3" xmlns:xsi="http://www.w3.org/2001/XMLSchema-instance">
  <metadata>
    <link href="https://www.youtrack.es">
      <text>YouTrack.es</text>
    </link>
    <time>2026-05-08T14:29:48Z</time>
  </metadata>
  <trk>
    <src>https://www.youtrack.es</src>
    <link href="https://www.youtrack.es/ruta/4959-seguer">
      <text>YouTrack.es</text>
    </link>
    <trkseg>
      <trkpt lat="41.57296157" lon="1.637351894">
        <ele>275.00000</ele>
        <time>2019-04-02T13:12:25Z</time>
      </trkpt>
      <trkpt lat="41.57278044" lon="1.637230357">
        <ele>275.00000</ele>
        <time>2019-04-02T13:12:30Z</time>
      </trkpt>
      <trkpt lat="41.57270274" lon="1.637179981">
        <ele>274.00000</ele>
        <time>2019-04-02T13:12:32Z</time>
      </trkpt>
      <trkpt lat="41.57261556" lon="1.637131283">
        <ele>274.00000</ele>
        <time>2019-04-02T13:12:34Z</time>
      </trkpt>
      <trkpt lat="41.57253024" lon="1.637073280">
        <ele>274.00000</ele>
        <time>2019-04-02T13:12:36Z</time>
      </trkpt>
      <trkpt lat="41.57219463" lon="1.636869851">
        <ele>273.00000</ele>
        <time>2019-04-02T13:12:43Z</time>
      </trkpt>
      <trkpt lat="41.57214660" lon="1.636842442">
        <ele>273.00000</ele>
        <time>2019-04-02T13:12:44Z</time>
      </trkpt>
      <trkpt lat="41.57205381" lon="1.636779410">
        <ele>273.00000</ele>
        <time>2019-04-02T13:12:46Z</time>
      </trkpt>
      <trkpt lat="41.57192917" lon="1.636680504">
        <ele>273.00000</ele>
        <time>2019-04-02T13:12:49Z</time>
      </trkpt>
      <trkpt lat="41.57190738" lon="1.636510770">
        <ele>273.00000</ele>
        <time>2019-04-02T13:12:52Z</time>
      </trkpt>
      <trkpt lat="41.57189506" lon="1.636339779">
        <ele>272.00000</ele>
        <time>2019-04-02T13:12:55Z</time>
      </trkpt>
      <trkpt lat="41.57188776" lon="1.636280855">
        <ele>272.00000</ele>
        <time>2019-04-02T13:12:56Z</time>
      </trkpt>
      <trkpt lat="41.57188776" lon="1.636215895">
        <ele>272.00000</ele>
        <time>2019-04-02T13:12:57Z</time>
      </trkpt>
      <trkpt lat="41.57188206" lon="1.636071391">
        <ele>272.00000</ele>
        <time>2019-04-02T13:12:59Z</time>
      </trkpt>
      <trkpt lat="41.57187896" lon="1.635990757">
        <ele>272.00000</ele>
        <time>2019-04-02T13:13:00Z</time>
      </trkpt>
      <trkpt lat="41.57188349" lon="1.635622624">
        <ele>271.00000</ele>
        <time>2019-04-02T13:13:04Z</time>
      </trkpt>
      <trkpt lat="41.57188424" lon="1.635521873">
        <ele>270.00000</ele>
        <time>2019-04-02T13:13:05Z</time>
      </trkpt>
      <trkpt lat="41.57187620" lon="1.635111160">
        <ele>270.00000</ele>
        <time>2019-04-02T13:13:10Z</time>
      </trkpt>
      <trkpt lat="41.57197368" lon="1.635022731">
        <ele>269.00000</ele>
        <time>2019-04-02T13:13:12Z</time>
      </trkpt>
      <trkpt lat="41.57209941" lon="1.635005800">
        <ele>270.00000</ele>
        <time>2019-04-02T13:13:15Z</time>
      </trkpt>
      <trkpt lat="41.57216956" lon="1.634976882">
        <ele>271.00000</ele>
        <time>2019-04-02T13:13:17Z</time>
      </trkpt>
      <trkpt lat="41.57220502" lon="1.634945198">
        <ele>271.00000</ele>
        <time>2019-04-02T13:13:18Z</time>
      </trkpt>
      <trkpt lat="41.57232278" lon="1.634710254">
        <ele>270.00000</ele>
        <time>2019-04-02T13:13:22Z</time>
      </trkpt>
      <trkpt lat="41.57234760" lon="1.634637499">
        <ele>270.00000</ele>
        <time>2019-04-02T13:13:23Z</time>
      </trkpt>
      <trkpt lat="41.57241557" lon="1.634488217">
        <ele>270.00000</ele>
        <time>2019-04-02T13:13:25Z</time>
      </trkpt>
      <trkpt lat="41.57246762" lon="1.634418144">
        <ele>269.00000</ele>
        <time>2019-04-02T13:13:26Z</time>
      </trkpt>
      <trkpt lat="41.57259126" lon="1.634289650">
        <ele>267.00000</ele>
        <time>2019-04-02T13:13:28Z</time>
      </trkpt>
      <trkpt lat="41.57272126" lon="1.634173309">
        <ele>267.00000</ele>
        <time>2019-04-02T13:13:30Z</time>
      </trkpt>
      <trkpt lat="41.57317749" lon="1.633752034">
        <ele>268.00000</ele>
        <time>2019-04-02T13:13:37Z</time>
      </trkpt>
      <trkpt lat="41.57336851" lon="1.633577775">
        <ele>267.00000</ele>
        <time>2019-04-02T13:13:40Z</time>
      </trkpt>
      <trkpt lat="41.57366657" lon="1.633342579">
        <ele>268.00000</ele>
        <time>2019-04-02T13:13:45Z</time>
      </trkpt>
      <trkpt lat="41.57383597" lon="1.633260436">
        <ele>269.00000</ele>
        <time>2019-04-02T13:13:48Z</time>
      </trkpt>
      <trkpt lat="41.57387101" lon="1.633206456">
        <ele>269.00000</ele>
        <time>2019-04-02T13:13:49Z</time>
      </trkpt>
      <trkpt lat="41.57387176" lon="1.633072681">
        <ele>269.00000</ele>
        <time>2019-04-02T13:13:51Z</time>
      </trkpt>
      <trkpt lat="41.57379649" lon="1.632969668">
        <ele>269.00000</ele>
        <time>2019-04-02T13:13:53Z</time>
      </trkpt>
      <trkpt lat="41.57375693" lon="1.632918370">
        <ele>269.00000</ele>
        <time>2019-04-02T13:13:54Z</time>
      </trkpt>
      <trkpt lat="41.57363321" lon="1.632622405">
        <ele>267.00000</ele>
        <time>2019-04-02T13:13:58Z</time>
      </trkpt>
      <trkpt lat="41.57354042" lon="1.632351251">
        <ele>266.00000</ele>
        <time>2019-04-02T13:14:01Z</time>
      </trkpt>
      <trkpt lat="41.57344738" lon="1.632042210">
        <ele>265.00000</ele>
        <time>2019-04-02T13:14:04Z</time>
      </trkpt>
      <trkpt lat="41.57336859" lon="1.631706347">
        <ele>263.00000</ele>
        <time>2019-04-02T13:14:07Z</time>
      </trkpt>
      <trkpt lat="41.57332853" lon="1.631467044">
        <ele>262.00000</ele>
        <time>2019-04-02T13:14:09Z</time>
      </trkpt>
      <trkpt lat="41.57330338" lon="1.631351122">
        <ele>262.00000</ele>
        <time>2019-04-02T13:14:10Z</time>
      </trkpt>
      <trkpt lat="41.57324873" lon="1.631027078">
        <ele>261.00000</ele>
        <time>2019-04-02T13:14:13Z</time>
      </trkpt>
      <trkpt lat="41.57319056" lon="1.630333475">
        <ele>262.00000</ele>
        <time>2019-04-02T13:14:20Z</time>
      </trkpt>
      <trkpt lat="41.57318109" lon="1.630144380">
        <ele>263.00000</ele>
        <time>2019-04-02T13:14:22Z</time>
      </trkpt>
      <trkpt lat="41.57317019" lon="1.629682537">
        <ele>263.00000</ele>
        <time>2019-04-02T13:14:27Z</time>
      </trkpt>
      <trkpt lat="41.57317413" lon="1.629594359">
        <ele>263.00000</ele>
        <time>2019-04-02T13:14:28Z</time>
      </trkpt>
      <trkpt lat="41.57318151" lon="1.629070071">
        <ele>263.00000</ele>
        <time>2019-04-02T13:14:34Z</time>
      </trkpt>
      <trkpt lat="41.57320448" lon="1.628812579">
        <ele>263.00000</ele>
        <time>2019-04-02T13:14:37Z</time>
      </trkpt>
      <trkpt lat="41.57316961" lon="1.628459198">
        <ele>263.00000</ele>
        <time>2019-04-02T13:14:41Z</time>
      </trkpt>
      <trkpt lat="41.57323331" lon="1.627944298">
        <ele>263.00000</ele>
        <time>2019-04-02T13:14:47Z</time>
      </trkpt>
      <trkpt lat="41.57335837" lon="1.627461165">
        <ele>264.00000</ele>
        <time>2019-04-02T13:14:53Z</time>
      </trkpt>
      <trkpt lat="41.57357303" lon="1.626940565">
        <ele>264.00000</ele>
        <time>2019-04-02T13:15:00Z</time>
      </trkpt>
      <trkpt lat="41.57384603" lon="1.626467071">
        <ele>265.00000</ele>
        <time>2019-04-02T13:15:07Z</time>
      </trkpt>
      <trkpt lat="41.57396111" lon="1.626264983">
        <ele>265.00000</ele>
        <time>2019-04-02T13:15:10Z</time>
      </trkpt>
      <trkpt lat="41.57419430" lon="1.625869777">
        <ele>265.00000</ele>
        <time>2019-04-02T13:15:16Z</time>
      </trkpt>
      <trkpt lat="41.57435045" lon="1.625606333">
        <ele>266.00000</ele>
        <time>2019-04-02T13:15:20Z</time>
      </trkpt>
      <trkpt lat="41.57446637" lon="1.625391673">
        <ele>266.00000</ele>
        <time>2019-04-02T13:15:23Z</time>
      </trkpt>
      <trkpt lat="41.57474004" lon="1.624920358">
        <ele>266.00000</ele>
        <time>2019-04-02T13:15:30Z</time>
      </trkpt>
      <trkpt lat="41.57477793" lon="1.624860595">
        <ele>266.00000</ele>
        <time>2019-04-02T13:15:31Z</time>
      </trkpt>
      <trkpt lat="41.57481271" lon="1.624797480">
        <ele>266.00000</ele>
        <time>2019-04-02T13:15:32Z</time>
      </trkpt>
      <trkpt lat="41.57499125" lon="1.624501934">
        <ele>267.00000</ele>
        <time>2019-04-02T13:15:37Z</time>
      </trkpt>
      <trkpt lat="41.57532879" lon="1.624021651">
        <ele>268.00000</ele>
        <time>2019-04-02T13:15:46Z</time>
      </trkpt>
      <trkpt lat="41.57555325" lon="1.623697858">
        <ele>269.00000</ele>
        <time>2019-04-02T13:15:52Z</time>
      </trkpt>
      <trkpt lat="41.57558737" lon="1.623634323">
        <ele>269.00000</ele>
        <time>2019-04-02T13:15:53Z</time>
      </trkpt>
      <trkpt lat="41.57577143" lon="1.623192932">
        <ele>268.00000</ele>
        <time>2019-04-02T13:15:59Z</time>
      </trkpt>
      <trkpt lat="41.57601359" lon="1.622710386">
        <ele>269.00000</ele>
        <time>2019-04-02T13:16:06Z</time>
      </trkpt>
      <trkpt lat="41.57616153" lon="1.622354155">
        <ele>269.00000</ele>
        <time>2019-04-02T13:16:11Z</time>
      </trkpt>
      <trkpt lat="41.57628298" lon="1.621854593">
        <ele>269.00000</ele>
        <time>2019-04-02T13:16:17Z</time>
      </trkpt>
      <trkpt lat="41.57641357" lon="1.621299460">
        <ele>269.00000</ele>
        <time>2019-04-02T13:16:24Z</time>
      </trkpt>
      <trkpt lat="41.57644073" lon="1.621221592">
        <ele>269.00000</ele>
        <time>2019-04-02T13:16:25Z</time>
      </trkpt>
      <trkpt lat="41.57654073" lon="1.621004668">
        <ele>269.00000</ele>
        <time>2019-04-02T13:16:28Z</time>
      </trkpt>
      <trkpt lat="41.57660108" lon="1.620857063">
        <ele>269.00000</ele>
        <time>2019-04-02T13:16:30Z</time>
      </trkpt>
      <trkpt lat="41.57676796" lon="1.620475519">
        <ele>269.00000</ele>
        <time>2019-04-02T13:16:35Z</time>
      </trkpt>
      <trkpt lat="41.57694985" lon="1.620040247">
        <ele>270.00000</ele>
        <time>2019-04-02T13:16:41Z</time>
      </trkpt>
      <trkpt lat="41.57697298" lon="1.619958607">
        <ele>270.00000</ele>
        <time>2019-04-02T13:16:42Z</time>
      </trkpt>
      <trkpt lat="41.57700265" lon="1.619788454">
        <ele>269.00000</ele>
        <time>2019-04-02T13:16:44Z</time>
      </trkpt>
      <trkpt lat="41.57700207" lon="1.619608327">
        <ele>269.00000</ele>
        <time>2019-04-02T13:16:46Z</time>
      </trkpt>
      <trkpt lat="41.57706007" lon="1.619083955">
        <ele>269.00000</ele>
        <time>2019-04-02T13:16:52Z</time>
      </trkpt>
      <trkpt lat="41.57709510" lon="1.618827888">
        <ele>269.00000</ele>
        <time>2019-04-02T13:16:55Z</time>
      </trkpt>
      <trkpt lat="41.57708530" lon="1.618741303">
        <ele>270.00000</ele>
        <time>2019-04-02T13:16:56Z</time>
      </trkpt>
      <trkpt lat="41.57702352" lon="1.618327572">
        <ele>270.00000</ele>
        <time>2019-04-02T13:17:01Z</time>
      </trkpt>
      <trkpt lat="41.57702797" lon="1.617879644">
        <ele>269.00000</ele>
        <time>2019-04-02T13:17:06Z</time>
      </trkpt>
      <trkpt lat="41.57699687" lon="1.617535231">
        <ele>270.00000</ele>
        <time>2019-04-02T13:17:10Z</time>
      </trkpt>
      <trkpt lat="41.57695856" lon="1.617374802">
        <ele>270.00000</ele>
        <time>2019-04-02T13:17:12Z</time>
      </trkpt>
      <trkpt lat="41.57683979" lon="1.617054194">
        <ele>271.00000</ele>
        <time>2019-04-02T13:17:16Z</time>
      </trkpt>
      <trkpt lat="41.57675966" lon="1.616898374">
        <ele>271.00000</ele>
        <time>2019-04-02T13:17:18Z</time>
      </trkpt>
      <trkpt lat="41.57643545" lon="1.616293285">
        <ele>270.00000</ele>
        <time>2019-04-02T13:17:26Z</time>
      </trkpt>
      <trkpt lat="41.57639237" lon="1.616217093">
        <ele>270.00000</ele>
        <time>2019-04-02T13:17:27Z</time>
      </trkpt>
      <trkpt lat="41.57622691" lon="1.615904700">
        <ele>269.00000</ele>
        <time>2019-04-02T13:17:31Z</time>
      </trkpt>
      <trkpt lat="41.57610135" lon="1.615673275">
        <ele>269.00000</ele>
        <time>2019-04-02T13:17:34Z</time>
      </trkpt>
      <trkpt lat="41.57592851" lon="1.615258958">
        <ele>269.00000</ele>
        <time>2019-04-02T13:17:39Z</time>
      </trkpt>
      <trkpt lat="41.57579272" lon="1.614722684">
        <ele>269.00000</ele>
        <time>2019-04-02T13:17:45Z</time>
      </trkpt>
      <trkpt lat="41.57575283" lon="1.614088760">
        <ele>270.00000</ele>
        <time>2019-04-02T13:17:52Z</time>
      </trkpt>
      <trkpt lat="41.57580882" lon="1.613559275">
        <ele>270.00000</ele>
        <time>2019-04-02T13:17:58Z</time>
      </trkpt>
      <trkpt lat="41.57582818" lon="1.613473780">
        <ele>270.00000</ele>
        <time>2019-04-02T13:17:59Z</time>
      </trkpt>
      <trkpt lat="41.57596799" lon="1.612987713">
        <ele>271.00000</ele>
        <time>2019-04-02T13:18:05Z</time>
      </trkpt>
      <trkpt lat="41.57610721" lon="1.612661406">
        <ele>271.00000</ele>
        <time>2019-04-02T13:18:10Z</time>
      </trkpt>
      <trkpt lat="41.57616228" lon="1.612546909">
        <ele>271.00000</ele>
        <time>2019-04-02T13:18:12Z</time>
      </trkpt>
      <trkpt lat="41.57624032" lon="1.612383881">
        <ele>272.00000</ele>
        <time>2019-04-02T13:18:15Z</time>
      </trkpt>
      <trkpt lat="41.57628768" lon="1.612285310">
        <ele>272.00000</ele>
        <time>2019-04-02T13:18:17Z</time>
      </trkpt>
      <trkpt lat="41.57632984" lon="1.612191516">
        <ele>272.00000</ele>
        <time>2019-04-02T13:18:21Z</time>
      </trkpt>
      <trkpt lat="41.57636638" lon="1.612106356">
        <ele>272.00000</ele>
        <time>2019-04-02T13:18:26Z</time>
      </trkpt>
      <trkpt lat="41.57637451" lon="1.611953638">
        <ele>272.00000</ele>
        <time>2019-04-02T13:18:29Z</time>
      </trkpt>
      <trkpt lat="41.57635213" lon="1.611900832">
        <ele>272.00000</ele>
        <time>2019-04-02T13:18:30Z</time>
      </trkpt>
      <trkpt lat="41.57629949" lon="1.611782815">
        <ele>272.00000</ele>
        <time>2019-04-02T13:18:32Z</time>
      </trkpt>
      <trkpt lat="41.57619615" lon="1.611610986">
        <ele>272.00000</ele>
        <time>2019-04-02T13:18:35Z</time>
      </trkpt>
      <trkpt lat="41.57598157" lon="1.611347459">
        <ele>272.00000</ele>
        <time>2019-04-02T13:18:40Z</time>
      </trkpt>
      <trkpt lat="41.57593513" lon="1.611308231">
        <ele>273.00000</ele>
        <time>2019-04-02T13:18:41Z</time>
      </trkpt>
      <trkpt lat="41.57588669" lon="1.611279649">
        <ele>273.00000</ele>
        <time>2019-04-02T13:18:42Z</time>
      </trkpt>
      <trkpt lat="41.57579247" lon="1.611219383">
        <ele>274.00000</ele>
        <time>2019-04-02T13:18:44Z</time>
      </trkpt>
      <trkpt lat="41.57570036" lon="1.611169092">
        <ele>274.00000</ele>
        <time>2019-04-02T13:18:46Z</time>
      </trkpt>
      <trkpt lat="41.57555812" lon="1.611094577">
        <ele>275.00000</ele>
        <time>2019-04-02T13:18:49Z</time>
      </trkpt>
      <trkpt lat="41.57537539" lon="1.611002627">
        <ele>276.00000</ele>
        <time>2019-04-02T13:18:53Z</time>
      </trkpt>
      <trkpt lat="41.57525695" lon="1.610941020">
        <ele>277.00000</ele>
        <time>2019-04-02T13:18:56Z</time>
      </trkpt>
      <trkpt lat="41.57508806" lon="1.610842281">
        <ele>278.00000</ele>
        <time>2019-04-02T13:19:00Z</time>
      </trkpt>
      <trkpt lat="41.57491941" lon="1.610758462">
        <ele>280.00000</ele>
        <time>2019-04-02T13:19:04Z</time>
      </trkpt>
      <trkpt lat="41.57469813" lon="1.610700292">
        <ele>281.00000</ele>
        <time>2019-04-02T13:19:09Z</time>
      </trkpt>
      <trkpt lat="41.57451700" lon="1.610670955">
        <ele>282.00000</ele>
        <time>2019-04-02T13:19:13Z</time>
      </trkpt>
      <trkpt lat="41.57447358" lon="1.610653689">
        <ele>282.00000</ele>
        <time>2019-04-02T13:19:14Z</time>
      </trkpt>
      <trkpt lat="41.57435481" lon="1.610604403">
        <ele>283.00000</ele>
        <time>2019-04-02T13:19:17Z</time>
      </trkpt>
      <trkpt lat="41.57424727" lon="1.610552435">
        <ele>285.00000</ele>
        <time>2019-04-02T13:19:20Z</time>
      </trkpt>
      <trkpt lat="41.57413998" lon="1.610494349">
        <ele>287.00000</ele>
        <time>2019-04-02T13:19:23Z</time>
      </trkpt>
      <trkpt lat="41.57410528" lon="1.610477669">
        <ele>287.00000</ele>
        <time>2019-04-02T13:19:24Z</time>
      </trkpt>
      <trkpt lat="41.57395851" lon="1.610397454">
        <ele>288.00000</ele>
        <time>2019-04-02T13:19:28Z</time>
      </trkpt>
      <trkpt lat="41.57388165" lon="1.610344899">
        <ele>288.00000</ele>
        <time>2019-04-02T13:19:30Z</time>
      </trkpt>
      <trkpt lat="41.57384167" lon="1.610304079">
        <ele>288.00000</ele>
        <time>2019-04-02T13:19:31Z</time>
      </trkpt>
      <trkpt lat="41.57371016" lon="1.610149936">
        <ele>287.00000</ele>
        <time>2019-04-02T13:19:34Z</time>
      </trkpt>
      <trkpt lat="41.57340682" lon="1.609824970">
        <ele>287.00000</ele>
        <time>2019-04-02T13:19:41Z</time>
      </trkpt>
      <trkpt lat="41.57329651" lon="1.609662780">
        <ele>287.00000</ele>
        <time>2019-04-02T13:19:44Z</time>
      </trkpt>
      <trkpt lat="41.57325837" lon="1.609530262">
        <ele>288.00000</ele>
        <time>2019-04-02T13:19:46Z</time>
      </trkpt>
      <trkpt lat="41.57324253" lon="1.609395062">
        <ele>288.00000</ele>
        <time>2019-04-02T13:19:48Z</time>
      </trkpt>
      <trkpt lat="41.57320934" lon="1.609126422">
        <ele>289.00000</ele>
        <time>2019-04-02T13:19:52Z</time>
      </trkpt>
      <trkpt lat="41.57319995" lon="1.609066240">
        <ele>289.00000</ele>
        <time>2019-04-02T13:19:53Z</time>
      </trkpt>
      <trkpt lat="41.57318034" lon="1.608898937">
        <ele>290.00000</ele>
        <time>2019-04-02T13:19:57Z</time>
      </trkpt>
      <trkpt lat="41.57319861" lon="1.608751919">
        <ele>290.00000</ele>
        <time>2019-04-02T13:20:01Z</time>
      </trkpt>
      <trkpt lat="41.57313021" lon="1.608730545">
        <ele>290.00000</ele>
        <time>2019-04-02T13:20:03Z</time>
      </trkpt>
      <trkpt lat="41.57296216" lon="1.608813274">
        <ele>291.00000</ele>
        <time>2019-04-02T13:20:07Z</time>
      </trkpt>
      <trkpt lat="41.57287088" lon="1.608834899">
        <ele>291.00000</ele>
        <time>2019-04-02T13:20:09Z</time>
      </trkpt>
      <trkpt lat="41.57263593" lon="1.608911091">
        <ele>292.00000</ele>
        <time>2019-04-02T13:20:14Z</time>
      </trkpt>
      <trkpt lat="41.57258749" lon="1.608926765">
        <ele>292.00000</ele>
        <time>2019-04-02T13:20:15Z</time>
      </trkpt>
      <trkpt lat="41.57235765" lon="1.608992647">
        <ele>294.00000</ele>
        <time>2019-04-02T13:20:20Z</time>
      </trkpt>
      <trkpt lat="41.57226889" lon="1.609030114">
        <ele>294.00000</ele>
        <time>2019-04-02T13:20:22Z</time>
      </trkpt>
      <trkpt lat="41.57208650" lon="1.609100438">
        <ele>295.00000</ele>
        <time>2019-04-02T13:20:26Z</time>
      </trkpt>
      <trkpt lat="41.57185239" lon="1.609178390">
        <ele>296.00000</ele>
        <time>2019-04-02T13:20:31Z</time>
      </trkpt>
      <trkpt lat="41.57157889" lon="1.609264556">
        <ele>297.00000</ele>
        <time>2019-04-02T13:20:37Z</time>
      </trkpt>
      <trkpt lat="41.57143388" lon="1.609324486">
        <ele>298.00000</ele>
        <time>2019-04-02T13:20:40Z</time>
      </trkpt>
      <trkpt lat="41.57138594" lon="1.609344519">
        <ele>298.00000</ele>
        <time>2019-04-02T13:20:41Z</time>
      </trkpt>
      <trkpt lat="41.57118368" lon="1.609410066">
        <ele>299.00000</ele>
        <time>2019-04-02T13:20:45Z</time>
      </trkpt>
      <trkpt lat="41.57098419" lon="1.609454993">
        <ele>300.00000</ele>
        <time>2019-04-02T13:20:49Z</time>
      </trkpt>
      <trkpt lat="41.57089233" lon="1.609470080">
        <ele>300.00000</ele>
        <time>2019-04-02T13:20:51Z</time>
      </trkpt>
      <trkpt lat="41.57070030" lon="1.609532777">
        <ele>302.00000</ele>
        <time>2019-04-02T13:20:55Z</time>
      </trkpt>
      <trkpt lat="41.57055127" lon="1.609575441">
        <ele>302.00000</ele>
        <time>2019-04-02T13:20:58Z</time>
      </trkpt>
      <trkpt lat="41.57050089" lon="1.609589187">
        <ele>303.00000</ele>
        <time>2019-04-02T13:20:59Z</time>
      </trkpt>
      <trkpt lat="41.57020250" lon="1.609673509">
        <ele>304.00000</ele>
        <time>2019-04-02T13:21:05Z</time>
      </trkpt>
      <trkpt lat="41.57009965" lon="1.609701421">
        <ele>304.00000</ele>
        <time>2019-04-02T13:21:07Z</time>
      </trkpt>
      <trkpt lat="41.56994040" lon="1.609745929">
        <ele>305.00000</ele>
        <time>2019-04-02T13:21:10Z</time>
      </trkpt>
      <trkpt lat="41.56983235" lon="1.609751628">
        <ele>306.00000</ele>
        <time>2019-04-02T13:21:12Z</time>
      </trkpt>
      <trkpt lat="41.56978156" lon="1.609738636">
        <ele>306.00000</ele>
        <time>2019-04-02T13:21:13Z</time>
      </trkpt>
      <trkpt lat="41.56962725" lon="1.609680801">
        <ele>306.00000</ele>
        <time>2019-04-02T13:21:16Z</time>
      </trkpt>
      <trkpt lat="41.56947403" lon="1.609592037">
        <ele>308.00000</ele>
        <time>2019-04-02T13:21:19Z</time>
      </trkpt>
      <trkpt lat="41.56932944" lon="1.609497992">
        <ele>309.00000</ele>
        <time>2019-04-02T13:21:22Z</time>
      </trkpt>
      <trkpt lat="41.56915702" lon="1.609344184">
        <ele>310.00000</ele>
        <time>2019-04-02T13:21:26Z</time>
      </trkpt>
      <trkpt lat="41.56911495" lon="1.609306382">
        <ele>310.00000</ele>
        <time>2019-04-02T13:21:27Z</time>
      </trkpt>
      <trkpt lat="41.56894991" lon="1.609164811">
        <ele>311.00000</ele>
        <time>2019-04-02T13:21:31Z</time>
      </trkpt>
      <trkpt lat="41.56890607" lon="1.609139582">
        <ele>311.00000</ele>
        <time>2019-04-02T13:21:32Z</time>
      </trkpt>
      <trkpt lat="41.56881395" lon="1.609102869">
        <ele>311.00000</ele>
        <time>2019-04-02T13:21:34Z</time>
      </trkpt>
      <trkpt lat="41.56876894" lon="1.609072275">
        <ele>311.00000</ele>
        <time>2019-04-02T13:21:35Z</time>
      </trkpt>
      <trkpt lat="41.56870138" lon="1.608971524">
        <ele>312.00000</ele>
        <time>2019-04-02T13:21:37Z</time>
      </trkpt>
      <trkpt lat="41.56863869" lon="1.608776729">
        <ele>312.00000</ele>
        <time>2019-04-02T13:21:40Z</time>
      </trkpt>
      <trkpt lat="41.56861513" lon="1.608711769">
        <ele>312.00000</ele>
        <time>2019-04-02T13:21:41Z</time>
      </trkpt>
      <trkpt lat="41.56858504" lon="1.608652509">
        <ele>312.00000</ele>
        <time>2019-04-02T13:21:42Z</time>
      </trkpt>
      <trkpt lat="41.56850717" lon="1.608547233">
        <ele>312.00000</ele>
        <time>2019-04-02T13:21:44Z</time>
      </trkpt>
      <trkpt lat="41.56845873" lon="1.608507670">
        <ele>313.00000</ele>
        <time>2019-04-02T13:21:45Z</time>
      </trkpt>
      <trkpt lat="41.56824407" lon="1.608445057">
        <ele>313.00000</ele>
        <time>2019-04-02T13:21:49Z</time>
      </trkpt>
      <trkpt lat="41.56819009" lon="1.608455367">
        <ele>313.00000</ele>
        <time>2019-04-02T13:21:50Z</time>
      </trkpt>
      <trkpt lat="41.56804047" lon="1.608532229">
        <ele>314.00000</ele>
        <time>2019-04-02T13:21:53Z</time>
      </trkpt>
      <trkpt lat="41.56792346" lon="1.608687797">
        <ele>314.00000</ele>
        <time>2019-04-02T13:21:56Z</time>
      </trkpt>
      <trkpt lat="41.56789303" lon="1.608751583">
        <ele>315.00000</ele>
        <time>2019-04-02T13:21:57Z</time>
      </trkpt>
      <trkpt lat="41.56782313" lon="1.608967250">
        <ele>315.00000</ele>
        <time>2019-04-02T13:22:00Z</time>
      </trkpt>
      <trkpt lat="41.56777317" lon="1.609116867">
        <ele>315.00000</ele>
        <time>2019-04-02T13:22:02Z</time>
      </trkpt>
      <trkpt lat="41.56760696" lon="1.609223233">
        <ele>315.00000</ele>
        <time>2019-04-02T13:22:05Z</time>
      </trkpt>
      <trkpt lat="41.56743245" lon="1.609166907">
        <ele>316.00000</ele>
        <time>2019-04-02T13:22:08Z</time>
      </trkpt>
      <trkpt lat="41.56737889" lon="1.609143102">
        <ele>316.00000</ele>
        <time>2019-04-02T13:22:09Z</time>
      </trkpt>
      <trkpt lat="41.56732466" lon="1.609126422">
        <ele>316.00000</ele>
        <time>2019-04-02T13:22:10Z</time>
      </trkpt>
      <trkpt lat="41.56721854" lon="1.609118040">
        <ele>317.00000</ele>
        <time>2019-04-02T13:22:12Z</time>
      </trkpt>
      <trkpt lat="41.56716632" lon="1.609121058">
        <ele>317.00000</ele>
        <time>2019-04-02T13:22:13Z</time>
      </trkpt>
      <trkpt lat="41.56711435" lon="1.609123907">
        <ele>317.00000</ele>
        <time>2019-04-02T13:22:14Z</time>
      </trkpt>
      <trkpt lat="41.56706155" lon="1.609127596">
        <ele>318.00000</ele>
        <time>2019-04-02T13:22:15Z</time>
      </trkpt>
      <trkpt lat="41.56680322" lon="1.609153831">
        <ele>319.00000</ele>
        <time>2019-04-02T13:22:20Z</time>
      </trkpt>
      <trkpt lat="41.56670062" lon="1.609173528">
        <ele>320.00000</ele>
        <time>2019-04-02T13:22:22Z</time>
      </trkpt>
      <trkpt lat="41.56665058" lon="1.609184592">
        <ele>320.00000</ele>
        <time>2019-04-02T13:22:23Z</time>
      </trkpt>
      <trkpt lat="41.56650382" lon="1.609219880">
        <ele>321.00000</ele>
        <time>2019-04-02T13:22:26Z</time>
      </trkpt>
      <trkpt lat="41.56635931" lon="1.609263550">
        <ele>322.00000</ele>
        <time>2019-04-02T13:22:29Z</time>
      </trkpt>
      <trkpt lat="41.56631187" lon="1.609275536">
        <ele>323.00000</ele>
        <time>2019-04-02T13:22:30Z</time>
      </trkpt>
      <trkpt lat="41.56621246" lon="1.609287355">
        <ele>324.00000</ele>
        <time>2019-04-02T13:22:32Z</time>
      </trkpt>
      <trkpt lat="41.56610936" lon="1.609277129">
        <ele>324.00000</ele>
        <time>2019-04-02T13:22:34Z</time>
      </trkpt>
      <trkpt lat="41.56606351" lon="1.609244272">
        <ele>324.00000</ele>
        <time>2019-04-02T13:22:35Z</time>
      </trkpt>
      <trkpt lat="41.56602244" lon="1.609204541">
        <ele>325.00000</ele>
        <time>2019-04-02T13:22:36Z</time>
      </trkpt>
      <trkpt lat="41.56592362" lon="1.609177971">
        <ele>325.00000</ele>
        <time>2019-04-02T13:22:38Z</time>
      </trkpt>
      <trkpt lat="41.56579303" lon="1.609280398">
        <ele>325.00000</ele>
        <time>2019-04-02T13:22:41Z</time>
      </trkpt>
      <trkpt lat="41.56574408" lon="1.609324989">
        <ele>326.00000</ele>
        <time>2019-04-02T13:22:42Z</time>
      </trkpt>
      <trkpt lat="41.56568801" lon="1.609346279">
        <ele>326.00000</ele>
        <time>2019-04-02T13:22:43Z</time>
      </trkpt>
      <trkpt lat="41.56563193" lon="1.609336221">
        <ele>326.00000</ele>
        <time>2019-04-02T13:22:44Z</time>
      </trkpt>
      <trkpt lat="41.56542096" lon="1.609282493">
        <ele>327.00000</ele>
        <time>2019-04-02T13:22:48Z</time>
      </trkpt>
      <trkpt lat="41.56532054" lon="1.609256090">
        <ele>327.00000</ele>
        <time>2019-04-02T13:22:50Z</time>
      </trkpt>
      <trkpt lat="41.56526816" lon="1.609246535">
        <ele>328.00000</ele>
        <time>2019-04-02T13:22:51Z</time>
      </trkpt>
      <trkpt lat="41.56516221" lon="1.609242428">
        <ele>329.00000</ele>
        <time>2019-04-02T13:22:53Z</time>
      </trkpt>
      <trkpt lat="41.56505693" lon="1.609260868">
        <ele>329.00000</ele>
        <time>2019-04-02T13:22:55Z</time>
      </trkpt>
      <trkpt lat="41.56478988" lon="1.609326750">
        <ele>330.00000</ele>
        <time>2019-04-02T13:23:00Z</time>
      </trkpt>
      <trkpt lat="41.56457958" lon="1.609384417">
        <ele>331.00000</ele>
        <time>2019-04-02T13:23:04Z</time>
      </trkpt>
      <trkpt lat="41.56425151" lon="1.609476283">
        <ele>332.00000</ele>
        <time>2019-04-02T13:23:10Z</time>
      </trkpt>
      <trkpt lat="41.56412956" lon="1.609481982">
        <ele>332.00000</ele>
        <time>2019-04-02T13:23:12Z</time>
      </trkpt>
      <trkpt lat="41.56400978" lon="1.609466811">
        <ele>332.00000</ele>
        <time>2019-04-02T13:23:14Z</time>
      </trkpt>
      <trkpt lat="41.56389947" lon="1.609421046">
        <ele>332.00000</ele>
        <time>2019-04-02T13:23:16Z</time>
      </trkpt>
      <trkpt lat="41.56352665" lon="1.609215522">
        <ele>333.00000</ele>
        <time>2019-04-02T13:23:23Z</time>
      </trkpt>
      <trkpt lat="41.56347082" lon="1.609185431">
        <ele>333.00000</ele>
        <time>2019-04-02T13:23:24Z</time>
      </trkpt>
      <trkpt lat="41.56297621" lon="1.608916958">
        <ele>334.00000</ele>
        <time>2019-04-02T13:23:33Z</time>
      </trkpt>
      <trkpt lat="41.56286733" lon="1.608856189">
        <ele>334.00000</ele>
        <time>2019-04-02T13:23:35Z</time>
      </trkpt>
      <trkpt lat="41.56248377" lon="1.608652006">
        <ele>336.00000</ele>
        <time>2019-04-02T13:23:42Z</time>
      </trkpt>
      <trkpt lat="41.56242887" lon="1.608619904">
        <ele>336.00000</ele>
        <time>2019-04-02T13:23:43Z</time>
      </trkpt>
      <trkpt lat="41.56209435" lon="1.608440196">
        <ele>337.00000</ele>
        <time>2019-04-02T13:23:49Z</time>
      </trkpt>
      <trkpt lat="41.56198589" lon="1.608377583">
        <ele>337.00000</ele>
        <time>2019-04-02T13:23:51Z</time>
      </trkpt>
      <trkpt lat="41.56161147" lon="1.608174573">
        <ele>338.00000</ele>
        <time>2019-04-02T13:23:58Z</time>
      </trkpt>
      <trkpt lat="41.56155673" lon="1.608147416">
        <ele>338.00000</ele>
        <time>2019-04-02T13:23:59Z</time>
      </trkpt>
      <trkpt lat="41.56116823" lon="1.607941975">
        <ele>339.00000</ele>
        <time>2019-04-02T13:24:06Z</time>
      </trkpt>
      <trkpt lat="41.56094695" lon="1.607820019">
        <ele>340.00000</ele>
        <time>2019-04-02T13:24:10Z</time>
      </trkpt>
      <trkpt lat="41.56089146" lon="1.607793532">
        <ele>340.00000</ele>
        <time>2019-04-02T13:24:11Z</time>
      </trkpt>
      <trkpt lat="41.56051553" lon="1.607594965">
        <ele>341.00000</ele>
        <time>2019-04-02T13:24:18Z</time>
      </trkpt>
      <trkpt lat="41.56046465" lon="1.607562275">
        <ele>341.00000</ele>
        <time>2019-04-02T13:24:19Z</time>
      </trkpt>
      <trkpt lat="41.56022728" lon="1.607353566">
        <ele>342.00000</ele>
        <time>2019-04-02T13:24:24Z</time>
      </trkpt>
      <trkpt lat="41.56003282" lon="1.607077801">
        <ele>343.00000</ele>
        <time>2019-04-02T13:24:29Z</time>
      </trkpt>
      <trkpt lat="41.55999694" lon="1.607023067">
        <ele>344.00000</ele>
        <time>2019-04-02T13:24:30Z</time>
      </trkpt>
      <trkpt lat="41.55975672" lon="1.606695167">
        <ele>344.00000</ele>
        <time>2019-04-02T13:24:36Z</time>
      </trkpt>
      <trkpt lat="41.55965739" lon="1.606588717">
        <ele>345.00000</ele>
        <time>2019-04-02T13:24:38Z</time>
      </trkpt>
      <trkpt lat="41.55930913" lon="1.606328207">
        <ele>344.00000</ele>
        <time>2019-04-02T13:24:44Z</time>
      </trkpt>
      <trkpt lat="41.55877763" lon="1.605971725">
        <ele>345.00000</ele>
        <time>2019-04-02T13:24:53Z</time>
      </trkpt>
      <trkpt lat="41.55861611" lon="1.605868628">
        <ele>346.00000</ele>
        <time>2019-04-02T13:24:56Z</time>
      </trkpt>
      <trkpt lat="41.55841268" lon="1.605731165">
        <ele>347.00000</ele>
        <time>2019-04-02T13:25:00Z</time>
      </trkpt>
      <trkpt lat="41.55836356" lon="1.605697469">
        <ele>347.00000</ele>
        <time>2019-04-02T13:25:01Z</time>
      </trkpt>
      <trkpt lat="41.55822048" lon="1.605600407">
        <ele>348.00000</ele>
        <time>2019-04-02T13:25:04Z</time>
      </trkpt>
      <trkpt lat="41.55803575" lon="1.605477947">
        <ele>349.00000</ele>
        <time>2019-04-02T13:25:08Z</time>
      </trkpt>
      <trkpt lat="41.55799065" lon="1.605449952">
        <ele>349.00000</ele>
        <time>2019-04-02T13:25:09Z</time>
      </trkpt>
      <trkpt lat="41.55785872" lon="1.605360265">
        <ele>350.00000</ele>
        <time>2019-04-02T13:25:12Z</time>
      </trkpt>
      <trkpt lat="41.55765504" lon="1.605179551">
        <ele>351.00000</ele>
        <time>2019-04-02T13:25:17Z</time>
      </trkpt>
      <trkpt lat="41.55753627" lon="1.604965478">
        <ele>352.00000</ele>
        <time>2019-04-02T13:25:21Z</time>
      </trkpt>
      <trkpt lat="41.55751699" lon="1.604902110">
        <ele>352.00000</ele>
        <time>2019-04-02T13:25:22Z</time>
      </trkpt>
      <trkpt lat="41.55748212" lon="1.604771940">
        <ele>353.00000</ele>
        <time>2019-04-02T13:25:24Z</time>
      </trkpt>
      <trkpt lat="41.55746670" lon="1.604706058">
        <ele>353.00000</ele>
        <time>2019-04-02T13:25:25Z</time>
      </trkpt>
      <trkpt lat="41.55738053" lon="1.604382516">
        <ele>354.00000</ele>
        <time>2019-04-02T13:25:30Z</time>
      </trkpt>
      <trkpt lat="41.55733108" lon="1.604177327">
        <ele>355.00000</ele>
        <time>2019-04-02T13:25:33Z</time>
      </trkpt>
      <trkpt lat="41.55724341" lon="1.603823611">
        <ele>355.00000</ele>
        <time>2019-04-02T13:25:38Z</time>
      </trkpt>
      <trkpt lat="41.55713059" lon="1.603404600">
        <ele>356.00000</ele>
        <time>2019-04-02T13:25:44Z</time>
      </trkpt>
      <trkpt lat="41.55710963" lon="1.603331845">
        <ele>356.00000</ele>
        <time>2019-04-02T13:25:45Z</time>
      </trkpt>
      <trkpt lat="41.55699807" lon="1.602990115">
        <ele>357.00000</ele>
        <time>2019-04-02T13:25:50Z</time>
      </trkpt>
      <trkpt lat="41.55696798" lon="1.602928256">
        <ele>357.00000</ele>
        <time>2019-04-02T13:25:51Z</time>
      </trkpt>
      <trkpt lat="41.55693193" lon="1.602873271">
        <ele>357.00000</ele>
        <time>2019-04-02T13:25:52Z</time>
      </trkpt>
      <trkpt lat="41.55677268" lon="1.602677889">
        <ele>357.00000</ele>
        <time>2019-04-02T13:25:56Z</time>
      </trkpt>
      <trkpt lat="41.55668693" lon="1.602585939">
        <ele>358.00000</ele>
        <time>2019-04-02T13:25:58Z</time>
      </trkpt>
      <trkpt lat="41.55643279" lon="1.602315707">
        <ele>359.00000</ele>
        <time>2019-04-02T13:26:04Z</time>
      </trkpt>
      <trkpt lat="41.55639155" lon="1.602267846">
        <ele>359.00000</ele>
        <time>2019-04-02T13:26:05Z</time>
      </trkpt>
      <trkpt lat="41.55617723" lon="1.602034997">
        <ele>360.00000</ele>
        <time>2019-04-02T13:26:10Z</time>
      </trkpt>
      <trkpt lat="41.55609182" lon="1.601939192">
        <ele>360.00000</ele>
        <time>2019-04-02T13:26:12Z</time>
      </trkpt>
      <trkpt lat="41.55591177" lon="1.601768620">
        <ele>361.00000</ele>
        <time>2019-04-02T13:26:16Z</time>
      </trkpt>
      <trkpt lat="41.55568362" lon="1.601538620">
        <ele>362.00000</ele>
        <time>2019-04-02T13:26:21Z</time>
      </trkpt>
      <trkpt lat="41.55564154" lon="1.601490760">
        <ele>362.00000</ele>
        <time>2019-04-02T13:26:22Z</time>
      </trkpt>
      <trkpt lat="41.55542847" lon="1.601264951">
        <ele>364.00000</ele>
        <time>2019-04-02T13:26:27Z</time>
      </trkpt>
      <trkpt lat="41.55529989" lon="1.601129416">
        <ele>364.00000</ele>
        <time>2019-04-02T13:26:30Z</time>
      </trkpt>
      <trkpt lat="41.55517710" lon="1.600988348">
        <ele>365.00000</ele>
        <time>2019-04-02T13:26:33Z</time>
      </trkpt>
      <trkpt lat="41.55497107" lon="1.600762708">
        <ele>366.00000</ele>
        <time>2019-04-02T13:26:38Z</time>
      </trkpt>
      <trkpt lat="41.55472179" lon="1.600498678">
        <ele>367.00000</ele>
        <time>2019-04-02T13:26:44Z</time>
      </trkpt>
      <trkpt lat="41.55446522" lon="1.600238420">
        <ele>368.00000</ele>
        <time>2019-04-02T13:26:50Z</time>
      </trkpt>
      <trkpt lat="41.55429733" lon="1.600067177">
        <ele>369.00000</ele>
        <time>2019-04-02T13:26:54Z</time>
      </trkpt>
      <trkpt lat="41.55416515" lon="1.599933402">
        <ele>370.00000</ele>
        <time>2019-04-02T13:26:57Z</time>
      </trkpt>
      <trkpt lat="41.55407890" lon="1.599846566">
        <ele>369.00000</ele>
        <time>2019-04-02T13:26:59Z</time>
      </trkpt>
      <trkpt lat="41.55395502" lon="1.599714215">
        <ele>371.00000</ele>
        <time>2019-04-02T13:27:02Z</time>
      </trkpt>
      <trkpt lat="41.55391864" lon="1.599663756">
        <ele>371.00000</ele>
        <time>2019-04-02T13:27:03Z</time>
      </trkpt>
      <trkpt lat="41.55381680" lon="1.599484803">
        <ele>371.00000</ele>
        <time>2019-04-02T13:27:06Z</time>
      </trkpt>
      <trkpt lat="41.55364011" lon="1.599050955">
        <ele>371.00000</ele>
        <time>2019-04-02T13:27:12Z</time>
      </trkpt>
      <trkpt lat="41.55343358" lon="1.598478807">
        <ele>371.00000</ele>
        <time>2019-04-02T13:27:19Z</time>
      </trkpt>
      <trkpt lat="41.55319084" lon="1.597834993">
        <ele>372.00000</ele>
        <time>2019-04-02T13:27:27Z</time>
      </trkpt>
      <trkpt lat="41.55316326" lon="1.597761316">
        <ele>372.00000</ele>
        <time>2019-04-02T13:27:28Z</time>
      </trkpt>
      <trkpt lat="41.55313803" lon="1.597687974">
        <ele>373.00000</ele>
        <time>2019-04-02T13:27:29Z</time>
      </trkpt>
      <trkpt lat="41.55306452" lon="1.597477840">
        <ele>373.00000</ele>
        <time>2019-04-02T13:27:32Z</time>
      </trkpt>
      <trkpt lat="41.55298456" lon="1.597291762">
        <ele>375.00000</ele>
        <time>2019-04-02T13:27:35Z</time>
      </trkpt>
      <trkpt lat="41.55295665" lon="1.597238201">
        <ele>375.00000</ele>
        <time>2019-04-02T13:27:36Z</time>
      </trkpt>
      <trkpt lat="41.55279337" lon="1.596977859">
        <ele>376.00000</ele>
        <time>2019-04-02T13:27:41Z</time>
      </trkpt>
      <trkpt lat="41.55272447" lon="1.596876522">
        <ele>376.00000</ele>
        <time>2019-04-02T13:27:43Z</time>
      </trkpt>
      <trkpt lat="41.55269094" lon="1.596823716">
        <ele>377.00000</ele>
        <time>2019-04-02T13:27:44Z</time>
      </trkpt>
      <trkpt lat="41.55254971" lon="1.596619198">
        <ele>378.00000</ele>
        <time>2019-04-02T13:27:48Z</time>
      </trkpt>
      <trkpt lat="41.55243253" lon="1.596471844">
        <ele>379.00000</ele>
        <time>2019-04-02T13:27:51Z</time>
      </trkpt>
      <trkpt lat="41.55232809" lon="1.596322059">
        <ele>380.00000</ele>
        <time>2019-04-02T13:27:54Z</time>
      </trkpt>
      <trkpt lat="41.55223941" lon="1.596171017">
        <ele>381.00000</ele>
        <time>2019-04-02T13:27:57Z</time>
      </trkpt>
      <trkpt lat="41.55208786" lon="1.595876561">
        <ele>381.00000</ele>
        <time>2019-04-02T13:28:03Z</time>
      </trkpt>
      <trkpt lat="41.55207521" lon="1.595820989">
        <ele>382.00000</ele>
        <time>2019-04-02T13:28:04Z</time>
      </trkpt>
      <trkpt lat="41.55204704" lon="1.595568694">
        <ele>383.00000</ele>
        <time>2019-04-02T13:28:08Z</time>
      </trkpt>
      <trkpt lat="41.55204704" lon="1.595506751">
        <ele>383.00000</ele>
        <time>2019-04-02T13:28:09Z</time>
      </trkpt>
      <trkpt lat="41.55204704" lon="1.595445396">
        <ele>384.00000</ele>
        <time>2019-04-02T13:28:10Z</time>
      </trkpt>
      <trkpt lat="41.55205098" lon="1.595322266">
        <ele>384.00000</ele>
        <time>2019-04-02T13:28:12Z</time>
      </trkpt>
      <trkpt lat="41.55206901" lon="1.595082124">
        <ele>385.00000</ele>
        <time>2019-04-02T13:28:16Z</time>
      </trkpt>
      <trkpt lat="41.55207923" lon="1.594904931">
        <ele>386.00000</ele>
        <time>2019-04-02T13:28:19Z</time>
      </trkpt>
      <trkpt lat="41.55208242" lon="1.594787836">
        <ele>386.00000</ele>
        <time>2019-04-02T13:28:21Z</time>
      </trkpt>
      <trkpt lat="41.55207345" lon="1.594505365">
        <ele>388.00000</ele>
        <time>2019-04-02T13:28:26Z</time>
      </trkpt>
      <trkpt lat="41.55206582" lon="1.594451051">
        <ele>388.00000</ele>
        <time>2019-04-02T13:28:27Z</time>
      </trkpt>
      <trkpt lat="41.55203808" lon="1.594277126">
        <ele>389.00000</ele>
        <time>2019-04-02T13:28:30Z</time>
      </trkpt>
      <trkpt lat="41.55200153" lon="1.594108147">
        <ele>390.00000</ele>
        <time>2019-04-02T13:28:33Z</time>
      </trkpt>
      <trkpt lat="41.55198301" lon="1.594054419">
        <ele>390.00000</ele>
        <time>2019-04-02T13:28:34Z</time>
      </trkpt>
      <trkpt lat="41.55196641" lon="1.593998847">
        <ele>390.00000</ele>
        <time>2019-04-02T13:28:35Z</time>
      </trkpt>
      <trkpt lat="41.55187396" lon="1.593724004">
        <ele>391.00000</ele>
        <time>2019-04-02T13:28:40Z</time>
      </trkpt>
      <trkpt lat="41.55178855" lon="1.593502974">
        <ele>392.00000</ele>
        <time>2019-04-02T13:28:44Z</time>
      </trkpt>
      <trkpt lat="41.55176843" lon="1.593448659">
        <ele>392.00000</ele>
        <time>2019-04-02T13:28:45Z</time>
      </trkpt>
      <trkpt lat="41.55166709" lon="1.593178510">
        <ele>393.00000</ele>
        <time>2019-04-02T13:28:50Z</time>
      </trkpt>
      <trkpt lat="41.55160549" lon="1.593021936">
        <ele>394.00000</ele>
        <time>2019-04-02T13:28:53Z</time>
      </trkpt>
      <trkpt lat="41.55156450" lon="1.592920096">
        <ele>394.00000</ele>
        <time>2019-04-02T13:28:55Z</time>
      </trkpt>
      <trkpt lat="41.55150851" lon="1.592756230">
        <ele>395.00000</ele>
        <time>2019-04-02T13:28:58Z</time>
      </trkpt>
      <trkpt lat="41.55140960" lon="1.592497648">
        <ele>396.00000</ele>
        <time>2019-04-02T13:29:03Z</time>
      </trkpt>
      <trkpt lat="41.55139074" lon="1.592447189">
        <ele>397.00000</ele>
        <time>2019-04-02T13:29:04Z</time>
      </trkpt>
      <trkpt lat="41.55132159" lon="1.592248119">
        <ele>398.00000</ele>
        <time>2019-04-02T13:29:08Z</time>
      </trkpt>
      <trkpt lat="41.55123844" lon="1.592045696">
        <ele>399.00000</ele>
        <time>2019-04-02T13:29:12Z</time>
      </trkpt>
      <trkpt lat="41.55115990" lon="1.591850565">
        <ele>400.00000</ele>
        <time>2019-04-02T13:29:16Z</time>
      </trkpt>
      <trkpt lat="41.55105739" lon="1.591604305">
        <ele>401.00000</ele>
        <time>2019-04-02T13:29:21Z</time>
      </trkpt>
      <trkpt lat="41.55100702" lon="1.591507745">
        <ele>401.00000</ele>
        <time>2019-04-02T13:29:23Z</time>
      </trkpt>
      <trkpt lat="41.55079395" lon="1.591251511">
        <ele>401.00000</ele>
        <time>2019-04-02T13:29:29Z</time>
      </trkpt>
      <trkpt lat="41.55054694" lon="1.591122178">
        <ele>402.00000</ele>
        <time>2019-04-02T13:29:34Z</time>
      </trkpt>
      <trkpt lat="41.55028123" lon="1.590974992">
        <ele>401.00000</ele>
        <time>2019-04-02T13:29:39Z</time>
      </trkpt>
      <trkpt lat="41.55023672" lon="1.590925874">
        <ele>401.00000</ele>
        <time>2019-04-02T13:29:40Z</time>
      </trkpt>
      <trkpt lat="41.55012197" lon="1.590767120">
        <ele>402.00000</ele>
        <time>2019-04-02T13:29:43Z</time>
      </trkpt>
      <trkpt lat="41.55001603" lon="1.590612810">
        <ele>403.00000</ele>
        <time>2019-04-02T13:29:46Z</time>
      </trkpt>
      <trkpt lat="41.54997973" lon="1.590565703">
        <ele>403.00000</ele>
        <time>2019-04-02T13:29:47Z</time>
      </trkpt>
      <trkpt lat="41.54975082" lon="1.590208970">
        <ele>404.00000</ele>
        <time>2019-04-02T13:29:54Z</time>
      </trkpt>
      <trkpt lat="41.54957246" lon="1.589868497">
        <ele>405.00000</ele>
        <time>2019-04-02T13:30:00Z</time>
      </trkpt>
      <trkpt lat="41.54948654" lon="1.589697925">
        <ele>406.00000</ele>
        <time>2019-04-02T13:30:03Z</time>
      </trkpt>
      <trkpt lat="41.54942636" lon="1.589582506">
        <ele>406.00000</ele>
        <time>2019-04-02T13:30:05Z</time>
      </trkpt>
      <trkpt lat="41.54919913" lon="1.589111611">
        <ele>408.00000</ele>
        <time>2019-04-02T13:30:13Z</time>
      </trkpt>
      <trkpt lat="41.54908337" lon="1.588882701">
        <ele>409.00000</ele>
        <time>2019-04-02T13:30:17Z</time>
      </trkpt>
      <trkpt lat="41.54890534" lon="1.588526470">
        <ele>410.00000</ele>
        <time>2019-04-02T13:30:23Z</time>
      </trkpt>
      <trkpt lat="41.54887625" lon="1.588469306">
        <ele>410.00000</ele>
        <time>2019-04-02T13:30:24Z</time>
      </trkpt>
      <trkpt lat="41.54864357" lon="1.588076278">
        <ele>411.00000</ele>
        <time>2019-04-02T13:30:31Z</time>
      </trkpt>
      <trkpt lat="41.54857124" lon="1.587961865">
        <ele>412.00000</ele>
        <time>2019-04-02T13:30:33Z</time>
      </trkpt>
      <trkpt lat="41.54849530" lon="1.587853236">
        <ele>412.00000</ele>
        <time>2019-04-02T13:30:35Z</time>
      </trkpt>
      <trkpt lat="41.54819900" lon="1.587420227">
        <ele>413.00000</ele>
        <time>2019-04-02T13:30:43Z</time>
      </trkpt>
      <trkpt lat="41.54816153" lon="1.587363984">
        <ele>414.00000</ele>
        <time>2019-04-02T13:30:44Z</time>
      </trkpt>
      <trkpt lat="41.54797059" lon="1.587094087">
        <ele>415.00000</ele>
        <time>2019-04-02T13:30:49Z</time>
      </trkpt>
      <trkpt lat="41.54778451" lon="1.586818573">
        <ele>416.00000</ele>
        <time>2019-04-02T13:30:54Z</time>
      </trkpt>
      <trkpt lat="41.54770832" lon="1.586707094">
        <ele>416.00000</ele>
        <time>2019-04-02T13:30:56Z</time>
      </trkpt>
      <trkpt lat="41.54758930" lon="1.586541552">
        <ele>417.00000</ele>
        <time>2019-04-02T13:30:59Z</time>
      </trkpt>
      <trkpt lat="41.54734044" lon="1.586205270">
        <ele>416.00000</ele>
        <time>2019-04-02T13:31:05Z</time>
      </trkpt>
      <trkpt lat="41.54695127" lon="1.585693471">
        <ele>417.00000</ele>
        <time>2019-04-02T13:31:14Z</time>
      </trkpt>
      <trkpt lat="41.54690559" lon="1.585638318">
        <ele>417.00000</ele>
        <time>2019-04-02T13:31:15Z</time>
      </trkpt>
      <trkpt lat="41.54681540" lon="1.585526419">
        <ele>418.00000</ele>
        <time>2019-04-02T13:31:17Z</time>
      </trkpt>
      <trkpt lat="41.54658112" lon="1.585146971">
        <ele>418.00000</ele>
        <time>2019-04-02T13:31:23Z</time>
      </trkpt>
      <trkpt lat="41.54626647" lon="1.584507515">
        <ele>418.00000</ele>
        <time>2019-04-02T13:31:32Z</time>
      </trkpt>
      <trkpt lat="41.54613411" lon="1.584229823">
        <ele>419.00000</ele>
        <time>2019-04-02T13:31:36Z</time>
      </trkpt>
      <trkpt lat="41.54599715" lon="1.583946179">
        <ele>419.00000</ele>
        <time>2019-04-02T13:31:40Z</time>
      </trkpt>
      <trkpt lat="41.54587293" lon="1.583658009">
        <ele>420.00000</ele>
        <time>2019-04-02T13:31:44Z</time>
      </trkpt>
      <trkpt lat="41.54577839" lon="1.583446701">
        <ele>420.00000</ele>
        <time>2019-04-02T13:31:47Z</time>
      </trkpt>
      <trkpt lat="41.54571804" lon="1.583302449">
        <ele>421.00000</ele>
        <time>2019-04-02T13:31:49Z</time>
      </trkpt>
      <trkpt lat="41.54560899" lon="1.583014363">
        <ele>422.00000</ele>
        <time>2019-04-02T13:31:53Z</time>
      </trkpt>
      <trkpt lat="41.54556557" lon="1.582872793">
        <ele>423.00000</ele>
        <time>2019-04-02T13:31:55Z</time>
      </trkpt>
      <trkpt lat="41.54547505" lon="1.582519998">
        <ele>423.00000</ele>
        <time>2019-04-02T13:32:00Z</time>
      </trkpt>
      <trkpt lat="41.54542492" lon="1.582311708">
        <ele>424.00000</ele>
        <time>2019-04-02T13:32:03Z</time>
      </trkpt>
      <trkpt lat="41.54541076" lon="1.582241300">
        <ele>424.00000</ele>
        <time>2019-04-02T13:32:04Z</time>
      </trkpt>
      <trkpt lat="41.54531864" lon="1.581902923">
        <ele>426.00000</ele>
        <time>2019-04-02T13:32:09Z</time>
      </trkpt>
      <trkpt lat="41.54527673" lon="1.581773087">
        <ele>426.00000</ele>
        <time>2019-04-02T13:32:11Z</time>
      </trkpt>
      <trkpt lat="41.54524873" lon="1.581711815">
        <ele>427.00000</ele>
        <time>2019-04-02T13:32:12Z</time>
      </trkpt>
      <trkpt lat="41.54521713" lon="1.581654064">
        <ele>427.00000</ele>
        <time>2019-04-02T13:32:13Z</time>
      </trkpt>
      <trkpt lat="41.54511211" lon="1.581491203">
        <ele>427.00000</ele>
        <time>2019-04-02T13:32:16Z</time>
      </trkpt>
      <trkpt lat="41.54498739" lon="1.581342676">
        <ele>428.00000</ele>
        <time>2019-04-02T13:32:19Z</time>
      </trkpt>
      <trkpt lat="41.54481606" lon="1.581156598">
        <ele>428.00000</ele>
        <time>2019-04-02T13:32:23Z</time>
      </trkpt>
      <trkpt lat="41.54464557" lon="1.580977728">
        <ele>429.00000</ele>
        <time>2019-04-02T13:32:27Z</time>
      </trkpt>
      <trkpt lat="41.54451884" lon="1.580838588">
        <ele>429.00000</ele>
        <time>2019-04-02T13:32:30Z</time>
      </trkpt>
      <trkpt lat="41.54443703" lon="1.580737503">
        <ele>430.00000</ele>
        <time>2019-04-02T13:32:32Z</time>
      </trkpt>
      <trkpt lat="41.54430267" lon="1.580518567">
        <ele>431.00000</ele>
        <time>2019-04-02T13:32:36Z</time>
      </trkpt>
      <trkpt lat="41.54427979" lon="1.580456541">
        <ele>431.00000</ele>
        <time>2019-04-02T13:32:37Z</time>
      </trkpt>
      <trkpt lat="41.54418004" lon="1.580144483">
        <ele>432.00000</ele>
        <time>2019-04-02T13:32:42Z</time>
      </trkpt>
      <trkpt lat="41.54414928" lon="1.580014564">
        <ele>432.00000</ele>
        <time>2019-04-02T13:32:44Z</time>
      </trkpt>
      <trkpt lat="41.54408331" lon="1.579751204">
        <ele>433.00000</ele>
        <time>2019-04-02T13:32:48Z</time>
      </trkpt>
      <trkpt lat="41.54400427" lon="1.579497065">
        <ele>434.00000</ele>
        <time>2019-04-02T13:32:52Z</time>
      </trkpt>
      <trkpt lat="41.54396697" lon="1.579367397">
        <ele>434.00000</ele>
        <time>2019-04-02T13:32:54Z</time>
      </trkpt>
      <trkpt lat="41.54386748" lon="1.578975878">
        <ele>435.00000</ele>
        <time>2019-04-02T13:33:00Z</time>
      </trkpt>
      <trkpt lat="41.54385214" lon="1.578911421">
        <ele>436.00000</ele>
        <time>2019-04-02T13:33:01Z</time>
      </trkpt>
      <trkpt lat="41.54373136" lon="1.578469946">
        <ele>437.00000</ele>
        <time>2019-04-02T13:33:08Z</time>
      </trkpt>
      <trkpt lat="41.54364595" lon="1.578159984">
        <ele>438.00000</ele>
        <time>2019-04-02T13:33:13Z</time>
      </trkpt>
      <trkpt lat="41.54362985" lon="1.578097539">
        <ele>438.00000</ele>
        <time>2019-04-02T13:33:14Z</time>
      </trkpt>
      <trkpt lat="41.54354318" lon="1.577784810">
        <ele>439.00000</ele>
        <time>2019-04-02T13:33:19Z</time>
      </trkpt>
      <trkpt lat="41.54347051" lon="1.577530503">
        <ele>440.00000</ele>
        <time>2019-04-02T13:33:23Z</time>
      </trkpt>
      <trkpt lat="41.54340782" lon="1.577281057">
        <ele>442.00000</ele>
        <time>2019-04-02T13:33:27Z</time>
      </trkpt>
      <trkpt lat="41.54333280" lon="1.576968245">
        <ele>443.00000</ele>
        <time>2019-04-02T13:33:32Z</time>
      </trkpt>
      <trkpt lat="41.54327144" lon="1.576649732">
        <ele>444.00000</ele>
        <time>2019-04-02T13:33:37Z</time>
      </trkpt>
      <trkpt lat="41.54322995" lon="1.576457116">
        <ele>444.00000</ele>
        <time>2019-04-02T13:33:40Z</time>
      </trkpt>
      <trkpt lat="41.54317949" lon="1.576198702">
        <ele>445.00000</ele>
        <time>2019-04-02T13:33:44Z</time>
      </trkpt>
      <trkpt lat="41.54314639" lon="1.576005248">
        <ele>446.00000</ele>
        <time>2019-04-02T13:33:47Z</time>
      </trkpt>
      <trkpt lat="41.54309844" lon="1.575749097">
        <ele>447.00000</ele>
        <time>2019-04-02T13:33:51Z</time>
      </trkpt>
      <trkpt lat="41.54306743" lon="1.575619094">
        <ele>447.00000</ele>
        <time>2019-04-02T13:33:53Z</time>
      </trkpt>
      <trkpt lat="41.54300272" lon="1.575291110">
        <ele>448.00000</ele>
        <time>2019-04-02T13:33:58Z</time>
      </trkpt>
      <trkpt lat="41.54296467" lon="1.575098829">
        <ele>449.00000</ele>
        <time>2019-04-02T13:34:01Z</time>
      </trkpt>
      <trkpt lat="41.54295193" lon="1.575034959">
        <ele>450.00000</ele>
        <time>2019-04-02T13:34:02Z</time>
      </trkpt>
      <trkpt lat="41.54289116" lon="1.574719212">
        <ele>451.00000</ele>
        <time>2019-04-02T13:34:07Z</time>
      </trkpt>
      <trkpt lat="41.54284087" lon="1.574456356">
        <ele>452.00000</ele>
        <time>2019-04-02T13:34:11Z</time>
      </trkpt>
      <trkpt lat="41.54282729" lon="1.574390558">
        <ele>452.00000</ele>
        <time>2019-04-02T13:34:12Z</time>
      </trkpt>
      <trkpt lat="41.54274414" lon="1.574010103">
        <ele>453.00000</ele>
        <time>2019-04-02T13:34:18Z</time>
      </trkpt>
      <trkpt lat="41.54271732" lon="1.573888398">
        <ele>454.00000</ele>
        <time>2019-04-02T13:34:20Z</time>
      </trkpt>
      <trkpt lat="41.54270282" lon="1.573828216">
        <ele>454.00000</ele>
        <time>2019-04-02T13:34:21Z</time>
      </trkpt>
      <trkpt lat="41.54257792" lon="1.573549685">
        <ele>455.00000</ele>
        <time>2019-04-02T13:34:26Z</time>
      </trkpt>
      <trkpt lat="41.54254607" lon="1.573497131">
        <ele>455.00000</ele>
        <time>2019-04-02T13:34:27Z</time>
      </trkpt>
      <trkpt lat="41.54237684" lon="1.573243746">
        <ele>456.00000</ele>
        <time>2019-04-02T13:34:32Z</time>
      </trkpt>
      <trkpt lat="41.54223494" lon="1.573038725">
        <ele>457.00000</ele>
        <time>2019-04-02T13:34:36Z</time>
      </trkpt>
      <trkpt lat="41.54219705" lon="1.572987930">
        <ele>457.00000</ele>
        <time>2019-04-02T13:34:37Z</time>
      </trkpt>
      <trkpt lat="41.54201801" lon="1.572736641">
        <ele>458.00000</ele>
        <time>2019-04-02T13:34:42Z</time>
      </trkpt>
      <trkpt lat="41.54187544" lon="1.572534386">
        <ele>459.00000</ele>
        <time>2019-04-02T13:34:46Z</time>
      </trkpt>
      <trkpt lat="41.54184074" lon="1.572479652">
        <ele>460.00000</ele>
        <time>2019-04-02T13:34:47Z</time>
      </trkpt>
      <trkpt lat="41.54163848" lon="1.572158625">
        <ele>461.00000</ele>
        <time>2019-04-02T13:34:53Z</time>
      </trkpt>
      <trkpt lat="41.54160764" lon="1.572098778">
        <ele>461.00000</ele>
        <time>2019-04-02T13:34:54Z</time>
      </trkpt>
      <trkpt lat="41.54155190" lon="1.571971708">
        <ele>461.00000</ele>
        <time>2019-04-02T13:34:56Z</time>
      </trkpt>
      <trkpt lat="41.54151032" lon="1.571833407">
        <ele>462.00000</ele>
        <time>2019-04-02T13:34:58Z</time>
      </trkpt>
      <trkpt lat="41.54149523" lon="1.571760904">
        <ele>462.00000</ele>
        <time>2019-04-02T13:34:59Z</time>
      </trkpt>
      <trkpt lat="41.54146372" lon="1.571543561">
        <ele>462.00000</ele>
        <time>2019-04-02T13:35:02Z</time>
      </trkpt>
      <trkpt lat="41.54143656" lon="1.571328900">
        <ele>463.00000</ele>
        <time>2019-04-02T13:35:05Z</time>
      </trkpt>
      <trkpt lat="41.54139985" lon="1.570966886">
        <ele>464.00000</ele>
        <time>2019-04-02T13:35:10Z</time>
      </trkpt>
      <trkpt lat="41.54135651" lon="1.570518622">
        <ele>465.00000</ele>
        <time>2019-04-02T13:35:16Z</time>
      </trkpt>
      <trkpt lat="41.54133950" lon="1.570375459">
        <ele>466.00000</ele>
        <time>2019-04-02T13:35:18Z</time>
      </trkpt>
      <trkpt lat="41.54130471" lon="1.570158870">
        <ele>466.00000</ele>
        <time>2019-04-02T13:35:21Z</time>
      </trkpt>
      <trkpt lat="41.54128510" lon="1.570090726">
        <ele>467.00000</ele>
        <time>2019-04-02T13:35:22Z</time>
      </trkpt>
      <trkpt lat="41.54123900" lon="1.569954184">
        <ele>467.00000</ele>
        <time>2019-04-02T13:35:24Z</time>
      </trkpt>
      <trkpt lat="41.54121260" lon="1.569888135">
        <ele>467.00000</ele>
        <time>2019-04-02T13:35:25Z</time>
      </trkpt>
      <trkpt lat="41.54105611" lon="1.569567779">
        <ele>469.00000</ele>
        <time>2019-04-02T13:35:30Z</time>
      </trkpt>
      <trkpt lat="41.54102995" lon="1.569506675">
        <ele>469.00000</ele>
        <time>2019-04-02T13:35:31Z</time>
      </trkpt>
      <trkpt lat="41.54081504" lon="1.569131165">
        <ele>470.00000</ele>
        <time>2019-04-02T13:35:37Z</time>
      </trkpt>
      <trkpt lat="41.54060013" lon="1.568769318">
        <ele>471.00000</ele>
        <time>2019-04-02T13:35:43Z</time>
      </trkpt>
      <trkpt lat="41.54049687" lon="1.568591203">
        <ele>471.00000</ele>
        <time>2019-04-02T13:35:46Z</time>
      </trkpt>
      <trkpt lat="41.54043107" lon="1.568463882">
        <ele>472.00000</ele>
        <time>2019-04-02T13:35:48Z</time>
      </trkpt>
      <trkpt lat="41.54032328" lon="1.568125756">
        <ele>473.00000</ele>
        <time>2019-04-02T13:35:53Z</time>
      </trkpt>
      <trkpt lat="41.54030417" lon="1.568056521">
        <ele>473.00000</ele>
        <time>2019-04-02T13:35:54Z</time>
      </trkpt>
      <trkpt lat="41.54019445" lon="1.567613789">
        <ele>474.00000</ele>
        <time>2019-04-02T13:36:00Z</time>
      </trkpt>
      <trkpt lat="41.54017810" lon="1.567539693">
        <ele>474.00000</ele>
        <time>2019-04-02T13:36:01Z</time>
      </trkpt>
      <trkpt lat="41.54007249" lon="1.567109450">
        <ele>475.00000</ele>
        <time>2019-04-02T13:36:07Z</time>
      </trkpt>
      <trkpt lat="41.54001843" lon="1.566887078">
        <ele>476.00000</ele>
        <time>2019-04-02T13:36:10Z</time>
      </trkpt>
      <trkpt lat="41.54000250" lon="1.566813820">
        <ele>476.00000</ele>
        <time>2019-04-02T13:36:11Z</time>
      </trkpt>
      <trkpt lat="41.53988390" lon="1.566309817">
        <ele>477.00000</ele>
        <time>2019-04-02T13:36:18Z</time>
      </trkpt>
      <trkpt lat="41.53985121" lon="1.566164894">
        <ele>478.00000</ele>
        <time>2019-04-02T13:36:20Z</time>
      </trkpt>
      <trkpt lat="41.53976068" lon="1.565806567">
        <ele>478.00000</ele>
        <time>2019-04-02T13:36:25Z</time>
      </trkpt>
      <trkpt lat="41.53970620" lon="1.565590566">
        <ele>479.00000</ele>
        <time>2019-04-02T13:36:28Z</time>
      </trkpt>
      <trkpt lat="41.53963797" lon="1.565295103">
        <ele>479.00000</ele>
        <time>2019-04-02T13:36:32Z</time>
      </trkpt>
      <trkpt lat="41.53955290" lon="1.564928647">
        <ele>481.00000</ele>
        <time>2019-04-02T13:36:37Z</time>
      </trkpt>
      <trkpt lat="41.53951752" lon="1.564785065">
        <ele>481.00000</ele>
        <time>2019-04-02T13:36:39Z</time>
      </trkpt>
      <trkpt lat="41.53944930" lon="1.564497984">
        <ele>482.00000</ele>
        <time>2019-04-02T13:36:43Z</time>
      </trkpt>
      <trkpt lat="41.53935131" lon="1.564080398">
        <ele>483.00000</ele>
        <time>2019-04-02T13:36:49Z</time>
      </trkpt>
      <trkpt lat="41.53921846" lon="1.563528031">
        <ele>484.00000</ele>
        <time>2019-04-02T13:36:57Z</time>
      </trkpt>
      <trkpt lat="41.53916775" lon="1.563324518">
        <ele>485.00000</ele>
        <time>2019-04-02T13:37:00Z</time>
      </trkpt>
      <trkpt lat="41.53911771" lon="1.563112623">
        <ele>486.00000</ele>
        <time>2019-04-02T13:37:03Z</time>
      </trkpt>
      <trkpt lat="41.53905007" lon="1.562834763">
        <ele>487.00000</ele>
        <time>2019-04-02T13:37:07Z</time>
      </trkpt>
      <trkpt lat="41.53898360" lon="1.562557490">
        <ele>487.00000</ele>
        <time>2019-04-02T13:37:11Z</time>
      </trkpt>
      <trkpt lat="41.53895149" lon="1.562421200">
        <ele>488.00000</ele>
        <time>2019-04-02T13:37:13Z</time>
      </trkpt>
      <trkpt lat="41.53884228" lon="1.561961369">
        <ele>489.00000</ele>
        <time>2019-04-02T13:37:20Z</time>
      </trkpt>
      <trkpt lat="41.53882468" lon="1.561896996">
        <ele>489.00000</ele>
        <time>2019-04-02T13:37:21Z</time>
      </trkpt>
      <trkpt lat="41.53873742" lon="1.561586363">
        <ele>490.00000</ele>
        <time>2019-04-02T13:37:26Z</time>
      </trkpt>
      <trkpt lat="41.53867640" lon="1.561404224">
        <ele>491.00000</ele>
        <time>2019-04-02T13:37:29Z</time>
      </trkpt>
      <trkpt lat="41.53862125" lon="1.561210267">
        <ele>491.00000</ele>
        <time>2019-04-02T13:37:32Z</time>
      </trkpt>
      <trkpt lat="41.53859702" lon="1.561150420">
        <ele>491.00000</ele>
        <time>2019-04-02T13:37:33Z</time>
      </trkpt>
      <trkpt lat="41.53855193" lon="1.561031984">
        <ele>491.00000</ele>
        <time>2019-04-02T13:37:35Z</time>
      </trkpt>
      <trkpt lat="41.53843735" lon="1.560728559">
        <ele>492.00000</ele>
        <time>2019-04-02T13:37:40Z</time>
      </trkpt>
      <trkpt lat="41.53839242" lon="1.560607692">
        <ele>493.00000</ele>
        <time>2019-04-02T13:37:42Z</time>
      </trkpt>
      <trkpt lat="41.53830064" lon="1.560363192">
        <ele>493.00000</ele>
        <time>2019-04-02T13:37:46Z</time>
      </trkpt>
      <trkpt lat="41.53820718" lon="1.560119362">
        <ele>494.00000</ele>
        <time>2019-04-02T13:37:50Z</time>
      </trkpt>
      <trkpt lat="41.53813350" lon="1.559935547">
        <ele>495.00000</ele>
        <time>2019-04-02T13:37:53Z</time>
      </trkpt>
      <trkpt lat="41.53801356" lon="1.559622567">
        <ele>496.00000</ele>
        <time>2019-04-02T13:37:58Z</time>
      </trkpt>
      <trkpt lat="41.53787048" lon="1.559228282">
        <ele>497.00000</ele>
        <time>2019-04-02T13:38:04Z</time>
      </trkpt>
      <trkpt lat="41.53781834" lon="1.559098362">
        <ele>497.00000</ele>
        <time>2019-04-02T13:38:06Z</time>
      </trkpt>
      <trkpt lat="41.53774173" lon="1.558903483">
        <ele>498.00000</ele>
        <time>2019-04-02T13:38:09Z</time>
      </trkpt>
      <trkpt lat="41.53762263" lon="1.558580780">
        <ele>499.00000</ele>
        <time>2019-04-02T13:38:14Z</time>
      </trkpt>
      <trkpt lat="41.53755415" lon="1.558387074">
        <ele>500.00000</ele>
        <time>2019-04-02T13:38:17Z</time>
      </trkpt>
      <trkpt lat="41.53750495" lon="1.558257238">
        <ele>500.00000</ele>
        <time>2019-04-02T13:38:19Z</time>
      </trkpt>
      <trkpt lat="41.53736673" lon="1.557877035">
        <ele>501.00000</ele>
        <time>2019-04-02T13:38:25Z</time>
      </trkpt>
      <trkpt lat="41.53732138" lon="1.557752564">
        <ele>502.00000</ele>
        <time>2019-04-02T13:38:27Z</time>
      </trkpt>
      <trkpt lat="41.53722331" lon="1.557510746">
        <ele>502.00000</ele>
        <time>2019-04-02T13:38:31Z</time>
      </trkpt>
      <trkpt lat="41.53708007" lon="1.557133393">
        <ele>504.00000</ele>
        <time>2019-04-02T13:38:37Z</time>
      </trkpt>
      <trkpt lat="41.53706037" lon="1.557067092">
        <ele>504.00000</ele>
        <time>2019-04-02T13:38:38Z</time>
      </trkpt>
      <trkpt lat="41.53696993" lon="1.556720668">
        <ele>505.00000</ele>
        <time>2019-04-02T13:38:43Z</time>
      </trkpt>
      <trkpt lat="41.53693640" lon="1.556584713">
        <ele>505.00000</ele>
        <time>2019-04-02T13:38:45Z</time>
      </trkpt>
      <trkpt lat="41.53688318" lon="1.556370472">
        <ele>506.00000</ele>
        <time>2019-04-02T13:38:48Z</time>
      </trkpt>
      <trkpt lat="41.53680506" lon="1.556101078">
        <ele>507.00000</ele>
        <time>2019-04-02T13:38:52Z</time>
      </trkpt>
      <trkpt lat="41.53677170" lon="1.555963112">
        <ele>507.00000</ele>
        <time>2019-04-02T13:38:54Z</time>
      </trkpt>
      <trkpt lat="41.53671906" lon="1.555756917">
        <ele>508.00000</ele>
        <time>2019-04-02T13:38:57Z</time>
      </trkpt>
      <trkpt lat="41.53670246" lon="1.555683407">
        <ele>508.00000</ele>
        <time>2019-04-02T13:38:58Z</time>
      </trkpt>
      <trkpt lat="41.53662820" lon="1.555404709">
        <ele>509.00000</ele>
        <time>2019-04-02T13:39:02Z</time>
      </trkpt>
      <trkpt lat="41.53654262" lon="1.555068846">
        <ele>510.00000</ele>
        <time>2019-04-02T13:39:07Z</time>
      </trkpt>
      <trkpt lat="41.53642117" lon="1.554598370">
        <ele>512.00000</ele>
        <time>2019-04-02T13:39:14Z</time>
      </trkpt>
      <trkpt lat="41.53633684" lon="1.554266614">
        <ele>513.00000</ele>
        <time>2019-04-02T13:39:19Z</time>
      </trkpt>
      <trkpt lat="41.53627465" lon="1.554009122">
        <ele>514.00000</ele>
        <time>2019-04-02T13:39:23Z</time>
      </trkpt>
      <trkpt lat="41.53618035" lon="1.553691532">
        <ele>515.00000</ele>
        <time>2019-04-02T13:39:28Z</time>
      </trkpt>
      <trkpt lat="41.53616292" lon="1.553628165">
        <ele>515.00000</ele>
        <time>2019-04-02T13:39:29Z</time>
      </trkpt>
      <trkpt lat="41.53609000" lon="1.553312586">
        <ele>516.00000</ele>
        <time>2019-04-02T13:39:34Z</time>
      </trkpt>
      <trkpt lat="41.53607558" lon="1.553250309">
        <ele>516.00000</ele>
        <time>2019-04-02T13:39:35Z</time>
      </trkpt>
      <trkpt lat="41.53599386" lon="1.552935652">
        <ele>517.00000</ele>
        <time>2019-04-02T13:39:40Z</time>
      </trkpt>
      <trkpt lat="41.53592856" lon="1.552676819">
        <ele>518.00000</ele>
        <time>2019-04-02T13:39:44Z</time>
      </trkpt>
      <trkpt lat="41.53591062" lon="1.552611775">
        <ele>519.00000</ele>
        <time>2019-04-02T13:39:45Z</time>
      </trkpt>
      <trkpt lat="41.53580937" lon="1.552220508">
        <ele>520.00000</ele>
        <time>2019-04-02T13:39:51Z</time>
      </trkpt>
      <trkpt lat="41.53573628" lon="1.551949102">
        <ele>520.00000</ele>
        <time>2019-04-02T13:39:55Z</time>
      </trkpt>
      <trkpt lat="41.53559898" lon="1.551408553">
        <ele>520.00000</ele>
        <time>2019-04-02T13:40:02Z</time>
      </trkpt>
      <trkpt lat="41.53542632" lon="1.550700366">
        <ele>521.00000</ele>
        <time>2019-04-02T13:40:11Z</time>
      </trkpt>
      <trkpt lat="41.53538575" lon="1.550553096">
        <ele>521.00000</ele>
        <time>2019-04-02T13:40:13Z</time>
      </trkpt>
      <trkpt lat="41.53528609" lon="1.550116483">
        <ele>522.00000</ele>
        <time>2019-04-02T13:40:19Z</time>
      </trkpt>
      <trkpt lat="41.53527083" lon="1.550046829">
        <ele>522.00000</ele>
        <time>2019-04-02T13:40:20Z</time>
      </trkpt>
      <trkpt lat="41.53518140" lon="1.549787409">
        <ele>523.00000</ele>
        <time>2019-04-02T13:40:24Z</time>
      </trkpt>
      <trkpt lat="41.53514804" lon="1.549731418">
        <ele>523.00000</ele>
        <time>2019-04-02T13:40:25Z</time>
      </trkpt>
      <trkpt lat="41.53511585" lon="1.549679115">
        <ele>523.00000</ele>
        <time>2019-04-02T13:40:26Z</time>
      </trkpt>
      <trkpt lat="41.53504544" lon="1.549575934">
        <ele>524.00000</ele>
        <time>2019-04-02T13:40:28Z</time>
      </trkpt>
      <trkpt lat="41.53494486" lon="1.549431094">
        <ele>524.00000</ele>
        <time>2019-04-02T13:40:31Z</time>
      </trkpt>
      <trkpt lat="41.53486859" lon="1.549347275">
        <ele>525.00000</ele>
        <time>2019-04-02T13:40:33Z</time>
      </trkpt>
      <trkpt lat="41.53482575" lon="1.549307629">
        <ele>525.00000</ele>
        <time>2019-04-02T13:40:34Z</time>
      </trkpt>
      <trkpt lat="41.53478125" lon="1.549277454">
        <ele>525.00000</ele>
        <time>2019-04-02T13:40:35Z</time>
      </trkpt>
      <trkpt lat="41.53462425" lon="1.549130352">
        <ele>526.00000</ele>
        <time>2019-04-02T13:40:39Z</time>
      </trkpt>
      <trkpt lat="41.53454328" lon="1.549064051">
        <ele>526.00000</ele>
        <time>2019-04-02T13:40:41Z</time>
      </trkpt>
      <trkpt lat="41.53450531" lon="1.549021555">
        <ele>527.00000</ele>
        <time>2019-04-02T13:40:42Z</time>
      </trkpt>
      <trkpt lat="41.53440196" lon="1.548891970">
        <ele>527.00000</ele>
        <time>2019-04-02T13:40:45Z</time>
      </trkpt>
      <trkpt lat="41.53436877" lon="1.548846540">
        <ele>528.00000</ele>
        <time>2019-04-02T13:40:46Z</time>
      </trkpt>
      <trkpt lat="41.53422963" lon="1.548582259">
        <ele>529.00000</ele>
        <time>2019-04-02T13:40:51Z</time>
      </trkpt>
      <trkpt lat="41.53420876" lon="1.548524843">
        <ele>529.00000</ele>
        <time>2019-04-02T13:40:52Z</time>
      </trkpt>
      <trkpt lat="41.53414674" lon="1.548346560">
        <ele>529.00000</ele>
        <time>2019-04-02T13:40:55Z</time>
      </trkpt>
      <trkpt lat="41.53409812" lon="1.548235332">
        <ele>530.00000</ele>
        <time>2019-04-02T13:40:57Z</time>
      </trkpt>
      <trkpt lat="41.53404942" lon="1.548122176">
        <ele>530.00000</ele>
        <time>2019-04-02T13:40:59Z</time>
      </trkpt>
      <trkpt lat="41.53395554" lon="1.547894021">
        <ele>531.00000</ele>
        <time>2019-04-02T13:41:03Z</time>
      </trkpt>
      <trkpt lat="41.53391037" lon="1.547775082">
        <ele>531.00000</ele>
        <time>2019-04-02T13:41:05Z</time>
      </trkpt>
      <trkpt lat="41.53388815" lon="1.547718085">
        <ele>532.00000</ele>
        <time>2019-04-02T13:41:06Z</time>
      </trkpt>
      <trkpt lat="41.53381825" lon="1.547551117">
        <ele>532.00000</ele>
        <time>2019-04-02T13:41:09Z</time>
      </trkpt>
      <trkpt lat="41.53372094" lon="1.547325477">
        <ele>533.00000</ele>
        <time>2019-04-02T13:41:13Z</time>
      </trkpt>
      <trkpt lat="41.53354542" lon="1.546869501">
        <ele>534.00000</ele>
        <time>2019-04-02T13:41:21Z</time>
      </trkpt>
      <trkpt lat="41.53352254" lon="1.546813677">
        <ele>534.00000</ele>
        <time>2019-04-02T13:41:22Z</time>
      </trkpt>
      <trkpt lat="41.53339714" lon="1.546481084">
        <ele>535.00000</ele>
        <time>2019-04-02T13:41:28Z</time>
      </trkpt>
      <trkpt lat="41.53337661" lon="1.546429451">
        <ele>536.00000</ele>
        <time>2019-04-02T13:41:29Z</time>
      </trkpt>
      <trkpt lat="41.53333025" lon="1.546318726">
        <ele>537.00000</ele>
        <time>2019-04-02T13:41:31Z</time>
      </trkpt>
      <trkpt lat="41.53326102" lon="1.546146562">
        <ele>538.00000</ele>
        <time>2019-04-02T13:41:34Z</time>
      </trkpt>
      <trkpt lat="41.53321442" lon="1.546030640">
        <ele>538.00000</ele>
        <time>2019-04-02T13:41:36Z</time>
      </trkpt>
      <trkpt lat="41.53312683" lon="1.545795695">
        <ele>539.00000</ele>
        <time>2019-04-02T13:41:40Z</time>
      </trkpt>
      <trkpt lat="41.53303102" lon="1.545574916">
        <ele>540.00000</ele>
        <time>2019-04-02T13:41:44Z</time>
      </trkpt>
      <trkpt lat="41.53290370" lon="1.545289847">
        <ele>541.00000</ele>
        <time>2019-04-02T13:41:49Z</time>
      </trkpt>
      <trkpt lat="41.53280094" lon="1.545061692">
        <ele>542.00000</ele>
        <time>2019-04-02T13:41:53Z</time>
      </trkpt>
      <trkpt lat="41.53277361" lon="1.545009976">
        <ele>542.00000</ele>
        <time>2019-04-02T13:41:54Z</time>
      </trkpt>
      <trkpt lat="41.53267110" lon="1.544788107">
        <ele>543.00000</ele>
        <time>2019-04-02T13:41:58Z</time>
      </trkpt>
      <trkpt lat="41.53265224" lon="1.544731613">
        <ele>543.00000</ele>
        <time>2019-04-02T13:41:59Z</time>
      </trkpt>
      <trkpt lat="41.53261360" lon="1.544615356">
        <ele>544.00000</ele>
        <time>2019-04-02T13:42:01Z</time>
      </trkpt>
      <trkpt lat="41.53255082" lon="1.544444700">
        <ele>544.00000</ele>
        <time>2019-04-02T13:42:04Z</time>
      </trkpt>
      <trkpt lat="41.53253615" lon="1.544387536">
        <ele>544.00000</ele>
        <time>2019-04-02T13:42:05Z</time>
      </trkpt>
      <trkpt lat="41.53247589" lon="1.544167762">
        <ele>545.00000</ele>
        <time>2019-04-02T13:42:09Z</time>
      </trkpt>
      <trkpt lat="41.53245963" lon="1.544112944">
        <ele>545.00000</ele>
        <time>2019-04-02T13:42:10Z</time>
      </trkpt>
      <trkpt lat="41.53240389" lon="1.543882526">
        <ele>547.00000</ele>
        <time>2019-04-02T13:42:14Z</time>
      </trkpt>
      <trkpt lat="41.53236206" lon="1.543716313">
        <ele>547.00000</ele>
        <time>2019-04-02T13:42:17Z</time>
      </trkpt>
      <trkpt lat="41.53230691" lon="1.543491762">
        <ele>548.00000</ele>
        <time>2019-04-02T13:42:21Z</time>
      </trkpt>
      <trkpt lat="41.53223097" lon="1.543201748">
        <ele>549.00000</ele>
        <time>2019-04-02T13:42:26Z</time>
      </trkpt>
      <trkpt lat="41.53217406" lon="1.542979292">
        <ele>549.00000</ele>
        <time>2019-04-02T13:42:30Z</time>
      </trkpt>
      <trkpt lat="41.53215008" lon="1.542867645">
        <ele>550.00000</ele>
        <time>2019-04-02T13:42:32Z</time>
      </trkpt>
      <trkpt lat="41.53213751" lon="1.542809223">
        <ele>550.00000</ele>
        <time>2019-04-02T13:42:33Z</time>
      </trkpt>
      <trkpt lat="41.53208135" lon="1.542585343">
        <ele>551.00000</ele>
        <time>2019-04-02T13:42:37Z</time>
      </trkpt>
      <trkpt lat="41.53206668" lon="1.542528597">
        <ele>551.00000</ele>
        <time>2019-04-02T13:42:38Z</time>
      </trkpt>
      <trkpt lat="41.53201295" lon="1.542309997">
        <ele>552.00000</ele>
        <time>2019-04-02T13:42:42Z</time>
      </trkpt>
      <trkpt lat="41.53199829" lon="1.542255934">
        <ele>552.00000</ele>
        <time>2019-04-02T13:42:43Z</time>
      </trkpt>
      <trkpt lat="41.53189100" lon="1.541808340">
        <ele>553.00000</ele>
        <time>2019-04-02T13:42:51Z</time>
      </trkpt>
      <trkpt lat="41.53187675" lon="1.541753439">
        <ele>554.00000</ele>
        <time>2019-04-02T13:42:52Z</time>
      </trkpt>
      <trkpt lat="41.53182411" lon="1.541528720">
        <ele>554.00000</ele>
        <time>2019-04-02T13:42:56Z</time>
      </trkpt>
      <trkpt lat="41.53177784" lon="1.541365943">
        <ele>556.00000</ele>
        <time>2019-04-02T13:42:59Z</time>
      </trkpt>
      <trkpt lat="41.53174809" lon="1.541258236">
        <ele>556.00000</ele>
        <time>2019-04-02T13:43:01Z</time>
      </trkpt>
      <trkpt lat="41.53170190" lon="1.541100237">
        <ele>557.00000</ele>
        <time>2019-04-02T13:43:04Z</time>
      </trkpt>
      <trkpt lat="41.53163057" lon="1.540903430">
        <ele>558.00000</ele>
        <time>2019-04-02T13:43:08Z</time>
      </trkpt>
      <trkpt lat="41.53156905" lon="1.540758674">
        <ele>558.00000</ele>
        <time>2019-04-02T13:43:11Z</time>
      </trkpt>
      <trkpt lat="41.53150174" lon="1.540609560">
        <ele>559.00000</ele>
        <time>2019-04-02T13:43:14Z</time>
      </trkpt>
      <trkpt lat="41.53138138" lon="1.540362378">
        <ele>560.00000</ele>
        <time>2019-04-02T13:43:19Z</time>
      </trkpt>
      <trkpt lat="41.53135841" lon="1.540311584">
        <ele>560.00000</ele>
        <time>2019-04-02T13:43:20Z</time>
      </trkpt>
      <trkpt lat="41.53131307" lon="1.540214940">
        <ele>561.00000</ele>
        <time>2019-04-02T13:43:22Z</time>
      </trkpt>
      <trkpt lat="41.53119849" lon="1.539974128">
        <ele>562.00000</ele>
        <time>2019-04-02T13:43:27Z</time>
      </trkpt>
      <trkpt lat="41.53115062" lon="1.539879161">
        <ele>562.00000</ele>
        <time>2019-04-02T13:43:29Z</time>
      </trkpt>
      <trkpt lat="41.53105373" lon="1.539689730">
        <ele>563.00000</ele>
        <time>2019-04-02T13:43:33Z</time>
      </trkpt>
      <trkpt lat="41.53096606" lon="1.539489990">
        <ele>564.00000</ele>
        <time>2019-04-02T13:43:37Z</time>
      </trkpt>
      <trkpt lat="41.53091861" lon="1.539389071">
        <ele>565.00000</ele>
        <time>2019-04-02T13:43:39Z</time>
      </trkpt>
      <trkpt lat="41.53082256" lon="1.539200311">
        <ele>565.00000</ele>
        <time>2019-04-02T13:43:43Z</time>
      </trkpt>
      <trkpt lat="41.53073815" lon="1.539002666">
        <ele>566.00000</ele>
        <time>2019-04-02T13:43:47Z</time>
      </trkpt>
      <trkpt lat="41.53068970" lon="1.538904095">
        <ele>567.00000</ele>
        <time>2019-04-02T13:43:49Z</time>
      </trkpt>
      <trkpt lat="41.53057697" lon="1.538660097">
        <ele>568.00000</ele>
        <time>2019-04-02T13:43:54Z</time>
      </trkpt>
      <trkpt lat="41.53052265" lon="1.538501260">
        <ele>568.00000</ele>
        <time>2019-04-02T13:43:57Z</time>
      </trkpt>
      <trkpt lat="41.53049273" lon="1.538388943">
        <ele>569.00000</ele>
        <time>2019-04-02T13:43:59Z</time>
      </trkpt>
      <trkpt lat="41.53045074" lon="1.538163889">
        <ele>570.00000</ele>
        <time>2019-04-02T13:44:03Z</time>
      </trkpt>
      <trkpt lat="41.53043565" lon="1.538055008">
        <ele>570.00000</ele>
        <time>2019-04-02T13:44:05Z</time>
      </trkpt>
      <trkpt lat="41.53041084" lon="1.537887537">
        <ele>571.00000</ele>
        <time>2019-04-02T13:44:08Z</time>
      </trkpt>
      <trkpt lat="41.53037815" lon="1.537655359">
        <ele>572.00000</ele>
        <time>2019-04-02T13:44:12Z</time>
      </trkpt>
      <trkpt lat="41.53034663" lon="1.537432149">
        <ele>573.00000</ele>
        <time>2019-04-02T13:44:16Z</time>
      </trkpt>
      <trkpt lat="41.53030347" lon="1.537149176">
        <ele>574.00000</ele>
        <time>2019-04-02T13:44:21Z</time>
      </trkpt>
      <trkpt lat="41.53029475" lon="1.537091676">
        <ele>575.00000</ele>
        <time>2019-04-02T13:44:22Z</time>
      </trkpt>
      <trkpt lat="41.53027145" lon="1.536926385">
        <ele>576.00000</ele>
        <time>2019-04-02T13:44:25Z</time>
      </trkpt>
      <trkpt lat="41.53023809" lon="1.536713819">
        <ele>577.00000</ele>
        <time>2019-04-02T13:44:29Z</time>
      </trkpt>
      <trkpt lat="41.53022979" lon="1.536660008">
        <ele>577.00000</ele>
        <time>2019-04-02T13:44:30Z</time>
      </trkpt>
      <trkpt lat="41.53020741" lon="1.536368736">
        <ele>578.00000</ele>
        <time>2019-04-02T13:44:35Z</time>
      </trkpt>
      <trkpt lat="41.53021680" lon="1.536237727">
        <ele>578.00000</ele>
        <time>2019-04-02T13:44:37Z</time>
      </trkpt>
      <trkpt lat="41.53023197" lon="1.536109233">
        <ele>578.00000</ele>
        <time>2019-04-02T13:44:39Z</time>
      </trkpt>
      <trkpt lat="41.53028695" lon="1.535762557">
        <ele>578.00000</ele>
        <time>2019-04-02T13:44:44Z</time>
      </trkpt>
      <trkpt lat="41.53032559" lon="1.535536414">
        <ele>578.00000</ele>
        <time>2019-04-02T13:44:47Z</time>
      </trkpt>
      <trkpt lat="41.53033842" lon="1.535291662">
        <ele>578.00000</ele>
        <time>2019-04-02T13:44:50Z</time>
      </trkpt>
      <trkpt lat="41.53032526" lon="1.535027464">
        <ele>577.00000</ele>
        <time>2019-04-02T13:44:53Z</time>
      </trkpt>
      <trkpt lat="41.53029332" lon="1.534656984">
        <ele>576.00000</ele>
        <time>2019-04-02T13:44:57Z</time>
      </trkpt>
      <trkpt lat="41.53028285" lon="1.534562520">
        <ele>576.00000</ele>
        <time>2019-04-02T13:44:58Z</time>
      </trkpt>
      <trkpt lat="41.53024488" lon="1.534274518">
        <ele>575.00000</ele>
        <time>2019-04-02T13:45:01Z</time>
      </trkpt>
      <trkpt lat="41.53017153" lon="1.533668087">
        <ele>574.00000</ele>
        <time>2019-04-02T13:45:07Z</time>
      </trkpt>
      <trkpt lat="41.53006684" lon="1.532958894">
        <ele>573.00000</ele>
        <time>2019-04-02T13:45:14Z</time>
      </trkpt>
      <trkpt lat="41.53004799" lon="1.532856468">
        <ele>573.00000</ele>
        <time>2019-04-02T13:45:15Z</time>
      </trkpt>
      <trkpt lat="41.52999945" lon="1.532651949">
        <ele>573.00000</ele>
        <time>2019-04-02T13:45:17Z</time>
      </trkpt>
      <trkpt lat="41.52992519" lon="1.532449359">
        <ele>572.00000</ele>
        <time>2019-04-02T13:45:19Z</time>
      </trkpt>
      <trkpt lat="41.52988160" lon="1.532346010">
        <ele>572.00000</ele>
        <time>2019-04-02T13:45:20Z</time>
      </trkpt>
      <trkpt lat="41.52983626" lon="1.532241655">
        <ele>571.00000</ele>
        <time>2019-04-02T13:45:21Z</time>
      </trkpt>
      <trkpt lat="41.52974154" lon="1.532029341">
        <ele>570.00000</ele>
        <time>2019-04-02T13:45:23Z</time>
      </trkpt>
      <trkpt lat="41.52964800" lon="1.531812334">
        <ele>568.00000</ele>
        <time>2019-04-02T13:45:25Z</time>
      </trkpt>
      <trkpt lat="41.52955303" lon="1.531590381">
        <ele>567.00000</ele>
        <time>2019-04-02T13:45:27Z</time>
      </trkpt>
      <trkpt lat="41.52945748" lon="1.531366417">
        <ele>565.00000</ele>
        <time>2019-04-02T13:45:29Z</time>
      </trkpt>
      <trkpt lat="41.52930920" lon="1.531022926">
        <ele>564.00000</ele>
        <time>2019-04-02T13:45:32Z</time>
      </trkpt>
      <trkpt lat="41.52920879" lon="1.530788484">
        <ele>563.00000</ele>
        <time>2019-04-02T13:45:34Z</time>
      </trkpt>
      <trkpt lat="41.52916143" lon="1.530669964">
        <ele>562.00000</ele>
        <time>2019-04-02T13:45:35Z</time>
      </trkpt>
      <trkpt lat="41.52911374" lon="1.530551444">
        <ele>562.00000</ele>
        <time>2019-04-02T13:45:36Z</time>
      </trkpt>
      <trkpt lat="41.52901114" lon="1.530322115">
        <ele>560.00000</ele>
        <time>2019-04-02T13:45:38Z</time>
      </trkpt>
      <trkpt lat="41.52889396" lon="1.530121453">
        <ele>559.00000</ele>
        <time>2019-04-02T13:45:40Z</time>
      </trkpt>
      <trkpt lat="41.52882892" lon="1.530047776">
        <ele>559.00000</ele>
        <time>2019-04-02T13:45:41Z</time>
      </trkpt>
      <trkpt lat="41.52876220" lon="1.529991868">
        <ele>558.00000</ele>
        <time>2019-04-02T13:45:42Z</time>
      </trkpt>
      <trkpt lat="41.52862994" lon="1.529953144">
        <ele>557.00000</ele>
        <time>2019-04-02T13:45:44Z</time>
      </trkpt>
      <trkpt lat="41.52855123" lon="1.529975356">
        <ele>556.00000</ele>
        <time>2019-04-02T13:45:45Z</time>
      </trkpt>
      <trkpt lat="41.52845920" lon="1.530008967">
        <ele>555.00000</ele>
        <time>2019-04-02T13:45:46Z</time>
      </trkpt>
      <trkpt lat="41.52827152" lon="1.530092032">
        <ele>555.00000</ele>
        <time>2019-04-02T13:45:47Z</time>
      </trkpt>
      <trkpt lat="41.52790230" lon="1.530231507">
        <ele>554.00000</ele>
        <time>2019-04-02T13:45:50Z</time>
      </trkpt>
      <trkpt lat="41.52759628" lon="1.530325300">
        <ele>554.00000</ele>
        <time>2019-04-02T13:45:53Z</time>
      </trkpt>
      <trkpt lat="41.52713226" lon="1.530393194">
        <ele>554.00000</ele>
        <time>2019-04-02T13:45:58Z</time>
      </trkpt>
      <trkpt lat="41.52684744" lon="1.530427644">
        <ele>553.00000</ele>
        <time>2019-04-02T13:46:01Z</time>
      </trkpt>
      <trkpt lat="41.52664770" lon="1.530452203">
        <ele>551.00000</ele>
        <time>2019-04-02T13:46:03Z</time>
      </trkpt>
      <trkpt lat="41.52644746" lon="1.530479947">
        <ele>549.00000</ele>
        <time>2019-04-02T13:46:05Z</time>
      </trkpt>
      <trkpt lat="41.52624310" lon="1.530500650">
        <ele>548.00000</ele>
        <time>2019-04-02T13:46:07Z</time>
      </trkpt>
      <trkpt lat="41.52603389" lon="1.530526718">
        <ele>545.00000</ele>
        <time>2019-04-02T13:46:09Z</time>
      </trkpt>
      <trkpt lat="41.52582468" lon="1.530564688">
        <ele>544.00000</ele>
        <time>2019-04-02T13:46:11Z</time>
      </trkpt>
      <trkpt lat="41.52572259" lon="1.530593186">
        <ele>543.00000</ele>
        <time>2019-04-02T13:46:12Z</time>
      </trkpt>
      <trkpt lat="41.52544573" lon="1.530741713">
        <ele>543.00000</ele>
        <time>2019-04-02T13:46:15Z</time>
      </trkpt>
      <trkpt lat="41.52535756" lon="1.530802147">
        <ele>544.00000</ele>
        <time>2019-04-02T13:46:16Z</time>
      </trkpt>
      <trkpt lat="41.52526619" lon="1.530849924">
        <ele>544.00000</ele>
        <time>2019-04-02T13:46:17Z</time>
      </trkpt>
      <trkpt lat="41.52507349" lon="1.530887978">
        <ele>543.00000</ele>
        <time>2019-04-02T13:46:19Z</time>
      </trkpt>
      <trkpt lat="41.52497618" lon="1.530886469">
        <ele>543.00000</ele>
        <time>2019-04-02T13:46:20Z</time>
      </trkpt>
      <trkpt lat="41.52487996" lon="1.530880182">
        <ele>543.00000</ele>
        <time>2019-04-02T13:46:21Z</time>
      </trkpt>
      <trkpt lat="41.52478734" lon="1.530879596">
        <ele>543.00000</ele>
        <time>2019-04-02T13:46:22Z</time>
      </trkpt>
      <trkpt lat="41.52470075" lon="1.530901640">
        <ele>543.00000</ele>
        <time>2019-04-02T13:46:23Z</time>
      </trkpt>
      <trkpt lat="41.52454870" lon="1.531045977">
        <ele>542.00000</ele>
        <time>2019-04-02T13:46:25Z</time>
      </trkpt>
      <trkpt lat="41.52448173" lon="1.531269438">
        <ele>542.00000</ele>
        <time>2019-04-02T13:46:27Z</time>
      </trkpt>
      <trkpt lat="41.52447100" lon="1.531384689">
        <ele>542.00000</ele>
        <time>2019-04-02T13:46:28Z</time>
      </trkpt>
      <trkpt lat="41.52446480" lon="1.531499773">
        <ele>542.00000</ele>
        <time>2019-04-02T13:46:29Z</time>
      </trkpt>
      <trkpt lat="41.52445969" lon="1.531731868">
        <ele>541.00000</ele>
        <time>2019-04-02T13:46:31Z</time>
      </trkpt>
      <trkpt lat="41.52444141" lon="1.531846951">
        <ele>540.00000</ele>
        <time>2019-04-02T13:46:32Z</time>
      </trkpt>
      <trkpt lat="41.52440596" lon="1.531949127">
        <ele>539.00000</ele>
        <time>2019-04-02T13:46:33Z</time>
      </trkpt>
      <trkpt lat="41.52435592" lon="1.532021462">
        <ele>539.00000</ele>
        <time>2019-04-02T13:46:34Z</time>
      </trkpt>
      <trkpt lat="41.52417755" lon="1.532060271">
        <ele>538.00000</ele>
        <time>2019-04-02T13:46:36Z</time>
      </trkpt>
      <trkpt lat="41.52407940" lon="1.532052224">
        <ele>538.00000</ele>
        <time>2019-04-02T13:46:37Z</time>
      </trkpt>
      <trkpt lat="41.52388452" lon="1.532033868">
        <ele>537.00000</ele>
        <time>2019-04-02T13:46:39Z</time>
      </trkpt>
      <trkpt lat="41.52369140" lon="1.532010817">
        <ele>535.00000</ele>
        <time>2019-04-02T13:46:41Z</time>
      </trkpt>
      <trkpt lat="41.52359224" lon="1.531993467">
        <ele>535.00000</ele>
        <time>2019-04-02T13:46:42Z</time>
      </trkpt>
      <trkpt lat="41.52349619" lon="1.531961951">
        <ele>534.00000</ele>
        <time>2019-04-02T13:46:43Z</time>
      </trkpt>
      <trkpt lat="41.52332050" lon="1.531831109">
        <ele>534.00000</ele>
        <time>2019-04-02T13:46:45Z</time>
      </trkpt>
      <trkpt lat="41.52325085" lon="1.531727844">
        <ele>533.00000</ele>
        <time>2019-04-02T13:46:46Z</time>
      </trkpt>
      <trkpt lat="41.52320106" lon="1.531609911">
        <ele>532.00000</ele>
        <time>2019-04-02T13:46:47Z</time>
      </trkpt>
      <trkpt lat="41.52316024" lon="1.531483009">
        <ele>531.00000</ele>
        <time>2019-04-02T13:46:48Z</time>
      </trkpt>
      <trkpt lat="41.52312864" lon="1.531352251">
        <ele>531.00000</ele>
        <time>2019-04-02T13:46:49Z</time>
      </trkpt>
      <trkpt lat="41.52308078" lon="1.531085874">
        <ele>531.00000</ele>
        <time>2019-04-02T13:46:51Z</time>
      </trkpt>
      <trkpt lat="41.52305597" lon="1.530955033">
        <ele>530.00000</ele>
        <time>2019-04-02T13:46:52Z</time>
      </trkpt>
      <trkpt lat="41.52302940" lon="1.530824610">
        <ele>528.00000</ele>
        <time>2019-04-02T13:46:53Z</time>
      </trkpt>
      <trkpt lat="41.52292018" lon="1.530294539">
        <ele>527.00000</ele>
        <time>2019-04-02T13:46:57Z</time>
      </trkpt>
      <trkpt lat="41.52289261" lon="1.530160345">
        <ele>526.00000</ele>
        <time>2019-04-02T13:46:58Z</time>
      </trkpt>
      <trkpt lat="41.52283142" lon="1.529891286">
        <ele>525.00000</ele>
        <time>2019-04-02T13:47:00Z</time>
      </trkpt>
      <trkpt lat="41.52278859" lon="1.529760779">
        <ele>524.00000</ele>
        <time>2019-04-02T13:47:01Z</time>
      </trkpt>
      <trkpt lat="41.52273260" lon="1.529638152">
        <ele>524.00000</ele>
        <time>2019-04-02T13:47:02Z</time>
      </trkpt>
      <trkpt lat="41.52258256" lon="1.529434472">
        <ele>522.00000</ele>
        <time>2019-04-02T13:47:04Z</time>
      </trkpt>
      <trkpt lat="41.52249380" lon="1.529351910">
        <ele>522.00000</ele>
        <time>2019-04-02T13:47:05Z</time>
      </trkpt>
      <trkpt lat="41.52239958" lon="1.529279071">
        <ele>521.00000</ele>
        <time>2019-04-02T13:47:06Z</time>
      </trkpt>
      <trkpt lat="41.52230571" lon="1.529210256">
        <ele>521.00000</ele>
        <time>2019-04-02T13:47:07Z</time>
      </trkpt>
      <trkpt lat="41.52221526" lon="1.529143452">
        <ele>520.00000</ele>
        <time>2019-04-02T13:47:08Z</time>
      </trkpt>
      <trkpt lat="41.52204084" lon="1.529019987">
        <ele>519.00000</ele>
        <time>2019-04-02T13:47:10Z</time>
      </trkpt>
      <trkpt lat="41.52158092" lon="1.528686890">
        <ele>520.00000</ele>
        <time>2019-04-02T13:47:16Z</time>
      </trkpt>
      <trkpt lat="41.52143960" lon="1.528586642">
        <ele>521.00000</ele>
        <time>2019-04-02T13:47:18Z</time>
      </trkpt>
      <trkpt lat="41.52130910" lon="1.528490418">
        <ele>522.00000</ele>
        <time>2019-04-02T13:47:20Z</time>
      </trkpt>
      <trkpt lat="41.52118471" lon="1.528399139">
        <ele>523.00000</ele>
        <time>2019-04-02T13:47:22Z</time>
      </trkpt>
      <trkpt lat="41.52112511" lon="1.528353458">
        <ele>523.00000</ele>
        <time>2019-04-02T13:47:23Z</time>
      </trkpt>
      <trkpt lat="41.52084114" lon="1.528142485">
        <ele>524.00000</ele>
        <time>2019-04-02T13:47:28Z</time>
      </trkpt>
      <trkpt lat="41.52072865" lon="1.528057828">
        <ele>525.00000</ele>
        <time>2019-04-02T13:47:30Z</time>
      </trkpt>
      <trkpt lat="41.52036421" lon="1.527784997">
        <ele>525.00000</ele>
        <time>2019-04-02T13:47:37Z</time>
      </trkpt>
      <trkpt lat="41.52031802" lon="1.527738897">
        <ele>525.00000</ele>
        <time>2019-04-02T13:47:38Z</time>
      </trkpt>
      <trkpt lat="41.52019070" lon="1.527583245">
        <ele>526.00000</ele>
        <time>2019-04-02T13:47:41Z</time>
      </trkpt>
      <trkpt lat="41.52012423" lon="1.527464641">
        <ele>526.00000</ele>
        <time>2019-04-02T13:47:43Z</time>
      </trkpt>
      <trkpt lat="41.52009724" lon="1.527402196">
        <ele>526.00000</ele>
        <time>2019-04-02T13:47:44Z</time>
      </trkpt>
      <trkpt lat="41.52005407" lon="1.527280323">
        <ele>527.00000</ele>
        <time>2019-04-02T13:47:46Z</time>
      </trkpt>
      <trkpt lat="41.52001552" lon="1.527153169">
        <ele>527.00000</ele>
        <time>2019-04-02T13:47:48Z</time>
      </trkpt>
      <trkpt lat="41.51998308" lon="1.527017718">
        <ele>527.00000</ele>
        <time>2019-04-02T13:47:50Z</time>
      </trkpt>
      <trkpt lat="41.51991586" lon="1.526707168">
        <ele>527.00000</ele>
        <time>2019-04-02T13:47:54Z</time>
      </trkpt>
      <trkpt lat="41.51983925" lon="1.526364432">
        <ele>526.00000</ele>
        <time>2019-04-02T13:47:58Z</time>
      </trkpt>
      <trkpt lat="41.51974235" lon="1.525910971">
        <ele>524.00000</ele>
        <time>2019-04-02T13:48:03Z</time>
      </trkpt>
      <trkpt lat="41.51959776" lon="1.525225415">
        <ele>524.00000</ele>
        <time>2019-04-02T13:48:11Z</time>
      </trkpt>
      <trkpt lat="41.51945879" lon="1.524744797">
        <ele>524.00000</ele>
        <time>2019-04-02T13:48:17Z</time>
      </trkpt>
      <trkpt lat="41.51941319" lon="1.524678077">
        <ele>524.00000</ele>
        <time>2019-04-02T13:48:18Z</time>
      </trkpt>
      <trkpt lat="41.51921069" lon="1.524558803">
        <ele>523.00000</ele>
        <time>2019-04-02T13:48:21Z</time>
      </trkpt>
      <trkpt lat="41.51904724" lon="1.524565424">
        <ele>523.00000</ele>
        <time>2019-04-02T13:48:23Z</time>
      </trkpt>
      <trkpt lat="41.51896342" lon="1.524578416">
        <ele>523.00000</ele>
        <time>2019-04-02T13:48:24Z</time>
      </trkpt>
      <trkpt lat="41.51888136" lon="1.524590570">
        <ele>523.00000</ele>
        <time>2019-04-02T13:48:25Z</time>
      </trkpt>
      <trkpt lat="41.51872320" lon="1.524624433">
        <ele>523.00000</ele>
        <time>2019-04-02T13:48:27Z</time>
      </trkpt>
      <trkpt lat="41.51849127" lon="1.524659888">
        <ele>524.00000</ele>
        <time>2019-04-02T13:48:30Z</time>
      </trkpt>
      <trkpt lat="41.51826462" lon="1.524704312">
        <ele>524.00000</ele>
        <time>2019-04-02T13:48:33Z</time>
      </trkpt>
      <trkpt lat="41.51804644" lon="1.524772206">
        <ele>525.00000</ele>
        <time>2019-04-02T13:48:36Z</time>
      </trkpt>
      <trkpt lat="41.51797419" lon="1.524795088">
        <ele>525.00000</ele>
        <time>2019-04-02T13:48:37Z</time>
      </trkpt>
      <trkpt lat="41.51767688" lon="1.524856947">
        <ele>525.00000</ele>
        <time>2019-04-02T13:48:41Z</time>
      </trkpt>
      <trkpt lat="41.51750070" lon="1.524864155">
        <ele>524.00000</ele>
        <time>2019-04-02T13:48:43Z</time>
      </trkpt>
      <trkpt lat="41.51731470" lon="1.524856276">
        <ele>523.00000</ele>
        <time>2019-04-02T13:48:45Z</time>
      </trkpt>
      <trkpt lat="41.51721965" lon="1.524849487">
        <ele>522.00000</ele>
        <time>2019-04-02T13:48:46Z</time>
      </trkpt>
      <trkpt lat="41.51712401" lon="1.524843620">
        <ele>522.00000</ele>
        <time>2019-04-02T13:48:47Z</time>
      </trkpt>
      <trkpt lat="41.51692151" lon="1.524825934">
        <ele>520.00000</ele>
        <time>2019-04-02T13:48:49Z</time>
      </trkpt>
      <trkpt lat="41.51671330" lon="1.524801375">
        <ele>519.00000</ele>
        <time>2019-04-02T13:48:51Z</time>
      </trkpt>
      <trkpt lat="41.51649830" lon="1.524782096">
        <ele>517.00000</ele>
        <time>2019-04-02T13:48:53Z</time>
      </trkpt>
      <trkpt lat="41.51628088" lon="1.524767763">
        <ele>516.00000</ele>
        <time>2019-04-02T13:48:55Z</time>
      </trkpt>
      <trkpt lat="41.51616915" lon="1.524771032">
        <ele>516.00000</ele>
        <time>2019-04-02T13:48:56Z</time>
      </trkpt>
      <trkpt lat="41.51605700" lon="1.524788634">
        <ele>515.00000</ele>
        <time>2019-04-02T13:48:57Z</time>
      </trkpt>
      <trkpt lat="41.51594711" lon="1.524819396">
        <ele>514.00000</ele>
        <time>2019-04-02T13:48:58Z</time>
      </trkpt>
      <trkpt lat="41.51572398" lon="1.524903299">
        <ele>512.00000</ele>
        <time>2019-04-02T13:49:00Z</time>
      </trkpt>
      <trkpt lat="41.51549935" lon="1.524996673">
        <ele>511.00000</ele>
        <time>2019-04-02T13:49:02Z</time>
      </trkpt>
      <trkpt lat="41.51538561" lon="1.525039672">
        <ele>510.00000</ele>
        <time>2019-04-02T13:49:03Z</time>
      </trkpt>
      <trkpt lat="41.51515544" lon="1.525132125">
        <ele>509.00000</ele>
        <time>2019-04-02T13:49:05Z</time>
      </trkpt>
      <trkpt lat="41.51492058" lon="1.525228600">
        <ele>507.00000</ele>
        <time>2019-04-02T13:49:07Z</time>
      </trkpt>
      <trkpt lat="41.51468438" lon="1.525324070">
        <ele>506.00000</ele>
        <time>2019-04-02T13:49:09Z</time>
      </trkpt>
      <trkpt lat="41.51444423" lon="1.525417109">
        <ele>505.00000</ele>
        <time>2019-04-02T13:49:11Z</time>
      </trkpt>
      <trkpt lat="41.51432387" lon="1.525464048">
        <ele>504.00000</ele>
        <time>2019-04-02T13:49:12Z</time>
      </trkpt>
      <trkpt lat="41.51420317" lon="1.525510819">
        <ele>503.00000</ele>
        <time>2019-04-02T13:49:13Z</time>
      </trkpt>
      <trkpt lat="41.51396018" lon="1.525607127">
        <ele>502.00000</ele>
        <time>2019-04-02T13:49:15Z</time>
      </trkpt>
      <trkpt lat="41.51371702" lon="1.525709470">
        <ele>500.00000</ele>
        <time>2019-04-02T13:49:17Z</time>
      </trkpt>
      <trkpt lat="41.51347420" lon="1.525808209">
        <ele>498.00000</ele>
        <time>2019-04-02T13:49:19Z</time>
      </trkpt>
      <trkpt lat="41.51323037" lon="1.525907618">
        <ele>497.00000</ele>
        <time>2019-04-02T13:49:21Z</time>
      </trkpt>
      <trkpt lat="41.51311243" lon="1.525966711">
        <ele>496.00000</ele>
        <time>2019-04-02T13:49:22Z</time>
      </trkpt>
      <trkpt lat="41.51300179" lon="1.526048602">
        <ele>496.00000</ele>
        <time>2019-04-02T13:49:23Z</time>
      </trkpt>
      <trkpt lat="41.51290699" lon="1.526159998">
        <ele>495.00000</ele>
        <time>2019-04-02T13:49:24Z</time>
      </trkpt>
      <trkpt lat="41.51283097" lon="1.526295198">
        <ele>494.00000</ele>
        <time>2019-04-02T13:49:25Z</time>
      </trkpt>
      <trkpt lat="41.51271228" lon="1.526593761">
        <ele>492.00000</ele>
        <time>2019-04-02T13:49:27Z</time>
      </trkpt>
      <trkpt lat="41.51259887" lon="1.526902467">
        <ele>491.00000</ele>
        <time>2019-04-02T13:49:29Z</time>
      </trkpt>
      <trkpt lat="41.51248496" lon="1.527211256">
        <ele>489.00000</ele>
        <time>2019-04-02T13:49:31Z</time>
      </trkpt>
      <trkpt lat="41.51237198" lon="1.527522141">
        <ele>488.00000</ele>
        <time>2019-04-02T13:49:33Z</time>
      </trkpt>
      <trkpt lat="41.51225505" lon="1.527832858">
        <ele>487.00000</ele>
        <time>2019-04-02T13:49:35Z</time>
      </trkpt>
      <trkpt lat="41.51213753" lon="1.528145084">
        <ele>485.00000</ele>
        <time>2019-04-02T13:49:37Z</time>
      </trkpt>
      <trkpt lat="41.51201960" lon="1.528454879">
        <ele>483.00000</ele>
        <time>2019-04-02T13:49:39Z</time>
      </trkpt>
      <trkpt lat="41.51190494" lon="1.528767943">
        <ele>482.00000</ele>
        <time>2019-04-02T13:49:41Z</time>
      </trkpt>
      <trkpt lat="41.51178902" lon="1.529082264">
        <ele>481.00000</ele>
        <time>2019-04-02T13:49:43Z</time>
      </trkpt>
      <trkpt lat="41.51167033" lon="1.529395915">
        <ele>480.00000</ele>
        <time>2019-04-02T13:49:45Z</time>
      </trkpt>
      <trkpt lat="41.51160252" lon="1.529548298">
        <ele>478.00000</ele>
        <time>2019-04-02T13:49:46Z</time>
      </trkpt>
      <trkpt lat="41.51143630" lon="1.529828673">
        <ele>477.00000</ele>
        <time>2019-04-02T13:49:48Z</time>
      </trkpt>
      <trkpt lat="41.51133899" lon="1.529952473">
        <ele>477.00000</ele>
        <time>2019-04-02T13:49:49Z</time>
      </trkpt>
      <trkpt lat="41.51124143" lon="1.530073676">
        <ele>476.00000</ele>
        <time>2019-04-02T13:49:50Z</time>
      </trkpt>
      <trkpt lat="41.51104269" lon="1.530311806">
        <ele>474.00000</ele>
        <time>2019-04-02T13:49:52Z</time>
      </trkpt>
      <trkpt lat="41.51094387" lon="1.530433259">
        <ele>473.00000</ele>
        <time>2019-04-02T13:49:53Z</time>
      </trkpt>
      <trkpt lat="41.51074564" lon="1.530677089">
        <ele>471.00000</ele>
        <time>2019-04-02T13:49:55Z</time>
      </trkpt>
      <trkpt lat="41.51064623" lon="1.530800890">
        <ele>470.00000</ele>
        <time>2019-04-02T13:49:56Z</time>
      </trkpt>
      <trkpt lat="41.51044758" lon="1.531048743">
        <ele>468.00000</ele>
        <time>2019-04-02T13:49:58Z</time>
      </trkpt>
      <trkpt lat="41.51025353" lon="1.531298859">
        <ele>467.00000</ele>
        <time>2019-04-02T13:50:00Z</time>
      </trkpt>
      <trkpt lat="41.51007131" lon="1.531537491">
        <ele>466.00000</ele>
        <time>2019-04-02T13:50:02Z</time>
      </trkpt>
      <trkpt lat="41.50998389" lon="1.531645953">
        <ele>466.00000</ele>
        <time>2019-04-02T13:50:03Z</time>
      </trkpt>
      <trkpt lat="41.50966965" lon="1.532038142">
        <ele>467.00000</ele>
        <time>2019-04-02T13:50:07Z</time>
      </trkpt>
      <trkpt lat="41.50959606" lon="1.532132271">
        <ele>467.00000</ele>
        <time>2019-04-02T13:50:08Z</time>
      </trkpt>
      <trkpt lat="41.50946656" lon="1.532334024">
        <ele>468.00000</ele>
        <time>2019-04-02T13:50:10Z</time>
      </trkpt>
      <trkpt lat="41.50939347" lon="1.532568046">
        <ele>468.00000</ele>
        <time>2019-04-02T13:50:12Z</time>
      </trkpt>
      <trkpt lat="41.50936857" lon="1.532818833">
        <ele>468.00000</ele>
        <time>2019-04-02T13:50:14Z</time>
      </trkpt>
      <trkpt lat="41.50936136" lon="1.533062495">
        <ele>469.00000</ele>
        <time>2019-04-02T13:50:16Z</time>
      </trkpt>
      <trkpt lat="41.50933287" lon="1.533405231">
        <ele>469.00000</ele>
        <time>2019-04-02T13:50:19Z</time>
      </trkpt>
      <trkpt lat="41.50926707" lon="1.533586867">
        <ele>469.00000</ele>
        <time>2019-04-02T13:50:21Z</time>
      </trkpt>
      <trkpt lat="41.50907110" lon="1.533798258">
        <ele>469.00000</ele>
        <time>2019-04-02T13:50:24Z</time>
      </trkpt>
      <trkpt lat="41.50898812" lon="1.533867828">
        <ele>469.00000</ele>
        <time>2019-04-02T13:50:25Z</time>
      </trkpt>
      <trkpt lat="41.50883917" lon="1.534005710">
        <ele>469.00000</ele>
        <time>2019-04-02T13:50:27Z</time>
      </trkpt>
      <trkpt lat="41.50857380" lon="1.534267226">
        <ele>470.00000</ele>
        <time>2019-04-02T13:50:31Z</time>
      </trkpt>
      <trkpt lat="41.50851102" lon="1.534330006">
        <ele>470.00000</ele>
        <time>2019-04-02T13:50:32Z</time>
      </trkpt>
      <trkpt lat="41.50819477" lon="1.534638209">
        <ele>470.00000</ele>
        <time>2019-04-02T13:50:37Z</time>
      </trkpt>
      <trkpt lat="41.50788045" lon="1.534909363">
        <ele>470.00000</ele>
        <time>2019-04-02T13:50:42Z</time>
      </trkpt>
      <trkpt lat="41.50780946" lon="1.534940795">
        <ele>470.00000</ele>
        <time>2019-04-02T13:50:43Z</time>
      </trkpt>
      <trkpt lat="41.50758943" lon="1.534940209">
        <ele>470.00000</ele>
        <time>2019-04-02T13:50:46Z</time>
      </trkpt>
      <trkpt lat="41.50738424" lon="1.534828227">
        <ele>470.00000</ele>
        <time>2019-04-02T13:50:49Z</time>
      </trkpt>
      <trkpt lat="41.50731333" lon="1.534780953">
        <ele>470.00000</ele>
        <time>2019-04-02T13:50:50Z</time>
      </trkpt>
      <trkpt lat="41.50681134" lon="1.534462105">
        <ele>470.00000</ele>
        <time>2019-04-02T13:50:57Z</time>
      </trkpt>
      <trkpt lat="41.50667069" lon="1.534379040">
        <ele>470.00000</ele>
        <time>2019-04-02T13:50:59Z</time>
      </trkpt>
      <trkpt lat="41.50634287" lon="1.534119285">
        <ele>470.00000</ele>
        <time>2019-04-02T13:51:04Z</time>
      </trkpt>
      <trkpt lat="41.50614271" lon="1.533783506">
        <ele>469.00000</ele>
        <time>2019-04-02T13:51:08Z</time>
      </trkpt>
      <trkpt lat="41.50605571" lon="1.533366590">
        <ele>469.00000</ele>
        <time>2019-04-02T13:51:12Z</time>
      </trkpt>
      <trkpt lat="41.50595169" lon="1.532956045">
        <ele>469.00000</ele>
        <time>2019-04-02T13:51:16Z</time>
      </trkpt>
      <trkpt lat="41.50590735" lon="1.532874237">
        <ele>469.00000</ele>
        <time>2019-04-02T13:51:17Z</time>
      </trkpt>
      <trkpt lat="41.50570987" lon="1.532712886">
        <ele>468.00000</ele>
        <time>2019-04-02T13:51:20Z</time>
      </trkpt>
      <trkpt lat="41.50562069" lon="1.532685393">
        <ele>468.00000</ele>
        <time>2019-04-02T13:51:21Z</time>
      </trkpt>
      <trkpt lat="41.50553042" lon="1.532662594">
        <ele>468.00000</ele>
        <time>2019-04-02T13:51:22Z</time>
      </trkpt>
      <trkpt lat="41.50535163" lon="1.532622193">
        <ele>467.00000</ele>
        <time>2019-04-02T13:51:24Z</time>
      </trkpt>
      <trkpt lat="41.50509187" lon="1.532549271">
        <ele>467.00000</ele>
        <time>2019-04-02T13:51:27Z</time>
      </trkpt>
      <trkpt lat="41.50466884" lon="1.532421447">
        <ele>467.00000</ele>
        <time>2019-04-02T13:51:32Z</time>
      </trkpt>
      <trkpt lat="41.50458443" lon="1.532396804">
        <ele>466.00000</ele>
        <time>2019-04-02T13:51:33Z</time>
      </trkpt>
      <trkpt lat="41.50399787" lon="1.532197985">
        <ele>466.00000</ele>
        <time>2019-04-02T13:51:40Z</time>
      </trkpt>
      <trkpt lat="41.50391799" lon="1.532163955">
        <ele>466.00000</ele>
        <time>2019-04-02T13:51:41Z</time>
      </trkpt>
      <trkpt lat="41.50384155" lon="1.532125817">
        <ele>466.00000</ele>
        <time>2019-04-02T13:51:42Z</time>
      </trkpt>
      <trkpt lat="41.50369687" lon="1.532029593">
        <ele>466.00000</ele>
        <time>2019-04-02T13:51:44Z</time>
      </trkpt>
      <trkpt lat="41.50349202" lon="1.531860362">
        <ele>466.00000</ele>
        <time>2019-04-02T13:51:47Z</time>
      </trkpt>
      <trkpt lat="41.50301090" lon="1.531446212">
        <ele>466.00000</ele>
        <time>2019-04-02T13:51:54Z</time>
      </trkpt>
      <trkpt lat="41.50266112" lon="1.531133819">
        <ele>466.00000</ele>
        <time>2019-04-02T13:51:59Z</time>
      </trkpt>
      <trkpt lat="41.50217464" lon="1.530719250">
        <ele>466.00000</ele>
        <time>2019-04-02T13:52:06Z</time>
      </trkpt>
      <trkpt lat="41.50196786" lon="1.530558653">
        <ele>466.00000</ele>
        <time>2019-04-02T13:52:09Z</time>
      </trkpt>
      <trkpt lat="41.50158338" lon="1.530266376">
        <ele>467.00000</ele>
        <time>2019-04-02T13:52:15Z</time>
      </trkpt>
      <trkpt lat="41.50142094" lon="1.530076358">
        <ele>467.00000</ele>
        <time>2019-04-02T13:52:18Z</time>
      </trkpt>
      <trkpt lat="41.50133645" lon="1.529931854">
        <ele>467.00000</ele>
        <time>2019-04-02T13:52:20Z</time>
      </trkpt>
      <trkpt lat="41.50124508" lon="1.529708979">
        <ele>468.00000</ele>
        <time>2019-04-02T13:52:23Z</time>
      </trkpt>
      <trkpt lat="41.50119052" lon="1.529566822">
        <ele>468.00000</ele>
        <time>2019-04-02T13:52:25Z</time>
      </trkpt>
      <trkpt lat="41.50100645" lon="1.529064914">
        <ele>469.00000</ele>
        <time>2019-04-02T13:52:32Z</time>
      </trkpt>
      <trkpt lat="41.50097963" lon="1.528997607">
        <ele>469.00000</ele>
        <time>2019-04-02T13:52:33Z</time>
      </trkpt>
      <trkpt lat="41.50087720" lon="1.528716562">
        <ele>470.00000</ele>
        <time>2019-04-02T13:52:37Z</time>
      </trkpt>
      <trkpt lat="41.50079732" lon="1.528510367">
        <ele>470.00000</ele>
        <time>2019-04-02T13:52:40Z</time>
      </trkpt>
      <trkpt lat="41.50066698" lon="1.528174253">
        <ele>471.00000</ele>
        <time>2019-04-02T13:52:45Z</time>
      </trkpt>
      <trkpt lat="41.50061435" lon="1.528044752">
        <ele>472.00000</ele>
        <time>2019-04-02T13:52:47Z</time>
      </trkpt>
      <trkpt lat="41.50056162" lon="1.527911480">
        <ele>473.00000</ele>
        <time>2019-04-02T13:52:49Z</time>
      </trkpt>
      <trkpt lat="41.50037194" lon="1.527440417">
        <ele>473.00000</ele>
        <time>2019-04-02T13:52:56Z</time>
      </trkpt>
      <trkpt lat="41.50019114" lon="1.526967007">
        <ele>474.00000</ele>
        <time>2019-04-02T13:53:03Z</time>
      </trkpt>
      <trkpt lat="41.50008419" lon="1.526707587">
        <ele>474.00000</ele>
        <time>2019-04-02T13:53:07Z</time>
      </trkpt>
      <trkpt lat="41.49987204" lon="1.526177180">
        <ele>475.00000</ele>
        <time>2019-04-02T13:53:15Z</time>
      </trkpt>
      <trkpt lat="41.49981941" lon="1.526041897">
        <ele>475.00000</ele>
        <time>2019-04-02T13:53:17Z</time>
      </trkpt>
      <trkpt lat="41.49968974" lon="1.525708632">
        <ele>476.00000</ele>
        <time>2019-04-02T13:53:22Z</time>
      </trkpt>
      <trkpt lat="41.49952847" lon="1.525302696">
        <ele>476.00000</ele>
        <time>2019-04-02T13:53:28Z</time>
      </trkpt>
      <trkpt lat="41.49928632" lon="1.524677574">
        <ele>477.00000</ele>
        <time>2019-04-02T13:53:37Z</time>
      </trkpt>
      <trkpt lat="41.49926067" lon="1.524607921">
        <ele>477.00000</ele>
        <time>2019-04-02T13:53:38Z</time>
      </trkpt>
      <trkpt lat="41.49901407" lon="1.523978188">
        <ele>478.00000</ele>
        <time>2019-04-02T13:53:47Z</time>
      </trkpt>
      <trkpt lat="41.49892774" lon="1.523780124">
        <ele>478.00000</ele>
        <time>2019-04-02T13:53:50Z</time>
      </trkpt>
      <trkpt lat="41.49879924" lon="1.523540401">
        <ele>479.00000</ele>
        <time>2019-04-02T13:53:54Z</time>
      </trkpt>
      <trkpt lat="41.49873278" lon="1.523428251">
        <ele>479.00000</ele>
        <time>2019-04-02T13:53:56Z</time>
      </trkpt>
      <trkpt lat="41.49869782" lon="1.523376284">
        <ele>479.00000</ele>
        <time>2019-04-02T13:53:57Z</time>
      </trkpt>
      <trkpt lat="41.49852708" lon="1.523125749">
        <ele>480.00000</ele>
        <time>2019-04-02T13:54:02Z</time>
      </trkpt>
      <trkpt lat="41.49836364" lon="1.522880075">
        <ele>481.00000</ele>
        <time>2019-04-02T13:54:07Z</time>
      </trkpt>
      <trkpt lat="41.49825995" lon="1.522734565">
        <ele>482.00000</ele>
        <time>2019-04-02T13:54:10Z</time>
      </trkpt>
      <trkpt lat="41.49822500" lon="1.522683184">
        <ele>482.00000</ele>
        <time>2019-04-02T13:54:11Z</time>
      </trkpt>
      <trkpt lat="41.49808527" lon="1.522472295">
        <ele>483.00000</ele>
        <time>2019-04-02T13:54:15Z</time>
      </trkpt>
      <trkpt lat="41.49801168" lon="1.522372299">
        <ele>484.00000</ele>
        <time>2019-04-02T13:54:17Z</time>
      </trkpt>
      <trkpt lat="41.49787933" lon="1.522169876">
        <ele>485.00000</ele>
        <time>2019-04-02T13:54:21Z</time>
      </trkpt>
      <trkpt lat="41.49777883" lon="1.522008525">
        <ele>485.00000</ele>
        <time>2019-04-02T13:54:24Z</time>
      </trkpt>
      <trkpt lat="41.49757389" lon="1.521704848">
        <ele>486.00000</ele>
        <time>2019-04-02T13:54:30Z</time>
      </trkpt>
      <trkpt lat="41.49751153" lon="1.521604768">
        <ele>486.00000</ele>
        <time>2019-04-02T13:54:32Z</time>
      </trkpt>
      <trkpt lat="41.49747968" lon="1.521553304">
        <ele>487.00000</ele>
        <time>2019-04-02T13:54:33Z</time>
      </trkpt>
      <trkpt lat="41.49723703" lon="1.521183997">
        <ele>488.00000</ele>
        <time>2019-04-02T13:54:40Z</time>
      </trkpt>
      <trkpt lat="41.49714541" lon="1.521009150">
        <ele>489.00000</ele>
        <time>2019-04-02T13:54:43Z</time>
      </trkpt>
      <trkpt lat="41.49705363" lon="1.520822988">
        <ele>489.00000</ele>
        <time>2019-04-02T13:54:46Z</time>
      </trkpt>
      <trkpt lat="41.49692664" lon="1.520560551">
        <ele>490.00000</ele>
        <time>2019-04-02T13:54:50Z</time>
      </trkpt>
      <trkpt lat="41.49679605" lon="1.520276991">
        <ele>490.00000</ele>
        <time>2019-04-02T13:54:54Z</time>
      </trkpt>
      <trkpt lat="41.49652155" lon="1.519678691">
        <ele>489.00000</ele>
        <time>2019-04-02T13:55:02Z</time>
      </trkpt>
      <trkpt lat="41.49636095" lon="1.519398903">
        <ele>489.00000</ele>
        <time>2019-04-02T13:55:06Z</time>
      </trkpt>
      <trkpt lat="41.49624310" lon="1.519308211">
        <ele>489.00000</ele>
        <time>2019-04-02T13:55:08Z</time>
      </trkpt>
      <trkpt lat="41.49603607" lon="1.519266469">
        <ele>489.00000</ele>
        <time>2019-04-02T13:55:11Z</time>
      </trkpt>
      <trkpt lat="41.49596465" lon="1.519265882">
        <ele>489.00000</ele>
        <time>2019-04-02T13:55:12Z</time>
      </trkpt>
      <trkpt lat="41.49546409" lon="1.519302595">
        <ele>488.00000</ele>
        <time>2019-04-02T13:55:19Z</time>
      </trkpt>
      <trkpt lat="41.49520726" lon="1.519320113">
        <ele>490.00000</ele>
        <time>2019-04-02T13:55:23Z</time>
      </trkpt>
      <trkpt lat="41.49509361" lon="1.519319526">
        <ele>491.00000</ele>
        <time>2019-04-02T13:55:25Z</time>
      </trkpt>
      <trkpt lat="41.49503812" lon="1.519312486">
        <ele>491.00000</ele>
        <time>2019-04-02T13:55:26Z</time>
      </trkpt>
      <trkpt lat="41.49488230" lon="1.519259260">
        <ele>493.00000</ele>
        <time>2019-04-02T13:55:29Z</time>
      </trkpt>
      <trkpt lat="41.49483561" lon="1.519228415">
        <ele>493.00000</ele>
        <time>2019-04-02T13:55:30Z</time>
      </trkpt>
      <trkpt lat="41.49447888" lon="1.518981987">
        <ele>494.00000</ele>
        <time>2019-04-02T13:55:37Z</time>
      </trkpt>
      <trkpt lat="41.49407395" lon="1.518616704">
        <ele>493.00000</ele>
        <time>2019-04-02T13:55:45Z</time>
      </trkpt>
      <trkpt lat="41.49394545" lon="1.518332809">
        <ele>493.00000</ele>
        <time>2019-04-02T13:55:49Z</time>
      </trkpt>
      <trkpt lat="41.49392299" lon="1.518253516">
        <ele>493.00000</ele>
        <time>2019-04-02T13:55:50Z</time>
      </trkpt>
      <trkpt lat="41.49385551" lon="1.517922179">
        <ele>493.00000</ele>
        <time>2019-04-02T13:55:54Z</time>
      </trkpt>
      <trkpt lat="41.49375803" lon="1.517424881">
        <ele>493.00000</ele>
        <time>2019-04-02T13:56:00Z</time>
      </trkpt>
      <trkpt lat="41.49370020" lon="1.517165629">
        <ele>492.00000</ele>
        <time>2019-04-02T13:56:03Z</time>
      </trkpt>
      <trkpt lat="41.49360640" lon="1.516710743">
        <ele>492.00000</ele>
        <time>2019-04-02T13:56:08Z</time>
      </trkpt>
      <trkpt lat="41.49353197" lon="1.516443109">
        <ele>491.00000</ele>
        <time>2019-04-02T13:56:11Z</time>
      </trkpt>
      <trkpt lat="41.49349182" lon="1.516361804">
        <ele>491.00000</ele>
        <time>2019-04-02T13:56:12Z</time>
      </trkpt>
      <trkpt lat="41.49333894" lon="1.516133900">
        <ele>490.00000</ele>
        <time>2019-04-02T13:56:15Z</time>
      </trkpt>
      <trkpt lat="41.49298053" lon="1.515734000">
        <ele>490.00000</ele>
        <time>2019-04-02T13:56:21Z</time>
      </trkpt>
      <trkpt lat="41.49292143" lon="1.515671219">
        <ele>490.00000</ele>
        <time>2019-04-02T13:56:22Z</time>
      </trkpt>
      <trkpt lat="41.49273812" lon="1.515515232">
        <ele>490.00000</ele>
        <time>2019-04-02T13:56:25Z</time>
      </trkpt>
      <trkpt lat="41.49260703" lon="1.515486482">
        <ele>491.00000</ele>
        <time>2019-04-02T13:56:27Z</time>
      </trkpt>
      <trkpt lat="41.49248155" lon="1.515500480">
        <ele>492.00000</ele>
        <time>2019-04-02T13:56:29Z</time>
      </trkpt>
      <trkpt lat="41.49236865" lon="1.515533253">
        <ele>493.00000</ele>
        <time>2019-04-02T13:56:31Z</time>
      </trkpt>
      <trkpt lat="41.49231308" lon="1.515556303">
        <ele>493.00000</ele>
        <time>2019-04-02T13:56:32Z</time>
      </trkpt>
      <trkpt lat="41.49226170" lon="1.515585137">
        <ele>494.00000</ele>
        <time>2019-04-02T13:56:33Z</time>
      </trkpt>
      <trkpt lat="41.49215910" lon="1.515638362">
        <ele>495.00000</ele>
        <time>2019-04-02T13:56:35Z</time>
      </trkpt>
      <trkpt lat="41.49206673" lon="1.515693431">
        <ele>495.00000</ele>
        <time>2019-04-02T13:56:37Z</time>
      </trkpt>
      <trkpt lat="41.49197378" lon="1.515738526">
        <ele>496.00000</ele>
        <time>2019-04-02T13:56:39Z</time>
      </trkpt>
      <trkpt lat="41.49192525" lon="1.515747997">
        <ele>496.00000</ele>
        <time>2019-04-02T13:56:40Z</time>
      </trkpt>
      <trkpt lat="41.49182047" lon="1.515732826">
        <ele>496.00000</ele>
        <time>2019-04-02T13:56:42Z</time>
      </trkpt>
      <trkpt lat="41.49166314" lon="1.515571726">
        <ele>496.00000</ele>
        <time>2019-04-02T13:56:46Z</time>
      </trkpt>
      <trkpt lat="41.49160212" lon="1.515456559">
        <ele>497.00000</ele>
        <time>2019-04-02T13:56:48Z</time>
      </trkpt>
      <trkpt lat="41.49157119" lon="1.515395622">
        <ele>497.00000</ele>
        <time>2019-04-02T13:56:49Z</time>
      </trkpt>
      <trkpt lat="41.49144454" lon="1.515146680">
        <ele>497.00000</ele>
        <time>2019-04-02T13:56:53Z</time>
      </trkpt>
      <trkpt lat="41.49118068" lon="1.514625744">
        <ele>497.00000</ele>
        <time>2019-04-02T13:57:01Z</time>
      </trkpt>
      <trkpt lat="41.49112561" lon="1.514508398">
        <ele>497.00000</ele>
        <time>2019-04-02T13:57:39Z</time>
      </trkpt>
      <trkpt lat="41.49108890" lon="1.514448970">
        <ele>497.00000</ele>
        <time>2019-04-02T13:57:41Z</time>
      </trkpt>
      <trkpt lat="41.49094716" lon="1.514198854">
        <ele>496.00000</ele>
        <time>2019-04-02T13:57:46Z</time>
      </trkpt>
      <trkpt lat="41.49087030" lon="1.514070779">
        <ele>496.00000</ele>
        <time>2019-04-02T13:57:48Z</time>
      </trkpt>
      <trkpt lat="41.49070492" lon="1.513782441">
        <ele>494.00000</ele>
        <time>2019-04-02T13:57:52Z</time>
      </trkpt>
      <trkpt lat="41.49063628" lon="1.513517657">
        <ele>493.00000</ele>
        <time>2019-04-02T13:57:55Z</time>
      </trkpt>
      <trkpt lat="41.49060686" lon="1.513435849">
        <ele>493.00000</ele>
        <time>2019-04-02T13:57:56Z</time>
      </trkpt>
      <trkpt lat="41.49046872" lon="1.513231582">
        <ele>493.00000</ele>
        <time>2019-04-02T13:57:59Z</time>
      </trkpt>
      <trkpt lat="41.49037166" lon="1.513082804">
        <ele>493.00000</ele>
        <time>2019-04-02T13:58:01Z</time>
      </trkpt>
      <trkpt lat="41.49028206" lon="1.512908460">
        <ele>492.00000</ele>
        <time>2019-04-02T13:58:03Z</time>
      </trkpt>
      <trkpt lat="41.49023143" lon="1.512820366">
        <ele>492.00000</ele>
        <time>2019-04-02T13:58:04Z</time>
      </trkpt>
      <trkpt lat="41.49012817" lon="1.512633534">
        <ele>491.00000</ele>
        <time>2019-04-02T13:58:06Z</time>
      </trkpt>
      <trkpt lat="41.48997142" lon="1.512339664">
        <ele>490.00000</ele>
        <time>2019-04-02T13:58:09Z</time>
      </trkpt>
      <trkpt lat="41.48986472" lon="1.512138331">
        <ele>489.00000</ele>
        <time>2019-04-02T13:58:11Z</time>
      </trkpt>
      <trkpt lat="41.48981351" lon="1.512037999">
        <ele>489.00000</ele>
        <time>2019-04-02T13:58:12Z</time>
      </trkpt>
      <trkpt lat="41.48952215" lon="1.511475741">
        <ele>489.00000</ele>
        <time>2019-04-02T13:58:18Z</time>
      </trkpt>
      <trkpt lat="41.48944211" lon="1.511320928">
        <ele>490.00000</ele>
        <time>2019-04-02T13:58:20Z</time>
      </trkpt>
      <trkpt lat="41.48936675" lon="1.511170305">
        <ele>492.00000</ele>
        <time>2019-04-02T13:58:22Z</time>
      </trkpt>
      <trkpt lat="41.48928662" lon="1.511026807">
        <ele>492.00000</ele>
        <time>2019-04-02T13:58:24Z</time>
      </trkpt>
      <trkpt lat="41.48920934" lon="1.510885739">
        <ele>493.00000</ele>
        <time>2019-04-02T13:58:26Z</time>
      </trkpt>
      <trkpt lat="41.48902351" lon="1.510532693">
        <ele>494.00000</ele>
        <time>2019-04-02T13:58:31Z</time>
      </trkpt>
      <trkpt lat="41.48894825" lon="1.510394057">
        <ele>495.00000</ele>
        <time>2019-04-02T13:58:33Z</time>
      </trkpt>
      <trkpt lat="41.48887583" lon="1.510258521">
        <ele>495.00000</ele>
        <time>2019-04-02T13:58:35Z</time>
      </trkpt>
      <trkpt lat="41.48861255" lon="1.509754015">
        <ele>496.00000</ele>
        <time>2019-04-02T13:58:42Z</time>
      </trkpt>
      <trkpt lat="41.48826076" lon="1.509090168">
        <ele>495.00000</ele>
        <time>2019-04-02T13:58:50Z</time>
      </trkpt>
      <trkpt lat="41.48797720" lon="1.508718430">
        <ele>494.00000</ele>
        <time>2019-04-02T13:58:55Z</time>
      </trkpt>
      <trkpt lat="41.48791518" lon="1.508650621">
        <ele>494.00000</ele>
        <time>2019-04-02T13:58:56Z</time>
      </trkpt>
      <trkpt lat="41.48763849" lon="1.508282572">
        <ele>494.00000</ele>
        <time>2019-04-02T13:59:01Z</time>
      </trkpt>
      <trkpt lat="41.48752223" lon="1.508028684">
        <ele>495.00000</ele>
        <time>2019-04-02T13:59:04Z</time>
      </trkpt>
      <trkpt lat="41.48741436" lon="1.507788458">
        <ele>496.00000</ele>
        <time>2019-04-02T13:59:07Z</time>
      </trkpt>
      <trkpt lat="41.48738075" lon="1.507711596">
        <ele>497.00000</ele>
        <time>2019-04-02T13:59:08Z</time>
      </trkpt>
      <trkpt lat="41.48725175" lon="1.507412362">
        <ele>498.00000</ele>
        <time>2019-04-02T13:59:12Z</time>
      </trkpt>
      <trkpt lat="41.48711797" lon="1.507123522">
        <ele>499.00000</ele>
        <time>2019-04-02T13:59:16Z</time>
      </trkpt>
      <trkpt lat="41.48708503" lon="1.507052527">
        <ele>499.00000</ele>
        <time>2019-04-02T13:59:17Z</time>
      </trkpt>
      <trkpt lat="41.48689007" lon="1.506611974">
        <ele>500.00000</ele>
        <time>2019-04-02T13:59:23Z</time>
      </trkpt>
      <trkpt lat="41.48682293" lon="1.506465710">
        <ele>501.00000</ele>
        <time>2019-04-02T13:59:25Z</time>
      </trkpt>
      <trkpt lat="41.48669376" lon="1.506175948">
        <ele>501.00000</ele>
        <time>2019-04-02T13:59:29Z</time>
      </trkpt>
      <trkpt lat="41.48656334" lon="1.505876965">
        <ele>501.00000</ele>
        <time>2019-04-02T13:59:33Z</time>
      </trkpt>
      <trkpt lat="41.48627643" lon="1.505261566">
        <ele>502.00000</ele>
        <time>2019-04-02T13:59:41Z</time>
      </trkpt>
      <trkpt lat="41.48624164" lon="1.505180932">
        <ele>502.00000</ele>
        <time>2019-04-02T13:59:42Z</time>
      </trkpt>
      <trkpt lat="41.48606160" lon="1.504773823">
        <ele>502.00000</ele>
        <time>2019-04-02T13:59:47Z</time>
      </trkpt>
      <trkpt lat="41.48587502" lon="1.504360847">
        <ele>502.00000</ele>
        <time>2019-04-02T13:59:52Z</time>
      </trkpt>
      <trkpt lat="41.48557269" lon="1.503691971">
        <ele>503.00000</ele>
        <time>2019-04-02T14:00:00Z</time>
      </trkpt>
      <trkpt lat="41.48543111" lon="1.503369268">
        <ele>504.00000</ele>
        <time>2019-04-02T14:00:04Z</time>
      </trkpt>
      <trkpt lat="41.48515359" lon="1.502742134">
        <ele>505.00000</ele>
        <time>2019-04-02T14:00:12Z</time>
      </trkpt>
      <trkpt lat="41.48512006" lon="1.502666445">
        <ele>505.00000</ele>
        <time>2019-04-02T14:00:13Z</time>
      </trkpt>
      <trkpt lat="41.48508729" lon="1.502591930">
        <ele>505.00000</ele>
        <time>2019-04-02T14:00:14Z</time>
      </trkpt>
      <trkpt lat="41.48493382" lon="1.502317423">
        <ele>506.00000</ele>
        <time>2019-04-02T14:00:18Z</time>
      </trkpt>
      <trkpt lat="41.48488855" lon="1.502261012">
        <ele>506.00000</ele>
        <time>2019-04-02T14:00:19Z</time>
      </trkpt>
      <trkpt lat="41.48461380" lon="1.502048028">
        <ele>506.00000</ele>
        <time>2019-04-02T14:00:24Z</time>
      </trkpt>
      <trkpt lat="41.48415447" lon="1.501740999">
        <ele>507.00000</ele>
        <time>2019-04-02T14:00:32Z</time>
      </trkpt>
      <trkpt lat="41.48398725" lon="1.501627424">
        <ele>507.00000</ele>
        <time>2019-04-02T14:00:35Z</time>
      </trkpt>
      <trkpt lat="41.48377141" lon="1.501483004">
        <ele>508.00000</ele>
        <time>2019-04-02T14:00:39Z</time>
      </trkpt>
      <trkpt lat="41.48360428" lon="1.501375045">
        <ele>508.00000</ele>
        <time>2019-04-02T14:00:42Z</time>
      </trkpt>
      <trkpt lat="41.48338350" lon="1.501219645">
        <ele>508.00000</ele>
        <time>2019-04-02T14:00:46Z</time>
      </trkpt>
      <trkpt lat="41.48294026" lon="1.500911442">
        <ele>509.00000</ele>
        <time>2019-04-02T14:00:54Z</time>
      </trkpt>
      <trkpt lat="41.48288377" lon="1.500872969">
        <ele>509.00000</ele>
        <time>2019-04-02T14:00:55Z</time>
      </trkpt>
      <trkpt lat="41.48256006" lon="1.500618746">
        <ele>510.00000</ele>
        <time>2019-04-02T14:01:01Z</time>
      </trkpt>
      <trkpt lat="41.48251673" lon="1.500561749">
        <ele>510.00000</ele>
        <time>2019-04-02T14:01:02Z</time>
      </trkpt>
      <trkpt lat="41.48239779" lon="1.500297384">
        <ele>510.00000</ele>
        <time>2019-04-02T14:01:06Z</time>
      </trkpt>
      <trkpt lat="41.48237440" lon="1.500226473">
        <ele>511.00000</ele>
        <time>2019-04-02T14:01:07Z</time>
      </trkpt>
      <trkpt lat="41.48220727" lon="1.499705202">
        <ele>511.00000</ele>
        <time>2019-04-02T14:01:14Z</time>
      </trkpt>
      <trkpt lat="41.48210769" lon="1.499391468">
        <ele>511.00000</ele>
        <time>2019-04-02T14:01:18Z</time>
      </trkpt>
      <trkpt lat="41.48203753" lon="1.499157445">
        <ele>511.00000</ele>
        <time>2019-04-02T14:01:21Z</time>
      </trkpt>
      <trkpt lat="41.48187266" lon="1.498592421">
        <ele>512.00000</ele>
        <time>2019-04-02T14:01:28Z</time>
      </trkpt>
      <trkpt lat="41.48173679" lon="1.498190928">
        <ele>512.00000</ele>
        <time>2019-04-02T14:01:33Z</time>
      </trkpt>
      <trkpt lat="41.48169798" lon="1.498118927">
        <ele>512.00000</ele>
        <time>2019-04-02T14:01:34Z</time>
      </trkpt>
      <trkpt lat="41.48138710" lon="1.497633783">
        <ele>513.00000</ele>
        <time>2019-04-02T14:01:41Z</time>
      </trkpt>
      <trkpt lat="41.48122432" lon="1.497390121">
        <ele>513.00000</ele>
        <time>2019-04-02T14:01:45Z</time>
      </trkpt>
      <trkpt lat="41.48118853" lon="1.497338572">
        <ele>514.00000</ele>
        <time>2019-04-02T14:01:46Z</time>
      </trkpt>
      <trkpt lat="41.48107261" lon="1.497175209">
        <ele>514.00000</ele>
        <time>2019-04-02T14:01:49Z</time>
      </trkpt>
      <trkpt lat="41.48092526" lon="1.496953759">
        <ele>515.00000</ele>
        <time>2019-04-02T14:01:53Z</time>
      </trkpt>
      <trkpt lat="41.48088879" lon="1.496899779">
        <ele>516.00000</ele>
        <time>2019-04-02T14:01:54Z</time>
      </trkpt>
      <trkpt lat="41.48077698" lon="1.496739853">
        <ele>517.00000</ele>
        <time>2019-04-02T14:01:57Z</time>
      </trkpt>
      <trkpt lat="41.48071026" lon="1.496629379">
        <ele>517.00000</ele>
        <time>2019-04-02T14:01:59Z</time>
      </trkpt>
      <trkpt lat="41.48064957" lon="1.496501807">
        <ele>518.00000</ele>
        <time>2019-04-02T14:02:01Z</time>
      </trkpt>
      <trkpt lat="41.48057749" lon="1.496297372">
        <ele>519.00000</ele>
        <time>2019-04-02T14:02:04Z</time>
      </trkpt>
      <trkpt lat="41.48051387" lon="1.496071647">
        <ele>519.00000</ele>
        <time>2019-04-02T14:02:07Z</time>
      </trkpt>
      <trkpt lat="41.48031095" lon="1.495587090">
        <ele>519.00000</ele>
        <time>2019-04-02T14:02:13Z</time>
      </trkpt>
      <trkpt lat="41.48009888" lon="1.495279474">
        <ele>518.00000</ele>
        <time>2019-04-02T14:02:17Z</time>
      </trkpt>
      <trkpt lat="41.48003778" lon="1.495208730">
        <ele>518.00000</ele>
        <time>2019-04-02T14:02:18Z</time>
      </trkpt>
      <trkpt lat="41.47961164" lon="1.494743619">
        <ele>517.00000</ele>
        <time>2019-04-02T14:02:25Z</time>
      </trkpt>
      <trkpt lat="41.47926731" lon="1.494352016">
        <ele>518.00000</ele>
        <time>2019-04-02T14:02:31Z</time>
      </trkpt>
      <trkpt lat="41.47922675" lon="1.494275070">
        <ele>518.00000</ele>
        <time>2019-04-02T14:02:32Z</time>
      </trkpt>
      <trkpt lat="41.47913262" lon="1.494040545">
        <ele>519.00000</ele>
        <time>2019-04-02T14:02:35Z</time>
      </trkpt>
      <trkpt lat="41.47910915" lon="1.493962844">
        <ele>519.00000</ele>
        <time>2019-04-02T14:02:36Z</time>
      </trkpt>
      <trkpt lat="41.47908618" lon="1.493886820">
        <ele>520.00000</ele>
        <time>2019-04-02T14:02:37Z</time>
      </trkpt>
      <trkpt lat="41.47906380" lon="1.493809288">
        <ele>520.00000</ele>
        <time>2019-04-02T14:02:38Z</time>
      </trkpt>
      <trkpt lat="41.47897621" lon="1.493514832">
        <ele>521.00000</ele>
        <time>2019-04-02T14:02:42Z</time>
      </trkpt>
      <trkpt lat="41.47888435" lon="1.493219789">
        <ele>522.00000</ele>
        <time>2019-04-02T14:02:46Z</time>
      </trkpt>
      <trkpt lat="41.47876616" lon="1.492831287">
        <ele>523.00000</ele>
        <time>2019-04-02T14:02:51Z</time>
      </trkpt>
      <trkpt lat="41.47871411" lon="1.492676055">
        <ele>523.00000</ele>
        <time>2019-04-02T14:02:53Z</time>
      </trkpt>
      <trkpt lat="41.47849878" lon="1.492038443">
        <ele>523.00000</ele>
        <time>2019-04-02T14:03:01Z</time>
      </trkpt>
      <trkpt lat="41.47832058" lon="1.491784974">
        <ele>524.00000</ele>
        <time>2019-04-02T14:03:05Z</time>
      </trkpt>
      <trkpt lat="41.47827247" lon="1.491724876">
        <ele>524.00000</ele>
        <time>2019-04-02T14:03:06Z</time>
      </trkpt>
      <trkpt lat="41.47790593" lon="1.491350876">
        <ele>524.00000</ele>
        <time>2019-04-02T14:03:13Z</time>
      </trkpt>
      <trkpt lat="41.47766008" lon="1.491193883">
        <ele>525.00000</ele>
        <time>2019-04-02T14:03:17Z</time>
      </trkpt>
      <trkpt lat="41.47753293" lon="1.491121631">
        <ele>525.00000</ele>
        <time>2019-04-02T14:03:19Z</time>
      </trkpt>
      <trkpt lat="41.47706438" lon="1.490860031">
        <ele>524.00000</ele>
        <time>2019-04-02T14:03:26Z</time>
      </trkpt>
      <trkpt lat="41.47652727" lon="1.490571191">
        <ele>525.00000</ele>
        <time>2019-04-02T14:03:34Z</time>
      </trkpt>
      <trkpt lat="41.47639635" lon="1.490482594">
        <ele>525.00000</ele>
        <time>2019-04-02T14:03:36Z</time>
      </trkpt>
      <trkpt lat="41.47622762" lon="1.490315459">
        <ele>525.00000</ele>
        <time>2019-04-02T14:03:39Z</time>
      </trkpt>
      <trkpt lat="41.47613265" lon="1.490188976">
        <ele>526.00000</ele>
        <time>2019-04-02T14:03:41Z</time>
      </trkpt>
      <trkpt lat="41.47608605" lon="1.490124771">
        <ele>526.00000</ele>
        <time>2019-04-02T14:03:42Z</time>
      </trkpt>
      <trkpt lat="41.47572713" lon="1.489605847">
        <ele>527.00000</ele>
        <time>2019-04-02T14:03:50Z</time>
      </trkpt>
      <trkpt lat="41.47568246" lon="1.489541726">
        <ele>527.00000</ele>
        <time>2019-04-02T14:03:51Z</time>
      </trkpt>
      <trkpt lat="41.47537576" lon="1.489114500">
        <ele>528.00000</ele>
        <time>2019-04-02T14:03:58Z</time>
      </trkpt>
      <trkpt lat="41.47533394" lon="1.489056078">
        <ele>528.00000</ele>
        <time>2019-04-02T14:03:59Z</time>
      </trkpt>
      <trkpt lat="41.47496949" lon="1.488546710">
        <ele>529.00000</ele>
        <time>2019-04-02T14:04:08Z</time>
      </trkpt>
      <trkpt lat="41.47492851" lon="1.488491222">
        <ele>529.00000</ele>
        <time>2019-04-02T14:04:09Z</time>
      </trkpt>
      <trkpt lat="41.47460010" lon="1.488030720">
        <ele>530.00000</ele>
        <time>2019-04-02T14:04:17Z</time>
      </trkpt>
      <trkpt lat="41.47455677" lon="1.487975232">
        <ele>530.00000</ele>
        <time>2019-04-02T14:04:18Z</time>
      </trkpt>
      <trkpt lat="41.47422644" lon="1.487492099">
        <ele>531.00000</ele>
        <time>2019-04-02T14:04:26Z</time>
      </trkpt>
      <trkpt lat="41.47414078" lon="1.487374668">
        <ele>531.00000</ele>
        <time>2019-04-02T14:04:28Z</time>
      </trkpt>
      <trkpt lat="41.47388261" lon="1.487011397">
        <ele>532.00000</ele>
        <time>2019-04-02T14:04:34Z</time>
      </trkpt>
      <trkpt lat="41.47357684" lon="1.486585345">
        <ele>534.00000</ele>
        <time>2019-04-02T14:04:41Z</time>
      </trkpt>
      <trkpt lat="41.47338992" lon="1.486341264">
        <ele>534.00000</ele>
        <time>2019-04-02T14:04:45Z</time>
      </trkpt>
      <trkpt lat="41.47300234" lon="1.485800296">
        <ele>535.00000</ele>
        <time>2019-04-02T14:04:54Z</time>
      </trkpt>
      <trkpt lat="41.47274150" lon="1.485434006">
        <ele>536.00000</ele>
        <time>2019-04-02T14:05:00Z</time>
      </trkpt>
      <trkpt lat="41.47269657" lon="1.485377093">
        <ele>536.00000</ele>
        <time>2019-04-02T14:05:01Z</time>
      </trkpt>
      <trkpt lat="41.47239097" lon="1.484941905">
        <ele>537.00000</ele>
        <time>2019-04-02T14:05:08Z</time>
      </trkpt>
      <trkpt lat="41.47206491" lon="1.484467824">
        <ele>537.00000</ele>
        <time>2019-04-02T14:05:16Z</time>
      </trkpt>
      <trkpt lat="41.47191907" lon="1.484261797">
        <ele>538.00000</ele>
        <time>2019-04-02T14:05:20Z</time>
      </trkpt>
      <trkpt lat="41.47182075" lon="1.484136739">
        <ele>539.00000</ele>
        <time>2019-04-02T14:05:23Z</time>
      </trkpt>
      <trkpt lat="41.47178621" lon="1.484090136">
        <ele>540.00000</ele>
        <time>2019-04-02T14:05:24Z</time>
      </trkpt>
      <trkpt lat="41.47168446" lon="1.483943536">
        <ele>541.00000</ele>
        <time>2019-04-02T14:05:27Z</time>
      </trkpt>
      <trkpt lat="41.47158446" lon="1.483810683">
        <ele>542.00000</ele>
        <time>2019-04-02T14:05:30Z</time>
      </trkpt>
      <trkpt lat="41.47155328" lon="1.483765505">
        <ele>542.00000</ele>
        <time>2019-04-02T14:05:31Z</time>
      </trkpt>
      <trkpt lat="41.47139520" lon="1.483549084">
        <ele>543.00000</ele>
        <time>2019-04-02T14:05:36Z</time>
      </trkpt>
      <trkpt lat="41.47130526" lon="1.483428971">
        <ele>544.00000</ele>
        <time>2019-04-02T14:05:39Z</time>
      </trkpt>
      <trkpt lat="41.47127727" lon="1.483385050">
        <ele>545.00000</ele>
        <time>2019-04-02T14:05:40Z</time>
      </trkpt>
      <trkpt lat="41.47109504" lon="1.483135018">
        <ele>545.00000</ele>
        <time>2019-04-02T14:05:46Z</time>
      </trkpt>
      <trkpt lat="41.47103469" lon="1.483052624">
        <ele>546.00000</ele>
        <time>2019-04-02T14:05:48Z</time>
      </trkpt>
      <trkpt lat="41.47088625" lon="1.482847938">
        <ele>547.00000</ele>
        <time>2019-04-02T14:05:53Z</time>
      </trkpt>
      <trkpt lat="41.47079237" lon="1.482728915">
        <ele>548.00000</ele>
        <time>2019-04-02T14:05:56Z</time>
      </trkpt>
      <trkpt lat="41.47076195" lon="1.482689101">
        <ele>548.00000</ele>
        <time>2019-04-02T14:05:57Z</time>
      </trkpt>
      <trkpt lat="41.47067134" lon="1.482570497">
        <ele>549.00000</ele>
        <time>2019-04-02T14:06:00Z</time>
      </trkpt>
      <trkpt lat="41.47052348" lon="1.482367403">
        <ele>550.00000</ele>
        <time>2019-04-02T14:06:05Z</time>
      </trkpt>
      <trkpt lat="41.47043522" lon="1.482251482">
        <ele>551.00000</ele>
        <time>2019-04-02T14:06:08Z</time>
      </trkpt>
      <trkpt lat="41.47037453" lon="1.482180571">
        <ele>551.00000</ele>
        <time>2019-04-02T14:06:10Z</time>
      </trkpt>
      <trkpt lat="41.47029424" lon="1.482061045">
        <ele>552.00000</ele>
        <time>2019-04-02T14:06:13Z</time>
      </trkpt>
      <trkpt lat="41.47026624" lon="1.482021985">
        <ele>553.00000</ele>
        <time>2019-04-02T14:06:14Z</time>
      </trkpt>
      <trkpt lat="41.47012425" lon="1.481828531">
        <ele>554.00000</ele>
        <time>2019-04-02T14:06:19Z</time>
      </trkpt>
      <trkpt lat="41.46998394" lon="1.481640692">
        <ele>555.00000</ele>
        <time>2019-04-02T14:06:24Z</time>
      </trkpt>
      <trkpt lat="41.46995619" lon="1.481604063">
        <ele>555.00000</ele>
        <time>2019-04-02T14:06:25Z</time>
      </trkpt>
      <trkpt lat="41.46984203" lon="1.481459224">
        <ele>556.00000</ele>
        <time>2019-04-02T14:06:29Z</time>
      </trkpt>
      <trkpt lat="41.46970516" lon="1.481269793">
        <ele>557.00000</ele>
        <time>2019-04-02T14:06:34Z</time>
      </trkpt>
      <trkpt lat="41.46947071" lon="1.480951951">
        <ele>558.00000</ele>
        <time>2019-04-02T14:06:42Z</time>
      </trkpt>
      <trkpt lat="41.46943962" lon="1.480911299">
        <ele>558.00000</ele>
        <time>2019-04-02T14:06:43Z</time>
      </trkpt>
      <trkpt lat="41.46913602" lon="1.480506034">
        <ele>559.00000</ele>
        <time>2019-04-02T14:06:53Z</time>
      </trkpt>
      <trkpt lat="41.46903863" lon="1.480382988">
        <ele>560.00000</ele>
        <time>2019-04-02T14:06:56Z</time>
      </trkpt>
      <trkpt lat="41.46894182" lon="1.480263127">
        <ele>560.00000</ele>
        <time>2019-04-02T14:06:59Z</time>
      </trkpt>
      <trkpt lat="41.46878767" lon="1.480043772">
        <ele>561.00000</ele>
        <time>2019-04-02T14:07:04Z</time>
      </trkpt>
      <trkpt lat="41.46853236" lon="1.479711681">
        <ele>561.00000</ele>
        <time>2019-04-02T14:07:12Z</time>
      </trkpt>
      <trkpt lat="41.46825349" lon="1.479333657">
        <ele>563.00000</ele>
        <time>2019-04-02T14:07:20Z</time>
      </trkpt>
      <trkpt lat="41.46812114" lon="1.479155626">
        <ele>564.00000</ele>
        <time>2019-04-02T14:07:24Z</time>
      </trkpt>
      <trkpt lat="41.46799005" lon="1.478983880">
        <ele>565.00000</ele>
        <time>2019-04-02T14:07:28Z</time>
      </trkpt>
      <trkpt lat="41.46795770" lon="1.478943480">
        <ele>565.00000</ele>
        <time>2019-04-02T14:07:29Z</time>
      </trkpt>
      <trkpt lat="41.46776977" lon="1.478691603">
        <ele>566.00000</ele>
        <time>2019-04-02T14:07:35Z</time>
      </trkpt>
      <trkpt lat="41.46767598" lon="1.478561684">
        <ele>566.00000</ele>
        <time>2019-04-02T14:07:38Z</time>
      </trkpt>
      <trkpt lat="41.46748177" lon="1.478312406">
        <ele>567.00000</ele>
        <time>2019-04-02T14:07:44Z</time>
      </trkpt>
      <trkpt lat="41.46735043" lon="1.478139990">
        <ele>568.00000</ele>
        <time>2019-04-02T14:07:48Z</time>
      </trkpt>
      <trkpt lat="41.46731732" lon="1.478098081">
        <ele>568.00000</ele>
        <time>2019-04-02T14:07:49Z</time>
      </trkpt>
      <trkpt lat="41.46708916" lon="1.477794321">
        <ele>569.00000</ele>
        <time>2019-04-02T14:07:56Z</time>
      </trkpt>
      <trkpt lat="41.46684274" lon="1.477476814">
        <ele>568.00000</ele>
        <time>2019-04-02T14:08:02Z</time>
      </trkpt>
      <trkpt lat="41.46679672" lon="1.477418392">
        <ele>568.00000</ele>
        <time>2019-04-02T14:08:03Z</time>
      </trkpt>
      <trkpt lat="41.46650075" lon="1.477024443">
        <ele>568.00000</ele>
        <time>2019-04-02T14:08:09Z</time>
      </trkpt>
      <trkpt lat="41.46644040" lon="1.476963926">
        <ele>568.00000</ele>
        <time>2019-04-02T14:08:10Z</time>
      </trkpt>
      <trkpt lat="41.46622692" lon="1.476837275">
        <ele>568.00000</ele>
        <time>2019-04-02T14:08:13Z</time>
      </trkpt>
      <trkpt lat="41.46607009" lon="1.476803580">
        <ele>567.00000</ele>
        <time>2019-04-02T14:08:15Z</time>
      </trkpt>
      <trkpt lat="41.46599147" lon="1.476792348">
        <ele>567.00000</ele>
        <time>2019-04-02T14:08:16Z</time>
      </trkpt>
      <trkpt lat="41.46591218" lon="1.476785056">
        <ele>567.00000</ele>
        <time>2019-04-02T14:08:17Z</time>
      </trkpt>
      <trkpt lat="41.46529887" lon="1.476750941">
        <ele>567.00000</ele>
        <time>2019-04-02T14:08:25Z</time>
      </trkpt>
      <trkpt lat="41.46482370" lon="1.476724874">
        <ele>567.00000</ele>
        <time>2019-04-02T14:08:32Z</time>
      </trkpt>
      <trkpt lat="41.46477534" lon="1.476724538">
        <ele>567.00000</ele>
        <time>2019-04-02T14:08:33Z</time>
      </trkpt>
      <trkpt lat="41.46468414" lon="1.476716743">
        <ele>569.00000</ele>
        <time>2019-04-02T14:08:35Z</time>
      </trkpt>
      <trkpt lat="41.46460309" lon="1.476711463">
        <ele>570.00000</ele>
        <time>2019-04-02T14:08:37Z</time>
      </trkpt>
      <trkpt lat="41.46452531" lon="1.476696291">
        <ele>571.00000</ele>
        <time>2019-04-02T14:08:39Z</time>
      </trkpt>
      <trkpt lat="41.46448591" lon="1.476694196">
        <ele>571.00000</ele>
        <time>2019-04-02T14:08:40Z</time>
      </trkpt>
      <trkpt lat="41.46433236" lon="1.476695034">
        <ele>572.00000</ele>
        <time>2019-04-02T14:08:44Z</time>
      </trkpt>
      <trkpt lat="41.46422389" lon="1.476687323">
        <ele>573.00000</ele>
        <time>2019-04-02T14:08:47Z</time>
      </trkpt>
      <trkpt lat="41.46419020" lon="1.476683551">
        <ele>573.00000</ele>
        <time>2019-04-02T14:08:48Z</time>
      </trkpt>
      <trkpt lat="41.46399700" lon="1.476683299">
        <ele>574.00000</ele>
        <time>2019-04-02T14:08:54Z</time>
      </trkpt>
      <trkpt lat="41.46389918" lon="1.476674582">
        <ele>575.00000</ele>
        <time>2019-04-02T14:08:57Z</time>
      </trkpt>
      <trkpt lat="41.46380337" lon="1.476661171">
        <ele>576.00000</ele>
        <time>2019-04-02T14:09:00Z</time>
      </trkpt>
      <trkpt lat="41.46376859" lon="1.476657819">
        <ele>577.00000</ele>
        <time>2019-04-02T14:09:01Z</time>
      </trkpt>
      <trkpt lat="41.46364026" lon="1.476638792">
        <ele>578.00000</ele>
        <time>2019-04-02T14:09:05Z</time>
      </trkpt>
      <trkpt lat="41.46353792" lon="1.476630577">
        <ele>578.00000</ele>
        <time>2019-04-02T14:09:08Z</time>
      </trkpt>
      <trkpt lat="41.46350439" lon="1.476619178">
        <ele>579.00000</ele>
        <time>2019-04-02T14:09:09Z</time>
      </trkpt>
      <trkpt lat="41.46337690" lon="1.476593110">
        <ele>580.00000</ele>
        <time>2019-04-02T14:09:13Z</time>
      </trkpt>
      <trkpt lat="41.46331270" lon="1.476586405">
        <ele>581.00000</ele>
        <time>2019-04-02T14:09:15Z</time>
      </trkpt>
      <trkpt lat="41.46325143" lon="1.476576765">
        <ele>581.00000</ele>
        <time>2019-04-02T14:09:17Z</time>
      </trkpt>
      <trkpt lat="41.46309955" lon="1.476506274">
        <ele>582.00000</ele>
        <time>2019-04-02T14:09:22Z</time>
      </trkpt>
      <trkpt lat="41.46301011" lon="1.476398231">
        <ele>583.00000</ele>
        <time>2019-04-02T14:09:26Z</time>
      </trkpt>
      <trkpt lat="41.46298999" lon="1.476371074">
        <ele>584.00000</ele>
        <time>2019-04-02T14:09:27Z</time>
      </trkpt>
      <trkpt lat="41.46291858" lon="1.476245177">
        <ele>585.00000</ele>
        <time>2019-04-02T14:09:31Z</time>
      </trkpt>
      <trkpt lat="41.46283971" lon="1.476124059">
        <ele>585.00000</ele>
        <time>2019-04-02T14:09:35Z</time>
      </trkpt>
      <trkpt lat="41.46282101" lon="1.476093633">
        <ele>586.00000</ele>
        <time>2019-04-02T14:09:36Z</time>
      </trkpt>
      <trkpt lat="41.46270752" lon="1.475952649">
        <ele>587.00000</ele>
        <time>2019-04-02T14:09:41Z</time>
      </trkpt>
      <trkpt lat="41.46266369" lon="1.475889198">
        <ele>587.00000</ele>
        <time>2019-04-02T14:09:43Z</time>
      </trkpt>
      <trkpt lat="41.46259982" lon="1.475786352">
        <ele>588.00000</ele>
        <time>2019-04-02T14:09:46Z</time>
      </trkpt>
      <trkpt lat="41.46251382" lon="1.475671101">
        <ele>589.00000</ele>
        <time>2019-04-02T14:09:50Z</time>
      </trkpt>
      <trkpt lat="41.46244861" lon="1.475576134">
        <ele>590.00000</ele>
        <time>2019-04-02T14:09:53Z</time>
      </trkpt>
      <trkpt lat="41.46238960" lon="1.475480413">
        <ele>590.00000</ele>
        <time>2019-04-02T14:09:56Z</time>
      </trkpt>
      <trkpt lat="41.46229706" lon="1.475323503">
        <ele>591.00000</ele>
        <time>2019-04-02T14:10:01Z</time>
      </trkpt>
      <trkpt lat="41.46219606" lon="1.475053774">
        <ele>592.00000</ele>
        <time>2019-04-02T14:10:08Z</time>
      </trkpt>
      <trkpt lat="41.46218533" lon="1.475003566">
        <ele>592.00000</ele>
        <time>2019-04-02T14:10:09Z</time>
      </trkpt>
      <trkpt lat="41.46211358" lon="1.474703075">
        <ele>593.00000</ele>
        <time>2019-04-02T14:10:15Z</time>
      </trkpt>
      <trkpt lat="41.46209078" lon="1.474609700">
        <ele>593.00000</ele>
        <time>2019-04-02T14:10:17Z</time>
      </trkpt>
      <trkpt lat="41.46203295" lon="1.474345754">
        <ele>594.00000</ele>
        <time>2019-04-02T14:10:22Z</time>
      </trkpt>
      <trkpt lat="41.46197855" lon="1.474148696">
        <ele>594.00000</ele>
        <time>2019-04-02T14:10:26Z</time>
      </trkpt>
      <trkpt lat="41.46195139" lon="1.473995810">
        <ele>595.00000</ele>
        <time>2019-04-02T14:10:29Z</time>
      </trkpt>
      <trkpt lat="41.46192239" lon="1.473796237">
        <ele>595.00000</ele>
        <time>2019-04-02T14:10:33Z</time>
      </trkpt>
      <trkpt lat="41.46191577" lon="1.473611583">
        <ele>597.00000</ele>
        <time>2019-04-02T14:10:37Z</time>
      </trkpt>
      <trkpt lat="41.46190932" lon="1.473340010">
        <ele>598.00000</ele>
        <time>2019-04-02T14:10:43Z</time>
      </trkpt>
      <trkpt lat="41.46190144" lon="1.473249737">
        <ele>598.00000</ele>
        <time>2019-04-02T14:10:45Z</time>
      </trkpt>
      <trkpt lat="41.46189942" lon="1.473111016">
        <ele>599.00000</ele>
        <time>2019-04-02T14:10:48Z</time>
      </trkpt>
      <trkpt lat="41.46188249" lon="1.472988221">
        <ele>599.00000</ele>
        <time>2019-04-02T14:10:51Z</time>
      </trkpt>
      <trkpt lat="41.46184637" lon="1.472872719">
        <ele>600.00000</ele>
        <time>2019-04-02T14:10:54Z</time>
      </trkpt>
      <trkpt lat="41.46179649" lon="1.472741961">
        <ele>600.00000</ele>
        <time>2019-04-02T14:10:57Z</time>
      </trkpt>
      <trkpt lat="41.46175710" lon="1.472625285">
        <ele>601.00000</ele>
        <time>2019-04-02T14:11:00Z</time>
      </trkpt>
      <trkpt lat="41.46171117" lon="1.472514979">
        <ele>602.00000</ele>
        <time>2019-04-02T14:11:03Z</time>
      </trkpt>
      <trkpt lat="41.46166331" lon="1.472447086">
        <ele>602.00000</ele>
        <time>2019-04-02T14:11:05Z</time>
      </trkpt>
      <trkpt lat="41.46160882" lon="1.472318591">
        <ele>603.00000</ele>
        <time>2019-04-02T14:11:08Z</time>
      </trkpt>
      <trkpt lat="41.46159240" lon="1.472279615">
        <ele>604.00000</ele>
        <time>2019-04-02T14:11:09Z</time>
      </trkpt>
      <trkpt lat="41.46149416" lon="1.472051711">
        <ele>605.00000</ele>
        <time>2019-04-02T14:11:15Z</time>
      </trkpt>
      <trkpt lat="41.46142954" lon="1.471850713">
        <ele>606.00000</ele>
        <time>2019-04-02T14:11:20Z</time>
      </trkpt>
      <trkpt lat="41.46142073" lon="1.471810145">
        <ele>606.00000</ele>
        <time>2019-04-02T14:11:21Z</time>
      </trkpt>
      <trkpt lat="41.46141302" lon="1.471684752">
        <ele>607.00000</ele>
        <time>2019-04-02T14:11:24Z</time>
      </trkpt>
      <trkpt lat="41.46142828" lon="1.471561118">
        <ele>608.00000</ele>
        <time>2019-04-02T14:11:27Z</time>
      </trkpt>
      <trkpt lat="41.46143699" lon="1.471523148">
        <ele>608.00000</ele>
        <time>2019-04-02T14:11:28Z</time>
      </trkpt>
      <trkpt lat="41.46145988" lon="1.471312846">
        <ele>609.00000</ele>
        <time>2019-04-02T14:11:33Z</time>
      </trkpt>
      <trkpt lat="41.46144554" lon="1.471269680">
        <ele>609.00000</ele>
        <time>2019-04-02T14:11:34Z</time>
      </trkpt>
      <trkpt lat="41.46139483" lon="1.471206312">
        <ele>610.00000</ele>
        <time>2019-04-02T14:11:36Z</time>
      </trkpt>
      <trkpt lat="41.46133541" lon="1.471170606">
        <ele>610.00000</ele>
        <time>2019-04-02T14:11:38Z</time>
      </trkpt>
      <trkpt lat="41.46130297" lon="1.471164654">
        <ele>610.00000</ele>
        <time>2019-04-02T14:11:39Z</time>
      </trkpt>
      <trkpt lat="41.46127464" lon="1.471160212">
        <ele>611.00000</ele>
        <time>2019-04-02T14:11:40Z</time>
      </trkpt>
      <trkpt lat="41.46116785" lon="1.471166750">
        <ele>612.00000</ele>
        <time>2019-04-02T14:11:43Z</time>
      </trkpt>
      <trkpt lat="41.46102368" lon="1.471138335">
        <ele>613.00000</ele>
        <time>2019-04-02T14:11:47Z</time>
      </trkpt>
      <trkpt lat="41.46098705" lon="1.471127523">
        <ele>613.00000</ele>
        <time>2019-04-02T14:11:48Z</time>
      </trkpt>
      <trkpt lat="41.46095654" lon="1.471106819">
        <ele>614.00000</ele>
        <time>2019-04-02T14:11:49Z</time>
      </trkpt>
      <trkpt lat="41.46087834" lon="1.470971703">
        <ele>615.00000</ele>
        <time>2019-04-02T14:11:53Z</time>
      </trkpt>
      <trkpt lat="41.46075697" lon="1.470648664">
        <ele>615.00000</ele>
        <time>2019-04-02T14:12:00Z</time>
      </trkpt>
      <trkpt lat="41.46061238" lon="1.470203166">
        <ele>616.00000</ele>
        <time>2019-04-02T14:12:08Z</time>
      </trkpt>
      <trkpt lat="41.46059403" lon="1.470143571">
        <ele>616.00000</ele>
        <time>2019-04-02T14:12:09Z</time>
      </trkpt>
      <trkpt lat="41.46043326" lon="1.469743670">
        <ele>616.00000</ele>
        <time>2019-04-02T14:12:16Z</time>
      </trkpt>
      <trkpt lat="41.46033830" lon="1.469521801">
        <ele>616.00000</ele>
        <time>2019-04-02T14:12:20Z</time>
      </trkpt>
      <trkpt lat="41.46029538" lon="1.469416525">
        <ele>617.00000</ele>
        <time>2019-04-02T14:12:22Z</time>
      </trkpt>
      <trkpt lat="41.46020745" lon="1.469179987">
        <ele>618.00000</ele>
        <time>2019-04-02T14:12:27Z</time>
      </trkpt>
      <trkpt lat="41.46013218" lon="1.468997010">
        <ele>619.00000</ele>
        <time>2019-04-02T14:12:31Z</time>
      </trkpt>
      <trkpt lat="41.46008005" lon="1.468865917">
        <ele>620.00000</ele>
        <time>2019-04-02T14:12:34Z</time>
      </trkpt>
      <trkpt lat="41.46004593" lon="1.468777153">
        <ele>620.00000</ele>
        <time>2019-04-02T14:12:36Z</time>
      </trkpt>
      <trkpt lat="41.45994560" lon="1.468501053">
        <ele>621.00000</ele>
        <time>2019-04-02T14:12:42Z</time>
      </trkpt>
      <trkpt lat="41.45989523" lon="1.468378175">
        <ele>623.00000</ele>
        <time>2019-04-02T14:12:45Z</time>
      </trkpt>
      <trkpt lat="41.45983546" lon="1.468241633">
        <ele>623.00000</ele>
        <time>2019-04-02T14:12:48Z</time>
      </trkpt>
      <trkpt lat="41.45977277" lon="1.468125376">
        <ele>624.00000</ele>
        <time>2019-04-02T14:12:51Z</time>
      </trkpt>
      <trkpt lat="41.45968652" lon="1.467996044">
        <ele>625.00000</ele>
        <time>2019-04-02T14:12:55Z</time>
      </trkpt>
      <trkpt lat="41.45952777" lon="1.467782221">
        <ele>626.00000</ele>
        <time>2019-04-02T14:13:01Z</time>
      </trkpt>
      <trkpt lat="41.45950212" lon="1.467744335">
        <ele>626.00000</ele>
        <time>2019-04-02T14:13:02Z</time>
      </trkpt>
      <trkpt lat="41.45934613" lon="1.467539146">
        <ele>627.00000</ele>
        <time>2019-04-02T14:13:08Z</time>
      </trkpt>
      <trkpt lat="41.45932082" lon="1.467505535">
        <ele>627.00000</ele>
        <time>2019-04-02T14:13:09Z</time>
      </trkpt>
      <trkpt lat="41.45923725" lon="1.467393971">
        <ele>628.00000</ele>
        <time>2019-04-02T14:13:12Z</time>
      </trkpt>
      <trkpt lat="41.45918863" lon="1.467257766">
        <ele>629.00000</ele>
        <time>2019-04-02T14:13:15Z</time>
      </trkpt>
      <trkpt lat="41.45916894" lon="1.467185011">
        <ele>629.00000</ele>
        <time>2019-04-02T14:13:17Z</time>
      </trkpt>
      <trkpt lat="41.45917179" lon="1.467063557">
        <ele>630.00000</ele>
        <time>2019-04-02T14:13:20Z</time>
      </trkpt>
      <trkpt lat="41.45918067" lon="1.467022569">
        <ele>631.00000</ele>
        <time>2019-04-02T14:13:21Z</time>
      </trkpt>
      <trkpt lat="41.45920950" lon="1.466859541">
        <ele>632.00000</ele>
        <time>2019-04-02T14:13:25Z</time>
      </trkpt>
      <trkpt lat="41.45923121" lon="1.466712355">
        <ele>633.00000</ele>
        <time>2019-04-02T14:13:29Z</time>
      </trkpt>
      <trkpt lat="41.45923599" lon="1.466676816">
        <ele>633.00000</ele>
        <time>2019-04-02T14:13:30Z</time>
      </trkpt>
      <trkpt lat="41.45925678" lon="1.466528289">
        <ele>634.00000</ele>
        <time>2019-04-02T14:13:34Z</time>
      </trkpt>
      <trkpt lat="41.45927094" lon="1.466373391">
        <ele>635.00000</ele>
        <time>2019-04-02T14:13:38Z</time>
      </trkpt>
      <trkpt lat="41.45927698" lon="1.466333745">
        <ele>635.00000</ele>
        <time>2019-04-02T14:13:39Z</time>
      </trkpt>
      <trkpt lat="41.45930489" lon="1.466139117">
        <ele>636.00000</ele>
        <time>2019-04-02T14:13:44Z</time>
      </trkpt>
      <trkpt lat="41.45932232" lon="1.465988242">
        <ele>638.00000</ele>
        <time>2019-04-02T14:13:48Z</time>
      </trkpt>
      <trkpt lat="41.45932316" lon="1.465837787">
        <ele>639.00000</ele>
        <time>2019-04-02T14:13:52Z</time>
      </trkpt>
      <trkpt lat="41.45934286" lon="1.465646931">
        <ele>640.00000</ele>
        <time>2019-04-02T14:13:57Z</time>
      </trkpt>
      <trkpt lat="41.45934831" lon="1.465522041">
        <ele>641.00000</ele>
        <time>2019-04-02T14:14:00Z</time>
      </trkpt>
      <trkpt lat="41.45935200" lon="1.465440569">
        <ele>641.00000</ele>
        <time>2019-04-02T14:14:02Z</time>
      </trkpt>
      <trkpt lat="41.45936474" lon="1.465361025">
        <ele>642.00000</ele>
        <time>2019-04-02T14:14:04Z</time>
      </trkpt>
      <trkpt lat="41.45936784" lon="1.465277541">
        <ele>642.00000</ele>
        <time>2019-04-02T14:14:06Z</time>
      </trkpt>
      <trkpt lat="41.45938762" lon="1.465068412">
        <ele>643.00000</ele>
        <time>2019-04-02T14:14:11Z</time>
      </trkpt>
      <trkpt lat="41.45941385" lon="1.464936481">
        <ele>644.00000</ele>
        <time>2019-04-02T14:14:14Z</time>
      </trkpt>
      <trkpt lat="41.45947186" lon="1.464723413">
        <ele>645.00000</ele>
        <time>2019-04-02T14:14:19Z</time>
      </trkpt>
      <trkpt lat="41.45951829" lon="1.464521829">
        <ele>647.00000</ele>
        <time>2019-04-02T14:14:24Z</time>
      </trkpt>
      <trkpt lat="41.45956548" lon="1.464322088">
        <ele>647.00000</ele>
        <time>2019-04-02T14:14:29Z</time>
      </trkpt>
      <trkpt lat="41.45957353" lon="1.464284202">
        <ele>648.00000</ele>
        <time>2019-04-02T14:14:30Z</time>
      </trkpt>
      <trkpt lat="41.45958828" lon="1.464035427">
        <ele>649.00000</ele>
        <time>2019-04-02T14:14:36Z</time>
      </trkpt>
      <trkpt lat="41.45958811" lon="1.463955882">
        <ele>649.00000</ele>
        <time>2019-04-02T14:14:38Z</time>
      </trkpt>
      <trkpt lat="41.45957102" lon="1.463836776">
        <ele>650.00000</ele>
        <time>2019-04-02T14:14:41Z</time>
      </trkpt>
      <trkpt lat="41.45954470" lon="1.463640220">
        <ele>651.00000</ele>
        <time>2019-04-02T14:14:46Z</time>
      </trkpt>
      <trkpt lat="41.45954260" lon="1.463601160">
        <ele>651.00000</ele>
        <time>2019-04-02T14:14:47Z</time>
      </trkpt>
      <trkpt lat="41.45949264" lon="1.463397815">
        <ele>652.00000</ele>
        <time>2019-04-02T14:14:52Z</time>
      </trkpt>
      <trkpt lat="41.45948317" lon="1.463354900">
        <ele>652.00000</ele>
        <time>2019-04-02T14:14:53Z</time>
      </trkpt>
      <trkpt lat="41.45943355" lon="1.463146358">
        <ele>653.00000</ele>
        <time>2019-04-02T14:14:58Z</time>
      </trkpt>
      <trkpt lat="41.45940992" lon="1.463016942">
        <ele>654.00000</ele>
        <time>2019-04-02T14:15:01Z</time>
      </trkpt>
      <trkpt lat="41.45940002" lon="1.462972853">
        <ele>655.00000</ele>
        <time>2019-04-02T14:15:02Z</time>
      </trkpt>
      <trkpt lat="41.45935107" lon="1.462759785">
        <ele>656.00000</ele>
        <time>2019-04-02T14:15:07Z</time>
      </trkpt>
      <trkpt lat="41.45930539" lon="1.462592482">
        <ele>657.00000</ele>
        <time>2019-04-02T14:15:11Z</time>
      </trkpt>
      <trkpt lat="41.45929718" lon="1.462551746">
        <ele>657.00000</ele>
        <time>2019-04-02T14:15:12Z</time>
      </trkpt>
      <trkpt lat="41.45926684" lon="1.462336247">
        <ele>658.00000</ele>
        <time>2019-04-02T14:15:17Z</time>
      </trkpt>
      <trkpt lat="41.45922861" lon="1.462211860">
        <ele>659.00000</ele>
        <time>2019-04-02T14:15:20Z</time>
      </trkpt>
      <trkpt lat="41.45919752" lon="1.462081270">
        <ele>659.00000</ele>
        <time>2019-04-02T14:15:23Z</time>
      </trkpt>
      <trkpt lat="41.45914513" lon="1.461923271">
        <ele>660.00000</ele>
        <time>2019-04-02T14:15:27Z</time>
      </trkpt>
      <trkpt lat="41.45904279" lon="1.461662929">
        <ele>661.00000</ele>
        <time>2019-04-02T14:15:33Z</time>
      </trkpt>
      <trkpt lat="41.45889803" lon="1.461292533">
        <ele>661.00000</ele>
        <time>2019-04-02T14:15:40Z</time>
      </trkpt>
      <trkpt lat="41.45869234" lon="1.460770759">
        <ele>661.00000</ele>
        <time>2019-04-02T14:15:49Z</time>
      </trkpt>
      <trkpt lat="41.45860978" lon="1.460567414">
        <ele>663.00000</ele>
        <time>2019-04-02T14:15:53Z</time>
      </trkpt>
      <trkpt lat="41.45857851" lon="1.460476219">
        <ele>663.00000</ele>
        <time>2019-04-02T14:15:55Z</time>
      </trkpt>
      <trkpt lat="41.45854415" lon="1.460388125">
        <ele>664.00000</ele>
        <time>2019-04-02T14:15:57Z</time>
      </trkpt>
      <trkpt lat="41.45848506" lon="1.460269270">
        <ele>665.00000</ele>
        <time>2019-04-02T14:16:00Z</time>
      </trkpt>
      <trkpt lat="41.45845388" lon="1.460185535">
        <ele>665.00000</ele>
        <time>2019-04-02T14:16:02Z</time>
      </trkpt>
      <trkpt lat="41.45842194" lon="1.460104314">
        <ele>666.00000</ele>
        <time>2019-04-02T14:16:04Z</time>
      </trkpt>
      <trkpt lat="41.45836721" lon="1.459951428">
        <ele>667.00000</ele>
        <time>2019-04-02T14:16:08Z</time>
      </trkpt>
      <trkpt lat="41.45831096" lon="1.459796531">
        <ele>668.00000</ele>
        <time>2019-04-02T14:16:12Z</time>
      </trkpt>
      <trkpt lat="41.45825698" lon="1.459639118">
        <ele>669.00000</ele>
        <time>2019-04-02T14:16:16Z</time>
      </trkpt>
      <trkpt lat="41.45822874" lon="1.459560580">
        <ele>670.00000</ele>
        <time>2019-04-02T14:16:18Z</time>
      </trkpt>
      <trkpt lat="41.45819974" lon="1.459485981">
        <ele>670.00000</ele>
        <time>2019-04-02T14:16:20Z</time>
      </trkpt>
      <trkpt lat="41.45812849" lon="1.459286240">
        <ele>672.00000</ele>
        <time>2019-04-02T14:16:25Z</time>
      </trkpt>
      <trkpt lat="41.45808164" lon="1.459166379">
        <ele>673.00000</ele>
        <time>2019-04-02T14:16:28Z</time>
      </trkpt>
      <trkpt lat="41.45800620" lon="1.458979630">
        <ele>674.00000</ele>
        <time>2019-04-02T14:16:33Z</time>
      </trkpt>
      <trkpt lat="41.45794291" lon="1.458815932">
        <ele>675.00000</ele>
        <time>2019-04-02T14:16:37Z</time>
      </trkpt>
      <trkpt lat="41.45789698" lon="1.458693891">
        <ele>676.00000</ele>
        <time>2019-04-02T14:16:40Z</time>
      </trkpt>
      <trkpt lat="41.45788307" lon="1.458650222">
        <ele>676.00000</ele>
        <time>2019-04-02T14:16:41Z</time>
      </trkpt>
      <trkpt lat="41.45780973" lon="1.458444446">
        <ele>677.00000</ele>
        <time>2019-04-02T14:16:46Z</time>
      </trkpt>
      <trkpt lat="41.45778064" lon="1.458367165">
        <ele>678.00000</ele>
        <time>2019-04-02T14:16:48Z</time>
      </trkpt>
      <trkpt lat="41.45774116" lon="1.458276053">
        <ele>679.00000</ele>
        <time>2019-04-02T14:16:50Z</time>
      </trkpt>
      <trkpt lat="41.45768995" lon="1.458145715">
        <ele>680.00000</ele>
        <time>2019-04-02T14:16:53Z</time>
      </trkpt>
      <trkpt lat="41.45762147" lon="1.457978999">
        <ele>681.00000</ele>
        <time>2019-04-02T14:16:57Z</time>
      </trkpt>
      <trkpt lat="41.45755433" lon="1.457813875">
        <ele>683.00000</ele>
        <time>2019-04-02T14:17:01Z</time>
      </trkpt>
      <trkpt lat="41.45748459" lon="1.457629976">
        <ele>683.00000</ele>
        <time>2019-04-02T14:17:05Z</time>
      </trkpt>
      <trkpt lat="41.45745140" lon="1.457541463">
        <ele>684.00000</ele>
        <time>2019-04-02T14:17:07Z</time>
      </trkpt>
      <trkpt lat="41.45738250" lon="1.457381621">
        <ele>685.00000</ele>
        <time>2019-04-02T14:17:11Z</time>
      </trkpt>
      <trkpt lat="41.45734495" lon="1.457305848">
        <ele>685.00000</ele>
        <time>2019-04-02T14:17:13Z</time>
      </trkpt>
      <trkpt lat="41.45730203" lon="1.457189172">
        <ele>686.00000</ele>
        <time>2019-04-02T14:17:16Z</time>
      </trkpt>
      <trkpt lat="41.45725107" lon="1.457033604">
        <ele>687.00000</ele>
        <time>2019-04-02T14:17:20Z</time>
      </trkpt>
      <trkpt lat="41.45716943" lon="1.456855572">
        <ele>688.00000</ele>
        <time>2019-04-02T14:17:25Z</time>
      </trkpt>
      <trkpt lat="41.45710950" lon="1.456708554">
        <ele>689.00000</ele>
        <time>2019-04-02T14:17:29Z</time>
      </trkpt>
      <trkpt lat="41.45709785" lon="1.456669243">
        <ele>690.00000</ele>
        <time>2019-04-02T14:17:30Z</time>
      </trkpt>
      <trkpt lat="41.45703306" lon="1.456476459">
        <ele>691.00000</ele>
        <time>2019-04-02T14:17:35Z</time>
      </trkpt>
      <trkpt lat="41.45699325" lon="1.456360872">
        <ele>691.00000</ele>
        <time>2019-04-02T14:17:38Z</time>
      </trkpt>
      <trkpt lat="41.45697548" lon="1.456321980">
        <ele>692.00000</ele>
        <time>2019-04-02T14:17:39Z</time>
      </trkpt>
      <trkpt lat="41.45689652" lon="1.456128107">
        <ele>693.00000</ele>
        <time>2019-04-02T14:17:44Z</time>
      </trkpt>
      <trkpt lat="41.45686006" lon="1.456044288">
        <ele>693.00000</ele>
        <time>2019-04-02T14:17:46Z</time>
      </trkpt>
      <trkpt lat="41.45669686" lon="1.455661654">
        <ele>693.00000</ele>
        <time>2019-04-02T14:17:54Z</time>
      </trkpt>
      <trkpt lat="41.45651338" lon="1.455249097">
        <ele>693.00000</ele>
        <time>2019-04-02T14:18:01Z</time>
      </trkpt>
      <trkpt lat="41.45628456" lon="1.454768395">
        <ele>694.00000</ele>
        <time>2019-04-02T14:18:09Z</time>
      </trkpt>
      <trkpt lat="41.45601575" lon="1.454229354">
        <ele>695.00000</ele>
        <time>2019-04-02T14:18:18Z</time>
      </trkpt>
      <trkpt lat="41.45594400" lon="1.454127514">
        <ele>695.00000</ele>
        <time>2019-04-02T14:18:20Z</time>
      </trkpt>
      <trkpt lat="41.45578181" lon="1.453943867">
        <ele>696.00000</ele>
        <time>2019-04-02T14:18:24Z</time>
      </trkpt>
      <trkpt lat="41.45558936" lon="1.453782934">
        <ele>696.00000</ele>
        <time>2019-04-02T14:18:28Z</time>
      </trkpt>
      <trkpt lat="41.45554125" lon="1.453739097">
        <ele>696.00000</ele>
        <time>2019-04-02T14:18:29Z</time>
      </trkpt>
      <trkpt lat="41.45549364" lon="1.453698193">
        <ele>696.00000</ele>
        <time>2019-04-02T14:18:30Z</time>
      </trkpt>
      <trkpt lat="41.45529616" lon="1.453521167">
        <ele>697.00000</ele>
        <time>2019-04-02T14:18:34Z</time>
      </trkpt>
      <trkpt lat="41.45515685" lon="1.453372472">
        <ele>698.00000</ele>
        <time>2019-04-02T14:18:37Z</time>
      </trkpt>
      <trkpt lat="41.45511126" lon="1.453320086">
        <ele>698.00000</ele>
        <time>2019-04-02T14:18:38Z</time>
      </trkpt>
      <trkpt lat="41.45491805" lon="1.453089667">
        <ele>698.00000</ele>
        <time>2019-04-02T14:18:42Z</time>
      </trkpt>
      <trkpt lat="41.45481529" lon="1.452961089">
        <ele>697.00000</ele>
        <time>2019-04-02T14:18:44Z</time>
      </trkpt>
      <trkpt lat="41.45476223" lon="1.452892944">
        <ele>697.00000</ele>
        <time>2019-04-02T14:18:45Z</time>
      </trkpt>
      <trkpt lat="41.45453223" lon="1.452620951">
        <ele>696.00000</ele>
        <time>2019-04-02T14:18:49Z</time>
      </trkpt>
      <trkpt lat="41.45447205" lon="1.452548280">
        <ele>695.00000</ele>
        <time>2019-04-02T14:18:50Z</time>
      </trkpt>
      <trkpt lat="41.45423728" lon="1.452242843">
        <ele>695.00000</ele>
        <time>2019-04-02T14:18:54Z</time>
      </trkpt>
      <trkpt lat="41.45412546" lon="1.452084174">
        <ele>694.00000</ele>
        <time>2019-04-02T14:18:56Z</time>
      </trkpt>
      <trkpt lat="41.45379999" lon="1.451573465">
        <ele>693.00000</ele>
        <time>2019-04-02T14:19:02Z</time>
      </trkpt>
      <trkpt lat="41.45374442" lon="1.451492244">
        <ele>693.00000</ele>
        <time>2019-04-02T14:19:03Z</time>
      </trkpt>
      <trkpt lat="41.45358801" lon="1.451244894">
        <ele>692.00000</ele>
        <time>2019-04-02T14:19:06Z</time>
      </trkpt>
      <trkpt lat="41.45337059" lon="1.450899308">
        <ele>691.00000</ele>
        <time>2019-04-02T14:19:10Z</time>
      </trkpt>
      <trkpt lat="41.45331426" lon="1.450809286">
        <ele>691.00000</ele>
        <time>2019-04-02T14:19:11Z</time>
      </trkpt>
      <trkpt lat="41.45320052" lon="1.450626226">
        <ele>690.00000</ele>
        <time>2019-04-02T14:19:13Z</time>
      </trkpt>
      <trkpt lat="41.45308652" lon="1.450442327">
        <ele>688.00000</ele>
        <time>2019-04-02T14:19:15Z</time>
      </trkpt>
      <trkpt lat="41.45297069" lon="1.450256332">
        <ele>687.00000</ele>
        <time>2019-04-02T14:19:17Z</time>
      </trkpt>
      <trkpt lat="41.45286147" lon="1.450065476">
        <ele>685.00000</ele>
        <time>2019-04-02T14:19:19Z</time>
      </trkpt>
      <trkpt lat="41.45259367" lon="1.449737409">
        <ele>684.00000</ele>
        <time>2019-04-02T14:19:23Z</time>
      </trkpt>
      <trkpt lat="41.45251094" lon="1.449682004">
        <ele>684.00000</ele>
        <time>2019-04-02T14:19:24Z</time>
      </trkpt>
      <trkpt lat="41.45242310" lon="1.449647722">
        <ele>682.00000</ele>
        <time>2019-04-02T14:19:25Z</time>
      </trkpt>
      <trkpt lat="41.45225227" lon="1.449572034">
        <ele>681.00000</ele>
        <time>2019-04-02T14:19:27Z</time>
      </trkpt>
      <trkpt lat="41.45166847" lon="1.449299454">
        <ele>680.00000</ele>
        <time>2019-04-02T14:19:34Z</time>
      </trkpt>
      <trkpt lat="41.45158533" lon="1.449259808">
        <ele>680.00000</ele>
        <time>2019-04-02T14:19:35Z</time>
      </trkpt>
      <trkpt lat="41.45150268" lon="1.449221419">
        <ele>680.00000</ele>
        <time>2019-04-02T14:19:36Z</time>
      </trkpt>
      <trkpt lat="41.45125919" lon="1.449106335">
        <ele>678.00000</ele>
        <time>2019-04-02T14:19:39Z</time>
      </trkpt>
      <trkpt lat="41.45099608" lon="1.449011284">
        <ele>677.00000</ele>
        <time>2019-04-02T14:19:42Z</time>
      </trkpt>
      <trkpt lat="41.45080782" lon="1.448954707">
        <ele>676.00000</ele>
        <time>2019-04-02T14:19:44Z</time>
      </trkpt>
      <trkpt lat="41.45061143" lon="1.448883377">
        <ele>674.00000</ele>
        <time>2019-04-02T14:19:46Z</time>
      </trkpt>
      <trkpt lat="41.45041798" lon="1.448794109">
        <ele>673.00000</ele>
        <time>2019-04-02T14:19:48Z</time>
      </trkpt>
      <trkpt lat="41.45031949" lon="1.448737112">
        <ele>672.00000</ele>
        <time>2019-04-02T14:19:49Z</time>
      </trkpt>
      <trkpt lat="41.45012008" lon="1.448617083">
        <ele>671.00000</ele>
        <time>2019-04-02T14:19:51Z</time>
      </trkpt>
      <trkpt lat="41.44992370" lon="1.448497138">
        <ele>670.00000</ele>
        <time>2019-04-02T14:19:53Z</time>
      </trkpt>
      <trkpt lat="41.44962941" lon="1.448316844">
        <ele>669.00000</ele>
        <time>2019-04-02T14:19:56Z</time>
      </trkpt>
      <trkpt lat="41.44933763" lon="1.448128838">
        <ele>668.00000</ele>
        <time>2019-04-02T14:19:59Z</time>
      </trkpt>
      <trkpt lat="41.44914493" lon="1.448009144">
        <ele>666.00000</ele>
        <time>2019-04-02T14:20:01Z</time>
      </trkpt>
      <trkpt lat="41.44896942" lon="1.447855755">
        <ele>665.00000</ele>
        <time>2019-04-02T14:20:03Z</time>
      </trkpt>
      <trkpt lat="41.44890471" lon="1.447739163">
        <ele>664.00000</ele>
        <time>2019-04-02T14:20:04Z</time>
      </trkpt>
      <trkpt lat="41.44886171" lon="1.447609914">
        <ele>663.00000</ele>
        <time>2019-04-02T14:20:05Z</time>
      </trkpt>
      <trkpt lat="41.44882366" lon="1.447343705">
        <ele>663.00000</ele>
        <time>2019-04-02T14:20:07Z</time>
      </trkpt>
      <trkpt lat="41.44880362" lon="1.447211103">
        <ele>663.00000</ele>
        <time>2019-04-02T14:20:08Z</time>
      </trkpt>
      <trkpt lat="41.44872810" lon="1.446977416">
        <ele>663.00000</ele>
        <time>2019-04-02T14:20:10Z</time>
      </trkpt>
      <trkpt lat="41.44866155" lon="1.446887142">
        <ele>663.00000</ele>
        <time>2019-04-02T14:20:11Z</time>
      </trkpt>
      <trkpt lat="41.44850950" lon="1.446587741">
        <ele>662.00000</ele>
        <time>2019-04-02T14:20:14Z</time>
      </trkpt>
      <trkpt lat="41.44846441" lon="1.446481207">
        <ele>662.00000</ele>
        <time>2019-04-02T14:20:15Z</time>
      </trkpt>
      <trkpt lat="41.44832309" lon="1.446171831">
        <ele>661.00000</ele>
        <time>2019-04-02T14:20:18Z</time>
      </trkpt>
      <trkpt lat="41.44826366" lon="1.446091365">
        <ele>661.00000</ele>
        <time>2019-04-02T14:20:19Z</time>
      </trkpt>
      <trkpt lat="41.44819124" lon="1.446025986">
        <ele>661.00000</ele>
        <time>2019-04-02T14:20:20Z</time>
      </trkpt>
      <trkpt lat="41.44795093" lon="1.445838231">
        <ele>659.00000</ele>
        <time>2019-04-02T14:20:23Z</time>
      </trkpt>
      <trkpt lat="41.44786728" lon="1.445777462">
        <ele>659.00000</ele>
        <time>2019-04-02T14:20:24Z</time>
      </trkpt>
      <trkpt lat="41.44778547" lon="1.445709737">
        <ele>658.00000</ele>
        <time>2019-04-02T14:20:25Z</time>
      </trkpt>
      <trkpt lat="41.44771582" lon="1.445616362">
        <ele>657.00000</ele>
        <time>2019-04-02T14:20:26Z</time>
      </trkpt>
      <trkpt lat="41.44767072" lon="1.445493148">
        <ele>656.00000</ele>
        <time>2019-04-02T14:20:27Z</time>
      </trkpt>
      <trkpt lat="41.44765497" lon="1.445226185">
        <ele>655.00000</ele>
        <time>2019-04-02T14:20:29Z</time>
      </trkpt>
      <trkpt lat="41.44754223" lon="1.444868613">
        <ele>654.00000</ele>
        <time>2019-04-02T14:20:32Z</time>
      </trkpt>
      <trkpt lat="41.44733629" lon="1.444589663">
        <ele>652.00000</ele>
        <time>2019-04-02T14:20:35Z</time>
      </trkpt>
      <trkpt lat="41.44724459" lon="1.444343486">
        <ele>651.00000</ele>
        <time>2019-04-02T14:20:37Z</time>
      </trkpt>
      <trkpt lat="41.44721911" lon="1.444208370">
        <ele>650.00000</ele>
        <time>2019-04-02T14:20:38Z</time>
      </trkpt>
      <trkpt lat="41.44719245" lon="1.444073840">
        <ele>649.00000</ele>
        <time>2019-04-02T14:20:39Z</time>
      </trkpt>
      <trkpt lat="41.44713495" lon="1.443797573">
        <ele>648.00000</ele>
        <time>2019-04-02T14:20:41Z</time>
      </trkpt>
      <trkpt lat="41.44708952" lon="1.443662624">
        <ele>648.00000</ele>
        <time>2019-04-02T14:20:42Z</time>
      </trkpt>
      <trkpt lat="41.44703119" lon="1.443544775">
        <ele>648.00000</ele>
        <time>2019-04-02T14:20:43Z</time>
      </trkpt>
      <trkpt lat="41.44695885" lon="1.443444276">
        <ele>647.00000</ele>
        <time>2019-04-02T14:20:44Z</time>
      </trkpt>
      <trkpt lat="41.44679222" lon="1.443245708">
        <ele>645.00000</ele>
        <time>2019-04-02T14:20:46Z</time>
      </trkpt>
      <trkpt lat="41.44669968" lon="1.443157866">
        <ele>644.00000</ele>
        <time>2019-04-02T14:20:47Z</time>
      </trkpt>
      <trkpt lat="41.44659667" lon="1.443088715">
        <ele>643.00000</ele>
        <time>2019-04-02T14:20:48Z</time>
      </trkpt>
      <trkpt lat="41.44648686" lon="1.443040771">
        <ele>642.00000</ele>
        <time>2019-04-02T14:20:49Z</time>
      </trkpt>
      <trkpt lat="41.44637295" lon="1.443000622">
        <ele>642.00000</ele>
        <time>2019-04-02T14:20:50Z</time>
      </trkpt>
      <trkpt lat="41.44614120" lon="1.442957958">
        <ele>640.00000</ele>
        <time>2019-04-02T14:20:52Z</time>
      </trkpt>
      <trkpt lat="41.44591279" lon="1.442892076">
        <ele>638.00000</ele>
        <time>2019-04-02T14:20:54Z</time>
      </trkpt>
      <trkpt lat="41.44580416" lon="1.442832313">
        <ele>637.00000</ele>
        <time>2019-04-02T14:20:55Z</time>
      </trkpt>
      <trkpt lat="41.44570433" lon="1.442754613">
        <ele>637.00000</ele>
        <time>2019-04-02T14:20:56Z</time>
      </trkpt>
      <trkpt lat="41.44553451" lon="1.442545065">
        <ele>635.00000</ele>
        <time>2019-04-02T14:20:58Z</time>
      </trkpt>
      <trkpt lat="41.44546377" lon="1.442428221">
        <ele>634.00000</ele>
        <time>2019-04-02T14:20:59Z</time>
      </trkpt>
      <trkpt lat="41.44539001" lon="1.442323364">
        <ele>634.00000</ele>
        <time>2019-04-02T14:21:00Z</time>
      </trkpt>
      <trkpt lat="41.44516495" lon="1.442018933">
        <ele>632.00000</ele>
        <time>2019-04-02T14:21:03Z</time>
      </trkpt>
      <trkpt lat="41.44501676" lon="1.441816929">
        <ele>631.00000</ele>
        <time>2019-04-02T14:21:05Z</time>
      </trkpt>
      <trkpt lat="41.44495390" lon="1.441711569">
        <ele>630.00000</ele>
        <time>2019-04-02T14:21:06Z</time>
      </trkpt>
      <trkpt lat="41.44491660" lon="1.441575950">
        <ele>630.00000</ele>
        <time>2019-04-02T14:21:07Z</time>
      </trkpt>
      <trkpt lat="41.44491199" lon="1.441429937">
        <ele>630.00000</ele>
        <time>2019-04-02T14:21:08Z</time>
      </trkpt>
      <trkpt lat="41.44494216" lon="1.441168505">
        <ele>630.00000</ele>
        <time>2019-04-02T14:21:10Z</time>
      </trkpt>
      <trkpt lat="41.44490939" lon="1.441053170">
        <ele>631.00000</ele>
        <time>2019-04-02T14:21:11Z</time>
      </trkpt>
      <trkpt lat="41.44484560" lon="1.440958874">
        <ele>631.00000</ele>
        <time>2019-04-02T14:21:12Z</time>
      </trkpt>
      <trkpt lat="41.44463480" lon="1.440767180">
        <ele>631.00000</ele>
        <time>2019-04-02T14:21:15Z</time>
      </trkpt>
      <trkpt lat="41.44456682" lon="1.440723007">
        <ele>632.00000</ele>
        <time>2019-04-02T14:21:16Z</time>
      </trkpt>
      <trkpt lat="41.44449725" lon="1.440697610">
        <ele>632.00000</ele>
        <time>2019-04-02T14:21:17Z</time>
      </trkpt>
      <trkpt lat="41.44437320" lon="1.440617144">
        <ele>632.00000</ele>
        <time>2019-04-02T14:21:19Z</time>
      </trkpt>
      <trkpt lat="41.44430489" lon="1.440478255">
        <ele>632.00000</ele>
        <time>2019-04-02T14:21:21Z</time>
      </trkpt>
      <trkpt lat="41.44431000" lon="1.440394939">
        <ele>632.00000</ele>
        <time>2019-04-02T14:21:22Z</time>
      </trkpt>
      <trkpt lat="41.44440279" lon="1.440143315">
        <ele>633.00000</ele>
        <time>2019-04-02T14:21:25Z</time>
      </trkpt>
      <trkpt lat="41.44448527" lon="1.439983472">
        <ele>634.00000</ele>
        <time>2019-04-02T14:21:27Z</time>
      </trkpt>
      <trkpt lat="41.44463798" lon="1.439625732">
        <ele>635.00000</ele>
        <time>2019-04-02T14:21:31Z</time>
      </trkpt>
      <trkpt lat="41.44483697" lon="1.439156429">
        <ele>635.00000</ele>
        <time>2019-04-02T14:21:36Z</time>
      </trkpt>
      <trkpt lat="41.44493437" lon="1.438986277">
        <ele>635.00000</ele>
        <time>2019-04-02T14:21:38Z</time>
      </trkpt>
      <trkpt lat="41.44507829" lon="1.438892232">
        <ele>636.00000</ele>
        <time>2019-04-02T14:21:40Z</time>
      </trkpt>
      <trkpt lat="41.44516026" lon="1.438886867">
        <ele>636.00000</ele>
        <time>2019-04-02T14:21:41Z</time>
      </trkpt>
      <trkpt lat="41.44531709" lon="1.438893908">
        <ele>637.00000</ele>
        <time>2019-04-02T14:21:43Z</time>
      </trkpt>
      <trkpt lat="41.44546888" lon="1.438878905">
        <ele>638.00000</ele>
        <time>2019-04-02T14:21:45Z</time>
      </trkpt>
      <trkpt lat="41.44566133" lon="1.438723504">
        <ele>638.00000</ele>
        <time>2019-04-02T14:21:48Z</time>
      </trkpt>
      <trkpt lat="41.44569628" lon="1.438631806">
        <ele>638.00000</ele>
        <time>2019-04-02T14:21:49Z</time>
      </trkpt>
      <trkpt lat="41.44570601" lon="1.438424354">
        <ele>639.00000</ele>
        <time>2019-04-02T14:21:51Z</time>
      </trkpt>
      <trkpt lat="41.44567273" lon="1.438223440">
        <ele>639.00000</ele>
        <time>2019-04-02T14:21:53Z</time>
      </trkpt>
      <trkpt lat="41.44564189" lon="1.438129814">
        <ele>640.00000</ele>
        <time>2019-04-02T14:21:54Z</time>
      </trkpt>
      <trkpt lat="41.44561473" lon="1.438038451">
        <ele>640.00000</ele>
        <time>2019-04-02T14:21:55Z</time>
      </trkpt>
      <trkpt lat="41.44548866" lon="1.437688255">
        <ele>641.00000</ele>
        <time>2019-04-02T14:21:59Z</time>
      </trkpt>
      <trkpt lat="41.44543552" lon="1.437517264">
        <ele>641.00000</ele>
        <time>2019-04-02T14:22:01Z</time>
      </trkpt>
      <trkpt lat="41.44536956" lon="1.437169332">
        <ele>642.00000</ele>
        <time>2019-04-02T14:22:05Z</time>
      </trkpt>
      <trkpt lat="41.44537090" lon="1.437080902">
        <ele>642.00000</ele>
        <time>2019-04-02T14:22:06Z</time>
      </trkpt>
      <trkpt lat="41.44537350" lon="1.436900775">
        <ele>643.00000</ele>
        <time>2019-04-02T14:22:08Z</time>
      </trkpt>
      <trkpt lat="41.44538632" lon="1.436449745">
        <ele>645.00000</ele>
        <time>2019-04-02T14:22:13Z</time>
      </trkpt>
      <trkpt lat="41.44539630" lon="1.436361484">
        <ele>645.00000</ele>
        <time>2019-04-02T14:22:14Z</time>
      </trkpt>
      <trkpt lat="41.44541499" lon="1.436275988">
        <ele>645.00000</ele>
        <time>2019-04-02T14:22:15Z</time>
      </trkpt>
      <trkpt lat="41.44545949" lon="1.436109272">
        <ele>646.00000</ele>
        <time>2019-04-02T14:22:17Z</time>
      </trkpt>
      <trkpt lat="41.44550953" lon="1.435949848">
        <ele>646.00000</ele>
        <time>2019-04-02T14:22:19Z</time>
      </trkpt>
      <trkpt lat="41.44554482" lon="1.435873657">
        <ele>647.00000</ele>
        <time>2019-04-02T14:22:20Z</time>
      </trkpt>
      <trkpt lat="41.44558246" lon="1.435798890">
        <ele>647.00000</ele>
        <time>2019-04-02T14:22:21Z</time>
      </trkpt>
      <trkpt lat="41.44562663" lon="1.435730243">
        <ele>647.00000</ele>
        <time>2019-04-02T14:22:22Z</time>
      </trkpt>
      <trkpt lat="41.44567860" lon="1.435670731">
        <ele>647.00000</ele>
        <time>2019-04-02T14:22:23Z</time>
      </trkpt>
      <trkpt lat="41.44591338" lon="1.435489431">
        <ele>648.00000</ele>
        <time>2019-04-02T14:22:27Z</time>
      </trkpt>
      <trkpt lat="41.44620758" lon="1.435247194">
        <ele>649.00000</ele>
        <time>2019-04-02T14:22:32Z</time>
      </trkpt>
      <trkpt lat="41.44625955" lon="1.435189945">
        <ele>649.00000</ele>
        <time>2019-04-02T14:22:33Z</time>
      </trkpt>
      <trkpt lat="41.44630447" lon="1.435120711">
        <ele>649.00000</ele>
        <time>2019-04-02T14:22:34Z</time>
      </trkpt>
      <trkpt lat="41.44638276" lon="1.434973608">
        <ele>650.00000</ele>
        <time>2019-04-02T14:22:36Z</time>
      </trkpt>
      <trkpt lat="41.44641973" lon="1.434896327">
        <ele>650.00000</ele>
        <time>2019-04-02T14:22:37Z</time>
      </trkpt>
      <trkpt lat="41.44652777" lon="1.434659706">
        <ele>650.00000</ele>
        <time>2019-04-02T14:22:40Z</time>
      </trkpt>
      <trkpt lat="41.44667806" lon="1.434337170">
        <ele>650.00000</ele>
        <time>2019-04-02T14:22:44Z</time>
      </trkpt>
      <trkpt lat="41.44684108" lon="1.433871220">
        <ele>650.00000</ele>
        <time>2019-04-02T14:22:49Z</time>
      </trkpt>
      <trkpt lat="41.44701031" lon="1.433172421">
        <ele>650.00000</ele>
        <time>2019-04-02T14:22:56Z</time>
      </trkpt>
      <trkpt lat="41.44705013" lon="1.432967232">
        <ele>650.00000</ele>
        <time>2019-04-02T14:22:58Z</time>
      </trkpt>
      <trkpt lat="41.44711283" lon="1.432769587">
        <ele>650.00000</ele>
        <time>2019-04-02T14:23:00Z</time>
      </trkpt>
      <trkpt lat="41.44716194" lon="1.432686522">
        <ele>650.00000</ele>
        <time>2019-04-02T14:23:01Z</time>
      </trkpt>
      <trkpt lat="41.44729874" lon="1.432578982">
        <ele>650.00000</ele>
        <time>2019-04-02T14:23:03Z</time>
      </trkpt>
      <trkpt lat="41.44737518" lon="1.432540174">
        <ele>650.00000</ele>
        <time>2019-04-02T14:23:04Z</time>
      </trkpt>
      <trkpt lat="41.44767349" lon="1.432391395">
        <ele>650.00000</ele>
        <time>2019-04-02T14:23:08Z</time>
      </trkpt>
      <trkpt lat="41.44776645" lon="1.432233229">
        <ele>650.00000</ele>
        <time>2019-04-02T14:23:10Z</time>
      </trkpt>
      <trkpt lat="41.44782219" lon="1.431952686">
        <ele>651.00000</ele>
        <time>2019-04-02T14:23:13Z</time>
      </trkpt>
      <trkpt lat="41.44783250" lon="1.431854367">
        <ele>651.00000</ele>
        <time>2019-04-02T14:23:14Z</time>
      </trkpt>
      <trkpt lat="41.44788639" lon="1.431266879">
        <ele>651.00000</ele>
        <time>2019-04-02T14:23:20Z</time>
      </trkpt>
      <trkpt lat="41.44788731" lon="1.431167721">
        <ele>651.00000</ele>
        <time>2019-04-02T14:23:21Z</time>
      </trkpt>
      <trkpt lat="41.44783006" lon="1.430604374">
        <ele>652.00000</ele>
        <time>2019-04-02T14:23:27Z</time>
      </trkpt>
      <trkpt lat="41.44781297" lon="1.430513933">
        <ele>652.00000</ele>
        <time>2019-04-02T14:23:28Z</time>
      </trkpt>
      <trkpt lat="41.44778472" lon="1.430231630">
        <ele>653.00000</ele>
        <time>2019-04-02T14:23:31Z</time>
      </trkpt>
      <trkpt lat="41.44778908" lon="1.430135574">
        <ele>653.00000</ele>
        <time>2019-04-02T14:23:32Z</time>
      </trkpt>
      <trkpt lat="41.44781414" lon="1.430044546">
        <ele>653.00000</ele>
        <time>2019-04-02T14:23:33Z</time>
      </trkpt>
      <trkpt lat="41.44785161" lon="1.429969025">
        <ele>653.00000</ele>
        <time>2019-04-02T14:23:34Z</time>
      </trkpt>
      <trkpt lat="41.44789947" lon="1.429899288">
        <ele>654.00000</ele>
        <time>2019-04-02T14:23:35Z</time>
      </trkpt>
      <trkpt lat="41.44800039" lon="1.429769201">
        <ele>654.00000</ele>
        <time>2019-04-02T14:23:37Z</time>
      </trkpt>
      <trkpt lat="41.44806568" lon="1.429725950">
        <ele>654.00000</ele>
        <time>2019-04-02T14:23:38Z</time>
      </trkpt>
      <trkpt lat="41.44813274" lon="1.429684711">
        <ele>654.00000</ele>
        <time>2019-04-02T14:23:39Z</time>
      </trkpt>
      <trkpt lat="41.44842409" lon="1.429601646">
        <ele>654.00000</ele>
        <time>2019-04-02T14:23:43Z</time>
      </trkpt>
      <trkpt lat="41.44849785" lon="1.429589409">
        <ele>654.00000</ele>
        <time>2019-04-02T14:23:44Z</time>
      </trkpt>
      <trkpt lat="41.44857253" lon="1.429584631">
        <ele>654.00000</ele>
        <time>2019-04-02T14:23:45Z</time>
      </trkpt>
      <trkpt lat="41.44880035" lon="1.429587062">
        <ele>655.00000</ele>
        <time>2019-04-02T14:23:48Z</time>
      </trkpt>
      <trkpt lat="41.44903446" lon="1.429543979">
        <ele>655.00000</ele>
        <time>2019-04-02T14:23:51Z</time>
      </trkpt>
      <trkpt lat="41.44910780" lon="1.429509865">
        <ele>655.00000</ele>
        <time>2019-04-02T14:23:52Z</time>
      </trkpt>
      <trkpt lat="41.44922431" lon="1.429371898">
        <ele>655.00000</ele>
        <time>2019-04-02T14:23:54Z</time>
      </trkpt>
      <trkpt lat="41.44927561" lon="1.429173834">
        <ele>655.00000</ele>
        <time>2019-04-02T14:23:56Z</time>
      </trkpt>
      <trkpt lat="41.44927628" lon="1.429074173">
        <ele>655.00000</ele>
        <time>2019-04-02T14:23:57Z</time>
      </trkpt>
      <trkpt lat="41.44924703" lon="1.428886754">
        <ele>656.00000</ele>
        <time>2019-04-02T14:23:59Z</time>
      </trkpt>
      <trkpt lat="41.44922481" lon="1.428799917">
        <ele>656.00000</ele>
        <time>2019-04-02T14:24:00Z</time>
      </trkpt>
      <trkpt lat="41.44916782" lon="1.428537648">
        <ele>657.00000</ele>
        <time>2019-04-02T14:24:03Z</time>
      </trkpt>
      <trkpt lat="41.44917176" lon="1.428445447">
        <ele>657.00000</ele>
        <time>2019-04-02T14:24:04Z</time>
      </trkpt>
      <trkpt lat="41.44919849" lon="1.428361041">
        <ele>657.00000</ele>
        <time>2019-04-02T14:24:05Z</time>
      </trkpt>
      <trkpt lat="41.44930033" lon="1.428217543">
        <ele>657.00000</ele>
        <time>2019-04-02T14:24:07Z</time>
      </trkpt>
      <trkpt lat="41.44935607" lon="1.428161133">
        <ele>658.00000</ele>
        <time>2019-04-02T14:24:08Z</time>
      </trkpt>
      <trkpt lat="41.44952170" lon="1.427972624">
        <ele>659.00000</ele>
        <time>2019-04-02T14:24:11Z</time>
      </trkpt>
      <trkpt lat="41.44957543" lon="1.427912106">
        <ele>659.00000</ele>
        <time>2019-04-02T14:24:12Z</time>
      </trkpt>
      <trkpt lat="41.44973485" lon="1.427736924">
        <ele>660.00000</ele>
        <time>2019-04-02T14:24:15Z</time>
      </trkpt>
      <trkpt lat="41.44992990" lon="1.427510865">
        <ele>660.00000</ele>
        <time>2019-04-02T14:24:19Z</time>
      </trkpt>
      <trkpt lat="41.45006200" lon="1.427358314">
        <ele>661.00000</ele>
        <time>2019-04-02T14:24:22Z</time>
      </trkpt>
      <trkpt lat="41.45009779" lon="1.427305256">
        <ele>662.00000</ele>
        <time>2019-04-02T14:24:23Z</time>
      </trkpt>
      <trkpt lat="41.45015814" lon="1.427196962">
        <ele>662.00000</ele>
        <time>2019-04-02T14:24:25Z</time>
      </trkpt>
      <trkpt lat="41.45024120" lon="1.426931759">
        <ele>661.00000</ele>
        <time>2019-04-02T14:24:29Z</time>
      </trkpt>
      <trkpt lat="41.45025847" lon="1.426859423">
        <ele>661.00000</ele>
        <time>2019-04-02T14:24:30Z</time>
      </trkpt>
      <trkpt lat="41.45029485" lon="1.426711734">
        <ele>661.00000</ele>
        <time>2019-04-02T14:24:32Z</time>
      </trkpt>
      <trkpt lat="41.45038244" lon="1.426411159">
        <ele>660.00000</ele>
        <time>2019-04-02T14:24:36Z</time>
      </trkpt>
      <trkpt lat="41.45048604" lon="1.426087366">
        <ele>659.00000</ele>
        <time>2019-04-02T14:24:40Z</time>
      </trkpt>
      <trkpt lat="41.45055636" lon="1.425929618">
        <ele>659.00000</ele>
        <time>2019-04-02T14:24:42Z</time>
      </trkpt>
      <trkpt lat="41.45059861" lon="1.425854517">
        <ele>659.00000</ele>
        <time>2019-04-02T14:24:43Z</time>
      </trkpt>
      <trkpt lat="41.45074227" lon="1.425630217">
        <ele>659.00000</ele>
        <time>2019-04-02T14:24:46Z</time>
      </trkpt>
      <trkpt lat="41.45101309" lon="1.425244398">
        <ele>658.00000</ele>
        <time>2019-04-02T14:24:51Z</time>
      </trkpt>
      <trkpt lat="41.45112122" lon="1.425086734">
        <ele>657.00000</ele>
        <time>2019-04-02T14:24:53Z</time>
      </trkpt>
      <trkpt lat="41.45128651" lon="1.424852879">
        <ele>657.00000</ele>
        <time>2019-04-02T14:24:56Z</time>
      </trkpt>
      <trkpt lat="41.45154861" lon="1.424458175">
        <ele>656.00000</ele>
        <time>2019-04-02T14:25:01Z</time>
      </trkpt>
      <trkpt lat="41.45161148" lon="1.424162043">
        <ele>656.00000</ele>
        <time>2019-04-02T14:25:04Z</time>
      </trkpt>
      <trkpt lat="41.45161332" lon="1.424052324">
        <ele>656.00000</ele>
        <time>2019-04-02T14:25:05Z</time>
      </trkpt>
      <trkpt lat="41.45161131" lon="1.423939671">
        <ele>655.00000</ele>
        <time>2019-04-02T14:25:06Z</time>
      </trkpt>
      <trkpt lat="41.45160041" lon="1.423598192">
        <ele>655.00000</ele>
        <time>2019-04-02T14:25:09Z</time>
      </trkpt>
      <trkpt lat="41.45159455" lon="1.423149341">
        <ele>653.00000</ele>
        <time>2019-04-02T14:25:13Z</time>
      </trkpt>
      <trkpt lat="41.45159421" lon="1.422812975">
        <ele>652.00000</ele>
        <time>2019-04-02T14:25:16Z</time>
      </trkpt>
      <trkpt lat="41.45158465" lon="1.422702502">
        <ele>652.00000</ele>
        <time>2019-04-02T14:25:17Z</time>
      </trkpt>
      <trkpt lat="41.45156739" lon="1.422595800">
        <ele>651.00000</ele>
        <time>2019-04-02T14:25:18Z</time>
      </trkpt>
      <trkpt lat="41.45154576" lon="1.422491865">
        <ele>651.00000</ele>
        <time>2019-04-02T14:25:19Z</time>
      </trkpt>
      <trkpt lat="41.45151718" lon="1.422385415">
        <ele>651.00000</ele>
        <time>2019-04-02T14:25:20Z</time>
      </trkpt>
      <trkpt lat="41.45144484" lon="1.422178130">
        <ele>650.00000</ele>
        <time>2019-04-02T14:25:22Z</time>
      </trkpt>
      <trkpt lat="41.45140377" lon="1.422072015">
        <ele>650.00000</ele>
        <time>2019-04-02T14:25:23Z</time>
      </trkpt>
      <trkpt lat="41.45128416" lon="1.421738667">
        <ele>648.00000</ele>
        <time>2019-04-02T14:25:26Z</time>
      </trkpt>
      <trkpt lat="41.45116279" lon="1.421397188">
        <ele>647.00000</ele>
        <time>2019-04-02T14:25:29Z</time>
      </trkpt>
      <trkpt lat="41.45107470" lon="1.421163585">
        <ele>646.00000</ele>
        <time>2019-04-02T14:25:31Z</time>
      </trkpt>
      <trkpt lat="41.45098845" lon="1.420929813">
        <ele>645.00000</ele>
        <time>2019-04-02T14:25:33Z</time>
      </trkpt>
      <trkpt lat="41.45086281" lon="1.420577187">
        <ele>643.00000</ele>
        <time>2019-04-02T14:25:36Z</time>
      </trkpt>
      <trkpt lat="41.45078309" lon="1.420339308">
        <ele>642.00000</ele>
        <time>2019-04-02T14:25:38Z</time>
      </trkpt>
      <trkpt lat="41.45066550" lon="1.420001685">
        <ele>641.00000</ele>
        <time>2019-04-02T14:25:41Z</time>
      </trkpt>
      <trkpt lat="41.45050163" lon="1.419452503">
        <ele>640.00000</ele>
        <time>2019-04-02T14:25:46Z</time>
      </trkpt>
      <trkpt lat="41.45047883" lon="1.419333815">
        <ele>639.00000</ele>
        <time>2019-04-02T14:25:47Z</time>
      </trkpt>
      <trkpt lat="41.45046391" lon="1.419210350">
        <ele>639.00000</ele>
        <time>2019-04-02T14:25:48Z</time>
      </trkpt>
      <trkpt lat="41.45045259" lon="1.419085878">
        <ele>638.00000</ele>
        <time>2019-04-02T14:25:49Z</time>
      </trkpt>
      <trkpt lat="41.45043256" lon="1.418834757">
        <ele>637.00000</ele>
        <time>2019-04-02T14:25:51Z</time>
      </trkpt>
      <trkpt lat="41.45042334" lon="1.418710453">
        <ele>636.00000</ele>
        <time>2019-04-02T14:25:52Z</time>
      </trkpt>
      <trkpt lat="41.45041027" lon="1.418588664">
        <ele>636.00000</ele>
        <time>2019-04-02T14:25:53Z</time>
      </trkpt>
      <trkpt lat="41.45036567" lon="1.418356485">
        <ele>635.00000</ele>
        <time>2019-04-02T14:25:55Z</time>
      </trkpt>
      <trkpt lat="41.45033391" lon="1.418245760">
        <ele>634.00000</ele>
        <time>2019-04-02T14:25:56Z</time>
      </trkpt>
      <trkpt lat="41.45011447" lon="1.417573699">
        <ele>633.00000</ele>
        <time>2019-04-02T14:26:02Z</time>
      </trkpt>
      <trkpt lat="41.45004129" lon="1.417353507">
        <ele>633.00000</ele>
        <time>2019-04-02T14:26:04Z</time>
      </trkpt>
      <trkpt lat="41.45000224" lon="1.417244793">
        <ele>632.00000</ele>
        <time>2019-04-02T14:26:05Z</time>
      </trkpt>
      <trkpt lat="41.44995781" lon="1.417141444">
        <ele>632.00000</ele>
        <time>2019-04-02T14:26:06Z</time>
      </trkpt>
      <trkpt lat="41.44984373" lon="1.416964000">
        <ele>631.00000</ele>
        <time>2019-04-02T14:26:08Z</time>
      </trkpt>
      <trkpt lat="41.44969671" lon="1.416818154">
        <ele>631.00000</ele>
        <time>2019-04-02T14:26:10Z</time>
      </trkpt>
      <trkpt lat="41.44951860" lon="1.416721763">
        <ele>630.00000</ele>
        <time>2019-04-02T14:26:12Z</time>
      </trkpt>
      <trkpt lat="41.44941994" lon="1.416713632">
        <ele>628.00000</ele>
        <time>2019-04-02T14:26:13Z</time>
      </trkpt>
      <trkpt lat="41.44931752" lon="1.416734252">
        <ele>627.00000</ele>
        <time>2019-04-02T14:26:14Z</time>
      </trkpt>
      <trkpt lat="41.44921551" lon="1.416776832">
        <ele>627.00000</ele>
        <time>2019-04-02T14:26:15Z</time>
      </trkpt>
      <trkpt lat="41.44902306" lon="1.416908679">
        <ele>625.00000</ele>
        <time>2019-04-02T14:26:17Z</time>
      </trkpt>
      <trkpt lat="41.44884176" lon="1.417082017">
        <ele>624.00000</ele>
        <time>2019-04-02T14:26:19Z</time>
      </trkpt>
      <trkpt lat="41.44863506" lon="1.417215373">
        <ele>623.00000</ele>
        <time>2019-04-02T14:26:21Z</time>
      </trkpt>
      <trkpt lat="41.44840213" lon="1.417224677">
        <ele>621.00000</ele>
        <time>2019-04-02T14:26:23Z</time>
      </trkpt>
      <trkpt lat="41.44830607" lon="1.417151084">
        <ele>620.00000</ele>
        <time>2019-04-02T14:26:24Z</time>
      </trkpt>
      <trkpt lat="41.44823282" lon="1.417035246">
        <ele>618.00000</ele>
        <time>2019-04-02T14:26:25Z</time>
      </trkpt>
      <trkpt lat="41.44817464" lon="1.416898369">
        <ele>617.00000</ele>
        <time>2019-04-02T14:26:26Z</time>
      </trkpt>
      <trkpt lat="41.44812184" lon="1.416754033">
        <ele>616.00000</ele>
        <time>2019-04-02T14:26:27Z</time>
      </trkpt>
      <trkpt lat="41.44806920" lon="1.416608691">
        <ele>615.00000</ele>
        <time>2019-04-02T14:26:28Z</time>
      </trkpt>
      <trkpt lat="41.44801463" lon="1.416465612">
        <ele>614.00000</ele>
        <time>2019-04-02T14:26:29Z</time>
      </trkpt>
      <trkpt lat="41.44795596" lon="1.416326807">
        <ele>613.00000</ele>
        <time>2019-04-02T14:26:30Z</time>
      </trkpt>
      <trkpt lat="41.44782973" lon="1.416043667">
        <ele>612.00000</ele>
        <time>2019-04-02T14:26:32Z</time>
      </trkpt>
      <trkpt lat="41.44776402" lon="1.415899330">
        <ele>611.00000</ele>
        <time>2019-04-02T14:26:33Z</time>
      </trkpt>
      <trkpt lat="41.44769805" lon="1.415756670">
        <ele>609.00000</ele>
        <time>2019-04-02T14:26:34Z</time>
      </trkpt>
      <trkpt lat="41.44763175" lon="1.415613926">
        <ele>608.00000</ele>
        <time>2019-04-02T14:26:35Z</time>
      </trkpt>
      <trkpt lat="41.44756746" lon="1.415469339">
        <ele>607.00000</ele>
        <time>2019-04-02T14:26:36Z</time>
      </trkpt>
      <trkpt lat="41.44744056" lon="1.415180582">
        <ele>604.00000</ele>
        <time>2019-04-02T14:26:38Z</time>
      </trkpt>
      <trkpt lat="41.44737468" lon="1.415037000">
        <ele>603.00000</ele>
        <time>2019-04-02T14:26:39Z</time>
      </trkpt>
      <trkpt lat="41.44730133" lon="1.414901381">
        <ele>602.00000</ele>
        <time>2019-04-02T14:26:40Z</time>
      </trkpt>
      <trkpt lat="41.44721458" lon="1.414776239">
        <ele>601.00000</ele>
        <time>2019-04-02T14:26:41Z</time>
      </trkpt>
      <trkpt lat="41.44711601" lon="1.414665179">
        <ele>600.00000</ele>
        <time>2019-04-02T14:26:42Z</time>
      </trkpt>
      <trkpt lat="41.44690118" lon="1.414458649">
        <ele>598.00000</ele>
        <time>2019-04-02T14:26:44Z</time>
      </trkpt>
      <trkpt lat="41.44679113" lon="1.414356222">
        <ele>597.00000</ele>
        <time>2019-04-02T14:26:45Z</time>
      </trkpt>
      <trkpt lat="41.44668250" lon="1.414255388">
        <ele>597.00000</ele>
        <time>2019-04-02T14:26:46Z</time>
      </trkpt>
      <trkpt lat="41.44646708" lon="1.414052629">
        <ele>595.00000</ele>
        <time>2019-04-02T14:26:48Z</time>
      </trkpt>
      <trkpt lat="41.44636005" lon="1.413950202">
        <ele>594.00000</ele>
        <time>2019-04-02T14:26:49Z</time>
      </trkpt>
      <trkpt lat="41.44625619" lon="1.413847692">
        <ele>593.00000</ele>
        <time>2019-04-02T14:26:50Z</time>
      </trkpt>
      <trkpt lat="41.44615754" lon="1.413746271">
        <ele>591.00000</ele>
        <time>2019-04-02T14:26:51Z</time>
      </trkpt>
      <trkpt lat="41.44606961" lon="1.413648789">
        <ele>590.00000</ele>
        <time>2019-04-02T14:26:52Z</time>
      </trkpt>
      <trkpt lat="41.44599585" lon="1.413549296">
        <ele>589.00000</ele>
        <time>2019-04-02T14:26:53Z</time>
      </trkpt>
      <trkpt lat="41.44590969" lon="1.413319548">
        <ele>588.00000</ele>
        <time>2019-04-02T14:26:55Z</time>
      </trkpt>
      <trkpt lat="41.44591656" lon="1.413064990">
        <ele>587.00000</ele>
        <time>2019-04-02T14:26:57Z</time>
      </trkpt>
      <trkpt lat="41.44598294" lon="1.412815880">
        <ele>586.00000</ele>
        <time>2019-04-02T14:26:59Z</time>
      </trkpt>
      <trkpt lat="41.44602787" lon="1.412697946">
        <ele>585.00000</ele>
        <time>2019-04-02T14:27:00Z</time>
      </trkpt>
      <trkpt lat="41.44608252" lon="1.412591580">
        <ele>585.00000</ele>
        <time>2019-04-02T14:27:01Z</time>
      </trkpt>
      <trkpt lat="41.44614773" lon="1.412508348">
        <ele>583.00000</ele>
        <time>2019-04-02T14:27:02Z</time>
      </trkpt>
      <trkpt lat="41.44622124" lon="1.412456044">
        <ele>582.00000</ele>
        <time>2019-04-02T14:27:03Z</time>
      </trkpt>
      <trkpt lat="41.44641394" lon="1.412475658">
        <ele>582.00000</ele>
        <time>2019-04-02T14:27:05Z</time>
      </trkpt>
      <trkpt lat="41.44661486" lon="1.412630137">
        <ele>581.00000</ele>
        <time>2019-04-02T14:27:07Z</time>
      </trkpt>
      <trkpt lat="41.44671326" lon="1.412724936">
        <ele>580.00000</ele>
        <time>2019-04-02T14:27:08Z</time>
      </trkpt>
      <trkpt lat="41.44681099" lon="1.412815377">
        <ele>579.00000</ele>
        <time>2019-04-02T14:27:09Z</time>
      </trkpt>
      <trkpt lat="41.44690847" lon="1.412883019">
        <ele>579.00000</ele>
        <time>2019-04-02T14:27:10Z</time>
      </trkpt>
      <trkpt lat="41.44700461" lon="1.412916798">
        <ele>578.00000</ele>
        <time>2019-04-02T14:27:11Z</time>
      </trkpt>
      <trkpt lat="41.44717737" lon="1.412860052">
        <ele>577.00000</ele>
        <time>2019-04-02T14:27:13Z</time>
      </trkpt>
      <trkpt lat="41.44726563" lon="1.412653271">
        <ele>575.00000</ele>
        <time>2019-04-02T14:27:15Z</time>
      </trkpt>
      <trkpt lat="41.44721165" lon="1.412420924">
        <ele>573.00000</ele>
        <time>2019-04-02T14:27:17Z</time>
      </trkpt>
      <trkpt lat="41.44707460" lon="1.412232164">
        <ele>571.00000</ele>
        <time>2019-04-02T14:27:19Z</time>
      </trkpt>
      <trkpt lat="41.44699682" lon="1.412141053">
        <ele>570.00000</ele>
        <time>2019-04-02T14:27:20Z</time>
      </trkpt>
      <trkpt lat="41.44683455" lon="1.411959081">
        <ele>569.00000</ele>
        <time>2019-04-02T14:27:22Z</time>
      </trkpt>
      <trkpt lat="41.44666548" lon="1.411767890">
        <ele>567.00000</ele>
        <time>2019-04-02T14:27:24Z</time>
      </trkpt>
      <trkpt lat="41.44649147" lon="1.411572508">
        <ele>565.00000</ele>
        <time>2019-04-02T14:27:26Z</time>
      </trkpt>
      <trkpt lat="41.44639156" lon="1.411494221">
        <ele>564.00000</ele>
        <time>2019-04-02T14:27:27Z</time>
      </trkpt>
      <trkpt lat="41.44628142" lon="1.411433871">
        <ele>563.00000</ele>
        <time>2019-04-02T14:27:28Z</time>
      </trkpt>
      <trkpt lat="41.44616198" lon="1.411390537">
        <ele>562.00000</ele>
        <time>2019-04-02T14:27:29Z</time>
      </trkpt>
      <trkpt lat="41.44603894" lon="1.411359608">
        <ele>561.00000</ele>
        <time>2019-04-02T14:27:30Z</time>
      </trkpt>
      <trkpt lat="41.44579620" lon="1.411268832">
        <ele>559.00000</ele>
        <time>2019-04-02T14:27:32Z</time>
      </trkpt>
      <trkpt lat="41.44568145" lon="1.411195322">
        <ele>559.00000</ele>
        <time>2019-04-02T14:27:33Z</time>
      </trkpt>
      <trkpt lat="41.44557349" lon="1.411105887">
        <ele>558.00000</ele>
        <time>2019-04-02T14:27:34Z</time>
      </trkpt>
      <trkpt lat="41.44536310" lon="1.410912517">
        <ele>556.00000</ele>
        <time>2019-04-02T14:27:36Z</time>
      </trkpt>
      <trkpt lat="41.44526487" lon="1.410811096">
        <ele>555.00000</ele>
        <time>2019-04-02T14:27:37Z</time>
      </trkpt>
      <trkpt lat="41.44517082" lon="1.410706825">
        <ele>554.00000</ele>
        <time>2019-04-02T14:27:38Z</time>
      </trkpt>
      <trkpt lat="41.44498935" lon="1.410505659">
        <ele>553.00000</ele>
        <time>2019-04-02T14:27:40Z</time>
      </trkpt>
      <trkpt lat="41.44472373" lon="1.410212377">
        <ele>552.00000</ele>
        <time>2019-04-02T14:27:43Z</time>
      </trkpt>
      <trkpt lat="41.44455031" lon="1.410024790">
        <ele>551.00000</ele>
        <time>2019-04-02T14:27:45Z</time>
      </trkpt>
      <trkpt lat="41.44429776" lon="1.409751875">
        <ele>549.00000</ele>
        <time>2019-04-02T14:27:48Z</time>
      </trkpt>
      <trkpt lat="41.44421663" lon="1.409661937">
        <ele>549.00000</ele>
        <time>2019-04-02T14:27:49Z</time>
      </trkpt>
      <trkpt lat="41.44414328" lon="1.409568144">
        <ele>548.00000</ele>
        <time>2019-04-02T14:27:50Z</time>
      </trkpt>
      <trkpt lat="41.44403499" lon="1.409346526">
        <ele>548.00000</ele>
        <time>2019-04-02T14:27:52Z</time>
      </trkpt>
      <trkpt lat="41.44396928" lon="1.409095153">
        <ele>547.00000</ele>
        <time>2019-04-02T14:27:54Z</time>
      </trkpt>
      <trkpt lat="41.44394078" lon="1.408966658">
        <ele>547.00000</ele>
        <time>2019-04-02T14:27:55Z</time>
      </trkpt>
      <trkpt lat="41.44391270" lon="1.408839337">
        <ele>547.00000</ele>
        <time>2019-04-02T14:27:56Z</time>
      </trkpt>
      <trkpt lat="41.44385880" lon="1.408585198">
        <ele>546.00000</ele>
        <time>2019-04-02T14:27:58Z</time>
      </trkpt>
      <trkpt lat="41.44354331" lon="1.407760418">
        <ele>564.00000</ele>
        <time>2019-04-02T15:21:38Z</time>
      </trkpt>
      <trkpt lat="41.44364909" lon="1.407874915">
        <ele>564.00000</ele>
        <time>2019-04-02T15:21:41Z</time>
      </trkpt>
      <trkpt lat="41.44370784" lon="1.407980695">
        <ele>564.00000</ele>
        <time>2019-04-02T15:21:43Z</time>
      </trkpt>
      <trkpt lat="41.44375680" lon="1.408096617">
        <ele>564.00000</ele>
        <time>2019-04-02T15:21:45Z</time>
      </trkpt>
      <trkpt lat="41.44377297" lon="1.408158559">
        <ele>565.00000</ele>
        <time>2019-04-02T15:21:46Z</time>
      </trkpt>
      <trkpt lat="41.44379954" lon="1.408283365">
        <ele>565.00000</ele>
        <time>2019-04-02T15:21:48Z</time>
      </trkpt>
      <trkpt lat="41.44384849" lon="1.408530548">
        <ele>566.00000</ele>
        <time>2019-04-02T15:21:52Z</time>
      </trkpt>
      <trkpt lat="41.44390918" lon="1.408831542">
        <ele>567.00000</ele>
        <time>2019-04-02T15:21:57Z</time>
      </trkpt>
      <trkpt lat="41.44392033" lon="1.408890299">
        <ele>567.00000</ele>
        <time>2019-04-02T15:21:58Z</time>
      </trkpt>
      <trkpt lat="41.44400062" lon="1.409234208">
        <ele>568.00000</ele>
        <time>2019-04-02T15:22:04Z</time>
      </trkpt>
      <trkpt lat="41.44401362" lon="1.409290200">
        <ele>568.00000</ele>
        <time>2019-04-02T15:22:05Z</time>
      </trkpt>
      <trkpt lat="41.44410280" lon="1.409541824">
        <ele>569.00000</ele>
        <time>2019-04-02T15:22:10Z</time>
      </trkpt>
      <trkpt lat="41.44412920" lon="1.409584656">
        <ele>569.00000</ele>
        <time>2019-04-02T15:22:11Z</time>
      </trkpt>
      <trkpt lat="41.44415544" lon="1.409627823">
        <ele>569.00000</ele>
        <time>2019-04-02T15:22:12Z</time>
      </trkpt>
      <trkpt lat="41.44434747" lon="1.409861594">
        <ele>570.00000</ele>
        <time>2019-04-02T15:22:18Z</time>
      </trkpt>
      <trkpt lat="41.44437890" lon="1.409899396">
        <ele>570.00000</ele>
        <time>2019-04-02T15:22:19Z</time>
      </trkpt>
      <trkpt lat="41.44441570" lon="1.409931667">
        <ele>570.00000</ele>
        <time>2019-04-02T15:22:20Z</time>
      </trkpt>
      <trkpt lat="41.44456012" lon="1.410069549">
        <ele>571.00000</ele>
        <time>2019-04-02T15:22:24Z</time>
      </trkpt>
      <trkpt lat="41.44459197" lon="1.410106429">
        <ele>571.00000</ele>
        <time>2019-04-02T15:22:25Z</time>
      </trkpt>
      <trkpt lat="41.44474443" lon="1.410284293">
        <ele>572.00000</ele>
        <time>2019-04-02T15:22:30Z</time>
      </trkpt>
      <trkpt lat="41.44488768" lon="1.410422343">
        <ele>573.00000</ele>
        <time>2019-04-02T15:22:34Z</time>
      </trkpt>
      <trkpt lat="41.44496773" lon="1.410497697">
        <ele>574.00000</ele>
        <time>2019-04-02T15:22:36Z</time>
      </trkpt>
      <trkpt lat="41.44516428" lon="1.410724930">
        <ele>575.00000</ele>
        <time>2019-04-02T15:22:42Z</time>
      </trkpt>
      <trkpt lat="41.44533033" lon="1.410907153">
        <ele>576.00000</ele>
        <time>2019-04-02T15:22:47Z</time>
      </trkpt>
      <trkpt lat="41.44543267" lon="1.411016369">
        <ele>576.00000</ele>
        <time>2019-04-02T15:22:50Z</time>
      </trkpt>
      <trkpt lat="41.44555027" lon="1.411112593">
        <ele>577.00000</ele>
        <time>2019-04-02T15:22:53Z</time>
      </trkpt>
      <trkpt lat="41.44569620" lon="1.411239411">
        <ele>578.00000</ele>
        <time>2019-04-02T15:22:57Z</time>
      </trkpt>
      <trkpt lat="41.44573166" lon="1.411265144">
        <ele>578.00000</ele>
        <time>2019-04-02T15:22:58Z</time>
      </trkpt>
      <trkpt lat="41.44579703" lon="1.411310909">
        <ele>579.00000</ele>
        <time>2019-04-02T15:23:00Z</time>
      </trkpt>
      <trkpt lat="41.44583106" lon="1.411319291">
        <ele>579.00000</ele>
        <time>2019-04-02T15:23:01Z</time>
      </trkpt>
      <trkpt lat="41.44593793" lon="1.411360865">
        <ele>580.00000</ele>
        <time>2019-04-02T15:23:04Z</time>
      </trkpt>
      <trkpt lat="41.44607791" lon="1.411418030">
        <ele>580.00000</ele>
        <time>2019-04-02T15:23:08Z</time>
      </trkpt>
      <trkpt lat="41.44620632" lon="1.411465387">
        <ele>581.00000</ele>
        <time>2019-04-02T15:23:12Z</time>
      </trkpt>
      <trkpt lat="41.44633415" lon="1.411523474">
        <ele>582.00000</ele>
        <time>2019-04-02T15:23:16Z</time>
      </trkpt>
      <trkpt lat="41.44642216" lon="1.411584243">
        <ele>584.00000</ele>
        <time>2019-04-02T15:23:19Z</time>
      </trkpt>
      <trkpt lat="41.44651570" lon="1.411664290">
        <ele>585.00000</ele>
        <time>2019-04-02T15:23:22Z</time>
      </trkpt>
      <trkpt lat="41.44657328" lon="1.411716258">
        <ele>585.00000</ele>
        <time>2019-04-02T15:23:24Z</time>
      </trkpt>
      <trkpt lat="41.44662248" lon="1.411782056">
        <ele>586.00000</ele>
        <time>2019-04-02T15:23:26Z</time>
      </trkpt>
      <trkpt lat="41.44674377" lon="1.411919770">
        <ele>587.00000</ele>
        <time>2019-04-02T15:23:31Z</time>
      </trkpt>
      <trkpt lat="41.44679415" lon="1.411978444">
        <ele>587.00000</ele>
        <time>2019-04-02T15:23:33Z</time>
      </trkpt>
      <trkpt lat="41.44686539" lon="1.412063101">
        <ele>588.00000</ele>
        <time>2019-04-02T15:23:36Z</time>
      </trkpt>
      <trkpt lat="41.44697385" lon="1.412194948">
        <ele>589.00000</ele>
        <time>2019-04-02T15:23:41Z</time>
      </trkpt>
      <trkpt lat="41.44704795" lon="1.412280360">
        <ele>590.00000</ele>
        <time>2019-04-02T15:23:44Z</time>
      </trkpt>
      <trkpt lat="41.44714962" lon="1.412388822">
        <ele>591.00000</ele>
        <time>2019-04-02T15:23:48Z</time>
      </trkpt>
      <trkpt lat="41.44720067" lon="1.412437185">
        <ele>591.00000</ele>
        <time>2019-04-02T15:23:50Z</time>
      </trkpt>
      <trkpt lat="41.44729991" lon="1.412599291">
        <ele>592.00000</ele>
        <time>2019-04-02T15:23:55Z</time>
      </trkpt>
      <trkpt lat="41.44728390" lon="1.412766007">
        <ele>593.00000</ele>
        <time>2019-04-02T15:23:59Z</time>
      </trkpt>
      <trkpt lat="41.44720360" lon="1.412893077">
        <ele>594.00000</ele>
        <time>2019-04-02T15:24:03Z</time>
      </trkpt>
      <trkpt lat="41.44717879" lon="1.412912355">
        <ele>595.00000</ele>
        <time>2019-04-02T15:24:04Z</time>
      </trkpt>
      <trkpt lat="41.44712749" lon="1.412944961">
        <ele>595.00000</ele>
        <time>2019-04-02T15:24:06Z</time>
      </trkpt>
      <trkpt lat="41.44701392" lon="1.412952588">
        <ele>596.00000</ele>
        <time>2019-04-02T15:24:10Z</time>
      </trkpt>
      <trkpt lat="41.44698492" lon="1.412939429">
        <ele>596.00000</ele>
        <time>2019-04-02T15:24:11Z</time>
      </trkpt>
      <trkpt lat="41.44689925" lon="1.412901543">
        <ele>598.00000</ele>
        <time>2019-04-02T15:24:14Z</time>
      </trkpt>
      <trkpt lat="41.44679607" lon="1.412799451">
        <ele>598.00000</ele>
        <time>2019-04-02T15:24:18Z</time>
      </trkpt>
      <trkpt lat="41.44677302" lon="1.412773132">
        <ele>599.00000</ele>
        <time>2019-04-02T15:24:19Z</time>
      </trkpt>
      <trkpt lat="41.44659709" lon="1.412633741">
        <ele>600.00000</ele>
        <time>2019-04-02T15:24:26Z</time>
      </trkpt>
      <trkpt lat="41.44652215" lon="1.412584120">
        <ele>601.00000</ele>
        <time>2019-04-02T15:24:29Z</time>
      </trkpt>
      <trkpt lat="41.44639383" lon="1.412509605">
        <ele>602.00000</ele>
        <time>2019-04-02T15:24:34Z</time>
      </trkpt>
      <trkpt lat="41.44636667" lon="1.412498876">
        <ele>602.00000</ele>
        <time>2019-04-02T15:24:35Z</time>
      </trkpt>
      <trkpt lat="41.44622166" lon="1.412499044">
        <ele>603.00000</ele>
        <time>2019-04-02T15:24:40Z</time>
      </trkpt>
      <trkpt lat="41.44609333" lon="1.412602644">
        <ele>604.00000</ele>
        <time>2019-04-02T15:24:45Z</time>
      </trkpt>
      <trkpt lat="41.44607313" lon="1.412631310">
        <ele>604.00000</ele>
        <time>2019-04-02T15:24:46Z</time>
      </trkpt>
      <trkpt lat="41.44598420" lon="1.412840355">
        <ele>605.00000</ele>
        <time>2019-04-02T15:24:52Z</time>
      </trkpt>
      <trkpt lat="41.44596878" lon="1.412878157">
        <ele>605.00000</ele>
        <time>2019-04-02T15:24:53Z</time>
      </trkpt>
      <trkpt lat="41.44592788" lon="1.413027690">
        <ele>606.00000</ele>
        <time>2019-04-02T15:24:57Z</time>
      </trkpt>
      <trkpt lat="41.44591019" lon="1.413101116">
        <ele>607.00000</ele>
        <time>2019-04-02T15:24:59Z</time>
      </trkpt>
      <trkpt lat="41.44590089" lon="1.413180157">
        <ele>607.00000</ele>
        <time>2019-04-02T15:25:01Z</time>
      </trkpt>
      <trkpt lat="41.44591505" lon="1.413385178">
        <ele>609.00000</ele>
        <time>2019-04-02T15:25:06Z</time>
      </trkpt>
      <trkpt lat="41.44597121" lon="1.413523061">
        <ele>610.00000</ele>
        <time>2019-04-02T15:25:10Z</time>
      </trkpt>
      <trkpt lat="41.44602360" lon="1.413620123">
        <ele>610.00000</ele>
        <time>2019-04-02T15:25:13Z</time>
      </trkpt>
      <trkpt lat="41.44604472" lon="1.413649544">
        <ele>611.00000</ele>
        <time>2019-04-02T15:25:14Z</time>
      </trkpt>
      <trkpt lat="41.44619308" lon="1.413803100">
        <ele>611.00000</ele>
        <time>2019-04-02T15:25:20Z</time>
      </trkpt>
      <trkpt lat="41.44626793" lon="1.413872418">
        <ele>612.00000</ele>
        <time>2019-04-02T15:25:23Z</time>
      </trkpt>
      <trkpt lat="41.44639106" lon="1.413991274">
        <ele>613.00000</ele>
        <time>2019-04-02T15:25:28Z</time>
      </trkpt>
      <trkpt lat="41.44652215" lon="1.414114404">
        <ele>614.00000</ele>
        <time>2019-04-02T15:25:33Z</time>
      </trkpt>
      <trkpt lat="41.44665216" lon="1.414229404">
        <ele>616.00000</ele>
        <time>2019-04-02T15:25:38Z</time>
      </trkpt>
      <trkpt lat="41.44678593" lon="1.414352953">
        <ele>617.00000</ele>
        <time>2019-04-02T15:25:43Z</time>
      </trkpt>
      <trkpt lat="41.44683932" lon="1.414401736">
        <ele>617.00000</ele>
        <time>2019-04-02T15:25:45Z</time>
      </trkpt>
      <trkpt lat="41.44690998" lon="1.414470719">
        <ele>618.00000</ele>
        <time>2019-04-02T15:25:48Z</time>
      </trkpt>
      <trkpt lat="41.44703437" lon="1.414593597">
        <ele>619.00000</ele>
        <time>2019-04-02T15:25:53Z</time>
      </trkpt>
      <trkpt lat="41.44716152" lon="1.414715973">
        <ele>620.00000</ele>
        <time>2019-04-02T15:25:58Z</time>
      </trkpt>
      <trkpt lat="41.44727451" lon="1.414841786">
        <ele>621.00000</ele>
        <time>2019-04-02T15:26:03Z</time>
      </trkpt>
      <trkpt lat="41.44729421" lon="1.414873218">
        <ele>621.00000</ele>
        <time>2019-04-02T15:26:04Z</time>
      </trkpt>
      <trkpt lat="41.44734081" lon="1.414972124">
        <ele>622.00000</ele>
        <time>2019-04-02T15:26:07Z</time>
      </trkpt>
      <trkpt lat="41.44739982" lon="1.415104055">
        <ele>623.00000</ele>
        <time>2019-04-02T15:26:11Z</time>
      </trkpt>
      <trkpt lat="41.44743159" lon="1.415168931">
        <ele>624.00000</ele>
        <time>2019-04-02T15:26:13Z</time>
      </trkpt>
      <trkpt lat="41.44747886" lon="1.415273202">
        <ele>625.00000</ele>
        <time>2019-04-02T15:26:16Z</time>
      </trkpt>
      <trkpt lat="41.44754734" lon="1.415417371">
        <ele>626.00000</ele>
        <time>2019-04-02T15:26:20Z</time>
      </trkpt>
      <trkpt lat="41.44761431" lon="1.415555505">
        <ele>626.00000</ele>
        <time>2019-04-02T15:26:24Z</time>
      </trkpt>
      <trkpt lat="41.44763007" lon="1.415591882">
        <ele>627.00000</ele>
        <time>2019-04-02T15:26:25Z</time>
      </trkpt>
      <trkpt lat="41.44769176" lon="1.415740074">
        <ele>628.00000</ele>
        <time>2019-04-02T15:26:29Z</time>
      </trkpt>
      <trkpt lat="41.44773342" lon="1.415847446">
        <ele>628.00000</ele>
        <time>2019-04-02T15:26:32Z</time>
      </trkpt>
      <trkpt lat="41.44776460" lon="1.415915759">
        <ele>629.00000</ele>
        <time>2019-04-02T15:26:34Z</time>
      </trkpt>
      <trkpt lat="41.44784624" lon="1.416090438">
        <ele>630.00000</ele>
        <time>2019-04-02T15:26:39Z</time>
      </trkpt>
      <trkpt lat="41.44787977" lon="1.416156655">
        <ele>631.00000</ele>
        <time>2019-04-02T15:26:41Z</time>
      </trkpt>
      <trkpt lat="41.44792520" lon="1.416252544">
        <ele>631.00000</ele>
        <time>2019-04-02T15:26:44Z</time>
      </trkpt>
      <trkpt lat="41.44801983" lon="1.416465276">
        <ele>632.00000</ele>
        <time>2019-04-02T15:26:50Z</time>
      </trkpt>
      <trkpt lat="41.44805252" lon="1.416535181">
        <ele>633.00000</ele>
        <time>2019-04-02T15:26:52Z</time>
      </trkpt>
      <trkpt lat="41.44808328" lon="1.416603159">
        <ele>633.00000</ele>
        <time>2019-04-02T15:26:54Z</time>
      </trkpt>
      <trkpt lat="41.44815905" lon="1.416776999">
        <ele>634.00000</ele>
        <time>2019-04-02T15:26:59Z</time>
      </trkpt>
      <trkpt lat="41.44820323" lon="1.416878001">
        <ele>635.00000</ele>
        <time>2019-04-02T15:27:02Z</time>
      </trkpt>
      <trkpt lat="41.44823265" lon="1.416945643">
        <ele>635.00000</ele>
        <time>2019-04-02T15:27:04Z</time>
      </trkpt>
      <trkpt lat="41.44830188" lon="1.417062822">
        <ele>636.00000</ele>
        <time>2019-04-02T15:27:08Z</time>
      </trkpt>
      <trkpt lat="41.44832225" lon="1.417091824">
        <ele>637.00000</ele>
        <time>2019-04-02T15:27:09Z</time>
      </trkpt>
      <trkpt lat="41.44839232" lon="1.417173463">
        <ele>637.00000</ele>
        <time>2019-04-02T15:27:12Z</time>
      </trkpt>
      <trkpt lat="41.44849693" lon="1.417240686">
        <ele>639.00000</ele>
        <time>2019-04-02T15:27:16Z</time>
      </trkpt>
      <trkpt lat="41.44852702" lon="1.417246386">
        <ele>639.00000</ele>
        <time>2019-04-02T15:27:17Z</time>
      </trkpt>
      <trkpt lat="41.44858955" lon="1.417239429">
        <ele>640.00000</ele>
        <time>2019-04-02T15:27:19Z</time>
      </trkpt>
      <trkpt lat="41.44867965" lon="1.417208164">
        <ele>640.00000</ele>
        <time>2019-04-02T15:27:22Z</time>
      </trkpt>
      <trkpt lat="41.44873372" lon="1.417176313">
        <ele>641.00000</ele>
        <time>2019-04-02T15:27:24Z</time>
      </trkpt>
      <trkpt lat="41.44887906" lon="1.417085705">
        <ele>642.00000</ele>
        <time>2019-04-02T15:27:29Z</time>
      </trkpt>
      <trkpt lat="41.44893354" lon="1.417041616">
        <ele>642.00000</ele>
        <time>2019-04-02T15:27:31Z</time>
      </trkpt>
      <trkpt lat="41.44901803" lon="1.416968023">
        <ele>643.00000</ele>
        <time>2019-04-02T15:27:34Z</time>
      </trkpt>
      <trkpt lat="41.44915256" lon="1.416854448">
        <ele>644.00000</ele>
        <time>2019-04-02T15:27:39Z</time>
      </trkpt>
      <trkpt lat="41.44927485" lon="1.416797200">
        <ele>645.00000</ele>
        <time>2019-04-02T15:27:43Z</time>
      </trkpt>
      <trkpt lat="41.44939832" lon="1.416752189">
        <ele>646.00000</ele>
        <time>2019-04-02T15:27:47Z</time>
      </trkpt>
      <trkpt lat="41.44943160" lon="1.416749591">
        <ele>646.00000</ele>
        <time>2019-04-02T15:27:48Z</time>
      </trkpt>
      <trkpt lat="41.44959119" lon="1.416784124">
        <ele>647.00000</ele>
        <time>2019-04-02T15:27:53Z</time>
      </trkpt>
      <trkpt lat="41.44970099" lon="1.416871966">
        <ele>648.00000</ele>
        <time>2019-04-02T15:27:57Z</time>
      </trkpt>
      <trkpt lat="41.44972932" lon="1.416893173">
        <ele>649.00000</ele>
        <time>2019-04-02T15:27:58Z</time>
      </trkpt>
      <trkpt lat="41.44983736" lon="1.416995516">
        <ele>649.00000</ele>
        <time>2019-04-02T15:28:02Z</time>
      </trkpt>
      <trkpt lat="41.44988757" lon="1.417062571">
        <ele>650.00000</ele>
        <time>2019-04-02T15:28:04Z</time>
      </trkpt>
      <trkpt lat="41.44998966" lon="1.417279997">
        <ele>651.00000</ele>
        <time>2019-04-02T15:28:09Z</time>
      </trkpt>
      <trkpt lat="41.45000609" lon="1.417328696">
        <ele>651.00000</ele>
        <time>2019-04-02T15:28:10Z</time>
      </trkpt>
      <trkpt lat="41.45010919" lon="1.417641844">
        <ele>652.00000</ele>
        <time>2019-04-02T15:28:16Z</time>
      </trkpt>
      <trkpt lat="41.45012394" lon="1.417697835">
        <ele>652.00000</ele>
        <time>2019-04-02T15:28:17Z</time>
      </trkpt>
      <trkpt lat="41.45023995" lon="1.418069321">
        <ele>653.00000</ele>
        <time>2019-04-02T15:28:24Z</time>
      </trkpt>
      <trkpt lat="41.45027699" lon="1.418175520">
        <ele>653.00000</ele>
        <time>2019-04-02T15:28:26Z</time>
      </trkpt>
      <trkpt lat="41.45033122" lon="1.418326813">
        <ele>654.00000</ele>
        <time>2019-04-02T15:28:29Z</time>
      </trkpt>
      <trkpt lat="41.45040532" lon="1.418575253">
        <ele>655.00000</ele>
        <time>2019-04-02T15:28:34Z</time>
      </trkpt>
      <trkpt lat="41.45041714" lon="1.418628646">
        <ele>655.00000</ele>
        <time>2019-04-02T15:28:35Z</time>
      </trkpt>
      <trkpt lat="41.45046307" lon="1.418897202">
        <ele>656.00000</ele>
        <time>2019-04-02T15:28:40Z</time>
      </trkpt>
      <trkpt lat="41.45046986" lon="1.419003400">
        <ele>657.00000</ele>
        <time>2019-04-02T15:28:42Z</time>
      </trkpt>
      <trkpt lat="41.45047506" lon="1.419157627">
        <ele>657.00000</ele>
        <time>2019-04-02T15:28:45Z</time>
      </trkpt>
      <trkpt lat="41.45050347" lon="1.419409755">
        <ele>658.00000</ele>
        <time>2019-04-02T15:28:50Z</time>
      </trkpt>
      <trkpt lat="41.45051051" lon="1.419461639">
        <ele>659.00000</ele>
        <time>2019-04-02T15:28:51Z</time>
      </trkpt>
      <trkpt lat="41.45055569" lon="1.419655429">
        <ele>659.00000</ele>
        <time>2019-04-02T15:28:55Z</time>
      </trkpt>
      <trkpt lat="41.45056852" lon="1.419704882">
        <ele>660.00000</ele>
        <time>2019-04-02T15:28:56Z</time>
      </trkpt>
      <trkpt lat="41.45065778" lon="1.419999254">
        <ele>661.00000</ele>
        <time>2019-04-02T15:29:02Z</time>
      </trkpt>
      <trkpt lat="41.45074705" lon="1.420260351">
        <ele>661.00000</ele>
        <time>2019-04-02T15:29:07Z</time>
      </trkpt>
      <trkpt lat="41.45080497" lon="1.420419439">
        <ele>662.00000</ele>
        <time>2019-04-02T15:29:10Z</time>
      </trkpt>
      <trkpt lat="41.45089801" lon="1.420696964">
        <ele>662.00000</ele>
        <time>2019-04-02T15:29:15Z</time>
      </trkpt>
      <trkpt lat="41.45091452" lon="1.420750776">
        <ele>663.00000</ele>
        <time>2019-04-02T15:29:16Z</time>
      </trkpt>
      <trkpt lat="41.45100873" lon="1.421011453">
        <ele>664.00000</ele>
        <time>2019-04-02T15:29:21Z</time>
      </trkpt>
      <trkpt lat="41.45104394" lon="1.421118155">
        <ele>664.00000</ele>
        <time>2019-04-02T15:29:23Z</time>
      </trkpt>
      <trkpt lat="41.45109591" lon="1.421275399">
        <ele>665.00000</ele>
        <time>2019-04-02T15:29:26Z</time>
      </trkpt>
      <trkpt lat="41.45119297" lon="1.421535573">
        <ele>666.00000</ele>
        <time>2019-04-02T15:29:31Z</time>
      </trkpt>
      <trkpt lat="41.45121074" lon="1.421585949">
        <ele>666.00000</ele>
        <time>2019-04-02T15:29:32Z</time>
      </trkpt>
      <trkpt lat="41.45130428" lon="1.421899264">
        <ele>667.00000</ele>
        <time>2019-04-02T15:29:38Z</time>
      </trkpt>
      <trkpt lat="41.45139547" lon="1.422157008">
        <ele>668.00000</ele>
        <time>2019-04-02T15:29:43Z</time>
      </trkpt>
      <trkpt lat="41.45145121" lon="1.422320958">
        <ele>669.00000</ele>
        <time>2019-04-02T15:29:46Z</time>
      </trkpt>
      <trkpt lat="41.45151081" lon="1.422481387">
        <ele>669.00000</ele>
        <time>2019-04-02T15:29:49Z</time>
      </trkpt>
      <trkpt lat="41.45152682" lon="1.422534780">
        <ele>669.00000</ele>
        <time>2019-04-02T15:29:50Z</time>
      </trkpt>
      <trkpt lat="41.45155264" lon="1.422642488">
        <ele>670.00000</ele>
        <time>2019-04-02T15:29:52Z</time>
      </trkpt>
      <trkpt lat="41.45157133" lon="1.422864440">
        <ele>671.00000</ele>
        <time>2019-04-02T15:29:56Z</time>
      </trkpt>
      <trkpt lat="41.45157317" lon="1.422984385">
        <ele>671.00000</ele>
        <time>2019-04-02T15:29:58Z</time>
      </trkpt>
      <trkpt lat="41.45156932" lon="1.423233663">
        <ele>672.00000</ele>
        <time>2019-04-02T15:30:02Z</time>
      </trkpt>
      <trkpt lat="41.45156429" lon="1.423483947">
        <ele>672.00000</ele>
        <time>2019-04-02T15:30:06Z</time>
      </trkpt>
      <trkpt lat="41.45156529" lon="1.423617806">
        <ele>673.00000</ele>
        <time>2019-04-02T15:30:08Z</time>
      </trkpt>
      <trkpt lat="41.45156990" lon="1.423958195">
        <ele>673.00000</ele>
        <time>2019-04-02T15:30:13Z</time>
      </trkpt>
      <trkpt lat="41.45157250" lon="1.424164054">
        <ele>674.00000</ele>
        <time>2019-04-02T15:30:16Z</time>
      </trkpt>
      <trkpt lat="41.45156965" lon="1.424231445">
        <ele>674.00000</ele>
        <time>2019-04-02T15:30:17Z</time>
      </trkpt>
      <trkpt lat="41.45154744" lon="1.424362203">
        <ele>674.00000</ele>
        <time>2019-04-02T15:30:19Z</time>
      </trkpt>
      <trkpt lat="41.45147309" lon="1.424538809">
        <ele>675.00000</ele>
        <time>2019-04-02T15:30:22Z</time>
      </trkpt>
      <trkpt lat="41.45143965" lon="1.424594214">
        <ele>675.00000</ele>
        <time>2019-04-02T15:30:23Z</time>
      </trkpt>
      <trkpt lat="41.45122163" lon="1.424922533">
        <ele>675.00000</ele>
        <time>2019-04-02T15:30:29Z</time>
      </trkpt>
      <trkpt lat="41.45097127" lon="1.425265856">
        <ele>676.00000</ele>
        <time>2019-04-02T15:30:35Z</time>
      </trkpt>
      <trkpt lat="41.45093087" lon="1.425327127">
        <ele>676.00000</ele>
        <time>2019-04-02T15:30:36Z</time>
      </trkpt>
      <trkpt lat="41.45080430" lon="1.425503231">
        <ele>677.00000</ele>
        <time>2019-04-02T15:30:39Z</time>
      </trkpt>
      <trkpt lat="41.45068276" lon="1.425684196">
        <ele>677.00000</ele>
        <time>2019-04-02T15:30:42Z</time>
      </trkpt>
      <trkpt lat="41.45064571" lon="1.425743456">
        <ele>677.00000</ele>
        <time>2019-04-02T15:30:43Z</time>
      </trkpt>
      <trkpt lat="41.45048059" lon="1.426057191">
        <ele>678.00000</ele>
        <time>2019-04-02T15:30:48Z</time>
      </trkpt>
      <trkpt lat="41.45045192" lon="1.426123827">
        <ele>678.00000</ele>
        <time>2019-04-02T15:30:49Z</time>
      </trkpt>
      <trkpt lat="41.45028781" lon="1.426627915">
        <ele>679.00000</ele>
        <time>2019-04-02T15:30:56Z</time>
      </trkpt>
      <trkpt lat="41.45024690" lon="1.426775688">
        <ele>679.00000</ele>
        <time>2019-04-02T15:30:58Z</time>
      </trkpt>
      <trkpt lat="41.45013308" lon="1.427194029">
        <ele>680.00000</ele>
        <time>2019-04-02T15:31:04Z</time>
      </trkpt>
      <trkpt lat="41.45010642" lon="1.427256222">
        <ele>681.00000</ele>
        <time>2019-04-02T15:31:05Z</time>
      </trkpt>
      <trkpt lat="41.44996225" lon="1.427475158">
        <ele>681.00000</ele>
        <time>2019-04-02T15:31:09Z</time>
      </trkpt>
      <trkpt lat="41.44991699" lon="1.427526203">
        <ele>681.00000</ele>
        <time>2019-04-02T15:31:10Z</time>
      </trkpt>
      <trkpt lat="41.44966319" lon="1.427800543">
        <ele>679.00000</ele>
        <time>2019-04-02T15:31:15Z</time>
      </trkpt>
      <trkpt lat="41.44955825" lon="1.427925517">
        <ele>679.00000</ele>
        <time>2019-04-02T15:31:17Z</time>
      </trkpt>
      <trkpt lat="41.44950603" lon="1.427989220">
        <ele>678.00000</ele>
        <time>2019-04-02T15:31:18Z</time>
      </trkpt>
      <trkpt lat="41.44927754" lon="1.428234977">
        <ele>677.00000</ele>
        <time>2019-04-02T15:31:22Z</time>
      </trkpt>
      <trkpt lat="41.44918257" lon="1.428388785">
        <ele>676.00000</ele>
        <time>2019-04-02T15:31:24Z</time>
      </trkpt>
      <trkpt lat="41.44915424" lon="1.428692294">
        <ele>676.00000</ele>
        <time>2019-04-02T15:31:27Z</time>
      </trkpt>
      <trkpt lat="41.44922674" lon="1.428988762">
        <ele>676.00000</ele>
        <time>2019-04-02T15:31:30Z</time>
      </trkpt>
      <trkpt lat="41.44924141" lon="1.429313812">
        <ele>675.00000</ele>
        <time>2019-04-02T15:31:33Z</time>
      </trkpt>
      <trkpt lat="41.44915558" lon="1.429495364">
        <ele>674.00000</ele>
        <time>2019-04-02T15:31:35Z</time>
      </trkpt>
      <trkpt lat="41.44899364" lon="1.429584631">
        <ele>673.00000</ele>
        <time>2019-04-02T15:31:37Z</time>
      </trkpt>
      <trkpt lat="41.44882877" lon="1.429607765">
        <ele>673.00000</ele>
        <time>2019-04-02T15:31:39Z</time>
      </trkpt>
      <trkpt lat="41.44867546" lon="1.429609945">
        <ele>673.00000</ele>
        <time>2019-04-02T15:31:41Z</time>
      </trkpt>
      <trkpt lat="41.44814254" lon="1.429675575">
        <ele>673.00000</ele>
        <time>2019-04-02T15:31:48Z</time>
      </trkpt>
      <trkpt lat="41.44807096" lon="1.429713796">
        <ele>673.00000</ele>
        <time>2019-04-02T15:31:49Z</time>
      </trkpt>
      <trkpt lat="41.44783417" lon="1.429958716">
        <ele>673.00000</ele>
        <time>2019-04-02T15:31:53Z</time>
      </trkpt>
      <trkpt lat="41.44773954" lon="1.430228278">
        <ele>673.00000</ele>
        <time>2019-04-02T15:31:56Z</time>
      </trkpt>
      <trkpt lat="41.44775848" lon="1.430536983">
        <ele>673.00000</ele>
        <time>2019-04-02T15:31:59Z</time>
      </trkpt>
      <trkpt lat="41.44777826" lon="1.430636057">
        <ele>672.00000</ele>
        <time>2019-04-02T15:32:00Z</time>
      </trkpt>
      <trkpt lat="41.44785957" lon="1.431050878">
        <ele>672.00000</ele>
        <time>2019-04-02T15:32:04Z</time>
      </trkpt>
      <trkpt lat="41.44786795" lon="1.431156573">
        <ele>671.00000</ele>
        <time>2019-04-02T15:32:05Z</time>
      </trkpt>
      <trkpt lat="41.44786980" lon="1.431364277">
        <ele>671.00000</ele>
        <time>2019-04-02T15:32:07Z</time>
      </trkpt>
      <trkpt lat="41.44784943" lon="1.431677592">
        <ele>670.00000</ele>
        <time>2019-04-02T15:32:10Z</time>
      </trkpt>
      <trkpt lat="41.44775689" lon="1.432264326">
        <ele>670.00000</ele>
        <time>2019-04-02T15:32:16Z</time>
      </trkpt>
      <trkpt lat="41.44772320" lon="1.432350911">
        <ele>670.00000</ele>
        <time>2019-04-02T15:32:17Z</time>
      </trkpt>
      <trkpt lat="41.44761582" lon="1.432492146">
        <ele>669.00000</ele>
        <time>2019-04-02T15:32:19Z</time>
      </trkpt>
      <trkpt lat="41.44754734" lon="1.432540593">
        <ele>669.00000</ele>
        <time>2019-04-02T15:32:20Z</time>
      </trkpt>
      <trkpt lat="41.44732438" lon="1.432615024">
        <ele>668.00000</ele>
        <time>2019-04-02T15:32:23Z</time>
      </trkpt>
      <trkpt lat="41.44724987" lon="1.432634973">
        <ele>668.00000</ele>
        <time>2019-04-02T15:32:24Z</time>
      </trkpt>
      <trkpt lat="41.44718248" lon="1.432667914">
        <ele>668.00000</ele>
        <time>2019-04-02T15:32:25Z</time>
      </trkpt>
      <trkpt lat="41.44707662" lon="1.432788865">
        <ele>668.00000</ele>
        <time>2019-04-02T15:32:27Z</time>
      </trkpt>
      <trkpt lat="41.44699933" lon="1.433061026">
        <ele>668.00000</ele>
        <time>2019-04-02T15:32:30Z</time>
      </trkpt>
      <trkpt lat="41.44685508" lon="1.433728309">
        <ele>668.00000</ele>
        <time>2019-04-02T15:32:37Z</time>
      </trkpt>
      <trkpt lat="41.44666607" lon="1.434355443">
        <ele>669.00000</ele>
        <time>2019-04-02T15:32:44Z</time>
      </trkpt>
      <trkpt lat="41.44644001" lon="1.434822482">
        <ele>669.00000</ele>
        <time>2019-04-02T15:32:50Z</time>
      </trkpt>
      <trkpt lat="41.44629727" lon="1.435141917">
        <ele>668.00000</ele>
        <time>2019-04-02T15:32:54Z</time>
      </trkpt>
      <trkpt lat="41.44619224" lon="1.435276195">
        <ele>668.00000</ele>
        <time>2019-04-02T15:32:56Z</time>
      </trkpt>
      <trkpt lat="41.44607020" lon="1.435388261">
        <ele>668.00000</ele>
        <time>2019-04-02T15:32:58Z</time>
      </trkpt>
      <trkpt lat="41.44593726" lon="1.435483898">
        <ele>667.00000</ele>
        <time>2019-04-02T15:33:00Z</time>
      </trkpt>
      <trkpt lat="41.44586937" lon="1.435526479">
        <ele>667.00000</ele>
        <time>2019-04-02T15:33:01Z</time>
      </trkpt>
      <trkpt lat="41.44580667" lon="1.435576770">
        <ele>666.00000</ele>
        <time>2019-04-02T15:33:02Z</time>
      </trkpt>
      <trkpt lat="41.44562135" lon="1.435725800">
        <ele>666.00000</ele>
        <time>2019-04-02T15:33:05Z</time>
      </trkpt>
      <trkpt lat="41.44552798" lon="1.435864185">
        <ele>666.00000</ele>
        <time>2019-04-02T15:33:07Z</time>
      </trkpt>
      <trkpt lat="41.44549403" lon="1.435947837">
        <ele>666.00000</ele>
        <time>2019-04-02T15:33:08Z</time>
      </trkpt>
      <trkpt lat="41.44546394" lon="1.436034590">
        <ele>666.00000</ele>
        <time>2019-04-02T15:33:09Z</time>
      </trkpt>
      <trkpt lat="41.44535740" lon="1.436506910">
        <ele>665.00000</ele>
        <time>2019-04-02T15:33:14Z</time>
      </trkpt>
      <trkpt lat="41.44535087" lon="1.436929441">
        <ele>664.00000</ele>
        <time>2019-04-02T15:33:18Z</time>
      </trkpt>
      <trkpt lat="41.44535204" lon="1.437037484">
        <ele>663.00000</ele>
        <time>2019-04-02T15:33:19Z</time>
      </trkpt>
      <trkpt lat="41.44537811" lon="1.437360355">
        <ele>663.00000</ele>
        <time>2019-04-02T15:33:22Z</time>
      </trkpt>
      <trkpt lat="41.44543636" lon="1.437568897">
        <ele>663.00000</ele>
        <time>2019-04-02T15:33:24Z</time>
      </trkpt>
      <trkpt lat="41.44547131" lon="1.437670486">
        <ele>662.00000</ele>
        <time>2019-04-02T15:33:25Z</time>
      </trkpt>
      <trkpt lat="41.44558019" lon="1.437985561">
        <ele>661.00000</ele>
        <time>2019-04-02T15:33:28Z</time>
      </trkpt>
      <trkpt lat="41.44568027" lon="1.438319664">
        <ele>660.00000</ele>
        <time>2019-04-02T15:33:31Z</time>
      </trkpt>
      <trkpt lat="41.44570475" lon="1.438435837">
        <ele>660.00000</ele>
        <time>2019-04-02T15:33:32Z</time>
      </trkpt>
      <trkpt lat="41.44566837" lon="1.438798103">
        <ele>659.00000</ele>
        <time>2019-04-02T15:33:35Z</time>
      </trkpt>
      <trkpt lat="41.44555530" lon="1.438975967">
        <ele>657.00000</ele>
        <time>2019-04-02T15:33:37Z</time>
      </trkpt>
      <trkpt lat="41.44546394" lon="1.438995581">
        <ele>657.00000</ele>
        <time>2019-04-02T15:33:38Z</time>
      </trkpt>
      <trkpt lat="41.44524978" lon="1.438956772">
        <ele>657.00000</ele>
        <time>2019-04-02T15:33:40Z</time>
      </trkpt>
      <trkpt lat="41.44505909" lon="1.438958952">
        <ele>656.00000</ele>
        <time>2019-04-02T15:33:42Z</time>
      </trkpt>
      <trkpt lat="41.44491559" lon="1.439078981">
        <ele>656.00000</ele>
        <time>2019-04-02T15:33:44Z</time>
      </trkpt>
      <trkpt lat="41.44481970" lon="1.439272686">
        <ele>656.00000</ele>
        <time>2019-04-02T15:33:46Z</time>
      </trkpt>
      <trkpt lat="41.44477386" lon="1.439374024">
        <ele>656.00000</ele>
        <time>2019-04-02T15:33:47Z</time>
      </trkpt>
      <trkpt lat="41.44472734" lon="1.439475528">
        <ele>655.00000</ele>
        <time>2019-04-02T15:33:48Z</time>
      </trkpt>
      <trkpt lat="41.44450865" lon="1.439978778">
        <ele>654.00000</ele>
        <time>2019-04-02T15:33:53Z</time>
      </trkpt>
      <trkpt lat="41.44442332" lon="1.440173741">
        <ele>654.00000</ele>
        <time>2019-04-02T15:33:55Z</time>
      </trkpt>
      <trkpt lat="41.44431352" lon="1.440387060">
        <ele>653.00000</ele>
        <time>2019-04-02T15:33:58Z</time>
      </trkpt>
      <trkpt lat="41.44429558" lon="1.440443051">
        <ele>653.00000</ele>
        <time>2019-04-02T15:33:59Z</time>
      </trkpt>
      <trkpt lat="41.44429416" lon="1.440504407">
        <ele>653.00000</ele>
        <time>2019-04-02T15:34:00Z</time>
      </trkpt>
      <trkpt lat="41.44430841" lon="1.440565763">
        <ele>653.00000</ele>
        <time>2019-04-02T15:34:01Z</time>
      </trkpt>
      <trkpt lat="41.44442156" lon="1.440708423">
        <ele>653.00000</ele>
        <time>2019-04-02T15:34:04Z</time>
      </trkpt>
      <trkpt lat="41.44460571" lon="1.440814370">
        <ele>652.00000</ele>
        <time>2019-04-02T15:34:07Z</time>
      </trkpt>
      <trkpt lat="41.44467378" lon="1.440857872">
        <ele>652.00000</ele>
        <time>2019-04-02T15:34:08Z</time>
      </trkpt>
      <trkpt lat="41.44473941" lon="1.440911348">
        <ele>652.00000</ele>
        <time>2019-04-02T15:34:09Z</time>
      </trkpt>
      <trkpt lat="41.44491618" lon="1.441129948">
        <ele>651.00000</ele>
        <time>2019-04-02T15:34:12Z</time>
      </trkpt>
      <trkpt lat="41.44495038" lon="1.441225586">
        <ele>651.00000</ele>
        <time>2019-04-02T15:34:13Z</time>
      </trkpt>
      <trkpt lat="41.44496303" lon="1.441330192">
        <ele>651.00000</ele>
        <time>2019-04-02T15:34:14Z</time>
      </trkpt>
      <trkpt lat="41.44494476" lon="1.441537477">
        <ele>651.00000</ele>
        <time>2019-04-02T15:34:16Z</time>
      </trkpt>
      <trkpt lat="41.44494082" lon="1.441641496">
        <ele>651.00000</ele>
        <time>2019-04-02T15:34:17Z</time>
      </trkpt>
      <trkpt lat="41.44503478" lon="1.441887589">
        <ele>652.00000</ele>
        <time>2019-04-02T15:34:20Z</time>
      </trkpt>
      <trkpt lat="41.44512983" lon="1.442016419">
        <ele>652.00000</ele>
        <time>2019-04-02T15:34:22Z</time>
      </trkpt>
      <trkpt lat="41.44526369" lon="1.442191181">
        <ele>653.00000</ele>
        <time>2019-04-02T15:34:25Z</time>
      </trkpt>
      <trkpt lat="41.44530770" lon="1.442247675">
        <ele>653.00000</ele>
        <time>2019-04-02T15:34:26Z</time>
      </trkpt>
      <trkpt lat="41.44539386" lon="1.442362088">
        <ele>654.00000</ele>
        <time>2019-04-02T15:34:28Z</time>
      </trkpt>
      <trkpt lat="41.44551456" lon="1.442535929">
        <ele>655.00000</ele>
        <time>2019-04-02T15:34:31Z</time>
      </trkpt>
      <trkpt lat="41.44562998" lon="1.442698538">
        <ele>656.00000</ele>
        <time>2019-04-02T15:34:34Z</time>
      </trkpt>
      <trkpt lat="41.44567189" lon="1.442746818">
        <ele>656.00000</ele>
        <time>2019-04-02T15:34:35Z</time>
      </trkpt>
      <trkpt lat="41.44586577" lon="1.442894591">
        <ele>658.00000</ele>
        <time>2019-04-02T15:34:39Z</time>
      </trkpt>
      <trkpt lat="41.44606400" lon="1.442980924">
        <ele>659.00000</ele>
        <time>2019-04-02T15:34:43Z</time>
      </trkpt>
      <trkpt lat="41.44611144" lon="1.442992910">
        <ele>659.00000</ele>
        <time>2019-04-02T15:34:44Z</time>
      </trkpt>
      <trkpt lat="41.44615796" lon="1.443003639">
        <ele>660.00000</ele>
        <time>2019-04-02T15:34:45Z</time>
      </trkpt>
      <trkpt lat="41.44620305" lon="1.443016547">
        <ele>660.00000</ele>
        <time>2019-04-02T15:34:46Z</time>
      </trkpt>
      <trkpt lat="41.44633976" lon="1.443057451">
        <ele>661.00000</ele>
        <time>2019-04-02T15:34:49Z</time>
      </trkpt>
      <trkpt lat="41.44646733" lon="1.443087374">
        <ele>662.00000</ele>
        <time>2019-04-02T15:34:52Z</time>
      </trkpt>
      <trkpt lat="41.44650707" lon="1.443100785">
        <ele>662.00000</ele>
        <time>2019-04-02T15:34:53Z</time>
      </trkpt>
      <trkpt lat="41.44654520" lon="1.443120483">
        <ele>663.00000</ele>
        <time>2019-04-02T15:34:54Z</time>
      </trkpt>
      <trkpt lat="41.44661653" lon="1.443166835">
        <ele>663.00000</ele>
        <time>2019-04-02T15:34:56Z</time>
      </trkpt>
      <trkpt lat="41.44665107" lon="1.443194411">
        <ele>663.00000</ele>
        <time>2019-04-02T15:34:57Z</time>
      </trkpt>
      <trkpt lat="41.44668753" lon="1.443222239">
        <ele>664.00000</ele>
        <time>2019-04-02T15:34:58Z</time>
      </trkpt>
      <trkpt lat="41.44675768" lon="1.443278901">
        <ele>664.00000</ele>
        <time>2019-04-02T15:35:00Z</time>
      </trkpt>
      <trkpt lat="41.44691945" lon="1.443432122">
        <ele>665.00000</ele>
        <time>2019-04-02T15:35:05Z</time>
      </trkpt>
      <trkpt lat="41.44702741" lon="1.443574531">
        <ele>667.00000</ele>
        <time>2019-04-02T15:35:09Z</time>
      </trkpt>
      <trkpt lat="41.44707754" lon="1.443652063">
        <ele>668.00000</ele>
        <time>2019-04-02T15:35:11Z</time>
      </trkpt>
      <trkpt lat="41.44712163" lon="1.443741833">
        <ele>668.00000</ele>
        <time>2019-04-02T15:35:13Z</time>
      </trkpt>
      <trkpt lat="41.44713931" lon="1.443792041">
        <ele>668.00000</ele>
        <time>2019-04-02T15:35:14Z</time>
      </trkpt>
      <trkpt lat="41.44718097" lon="1.443945430">
        <ele>669.00000</ele>
        <time>2019-04-02T15:35:17Z</time>
      </trkpt>
      <trkpt lat="41.44720419" lon="1.444046348">
        <ele>669.00000</ele>
        <time>2019-04-02T15:35:19Z</time>
      </trkpt>
      <trkpt lat="41.44724216" lon="1.444243323">
        <ele>670.00000</ele>
        <time>2019-04-02T15:35:23Z</time>
      </trkpt>
      <trkpt lat="41.44727225" lon="1.444386988">
        <ele>671.00000</ele>
        <time>2019-04-02T15:35:26Z</time>
      </trkpt>
      <trkpt lat="41.44730150" lon="1.444481704">
        <ele>671.00000</ele>
        <time>2019-04-02T15:35:28Z</time>
      </trkpt>
      <trkpt lat="41.44740317" lon="1.444684043">
        <ele>673.00000</ele>
        <time>2019-04-02T15:35:33Z</time>
      </trkpt>
      <trkpt lat="41.44753636" lon="1.444859644">
        <ele>674.00000</ele>
        <time>2019-04-02T15:35:38Z</time>
      </trkpt>
      <trkpt lat="41.44757593" lon="1.444947654">
        <ele>674.00000</ele>
        <time>2019-04-02T15:35:40Z</time>
      </trkpt>
      <trkpt lat="41.44762513" lon="1.445084866">
        <ele>675.00000</ele>
        <time>2019-04-02T15:35:43Z</time>
      </trkpt>
      <trkpt lat="41.44767517" lon="1.445337245">
        <ele>676.00000</ele>
        <time>2019-04-02T15:35:48Z</time>
      </trkpt>
      <trkpt lat="41.44768020" lon="1.445386949">
        <ele>676.00000</ele>
        <time>2019-04-02T15:35:49Z</time>
      </trkpt>
      <trkpt lat="41.44770962" lon="1.445583170">
        <ele>677.00000</ele>
        <time>2019-04-02T15:35:53Z</time>
      </trkpt>
      <trkpt lat="41.44776418" lon="1.445703702">
        <ele>678.00000</ele>
        <time>2019-04-02T15:35:56Z</time>
      </trkpt>
      <trkpt lat="41.44788790" lon="1.445824401">
        <ele>678.00000</ele>
        <time>2019-04-02T15:36:00Z</time>
      </trkpt>
      <trkpt lat="41.44795286" lon="1.445884667">
        <ele>679.00000</ele>
        <time>2019-04-02T15:36:02Z</time>
      </trkpt>
      <trkpt lat="41.44805110" lon="1.445965301">
        <ele>679.00000</ele>
        <time>2019-04-02T15:36:05Z</time>
      </trkpt>
      <trkpt lat="41.44817305" lon="1.446066219">
        <ele>681.00000</ele>
        <time>2019-04-02T15:36:09Z</time>
      </trkpt>
      <trkpt lat="41.44820700" lon="1.446092538">
        <ele>681.00000</ele>
        <time>2019-04-02T15:36:10Z</time>
      </trkpt>
      <trkpt lat="41.44834999" lon="1.446275096">
        <ele>682.00000</ele>
        <time>2019-04-02T15:36:15Z</time>
      </trkpt>
      <trkpt lat="41.44837447" lon="1.446321867">
        <ele>682.00000</ele>
        <time>2019-04-02T15:36:16Z</time>
      </trkpt>
      <trkpt lat="41.44852333" lon="1.446673488">
        <ele>683.00000</ele>
        <time>2019-04-02T15:36:23Z</time>
      </trkpt>
      <trkpt lat="41.44854990" lon="1.446723109">
        <ele>683.00000</ele>
        <time>2019-04-02T15:36:24Z</time>
      </trkpt>
      <trkpt lat="41.44865660" lon="1.446908097">
        <ele>684.00000</ele>
        <time>2019-04-02T15:36:28Z</time>
      </trkpt>
      <trkpt lat="41.44871545" lon="1.446994179">
        <ele>684.00000</ele>
        <time>2019-04-02T15:36:30Z</time>
      </trkpt>
      <trkpt lat="41.44877211" lon="1.447095600">
        <ele>684.00000</ele>
        <time>2019-04-02T15:36:32Z</time>
      </trkpt>
      <trkpt lat="41.44882114" lon="1.447278326">
        <ele>685.00000</ele>
        <time>2019-04-02T15:36:35Z</time>
      </trkpt>
      <trkpt lat="41.44886573" lon="1.447522742">
        <ele>685.00000</ele>
        <time>2019-04-02T15:36:39Z</time>
      </trkpt>
      <trkpt lat="41.44888526" lon="1.447638748">
        <ele>685.00000</ele>
        <time>2019-04-02T15:36:41Z</time>
      </trkpt>
      <trkpt lat="41.44890110" lon="1.447697086">
        <ele>686.00000</ele>
        <time>2019-04-02T15:36:42Z</time>
      </trkpt>
      <trkpt lat="41.44897361" lon="1.447858354">
        <ele>686.00000</ele>
        <time>2019-04-02T15:36:45Z</time>
      </trkpt>
      <trkpt lat="41.44900655" lon="1.447899173">
        <ele>686.00000</ele>
        <time>2019-04-02T15:36:46Z</time>
      </trkpt>
      <trkpt lat="41.44912105" lon="1.447992213">
        <ele>687.00000</ele>
        <time>2019-04-02T15:36:49Z</time>
      </trkpt>
      <trkpt lat="41.44916027" lon="1.448019873">
        <ele>687.00000</ele>
        <time>2019-04-02T15:36:50Z</time>
      </trkpt>
      <trkpt lat="41.44924283" lon="1.448076870">
        <ele>687.00000</ele>
        <time>2019-04-02T15:36:52Z</time>
      </trkpt>
      <trkpt lat="41.44945356" lon="1.448215758">
        <ele>688.00000</ele>
        <time>2019-04-02T15:36:57Z</time>
      </trkpt>
      <trkpt lat="41.44953771" lon="1.448268145">
        <ele>689.00000</ele>
        <time>2019-04-02T15:36:59Z</time>
      </trkpt>
      <trkpt lat="41.44966042" lon="1.448338637">
        <ele>690.00000</ele>
        <time>2019-04-02T15:37:02Z</time>
      </trkpt>
      <trkpt lat="41.44982052" lon="1.448439136">
        <ele>690.00000</ele>
        <time>2019-04-02T15:37:06Z</time>
      </trkpt>
      <trkpt lat="41.44990023" lon="1.448492109">
        <ele>691.00000</ele>
        <time>2019-04-02T15:37:08Z</time>
      </trkpt>
      <trkpt lat="41.45014657" lon="1.448635691">
        <ele>692.00000</ele>
        <time>2019-04-02T15:37:14Z</time>
      </trkpt>
      <trkpt lat="41.45039686" lon="1.448793271">
        <ele>693.00000</ele>
        <time>2019-04-02T15:37:20Z</time>
      </trkpt>
      <trkpt lat="41.45047950" lon="1.448833672">
        <ele>694.00000</ele>
        <time>2019-04-02T15:37:22Z</time>
      </trkpt>
      <trkpt lat="41.45056097" lon="1.448863344">
        <ele>694.00000</ele>
        <time>2019-04-02T15:37:24Z</time>
      </trkpt>
      <trkpt lat="41.45076289" lon="1.448958143">
        <ele>695.00000</ele>
        <time>2019-04-02T15:37:29Z</time>
      </trkpt>
      <trkpt lat="41.45084403" lon="1.448985552">
        <ele>696.00000</ele>
        <time>2019-04-02T15:37:31Z</time>
      </trkpt>
      <trkpt lat="41.45092550" lon="1.449010698">
        <ele>696.00000</ele>
        <time>2019-04-02T15:37:33Z</time>
      </trkpt>
      <trkpt lat="41.45108618" lon="1.449054284">
        <ele>697.00000</ele>
        <time>2019-04-02T15:37:37Z</time>
      </trkpt>
      <trkpt lat="41.45116372" lon="1.449080100">
        <ele>698.00000</ele>
        <time>2019-04-02T15:37:39Z</time>
      </trkpt>
      <trkpt lat="41.45120261" lon="1.449098624">
        <ele>698.00000</ele>
        <time>2019-04-02T15:37:40Z</time>
      </trkpt>
      <trkpt lat="41.45136103" lon="1.449167774">
        <ele>700.00000</ele>
        <time>2019-04-02T15:37:44Z</time>
      </trkpt>
      <trkpt lat="41.45149162" lon="1.449227118">
        <ele>700.00000</ele>
        <time>2019-04-02T15:37:47Z</time>
      </trkpt>
      <trkpt lat="41.45158507" lon="1.449271542">
        <ele>701.00000</ele>
        <time>2019-04-02T15:37:49Z</time>
      </trkpt>
      <trkpt lat="41.45182061" lon="1.449391404">
        <ele>701.00000</ele>
        <time>2019-04-02T15:37:54Z</time>
      </trkpt>
      <trkpt lat="41.45191314" lon="1.449438259">
        <ele>702.00000</ele>
        <time>2019-04-02T15:37:56Z</time>
      </trkpt>
      <trkpt lat="41.45209662" lon="1.449525179">
        <ele>703.00000</ele>
        <time>2019-04-02T15:38:00Z</time>
      </trkpt>
      <trkpt lat="41.45223241" lon="1.449584774">
        <ele>703.00000</ele>
        <time>2019-04-02T15:38:03Z</time>
      </trkpt>
      <trkpt lat="41.45231790" lon="1.449631880">
        <ele>703.00000</ele>
        <time>2019-04-02T15:38:05Z</time>
      </trkpt>
      <trkpt lat="41.45240390" lon="1.449678484">
        <ele>704.00000</ele>
        <time>2019-04-02T15:38:07Z</time>
      </trkpt>
      <trkpt lat="41.45249065" lon="1.449718717">
        <ele>705.00000</ele>
        <time>2019-04-02T15:38:09Z</time>
      </trkpt>
      <trkpt lat="41.45261320" lon="1.449794657">
        <ele>705.00000</ele>
        <time>2019-04-02T15:38:12Z</time>
      </trkpt>
      <trkpt lat="41.45265033" lon="1.449826927">
        <ele>705.00000</ele>
        <time>2019-04-02T15:38:13Z</time>
      </trkpt>
      <trkpt lat="41.45271948" lon="1.449893815">
        <ele>706.00000</ele>
        <time>2019-04-02T15:38:15Z</time>
      </trkpt>
      <trkpt lat="41.45278561" lon="1.449958439">
        <ele>706.00000</ele>
        <time>2019-04-02T15:38:17Z</time>
      </trkpt>
      <trkpt lat="41.45285937" lon="1.450089029">
        <ele>707.00000</ele>
        <time>2019-04-02T15:38:20Z</time>
      </trkpt>
      <trkpt lat="41.45288980" lon="1.450130771">
        <ele>707.00000</ele>
        <time>2019-04-02T15:38:21Z</time>
      </trkpt>
      <trkpt lat="41.45299399" lon="1.450308468">
        <ele>708.00000</ele>
        <time>2019-04-02T15:38:25Z</time>
      </trkpt>
      <trkpt lat="41.45301947" lon="1.450348868">
        <ele>708.00000</ele>
        <time>2019-04-02T15:38:26Z</time>
      </trkpt>
      <trkpt lat="41.45314210" lon="1.450558081">
        <ele>710.00000</ele>
        <time>2019-04-02T15:38:31Z</time>
      </trkpt>
      <trkpt lat="41.45324343" lon="1.450722701">
        <ele>711.00000</ele>
        <time>2019-04-02T15:38:35Z</time>
      </trkpt>
      <trkpt lat="41.45326984" lon="1.450764108">
        <ele>711.00000</ele>
        <time>2019-04-02T15:38:36Z</time>
      </trkpt>
      <trkpt lat="41.45345223" lon="1.451066611">
        <ele>712.00000</ele>
        <time>2019-04-02T15:38:43Z</time>
      </trkpt>
      <trkpt lat="41.45347938" lon="1.451110364">
        <ele>712.00000</ele>
        <time>2019-04-02T15:38:44Z</time>
      </trkpt>
      <trkpt lat="41.45358575" lon="1.451277500">
        <ele>713.00000</ele>
        <time>2019-04-02T15:38:48Z</time>
      </trkpt>
      <trkpt lat="41.45372757" lon="1.451491909">
        <ele>714.00000</ele>
        <time>2019-04-02T15:38:53Z</time>
      </trkpt>
      <trkpt lat="41.45375775" lon="1.451544715">
        <ele>715.00000</ele>
        <time>2019-04-02T15:38:54Z</time>
      </trkpt>
      <trkpt lat="41.45396688" lon="1.451883343">
        <ele>715.00000</ele>
        <time>2019-04-02T15:39:00Z</time>
      </trkpt>
      <trkpt lat="41.45422470" lon="1.452263379">
        <ele>715.00000</ele>
        <time>2019-04-02T15:39:06Z</time>
      </trkpt>
      <trkpt lat="41.45427399" lon="1.452323812">
        <ele>716.00000</ele>
        <time>2019-04-02T15:39:07Z</time>
      </trkpt>
      <trkpt lat="41.45462117" lon="1.452760929">
        <ele>717.00000</ele>
        <time>2019-04-02T15:39:14Z</time>
      </trkpt>
      <trkpt lat="41.45472175" lon="1.452886909">
        <ele>717.00000</ele>
        <time>2019-04-02T15:39:16Z</time>
      </trkpt>
      <trkpt lat="41.45491923" lon="1.453134175">
        <ele>718.00000</ele>
        <time>2019-04-02T15:39:20Z</time>
      </trkpt>
      <trkpt lat="41.45522190" lon="1.453501973">
        <ele>718.00000</ele>
        <time>2019-04-02T15:39:26Z</time>
      </trkpt>
      <trkpt lat="41.45540068" lon="1.453673802">
        <ele>718.00000</ele>
        <time>2019-04-02T15:39:29Z</time>
      </trkpt>
      <trkpt lat="41.45553454" lon="1.453781342">
        <ele>717.00000</ele>
        <time>2019-04-02T15:39:31Z</time>
      </trkpt>
      <trkpt lat="41.45581693" lon="1.454017460">
        <ele>717.00000</ele>
        <time>2019-04-02T15:39:35Z</time>
      </trkpt>
      <trkpt lat="41.45588130" lon="1.454089293">
        <ele>716.00000</ele>
        <time>2019-04-02T15:39:36Z</time>
      </trkpt>
      <trkpt lat="41.45594283" lon="1.454166574">
        <ele>716.00000</ele>
        <time>2019-04-02T15:39:37Z</time>
      </trkpt>
      <trkpt lat="41.45616520" lon="1.454533953">
        <ele>715.00000</ele>
        <time>2019-04-02T15:39:41Z</time>
      </trkpt>
      <trkpt lat="41.45621331" lon="1.454638810">
        <ele>715.00000</ele>
        <time>2019-04-02T15:39:42Z</time>
      </trkpt>
      <trkpt lat="41.45644524" lon="1.455158237">
        <ele>714.00000</ele>
        <time>2019-04-02T15:39:47Z</time>
      </trkpt>
      <trkpt lat="41.45657842" lon="1.455461159">
        <ele>714.00000</ele>
        <time>2019-04-02T15:39:50Z</time>
      </trkpt>
      <trkpt lat="41.45686953" lon="1.456124000">
        <ele>714.00000</ele>
        <time>2019-04-02T15:39:57Z</time>
      </trkpt>
      <trkpt lat="41.45691052" lon="1.456218799">
        <ele>714.00000</ele>
        <time>2019-04-02T15:39:58Z</time>
      </trkpt>
      <trkpt lat="41.45698813" lon="1.456424491">
        <ele>713.00000</ele>
        <time>2019-04-02T15:40:00Z</time>
      </trkpt>
      <trkpt lat="41.45707237" lon="1.456644432">
        <ele>712.00000</ele>
        <time>2019-04-02T15:40:02Z</time>
      </trkpt>
      <trkpt lat="41.45716222" lon="1.456883400">
        <ele>711.00000</ele>
        <time>2019-04-02T15:40:04Z</time>
      </trkpt>
      <trkpt lat="41.45725216" lon="1.457136869">
        <ele>709.00000</ele>
        <time>2019-04-02T15:40:06Z</time>
      </trkpt>
      <trkpt lat="41.45730069" lon="1.457266453">
        <ele>708.00000</ele>
        <time>2019-04-02T15:40:07Z</time>
      </trkpt>
      <trkpt lat="41.45740044" lon="1.457532411">
        <ele>706.00000</ele>
        <time>2019-04-02T15:40:09Z</time>
      </trkpt>
      <trkpt lat="41.45745241" lon="1.457668365">
        <ele>705.00000</ele>
        <time>2019-04-02T15:40:10Z</time>
      </trkpt>
      <trkpt lat="41.45750488" lon="1.457809014">
        <ele>705.00000</ele>
        <time>2019-04-02T15:40:11Z</time>
      </trkpt>
      <trkpt lat="41.45755810" lon="1.457953602">
        <ele>703.00000</ele>
        <time>2019-04-02T15:40:12Z</time>
      </trkpt>
      <trkpt lat="41.45767059" lon="1.458248896">
        <ele>702.00000</ele>
        <time>2019-04-02T15:40:14Z</time>
      </trkpt>
      <trkpt lat="41.45778525" lon="1.458558272">
        <ele>700.00000</ele>
        <time>2019-04-02T15:40:16Z</time>
      </trkpt>
      <trkpt lat="41.45784753" lon="1.458718366">
        <ele>699.00000</ele>
        <time>2019-04-02T15:40:17Z</time>
      </trkpt>
      <trkpt lat="41.45790838" lon="1.458881814">
        <ele>697.00000</ele>
        <time>2019-04-02T15:40:18Z</time>
      </trkpt>
      <trkpt lat="41.45797200" lon="1.459046937">
        <ele>696.00000</ele>
        <time>2019-04-02T15:40:19Z</time>
      </trkpt>
      <trkpt lat="41.45803570" lon="1.459211474">
        <ele>694.00000</ele>
        <time>2019-04-02T15:40:20Z</time>
      </trkpt>
      <trkpt lat="41.45809890" lon="1.459375172">
        <ele>692.00000</ele>
        <time>2019-04-02T15:40:21Z</time>
      </trkpt>
      <trkpt lat="41.45816235" lon="1.459539709">
        <ele>691.00000</ele>
        <time>2019-04-02T15:40:22Z</time>
      </trkpt>
      <trkpt lat="41.45823301" lon="1.459706341">
        <ele>691.00000</ele>
        <time>2019-04-02T15:40:23Z</time>
      </trkpt>
      <trkpt lat="41.45836721" lon="1.460048407">
        <ele>689.00000</ele>
        <time>2019-04-02T15:40:25Z</time>
      </trkpt>
      <trkpt lat="41.45843443" lon="1.460220487">
        <ele>688.00000</ele>
        <time>2019-04-02T15:40:26Z</time>
      </trkpt>
      <trkpt lat="41.45850274" lon="1.460392149">
        <ele>686.00000</ele>
        <time>2019-04-02T15:40:27Z</time>
      </trkpt>
      <trkpt lat="41.45857122" lon="1.460565151">
        <ele>684.00000</ele>
        <time>2019-04-02T15:40:28Z</time>
      </trkpt>
      <trkpt lat="41.45864138" lon="1.460738237">
        <ele>683.00000</ele>
        <time>2019-04-02T15:40:29Z</time>
      </trkpt>
      <trkpt lat="41.45871455" lon="1.460911659">
        <ele>682.00000</ele>
        <time>2019-04-02T15:40:30Z</time>
      </trkpt>
      <trkpt lat="41.45878412" lon="1.461079884">
        <ele>680.00000</ele>
        <time>2019-04-02T15:40:31Z</time>
      </trkpt>
      <trkpt lat="41.45896928" lon="1.461559329">
        <ele>680.00000</ele>
        <time>2019-04-02T15:40:34Z</time>
      </trkpt>
      <trkpt lat="41.45922887" lon="1.462309593">
        <ele>680.00000</ele>
        <time>2019-04-02T15:40:39Z</time>
      </trkpt>
      <trkpt lat="41.45933247" lon="1.462798928">
        <ele>678.00000</ele>
        <time>2019-04-02T15:40:42Z</time>
      </trkpt>
      <trkpt lat="41.45940514" lon="1.463136887">
        <ele>676.00000</ele>
        <time>2019-04-02T15:40:44Z</time>
      </trkpt>
      <trkpt lat="41.45948116" lon="1.463482221">
        <ele>674.00000</ele>
        <time>2019-04-02T15:40:46Z</time>
      </trkpt>
      <trkpt lat="41.45954528" lon="1.463844068">
        <ele>672.00000</ele>
        <time>2019-04-02T15:40:48Z</time>
      </trkpt>
      <trkpt lat="41.45956238" lon="1.464031320">
        <ele>671.00000</ele>
        <time>2019-04-02T15:40:49Z</time>
      </trkpt>
      <trkpt lat="41.45956381" lon="1.464219577">
        <ele>670.00000</ele>
        <time>2019-04-02T15:40:50Z</time>
      </trkpt>
      <trkpt lat="41.45954662" lon="1.464405991">
        <ele>669.00000</ele>
        <time>2019-04-02T15:40:51Z</time>
      </trkpt>
      <trkpt lat="41.45950170" lon="1.464585782">
        <ele>668.00000</ele>
        <time>2019-04-02T15:40:52Z</time>
      </trkpt>
      <trkpt lat="41.45944110" lon="1.464757528">
        <ele>667.00000</ele>
        <time>2019-04-02T15:40:53Z</time>
      </trkpt>
      <trkpt lat="41.45938678" lon="1.464931452">
        <ele>666.00000</ele>
        <time>2019-04-02T15:40:54Z</time>
      </trkpt>
      <trkpt lat="41.45935158" lon="1.465113423">
        <ele>664.00000</ele>
        <time>2019-04-02T15:40:55Z</time>
      </trkpt>
      <trkpt lat="41.45932392" lon="1.465488933">
        <ele>662.00000</ele>
        <time>2019-04-02T15:40:57Z</time>
      </trkpt>
      <trkpt lat="41.45931084" lon="1.465681549">
        <ele>661.00000</ele>
        <time>2019-04-02T15:40:58Z</time>
      </trkpt>
      <trkpt lat="41.45929668" lon="1.465876763">
        <ele>660.00000</ele>
        <time>2019-04-02T15:40:59Z</time>
      </trkpt>
      <trkpt lat="41.45927773" lon="1.466071810">
        <ele>659.00000</ele>
        <time>2019-04-02T15:41:00Z</time>
      </trkpt>
      <trkpt lat="41.45925359" lon="1.466270629">
        <ele>658.00000</ele>
        <time>2019-04-02T15:41:01Z</time>
      </trkpt>
      <trkpt lat="41.45922694" lon="1.466471208">
        <ele>657.00000</ele>
        <time>2019-04-02T15:41:02Z</time>
      </trkpt>
      <trkpt lat="41.45919517" lon="1.466672122">
        <ele>656.00000</ele>
        <time>2019-04-02T15:41:03Z</time>
      </trkpt>
      <trkpt lat="41.45916491" lon="1.466857865">
        <ele>655.00000</ele>
        <time>2019-04-02T15:41:04Z</time>
      </trkpt>
      <trkpt lat="41.45913993" lon="1.467022737">
        <ele>653.00000</ele>
        <time>2019-04-02T15:41:05Z</time>
      </trkpt>
      <trkpt lat="41.45912988" lon="1.467178892">
        <ele>652.00000</ele>
        <time>2019-04-02T15:41:06Z</time>
      </trkpt>
      <trkpt lat="41.45915117" lon="1.467331275">
        <ele>651.00000</ele>
        <time>2019-04-02T15:41:07Z</time>
      </trkpt>
      <trkpt lat="41.45921261" lon="1.467474270">
        <ele>650.00000</ele>
        <time>2019-04-02T15:41:08Z</time>
      </trkpt>
      <trkpt lat="41.45930053" lon="1.467589186">
        <ele>649.00000</ele>
        <time>2019-04-02T15:41:09Z</time>
      </trkpt>
      <trkpt lat="41.45939248" lon="1.467694966">
        <ele>648.00000</ele>
        <time>2019-04-02T15:41:10Z</time>
      </trkpt>
      <trkpt lat="41.45948787" lon="1.467800997">
        <ele>648.00000</ele>
        <time>2019-04-02T15:41:11Z</time>
      </trkpt>
      <trkpt lat="41.45974972" lon="1.468154462">
        <ele>646.00000</ele>
        <time>2019-04-02T15:41:14Z</time>
      </trkpt>
      <trkpt lat="41.45982717" lon="1.468287399">
        <ele>645.00000</ele>
        <time>2019-04-02T15:41:15Z</time>
      </trkpt>
      <trkpt lat="41.45990001" lon="1.468428885">
        <ele>644.00000</ele>
        <time>2019-04-02T15:41:16Z</time>
      </trkpt>
      <trkpt lat="41.45996622" lon="1.468574227">
        <ele>643.00000</ele>
        <time>2019-04-02T15:41:17Z</time>
      </trkpt>
      <trkpt lat="41.46002909" lon="1.468719989">
        <ele>642.00000</ele>
        <time>2019-04-02T15:41:18Z</time>
      </trkpt>
      <trkpt lat="41.46009371" lon="1.468865331">
        <ele>641.00000</ele>
        <time>2019-04-02T15:41:19Z</time>
      </trkpt>
      <trkpt lat="41.46021508" lon="1.469166073">
        <ele>640.00000</ele>
        <time>2019-04-02T15:41:21Z</time>
      </trkpt>
      <trkpt lat="41.46027334" lon="1.469320133">
        <ele>639.00000</ele>
        <time>2019-04-02T15:41:22Z</time>
      </trkpt>
      <trkpt lat="41.46033452" lon="1.469473354">
        <ele>638.00000</ele>
        <time>2019-04-02T15:41:23Z</time>
      </trkpt>
      <trkpt lat="41.46039864" lon="1.469627078">
        <ele>637.00000</ele>
        <time>2019-04-02T15:41:24Z</time>
      </trkpt>
      <trkpt lat="41.46045967" lon="1.469777198">
        <ele>636.00000</ele>
        <time>2019-04-02T15:41:25Z</time>
      </trkpt>
      <trkpt lat="41.46051691" lon="1.469925139">
        <ele>635.00000</ele>
        <time>2019-04-02T15:41:26Z</time>
      </trkpt>
      <trkpt lat="41.46071447" lon="1.470485301">
        <ele>635.00000</ele>
        <time>2019-04-02T15:41:30Z</time>
      </trkpt>
      <trkpt lat="41.46095562" lon="1.471108328">
        <ele>636.00000</ele>
        <time>2019-04-02T15:41:35Z</time>
      </trkpt>
      <trkpt lat="41.46114732" lon="1.471214191">
        <ele>636.00000</ele>
        <time>2019-04-02T15:41:37Z</time>
      </trkpt>
      <trkpt lat="41.46135091" lon="1.471230955">
        <ele>634.00000</ele>
        <time>2019-04-02T15:41:39Z</time>
      </trkpt>
      <trkpt lat="41.46143146" lon="1.471286024">
        <ele>633.00000</ele>
        <time>2019-04-02T15:41:40Z</time>
      </trkpt>
      <trkpt lat="41.46154370" lon="1.471476545">
        <ele>631.00000</ele>
        <time>2019-04-02T15:41:42Z</time>
      </trkpt>
      <trkpt lat="41.46156708" lon="1.471584001">
        <ele>630.00000</ele>
        <time>2019-04-02T15:41:43Z</time>
      </trkpt>
      <trkpt lat="41.46158913" lon="1.471704030">
        <ele>629.00000</ele>
        <time>2019-04-02T15:41:44Z</time>
      </trkpt>
      <trkpt lat="41.46159566" lon="1.471835877">
        <ele>628.00000</ele>
        <time>2019-04-02T15:41:45Z</time>
      </trkpt>
      <trkpt lat="41.46161788" lon="1.471964037">
        <ele>627.00000</ele>
        <time>2019-04-02T15:41:46Z</time>
      </trkpt>
      <trkpt lat="41.46165643" lon="1.472087921">
        <ele>627.00000</ele>
        <time>2019-04-02T15:41:47Z</time>
      </trkpt>
      <trkpt lat="41.46170295" lon="1.472210800">
        <ele>626.00000</ele>
        <time>2019-04-02T15:41:48Z</time>
      </trkpt>
      <trkpt lat="41.46174402" lon="1.472342563">
        <ele>625.00000</ele>
        <time>2019-04-02T15:41:49Z</time>
      </trkpt>
      <trkpt lat="41.46183740" lon="1.472613299">
        <ele>623.00000</ele>
        <time>2019-04-02T15:41:51Z</time>
      </trkpt>
      <trkpt lat="41.46194226" lon="1.472890824">
        <ele>622.00000</ele>
        <time>2019-04-02T15:41:53Z</time>
      </trkpt>
      <trkpt lat="41.46197604" lon="1.473039183">
        <ele>621.00000</ele>
        <time>2019-04-02T15:41:54Z</time>
      </trkpt>
      <trkpt lat="41.46198987" lon="1.473196847">
        <ele>620.00000</ele>
        <time>2019-04-02T15:41:55Z</time>
      </trkpt>
      <trkpt lat="41.46199213" lon="1.473357947">
        <ele>619.00000</ele>
        <time>2019-04-02T15:41:56Z</time>
      </trkpt>
      <trkpt lat="41.46197930" lon="1.473524831">
        <ele>618.00000</ele>
        <time>2019-04-02T15:41:57Z</time>
      </trkpt>
      <trkpt lat="41.46198350" lon="1.473854072">
        <ele>616.00000</ele>
        <time>2019-04-02T15:41:59Z</time>
      </trkpt>
      <trkpt lat="41.46200512" lon="1.474014837">
        <ele>616.00000</ele>
        <time>2019-04-02T15:42:00Z</time>
      </trkpt>
      <trkpt lat="41.46202960" lon="1.474178116">
        <ele>615.00000</ele>
        <time>2019-04-02T15:42:01Z</time>
      </trkpt>
      <trkpt lat="41.46214971" lon="1.474797958">
        <ele>614.00000</ele>
        <time>2019-04-02T15:42:05Z</time>
      </trkpt>
      <trkpt lat="41.46218164" lon="1.474948162">
        <ele>613.00000</ele>
        <time>2019-04-02T15:42:06Z</time>
      </trkpt>
      <trkpt lat="41.46225356" lon="1.475236080">
        <ele>613.00000</ele>
        <time>2019-04-02T15:42:08Z</time>
      </trkpt>
      <trkpt lat="41.46231039" lon="1.475365664">
        <ele>612.00000</ele>
        <time>2019-04-02T15:42:09Z</time>
      </trkpt>
      <trkpt lat="41.46237870" lon="1.475488794">
        <ele>611.00000</ele>
        <time>2019-04-02T15:42:10Z</time>
      </trkpt>
      <trkpt lat="41.46252446" lon="1.475725751">
        <ele>610.00000</ele>
        <time>2019-04-02T15:42:12Z</time>
      </trkpt>
      <trkpt lat="41.46268045" lon="1.475957762">
        <ele>608.00000</ele>
        <time>2019-04-02T15:42:14Z</time>
      </trkpt>
      <trkpt lat="41.46283895" lon="1.476185498">
        <ele>608.00000</ele>
        <time>2019-04-02T15:42:16Z</time>
      </trkpt>
      <trkpt lat="41.46291875" lon="1.476300079">
        <ele>607.00000</ele>
        <time>2019-04-02T15:42:17Z</time>
      </trkpt>
      <trkpt lat="41.46308873" lon="1.476520691">
        <ele>606.00000</ele>
        <time>2019-04-02T15:42:19Z</time>
      </trkpt>
      <trkpt lat="41.46319502" lon="1.476595038">
        <ele>605.00000</ele>
        <time>2019-04-02T15:42:20Z</time>
      </trkpt>
      <trkpt lat="41.46331488" lon="1.476635858">
        <ele>605.00000</ele>
        <time>2019-04-02T15:42:21Z</time>
      </trkpt>
      <trkpt lat="41.46344304" lon="1.476656058">
        <ele>604.00000</ele>
        <time>2019-04-02T15:42:22Z</time>
      </trkpt>
      <trkpt lat="41.46357161" lon="1.476672906">
        <ele>602.00000</ele>
        <time>2019-04-02T15:42:23Z</time>
      </trkpt>
      <trkpt lat="41.46370296" lon="1.476685479">
        <ele>601.00000</ele>
        <time>2019-04-02T15:42:24Z</time>
      </trkpt>
      <trkpt lat="41.46383757" lon="1.476695202">
        <ele>599.00000</ele>
        <time>2019-04-02T15:42:25Z</time>
      </trkpt>
      <trkpt lat="41.46397118" lon="1.476706769">
        <ele>598.00000</ele>
        <time>2019-04-02T15:42:26Z</time>
      </trkpt>
      <trkpt lat="41.46410563" lon="1.476716995">
        <ele>596.00000</ele>
        <time>2019-04-02T15:42:27Z</time>
      </trkpt>
      <trkpt lat="41.46424024" lon="1.476723449">
        <ele>595.00000</ele>
        <time>2019-04-02T15:42:28Z</time>
      </trkpt>
      <trkpt lat="41.46437770" lon="1.476731244">
        <ele>594.00000</ele>
        <time>2019-04-02T15:42:29Z</time>
      </trkpt>
      <trkpt lat="41.46464701" lon="1.476748343">
        <ele>591.00000</ele>
        <time>2019-04-02T15:42:31Z</time>
      </trkpt>
      <trkpt lat="41.46491473" lon="1.476765107">
        <ele>589.00000</ele>
        <time>2019-04-02T15:42:33Z</time>
      </trkpt>
      <trkpt lat="41.46518538" lon="1.476781535">
        <ele>588.00000</ele>
        <time>2019-04-02T15:42:35Z</time>
      </trkpt>
      <trkpt lat="41.46531505" lon="1.476791342">
        <ele>587.00000</ele>
        <time>2019-04-02T15:42:36Z</time>
      </trkpt>
      <trkpt lat="41.46556785" lon="1.476802658">
        <ele>586.00000</ele>
        <time>2019-04-02T15:42:38Z</time>
      </trkpt>
      <trkpt lat="41.46604805" lon="1.476817158">
        <ele>587.00000</ele>
        <time>2019-04-02T15:42:42Z</time>
      </trkpt>
      <trkpt lat="41.46627528" lon="1.476870216">
        <ele>587.00000</ele>
        <time>2019-04-02T15:42:44Z</time>
      </trkpt>
      <trkpt lat="41.46637813" lon="1.476931320">
        <ele>587.00000</ele>
        <time>2019-04-02T15:42:45Z</time>
      </trkpt>
      <trkpt lat="41.46662154" lon="1.477193171">
        <ele>588.00000</ele>
        <time>2019-04-02T15:42:48Z</time>
      </trkpt>
      <trkpt lat="41.46675724" lon="1.477383188">
        <ele>589.00000</ele>
        <time>2019-04-02T15:42:50Z</time>
      </trkpt>
      <trkpt lat="41.46701088" lon="1.477743275">
        <ele>589.00000</ele>
        <time>2019-04-02T15:42:54Z</time>
      </trkpt>
      <trkpt lat="41.46713518" lon="1.477909572">
        <ele>590.00000</ele>
        <time>2019-04-02T15:42:56Z</time>
      </trkpt>
      <trkpt lat="41.46738203" lon="1.478238562">
        <ele>590.00000</ele>
        <time>2019-04-02T15:43:00Z</time>
      </trkpt>
      <trkpt lat="41.46770507" lon="1.478673247">
        <ele>589.00000</ele>
        <time>2019-04-02T15:43:05Z</time>
      </trkpt>
      <trkpt lat="41.46798452" lon="1.479045236">
        <ele>588.00000</ele>
        <time>2019-04-02T15:43:09Z</time>
      </trkpt>
      <trkpt lat="41.46827864" lon="1.479432648">
        <ele>587.00000</ele>
        <time>2019-04-02T15:43:13Z</time>
      </trkpt>
      <trkpt lat="41.46842750" lon="1.479634400">
        <ele>585.00000</ele>
        <time>2019-04-02T15:43:15Z</time>
      </trkpt>
      <trkpt lat="41.46857494" lon="1.479838248">
        <ele>584.00000</ele>
        <time>2019-04-02T15:43:17Z</time>
      </trkpt>
      <trkpt lat="41.46864878" lon="1.479936987">
        <ele>584.00000</ele>
        <time>2019-04-02T15:43:18Z</time>
      </trkpt>
      <trkpt lat="41.46894710" lon="1.480344180">
        <ele>583.00000</ele>
        <time>2019-04-02T15:43:22Z</time>
      </trkpt>
      <trkpt lat="41.46917534" lon="1.480642324">
        <ele>582.00000</ele>
        <time>2019-04-02T15:43:25Z</time>
      </trkpt>
      <trkpt lat="41.46947926" lon="1.481041135">
        <ele>581.00000</ele>
        <time>2019-04-02T15:43:29Z</time>
      </trkpt>
      <trkpt lat="41.46978981" lon="1.481453105">
        <ele>580.00000</ele>
        <time>2019-04-02T15:43:33Z</time>
      </trkpt>
      <trkpt lat="41.46987070" lon="1.481556370">
        <ele>579.00000</ele>
        <time>2019-04-02T15:43:34Z</time>
      </trkpt>
      <trkpt lat="41.47003138" lon="1.481773881">
        <ele>578.00000</ele>
        <time>2019-04-02T15:43:36Z</time>
      </trkpt>
      <trkpt lat="41.47020036" lon="1.481996839">
        <ele>577.00000</ele>
        <time>2019-04-02T15:43:38Z</time>
      </trkpt>
      <trkpt lat="41.47037227" lon="1.482228599">
        <ele>575.00000</ele>
        <time>2019-04-02T15:43:40Z</time>
      </trkpt>
      <trkpt lat="41.47054720" lon="1.482462789">
        <ele>574.00000</ele>
        <time>2019-04-02T15:43:42Z</time>
      </trkpt>
      <trkpt lat="41.47063597" lon="1.482579801">
        <ele>573.00000</ele>
        <time>2019-04-02T15:43:43Z</time>
      </trkpt>
      <trkpt lat="41.47081333" lon="1.482817009">
        <ele>572.00000</ele>
        <time>2019-04-02T15:43:45Z</time>
      </trkpt>
      <trkpt lat="41.47099446" lon="1.483053881">
        <ele>570.00000</ele>
        <time>2019-04-02T15:43:47Z</time>
      </trkpt>
      <trkpt lat="41.47108482" lon="1.483174245">
        <ele>569.00000</ele>
        <time>2019-04-02T15:43:48Z</time>
      </trkpt>
      <trkpt lat="41.47117425" lon="1.483297375">
        <ele>568.00000</ele>
        <time>2019-04-02T15:43:49Z</time>
      </trkpt>
      <trkpt lat="41.47126327" lon="1.483418997">
        <ele>567.00000</ele>
        <time>2019-04-02T15:43:50Z</time>
      </trkpt>
      <trkpt lat="41.47154239" lon="1.483794925">
        <ele>566.00000</ele>
        <time>2019-04-02T15:43:53Z</time>
      </trkpt>
      <trkpt lat="41.47163651" lon="1.483923252">
        <ele>565.00000</ele>
        <time>2019-04-02T15:43:54Z</time>
      </trkpt>
      <trkpt lat="41.47173014" lon="1.484054764">
        <ele>563.00000</ele>
        <time>2019-04-02T15:43:55Z</time>
      </trkpt>
      <trkpt lat="41.47182578" lon="1.484186779">
        <ele>562.00000</ele>
        <time>2019-04-02T15:43:56Z</time>
      </trkpt>
      <trkpt lat="41.47192544" lon="1.484319297">
        <ele>561.00000</ele>
        <time>2019-04-02T15:43:57Z</time>
      </trkpt>
      <trkpt lat="41.47212082" lon="1.484586764">
        <ele>560.00000</ele>
        <time>2019-04-02T15:43:59Z</time>
      </trkpt>
      <trkpt lat="41.47239801" lon="1.484978534">
        <ele>558.00000</ele>
        <time>2019-04-02T15:44:02Z</time>
      </trkpt>
      <trkpt lat="41.47283772" lon="1.485602566">
        <ele>558.00000</ele>
        <time>2019-04-02T15:44:07Z</time>
      </trkpt>
      <trkpt lat="41.47301089" lon="1.485846899">
        <ele>557.00000</ele>
        <time>2019-04-02T15:44:09Z</time>
      </trkpt>
      <trkpt lat="41.47309740" lon="1.485968353">
        <ele>557.00000</ele>
        <time>2019-04-02T15:44:10Z</time>
      </trkpt>
      <trkpt lat="41.47351716" lon="1.486566821">
        <ele>556.00000</ele>
        <time>2019-04-02T15:44:15Z</time>
      </trkpt>
      <trkpt lat="41.47360115" lon="1.486684586">
        <ele>556.00000</ele>
        <time>2019-04-02T15:44:16Z</time>
      </trkpt>
      <trkpt lat="41.47368488" lon="1.486800424">
        <ele>556.00000</ele>
        <time>2019-04-02T15:44:17Z</time>
      </trkpt>
      <trkpt lat="41.47401832" lon="1.487267380">
        <ele>555.00000</ele>
        <time>2019-04-02T15:44:21Z</time>
      </trkpt>
      <trkpt lat="41.47443355" lon="1.487850341">
        <ele>554.00000</ele>
        <time>2019-04-02T15:44:26Z</time>
      </trkpt>
      <trkpt lat="41.47476271" lon="1.488301036">
        <ele>553.00000</ele>
        <time>2019-04-02T15:44:30Z</time>
      </trkpt>
      <trkpt lat="41.47508592" lon="1.488751647">
        <ele>552.00000</ele>
        <time>2019-04-02T15:44:34Z</time>
      </trkpt>
      <trkpt lat="41.47516337" lon="1.488867150">
        <ele>551.00000</ele>
        <time>2019-04-02T15:44:36Z</time>
      </trkpt>
      <trkpt lat="41.47539622" lon="1.489201001">
        <ele>550.00000</ele>
        <time>2019-04-02T15:44:39Z</time>
      </trkpt>
      <trkpt lat="41.47571288" lon="1.489632837">
        <ele>550.00000</ele>
        <time>2019-04-02T15:44:43Z</time>
      </trkpt>
      <trkpt lat="41.47601773" lon="1.490070875">
        <ele>549.00000</ele>
        <time>2019-04-02T15:44:47Z</time>
      </trkpt>
      <trkpt lat="41.47624824" lon="1.490380838">
        <ele>549.00000</ele>
        <time>2019-04-02T15:44:50Z</time>
      </trkpt>
      <trkpt lat="41.47642560" lon="1.490545291">
        <ele>549.00000</ele>
        <time>2019-04-02T15:44:52Z</time>
      </trkpt>
      <trkpt lat="41.47662584" lon="1.490663224">
        <ele>549.00000</ele>
        <time>2019-04-02T15:44:54Z</time>
      </trkpt>
      <trkpt lat="41.47682759" lon="1.490777134">
        <ele>548.00000</ele>
        <time>2019-04-02T15:44:56Z</time>
      </trkpt>
      <trkpt lat="41.47733042" lon="1.491043427">
        <ele>548.00000</ele>
        <time>2019-04-02T15:45:01Z</time>
      </trkpt>
      <trkpt lat="41.47742807" lon="1.491099083">
        <ele>547.00000</ele>
        <time>2019-04-02T15:45:02Z</time>
      </trkpt>
      <trkpt lat="41.47780945" lon="1.491310894">
        <ele>547.00000</ele>
        <time>2019-04-02T15:45:06Z</time>
      </trkpt>
      <trkpt lat="41.47798388" lon="1.491440059">
        <ele>547.00000</ele>
        <time>2019-04-02T15:45:08Z</time>
      </trkpt>
      <trkpt lat="41.47806258" lon="1.491518011">
        <ele>547.00000</ele>
        <time>2019-04-02T15:45:09Z</time>
      </trkpt>
      <trkpt lat="41.47828429" lon="1.491772821">
        <ele>546.00000</ele>
        <time>2019-04-02T15:45:12Z</time>
      </trkpt>
      <trkpt lat="41.47848897" lon="1.492054453">
        <ele>546.00000</ele>
        <time>2019-04-02T15:45:15Z</time>
      </trkpt>
      <trkpt lat="41.47858318" lon="1.492284117">
        <ele>546.00000</ele>
        <time>2019-04-02T15:45:17Z</time>
      </trkpt>
      <trkpt lat="41.47865594" lon="1.492527695">
        <ele>546.00000</ele>
        <time>2019-04-02T15:45:19Z</time>
      </trkpt>
      <trkpt lat="41.47872417" lon="1.492773788">
        <ele>546.00000</ele>
        <time>2019-04-02T15:45:21Z</time>
      </trkpt>
      <trkpt lat="41.47879349" lon="1.493015941">
        <ele>546.00000</ele>
        <time>2019-04-02T15:45:23Z</time>
      </trkpt>
      <trkpt lat="41.47900287" lon="1.493735024">
        <ele>545.00000</ele>
        <time>2019-04-02T15:45:29Z</time>
      </trkpt>
      <trkpt lat="41.47911669" lon="1.494109360">
        <ele>545.00000</ele>
        <time>2019-04-02T15:45:32Z</time>
      </trkpt>
      <trkpt lat="41.47922809" lon="1.494350004">
        <ele>544.00000</ele>
        <time>2019-04-02T15:45:34Z</time>
      </trkpt>
      <trkpt lat="41.47929858" lon="1.494459556">
        <ele>543.00000</ele>
        <time>2019-04-02T15:45:35Z</time>
      </trkpt>
      <trkpt lat="41.47946094" lon="1.494659129">
        <ele>542.00000</ele>
        <time>2019-04-02T15:45:37Z</time>
      </trkpt>
      <trkpt lat="41.47962614" lon="1.494852416">
        <ele>541.00000</ele>
        <time>2019-04-02T15:45:39Z</time>
      </trkpt>
      <trkpt lat="41.48009285" lon="1.495378380">
        <ele>541.00000</ele>
        <time>2019-04-02T15:45:45Z</time>
      </trkpt>
      <trkpt lat="41.48038680" lon="1.495853215">
        <ele>542.00000</ele>
        <time>2019-04-02T15:45:50Z</time>
      </trkpt>
      <trkpt lat="41.48049987" lon="1.496156137">
        <ele>543.00000</ele>
        <time>2019-04-02T15:45:53Z</time>
      </trkpt>
      <trkpt lat="41.48056232" lon="1.496355794">
        <ele>544.00000</ele>
        <time>2019-04-02T15:45:55Z</time>
      </trkpt>
      <trkpt lat="41.48063004" lon="1.496552852">
        <ele>544.00000</ele>
        <time>2019-04-02T15:45:57Z</time>
      </trkpt>
      <trkpt lat="41.48078042" lon="1.496846722">
        <ele>543.00000</ele>
        <time>2019-04-02T15:46:00Z</time>
      </trkpt>
      <trkpt lat="41.48084412" lon="1.496939845">
        <ele>542.00000</ele>
        <time>2019-04-02T15:46:01Z</time>
      </trkpt>
      <trkpt lat="41.48090916" lon="1.497035901">
        <ele>541.00000</ele>
        <time>2019-04-02T15:46:02Z</time>
      </trkpt>
      <trkpt lat="41.48097798" lon="1.497132712">
        <ele>540.00000</ele>
        <time>2019-04-02T15:46:03Z</time>
      </trkpt>
      <trkpt lat="41.48112148" lon="1.497334633">
        <ele>539.00000</ele>
        <time>2019-04-02T15:46:05Z</time>
      </trkpt>
      <trkpt lat="41.48126707" lon="1.497542839">
        <ele>538.00000</ele>
        <time>2019-04-02T15:46:07Z</time>
      </trkpt>
      <trkpt lat="41.48141878" lon="1.497757416">
        <ele>537.00000</ele>
        <time>2019-04-02T15:46:09Z</time>
      </trkpt>
      <trkpt lat="41.48156857" lon="1.497977273">
        <ele>535.00000</ele>
        <time>2019-04-02T15:46:11Z</time>
      </trkpt>
      <trkpt lat="41.48163738" lon="1.498087663">
        <ele>535.00000</ele>
        <time>2019-04-02T15:46:12Z</time>
      </trkpt>
      <trkpt lat="41.48179890" lon="1.498441798">
        <ele>535.00000</ele>
        <time>2019-04-02T15:46:15Z</time>
      </trkpt>
      <trkpt lat="41.48183763" lon="1.498566521">
        <ele>535.00000</ele>
        <time>2019-04-02T15:46:16Z</time>
      </trkpt>
      <trkpt lat="41.48205975" lon="1.499293902">
        <ele>535.00000</ele>
        <time>2019-04-02T15:46:22Z</time>
      </trkpt>
      <trkpt lat="41.48209403" lon="1.499413009">
        <ele>535.00000</ele>
        <time>2019-04-02T15:46:23Z</time>
      </trkpt>
      <trkpt lat="41.48230894" lon="1.500110886">
        <ele>534.00000</ele>
        <time>2019-04-02T15:46:29Z</time>
      </trkpt>
      <trkpt lat="41.48238220" lon="1.500341305">
        <ele>534.00000</ele>
        <time>2019-04-02T15:46:31Z</time>
      </trkpt>
      <trkpt lat="41.48252285" lon="1.500657135">
        <ele>534.00000</ele>
        <time>2019-04-02T15:46:34Z</time>
      </trkpt>
      <trkpt lat="41.48259426" lon="1.500740032">
        <ele>534.00000</ele>
        <time>2019-04-02T15:46:35Z</time>
      </trkpt>
      <trkpt lat="41.48283180" lon="1.500932481">
        <ele>534.00000</ele>
        <time>2019-04-02T15:46:38Z</time>
      </trkpt>
      <trkpt lat="41.48292233" lon="1.500993585">
        <ele>534.00000</ele>
        <time>2019-04-02T15:46:39Z</time>
      </trkpt>
      <trkpt lat="41.48338333" lon="1.501288041">
        <ele>533.00000</ele>
        <time>2019-04-02T15:46:44Z</time>
      </trkpt>
      <trkpt lat="41.48357343" lon="1.501394156">
        <ele>533.00000</ele>
        <time>2019-04-02T15:46:46Z</time>
      </trkpt>
      <trkpt lat="41.48411708" lon="1.501761535">
        <ele>532.00000</ele>
        <time>2019-04-02T15:46:52Z</time>
      </trkpt>
      <trkpt lat="41.48429746" lon="1.501890281">
        <ele>532.00000</ele>
        <time>2019-04-02T15:46:54Z</time>
      </trkpt>
      <trkpt lat="41.48466467" lon="1.502134948">
        <ele>531.00000</ele>
        <time>2019-04-02T15:46:58Z</time>
      </trkpt>
      <trkpt lat="41.48492309" lon="1.502371905">
        <ele>530.00000</ele>
        <time>2019-04-02T15:47:01Z</time>
      </trkpt>
      <trkpt lat="41.48499475" lon="1.502476595">
        <ele>530.00000</ele>
        <time>2019-04-02T15:47:02Z</time>
      </trkpt>
      <trkpt lat="41.48515929" lon="1.502827042">
        <ele>529.00000</ele>
        <time>2019-04-02T15:47:05Z</time>
      </trkpt>
      <trkpt lat="41.48521662" lon="1.502944473">
        <ele>528.00000</ele>
        <time>2019-04-02T15:47:06Z</time>
      </trkpt>
      <trkpt lat="41.48547797" lon="1.503547467">
        <ele>528.00000</ele>
        <time>2019-04-02T15:47:11Z</time>
      </trkpt>
      <trkpt lat="41.48558040" lon="1.503785010">
        <ele>527.00000</ele>
        <time>2019-04-02T15:47:13Z</time>
      </trkpt>
      <trkpt lat="41.48589128" lon="1.504489928">
        <ele>526.00000</ele>
        <time>2019-04-02T15:47:19Z</time>
      </trkpt>
      <trkpt lat="41.48594300" lon="1.504604592">
        <ele>526.00000</ele>
        <time>2019-04-02T15:47:20Z</time>
      </trkpt>
      <trkpt lat="41.48624081" lon="1.505282688">
        <ele>526.00000</ele>
        <time>2019-04-02T15:47:26Z</time>
      </trkpt>
      <trkpt lat="41.48634105" lon="1.505498606">
        <ele>526.00000</ele>
        <time>2019-04-02T15:47:28Z</time>
      </trkpt>
      <trkpt lat="41.48653669" lon="1.505932118">
        <ele>525.00000</ele>
        <time>2019-04-02T15:47:32Z</time>
      </trkpt>
      <trkpt lat="41.48677549" lon="1.506466800">
        <ele>526.00000</ele>
        <time>2019-04-02T15:47:37Z</time>
      </trkpt>
      <trkpt lat="41.48703156" lon="1.507026292">
        <ele>524.00000</ele>
        <time>2019-04-02T15:47:42Z</time>
      </trkpt>
      <trkpt lat="41.48718654" lon="1.507370956">
        <ele>523.00000</ele>
        <time>2019-04-02T15:47:45Z</time>
      </trkpt>
      <trkpt lat="41.48729500" lon="1.507599279">
        <ele>522.00000</ele>
        <time>2019-04-02T15:47:47Z</time>
      </trkpt>
      <trkpt lat="41.48739776" lon="1.507834643">
        <ele>522.00000</ele>
        <time>2019-04-02T15:47:49Z</time>
      </trkpt>
      <trkpt lat="41.48755802" lon="1.508194562">
        <ele>520.00000</ele>
        <time>2019-04-02T15:47:52Z</time>
      </trkpt>
      <trkpt lat="41.48767847" lon="1.508427495">
        <ele>519.00000</ele>
        <time>2019-04-02T15:47:54Z</time>
      </trkpt>
      <trkpt lat="41.48775273" lon="1.508529670">
        <ele>519.00000</ele>
        <time>2019-04-02T15:47:55Z</time>
      </trkpt>
      <trkpt lat="41.48783069" lon="1.508623966">
        <ele>518.00000</ele>
        <time>2019-04-02T15:47:56Z</time>
      </trkpt>
      <trkpt lat="41.48791157" lon="1.508711390">
        <ele>518.00000</ele>
        <time>2019-04-02T15:47:57Z</time>
      </trkpt>
      <trkpt lat="41.48833159" lon="1.509262248">
        <ele>518.00000</ele>
        <time>2019-04-02T15:48:03Z</time>
      </trkpt>
      <trkpt lat="41.48858238" lon="1.509745297">
        <ele>519.00000</ele>
        <time>2019-04-02T15:48:08Z</time>
      </trkpt>
      <trkpt lat="41.48881413" lon="1.510198758">
        <ele>520.00000</ele>
        <time>2019-04-02T15:48:13Z</time>
      </trkpt>
      <trkpt lat="41.48885848" lon="1.510287858">
        <ele>521.00000</ele>
        <time>2019-04-02T15:48:14Z</time>
      </trkpt>
      <trkpt lat="41.48910624" lon="1.510770823">
        <ele>519.00000</ele>
        <time>2019-04-02T15:48:19Z</time>
      </trkpt>
      <trkpt lat="41.48915813" lon="1.510872077">
        <ele>518.00000</ele>
        <time>2019-04-02T15:48:20Z</time>
      </trkpt>
      <trkpt lat="41.48921320" lon="1.510972995">
        <ele>518.00000</ele>
        <time>2019-04-02T15:48:21Z</time>
      </trkpt>
      <trkpt lat="41.48932325" lon="1.511180782">
        <ele>517.00000</ele>
        <time>2019-04-02T15:48:23Z</time>
      </trkpt>
      <trkpt lat="41.48948930" lon="1.511506251">
        <ele>516.00000</ele>
        <time>2019-04-02T15:48:26Z</time>
      </trkpt>
      <trkpt lat="41.48960958" lon="1.511741280">
        <ele>515.00000</ele>
        <time>2019-04-02T15:48:28Z</time>
      </trkpt>
      <trkpt lat="41.48967621" lon="1.511862063">
        <ele>514.00000</ele>
        <time>2019-04-02T15:48:29Z</time>
      </trkpt>
      <trkpt lat="41.48980312" lon="1.512099606">
        <ele>513.00000</ele>
        <time>2019-04-02T15:48:31Z</time>
      </trkpt>
      <trkpt lat="41.48997704" lon="1.512432033">
        <ele>513.00000</ele>
        <time>2019-04-02T15:48:34Z</time>
      </trkpt>
      <trkpt lat="41.49013227" lon="1.512733027">
        <ele>514.00000</ele>
        <time>2019-04-02T15:48:37Z</time>
      </trkpt>
      <trkpt lat="41.49026982" lon="1.513011055">
        <ele>515.00000</ele>
        <time>2019-04-02T15:48:40Z</time>
      </trkpt>
      <trkpt lat="41.49033914" lon="1.513192271">
        <ele>516.00000</ele>
        <time>2019-04-02T15:48:42Z</time>
      </trkpt>
      <trkpt lat="41.49034542" lon="1.513291429">
        <ele>516.00000</ele>
        <time>2019-04-02T15:48:43Z</time>
      </trkpt>
      <trkpt lat="41.49034098" lon="1.513390755">
        <ele>517.00000</ele>
        <time>2019-04-02T15:48:44Z</time>
      </trkpt>
      <trkpt lat="41.49040049" lon="1.513673812">
        <ele>517.00000</ele>
        <time>2019-04-02T15:48:47Z</time>
      </trkpt>
      <trkpt lat="41.49058355" lon="1.513824015">
        <ele>517.00000</ele>
        <time>2019-04-02T15:48:50Z</time>
      </trkpt>
      <trkpt lat="41.49064407" lon="1.513868020">
        <ele>518.00000</ele>
        <time>2019-04-02T15:48:51Z</time>
      </trkpt>
      <trkpt lat="41.49079377" lon="1.514036832">
        <ele>518.00000</ele>
        <time>2019-04-02T15:48:54Z</time>
      </trkpt>
      <trkpt lat="41.49083593" lon="1.514100115">
        <ele>519.00000</ele>
        <time>2019-04-02T15:48:55Z</time>
      </trkpt>
      <trkpt lat="41.49094808" lon="1.514290301">
        <ele>520.00000</ele>
        <time>2019-04-02T15:48:58Z</time>
      </trkpt>
      <trkpt lat="41.49101640" lon="1.514415107">
        <ele>520.00000</ele>
        <time>2019-04-02T15:49:00Z</time>
      </trkpt>
      <trkpt lat="41.49108379" lon="1.514550307">
        <ele>521.00000</ele>
        <time>2019-04-02T15:49:02Z</time>
      </trkpt>
      <trkpt lat="41.49122913" lon="1.514825485">
        <ele>522.00000</ele>
        <time>2019-04-02T15:49:06Z</time>
      </trkpt>
      <trkpt lat="41.49126609" lon="1.514899078">
        <ele>522.00000</ele>
        <time>2019-04-02T15:49:07Z</time>
      </trkpt>
      <trkpt lat="41.49158704" lon="1.515511795">
        <ele>522.00000</ele>
        <time>2019-04-02T15:49:15Z</time>
      </trkpt>
      <trkpt lat="41.49174369" lon="1.515737688">
        <ele>522.00000</ele>
        <time>2019-04-02T15:49:18Z</time>
      </trkpt>
      <trkpt lat="41.49181243" lon="1.515782531">
        <ele>522.00000</ele>
        <time>2019-04-02T15:49:19Z</time>
      </trkpt>
      <trkpt lat="41.49204653" lon="1.515765599">
        <ele>521.00000</ele>
        <time>2019-04-02T15:49:22Z</time>
      </trkpt>
      <trkpt lat="41.49220805" lon="1.515691252">
        <ele>520.00000</ele>
        <time>2019-04-02T15:49:24Z</time>
      </trkpt>
      <trkpt lat="41.49238172" lon="1.515607433">
        <ele>519.00000</ele>
        <time>2019-04-02T15:49:26Z</time>
      </trkpt>
      <trkpt lat="41.49257887" lon="1.515550520">
        <ele>517.00000</ele>
        <time>2019-04-02T15:49:28Z</time>
      </trkpt>
      <trkpt lat="41.49268641" lon="1.515566445">
        <ele>516.00000</ele>
        <time>2019-04-02T15:49:29Z</time>
      </trkpt>
      <trkpt lat="41.49279219" lon="1.515617407">
        <ele>515.00000</ele>
        <time>2019-04-02T15:49:30Z</time>
      </trkpt>
      <trkpt lat="41.49288891" lon="1.515693431">
        <ele>515.00000</ele>
        <time>2019-04-02T15:49:31Z</time>
      </trkpt>
      <trkpt lat="41.49297273" lon="1.515783285">
        <ele>514.00000</ele>
        <time>2019-04-02T15:49:32Z</time>
      </trkpt>
      <trkpt lat="41.49313048" lon="1.515964418">
        <ele>514.00000</ele>
        <time>2019-04-02T15:49:34Z</time>
      </trkpt>
      <trkpt lat="41.49348344" lon="1.516433721">
        <ele>514.00000</ele>
        <time>2019-04-02T15:49:39Z</time>
      </trkpt>
      <trkpt lat="41.49359148" lon="1.516778636">
        <ele>516.00000</ele>
        <time>2019-04-02T15:49:42Z</time>
      </trkpt>
      <trkpt lat="41.49361546" lon="1.516898497">
        <ele>516.00000</ele>
        <time>2019-04-02T15:49:43Z</time>
      </trkpt>
      <trkpt lat="41.49365996" lon="1.517126653">
        <ele>517.00000</ele>
        <time>2019-04-02T15:49:45Z</time>
      </trkpt>
      <trkpt lat="41.49374873" lon="1.517563266">
        <ele>517.00000</ele>
        <time>2019-04-02T15:49:49Z</time>
      </trkpt>
      <trkpt lat="41.49379257" lon="1.517777089">
        <ele>518.00000</ele>
        <time>2019-04-02T15:49:51Z</time>
      </trkpt>
      <trkpt lat="41.49398418" lon="1.518520563">
        <ele>518.00000</ele>
        <time>2019-04-02T15:49:58Z</time>
      </trkpt>
      <trkpt lat="41.49403271" lon="1.518611172">
        <ele>518.00000</ele>
        <time>2019-04-02T15:49:59Z</time>
      </trkpt>
      <trkpt lat="41.49429129" lon="1.518889786">
        <ele>518.00000</ele>
        <time>2019-04-02T15:50:03Z</time>
      </trkpt>
      <trkpt lat="41.49436480" lon="1.518947454">
        <ele>518.00000</ele>
        <time>2019-04-02T15:50:04Z</time>
      </trkpt>
      <trkpt lat="41.49487928" lon="1.519300080">
        <ele>518.00000</ele>
        <time>2019-04-02T15:50:11Z</time>
      </trkpt>
      <trkpt lat="41.49495790" lon="1.519332518">
        <ele>518.00000</ele>
        <time>2019-04-02T15:50:12Z</time>
      </trkpt>
      <trkpt lat="41.49513635" lon="1.519363615">
        <ele>517.00000</ele>
        <time>2019-04-02T15:50:14Z</time>
      </trkpt>
      <trkpt lat="41.49523166" lon="1.519364872">
        <ele>516.00000</ele>
        <time>2019-04-02T15:50:15Z</time>
      </trkpt>
      <trkpt lat="41.49533115" lon="1.519362609">
        <ele>515.00000</ele>
        <time>2019-04-02T15:50:16Z</time>
      </trkpt>
      <trkpt lat="41.49553977" lon="1.519350120">
        <ele>514.00000</ele>
        <time>2019-04-02T15:50:18Z</time>
      </trkpt>
      <trkpt lat="41.49575586" lon="1.519330590">
        <ele>513.00000</ele>
        <time>2019-04-02T15:50:20Z</time>
      </trkpt>
      <trkpt lat="41.49616448" lon="1.519320700">
        <ele>512.00000</ele>
        <time>2019-04-02T15:50:24Z</time>
      </trkpt>
      <trkpt lat="41.49626053" lon="1.519354814">
        <ele>512.00000</ele>
        <time>2019-04-02T15:50:25Z</time>
      </trkpt>
      <trkpt lat="41.49641007" lon="1.519508957">
        <ele>512.00000</ele>
        <time>2019-04-02T15:50:27Z</time>
      </trkpt>
      <trkpt lat="41.49655323" lon="1.519818333">
        <ele>513.00000</ele>
        <time>2019-04-02T15:50:30Z</time>
      </trkpt>
      <trkpt lat="41.49673126" lon="1.520228795">
        <ele>514.00000</ele>
        <time>2019-04-02T15:50:34Z</time>
      </trkpt>
      <trkpt lat="41.49696000" lon="1.520731793">
        <ele>514.00000</ele>
        <time>2019-04-02T15:50:39Z</time>
      </trkpt>
      <trkpt lat="41.49731481" lon="1.521398574">
        <ele>514.00000</ele>
        <time>2019-04-02T15:50:46Z</time>
      </trkpt>
      <trkpt lat="41.49737558" lon="1.521496558">
        <ele>513.00000</ele>
        <time>2019-04-02T15:50:47Z</time>
      </trkpt>
      <trkpt lat="41.49757046" lon="1.521789757">
        <ele>512.00000</ele>
        <time>2019-04-02T15:50:50Z</time>
      </trkpt>
      <trkpt lat="41.49771144" lon="1.521990085">
        <ele>511.00000</ele>
        <time>2019-04-02T15:50:52Z</time>
      </trkpt>
      <trkpt lat="41.49778202" lon="1.522094774">
        <ele>510.00000</ele>
        <time>2019-04-02T15:50:53Z</time>
      </trkpt>
      <trkpt lat="41.49785268" lon="1.522199716">
        <ele>510.00000</ele>
        <time>2019-04-02T15:50:54Z</time>
      </trkpt>
      <trkpt lat="41.49806566" lon="1.522507080">
        <ele>509.00000</ele>
        <time>2019-04-02T15:50:57Z</time>
      </trkpt>
      <trkpt lat="41.49827177" lon="1.522818803">
        <ele>507.00000</ele>
        <time>2019-04-02T15:51:00Z</time>
      </trkpt>
      <trkpt lat="41.49848107" lon="1.523132286">
        <ele>506.00000</ele>
        <time>2019-04-02T15:51:03Z</time>
      </trkpt>
      <trkpt lat="41.49862901" lon="1.523344432">
        <ele>505.00000</ele>
        <time>2019-04-02T15:51:05Z</time>
      </trkpt>
      <trkpt lat="41.49884241" lon="1.523693371">
        <ele>504.00000</ele>
        <time>2019-04-02T15:51:08Z</time>
      </trkpt>
      <trkpt lat="41.49890335" lon="1.523825721">
        <ele>503.00000</ele>
        <time>2019-04-02T15:51:09Z</time>
      </trkpt>
      <trkpt lat="41.49896227" lon="1.523958826">
        <ele>502.00000</ele>
        <time>2019-04-02T15:51:10Z</time>
      </trkpt>
      <trkpt lat="41.49911809" lon="1.524361912">
        <ele>501.00000</ele>
        <time>2019-04-02T15:51:13Z</time>
      </trkpt>
      <trkpt lat="41.49922152" lon="1.524618733">
        <ele>501.00000</ele>
        <time>2019-04-02T15:51:15Z</time>
      </trkpt>
      <trkpt lat="41.49946586" lon="1.525259865">
        <ele>501.00000</ele>
        <time>2019-04-02T15:51:20Z</time>
      </trkpt>
      <trkpt lat="41.49961430" lon="1.525637889">
        <ele>501.00000</ele>
        <time>2019-04-02T15:51:23Z</time>
      </trkpt>
      <trkpt lat="41.49981957" lon="1.526148682">
        <ele>500.00000</ele>
        <time>2019-04-02T15:51:27Z</time>
      </trkpt>
      <trkpt lat="41.49996265" lon="1.526533327">
        <ele>499.00000</ele>
        <time>2019-04-02T15:51:30Z</time>
      </trkpt>
      <trkpt lat="41.50011260" lon="1.526909591">
        <ele>499.00000</ele>
        <time>2019-04-02T15:51:33Z</time>
      </trkpt>
      <trkpt lat="41.50035962" lon="1.527533372">
        <ele>498.00000</ele>
        <time>2019-04-02T15:51:38Z</time>
      </trkpt>
      <trkpt lat="41.50064662" lon="1.528267459">
        <ele>497.00000</ele>
        <time>2019-04-02T15:51:44Z</time>
      </trkpt>
      <trkpt lat="41.50079439" lon="1.528641544">
        <ele>496.00000</ele>
        <time>2019-04-02T15:51:47Z</time>
      </trkpt>
      <trkpt lat="41.50099011" lon="1.529143955">
        <ele>495.00000</ele>
        <time>2019-04-02T15:51:51Z</time>
      </trkpt>
      <trkpt lat="41.50118465" lon="1.529642846">
        <ele>493.00000</ele>
        <time>2019-04-02T15:51:55Z</time>
      </trkpt>
      <trkpt lat="41.50148112" lon="1.530234860">
        <ele>492.00000</ele>
        <time>2019-04-02T15:52:00Z</time>
      </trkpt>
      <trkpt lat="41.50174867" lon="1.530459662">
        <ele>492.00000</ele>
        <time>2019-04-02T15:52:03Z</time>
      </trkpt>
      <trkpt lat="41.50184238" lon="1.530523700">
        <ele>491.00000</ele>
        <time>2019-04-02T15:52:04Z</time>
      </trkpt>
      <trkpt lat="41.50221470" lon="1.530811032">
        <ele>491.00000</ele>
        <time>2019-04-02T15:52:08Z</time>
      </trkpt>
      <trkpt lat="41.50230305" lon="1.530885044">
        <ele>490.00000</ele>
        <time>2019-04-02T15:52:09Z</time>
      </trkpt>
      <trkpt lat="41.50282113" lon="1.531319729">
        <ele>490.00000</ele>
        <time>2019-04-02T15:52:15Z</time>
      </trkpt>
      <trkpt lat="41.50290319" lon="1.531391395">
        <ele>490.00000</ele>
        <time>2019-04-02T15:52:16Z</time>
      </trkpt>
      <trkpt lat="41.50337962" lon="1.531814346">
        <ele>491.00000</ele>
        <time>2019-04-02T15:52:22Z</time>
      </trkpt>
      <trkpt lat="41.50353351" lon="1.531945606">
        <ele>492.00000</ele>
        <time>2019-04-02T15:52:24Z</time>
      </trkpt>
      <trkpt lat="41.50360995" lon="1.532009560">
        <ele>492.00000</ele>
        <time>2019-04-02T15:52:25Z</time>
      </trkpt>
      <trkpt lat="41.50401413" lon="1.532252216">
        <ele>492.00000</ele>
        <time>2019-04-02T15:52:30Z</time>
      </trkpt>
      <trkpt lat="41.50454370" lon="1.532434523">
        <ele>491.00000</ele>
        <time>2019-04-02T15:52:36Z</time>
      </trkpt>
      <trkpt lat="41.50514124" lon="1.532611045">
        <ele>492.00000</ele>
        <time>2019-04-02T15:52:43Z</time>
      </trkpt>
      <trkpt lat="41.50530612" lon="1.532658403">
        <ele>493.00000</ele>
        <time>2019-04-02T15:52:45Z</time>
      </trkpt>
      <trkpt lat="41.50571188" lon="1.532794609">
        <ele>494.00000</ele>
        <time>2019-04-02T15:52:50Z</time>
      </trkpt>
      <trkpt lat="41.50587005" lon="1.532900305">
        <ele>494.00000</ele>
        <time>2019-04-02T15:52:52Z</time>
      </trkpt>
      <trkpt lat="41.50603509" lon="1.533162491">
        <ele>493.00000</ele>
        <time>2019-04-02T15:52:55Z</time>
      </trkpt>
      <trkpt lat="41.50609586" lon="1.533480584">
        <ele>494.00000</ele>
        <time>2019-04-02T15:52:58Z</time>
      </trkpt>
      <trkpt lat="41.50617104" lon="1.533883754">
        <ele>495.00000</ele>
        <time>2019-04-02T15:53:02Z</time>
      </trkpt>
      <trkpt lat="41.50624715" lon="1.534052146">
        <ele>495.00000</ele>
        <time>2019-04-02T15:53:04Z</time>
      </trkpt>
      <trkpt lat="41.50648637" lon="1.534303687">
        <ele>495.00000</ele>
        <time>2019-04-02T15:53:08Z</time>
      </trkpt>
      <trkpt lat="41.50683598" lon="1.534537877">
        <ele>495.00000</ele>
        <time>2019-04-02T15:53:13Z</time>
      </trkpt>
      <trkpt lat="41.50728156" lon="1.534798219">
        <ele>495.00000</ele>
        <time>2019-04-02T15:53:19Z</time>
      </trkpt>
      <trkpt lat="41.50772069" lon="1.534991757">
        <ele>496.00000</ele>
        <time>2019-04-02T15:53:25Z</time>
      </trkpt>
      <trkpt lat="41.50779797" lon="1.534991003">
        <ele>496.00000</ele>
        <time>2019-04-02T15:53:26Z</time>
      </trkpt>
      <trkpt lat="41.50795698" lon="1.534945154">
        <ele>496.00000</ele>
        <time>2019-04-02T15:53:28Z</time>
      </trkpt>
      <trkpt lat="41.50818488" lon="1.534728733">
        <ele>495.00000</ele>
        <time>2019-04-02T15:53:31Z</time>
      </trkpt>
      <trkpt lat="41.50826325" lon="1.534649021">
        <ele>495.00000</ele>
        <time>2019-04-02T15:53:32Z</time>
      </trkpt>
      <trkpt lat="41.50868369" lon="1.534191789">
        <ele>494.00000</ele>
        <time>2019-04-02T15:53:38Z</time>
      </trkpt>
      <trkpt lat="41.50888930" lon="1.533986013">
        <ele>494.00000</ele>
        <time>2019-04-02T15:53:41Z</time>
      </trkpt>
      <trkpt lat="41.50922600" lon="1.533639589">
        <ele>493.00000</ele>
        <time>2019-04-02T15:53:46Z</time>
      </trkpt>
      <trkpt lat="41.50939196" lon="1.533402381">
        <ele>494.00000</ele>
        <time>2019-04-02T15:53:49Z</time>
      </trkpt>
      <trkpt lat="41.50942297" lon="1.533305989">
        <ele>493.00000</ele>
        <time>2019-04-02T15:53:50Z</time>
      </trkpt>
      <trkpt lat="41.50945558" lon="1.532987058">
        <ele>493.00000</ele>
        <time>2019-04-02T15:53:53Z</time>
      </trkpt>
      <trkpt lat="41.50945893" lon="1.532877171">
        <ele>493.00000</ele>
        <time>2019-04-02T15:53:54Z</time>
      </trkpt>
      <trkpt lat="41.50946572" lon="1.532444749">
        <ele>493.00000</ele>
        <time>2019-04-02T15:53:58Z</time>
      </trkpt>
      <trkpt lat="41.50949003" lon="1.532340981">
        <ele>493.00000</ele>
        <time>2019-04-02T15:53:59Z</time>
      </trkpt>
      <trkpt lat="41.50963604" lon="1.532088266">
        <ele>493.00000</ele>
        <time>2019-04-02T15:54:02Z</time>
      </trkpt>
      <trkpt lat="41.50975833" lon="1.531944349">
        <ele>493.00000</ele>
        <time>2019-04-02T15:54:04Z</time>
      </trkpt>
      <trkpt lat="41.51000224" lon="1.531648552">
        <ele>494.00000</ele>
        <time>2019-04-02T15:54:08Z</time>
      </trkpt>
      <trkpt lat="41.51042352" lon="1.531128874">
        <ele>493.00000</ele>
        <time>2019-04-02T15:54:15Z</time>
      </trkpt>
      <trkpt lat="41.51048035" lon="1.531057963">
        <ele>493.00000</ele>
        <time>2019-04-02T15:54:16Z</time>
      </trkpt>
      <trkpt lat="41.51053508" lon="1.530989734">
        <ele>494.00000</ele>
        <time>2019-04-02T15:54:17Z</time>
      </trkpt>
      <trkpt lat="41.51067615" lon="1.530806254">
        <ele>495.00000</ele>
        <time>2019-04-02T15:54:20Z</time>
      </trkpt>
      <trkpt lat="41.51076315" lon="1.530700391">
        <ele>496.00000</ele>
        <time>2019-04-02T15:54:22Z</time>
      </trkpt>
      <trkpt lat="41.51080330" lon="1.530648088">
        <ele>496.00000</ele>
        <time>2019-04-02T15:54:23Z</time>
      </trkpt>
      <trkpt lat="41.51092291" lon="1.530508026">
        <ele>497.00000</ele>
        <time>2019-04-02T15:54:26Z</time>
      </trkpt>
      <trkpt lat="41.51102727" lon="1.530378693">
        <ele>498.00000</ele>
        <time>2019-04-02T15:54:29Z</time>
      </trkpt>
      <trkpt lat="41.51106088" lon="1.530338209">
        <ele>499.00000</ele>
        <time>2019-04-02T15:54:30Z</time>
      </trkpt>
      <trkpt lat="41.51115459" lon="1.530209714">
        <ele>500.00000</ele>
        <time>2019-04-02T15:54:33Z</time>
      </trkpt>
      <trkpt lat="41.51125651" lon="1.530089350">
        <ele>501.00000</ele>
        <time>2019-04-02T15:54:36Z</time>
      </trkpt>
      <trkpt lat="41.51132457" lon="1.530013158">
        <ele>502.00000</ele>
        <time>2019-04-02T15:54:38Z</time>
      </trkpt>
      <trkpt lat="41.51138911" lon="1.529933363">
        <ele>502.00000</ele>
        <time>2019-04-02T15:54:40Z</time>
      </trkpt>
      <trkpt lat="41.51153613" lon="1.529717864">
        <ele>503.00000</ele>
        <time>2019-04-02T15:54:45Z</time>
      </trkpt>
      <trkpt lat="41.51158860" lon="1.529622059">
        <ele>504.00000</ele>
        <time>2019-04-02T15:54:47Z</time>
      </trkpt>
      <trkpt lat="41.51163998" lon="1.529521979">
        <ele>504.00000</ele>
        <time>2019-04-02T15:54:49Z</time>
      </trkpt>
      <trkpt lat="41.51176990" lon="1.529211848">
        <ele>505.00000</ele>
        <time>2019-04-02T15:54:55Z</time>
      </trkpt>
      <trkpt lat="41.51179027" lon="1.529161473">
        <ele>505.00000</ele>
        <time>2019-04-02T15:54:56Z</time>
      </trkpt>
      <trkpt lat="41.51184635" lon="1.529013449">
        <ele>506.00000</ele>
        <time>2019-04-02T15:54:59Z</time>
      </trkpt>
      <trkpt lat="41.51190980" lon="1.528863916">
        <ele>507.00000</ele>
        <time>2019-04-02T15:55:02Z</time>
      </trkpt>
      <trkpt lat="41.51194148" lon="1.528764255">
        <ele>508.00000</ele>
        <time>2019-04-02T15:55:04Z</time>
      </trkpt>
      <trkpt lat="41.51202891" lon="1.528510367">
        <ele>509.00000</ele>
        <time>2019-04-02T15:55:09Z</time>
      </trkpt>
      <trkpt lat="41.51210401" lon="1.528316745">
        <ele>510.00000</ele>
        <time>2019-04-02T15:55:13Z</time>
      </trkpt>
      <trkpt lat="41.51218992" lon="1.528079537">
        <ele>511.00000</ele>
        <time>2019-04-02T15:55:18Z</time>
      </trkpt>
      <trkpt lat="41.51221850" lon="1.527978787">
        <ele>511.00000</ele>
        <time>2019-04-02T15:55:20Z</time>
      </trkpt>
      <trkpt lat="41.51227768" lon="1.527835708">
        <ele>512.00000</ele>
        <time>2019-04-02T15:55:23Z</time>
      </trkpt>
      <trkpt lat="41.51235689" lon="1.527650468">
        <ele>513.00000</ele>
        <time>2019-04-02T15:55:27Z</time>
      </trkpt>
      <trkpt lat="41.51237399" lon="1.527601098">
        <ele>513.00000</ele>
        <time>2019-04-02T15:55:28Z</time>
      </trkpt>
      <trkpt lat="41.51246108" lon="1.527362549">
        <ele>514.00000</ele>
        <time>2019-04-02T15:55:33Z</time>
      </trkpt>
      <trkpt lat="41.51247541" lon="1.527312006">
        <ele>514.00000</ele>
        <time>2019-04-02T15:55:34Z</time>
      </trkpt>
      <trkpt lat="41.51249360" lon="1.527266325">
        <ele>515.00000</ele>
        <time>2019-04-02T15:55:35Z</time>
      </trkpt>
      <trkpt lat="41.51252981" lon="1.527178147">
        <ele>515.00000</ele>
        <time>2019-04-02T15:55:37Z</time>
      </trkpt>
      <trkpt lat="41.51254548" lon="1.527132550">
        <ele>516.00000</ele>
        <time>2019-04-02T15:55:38Z</time>
      </trkpt>
      <trkpt lat="41.51259284" lon="1.527001289">
        <ele>516.00000</ele>
        <time>2019-04-02T15:55:41Z</time>
      </trkpt>
      <trkpt lat="41.51262762" lon="1.526915375">
        <ele>516.00000</ele>
        <time>2019-04-02T15:55:43Z</time>
      </trkpt>
      <trkpt lat="41.51268948" lon="1.526741450">
        <ele>517.00000</ele>
        <time>2019-04-02T15:55:47Z</time>
      </trkpt>
      <trkpt lat="41.51271974" lon="1.526657128">
        <ele>518.00000</ele>
        <time>2019-04-02T15:55:49Z</time>
      </trkpt>
      <trkpt lat="41.51276534" lon="1.526532908">
        <ele>519.00000</ele>
        <time>2019-04-02T15:55:52Z</time>
      </trkpt>
      <trkpt lat="41.51284698" lon="1.526316991">
        <ele>520.00000</ele>
        <time>2019-04-02T15:55:57Z</time>
      </trkpt>
      <trkpt lat="41.51286181" lon="1.526272483">
        <ele>520.00000</ele>
        <time>2019-04-02T15:55:58Z</time>
      </trkpt>
      <trkpt lat="41.51292585" lon="1.526156142">
        <ele>521.00000</ele>
        <time>2019-04-02T15:56:01Z</time>
      </trkpt>
      <trkpt lat="41.51300556" lon="1.526056565">
        <ele>521.00000</ele>
        <time>2019-04-02T15:56:04Z</time>
      </trkpt>
      <trkpt lat="41.51310766" lon="1.525980960">
        <ele>522.00000</ele>
        <time>2019-04-02T15:56:07Z</time>
      </trkpt>
      <trkpt lat="41.51321813" lon="1.525938380">
        <ele>523.00000</ele>
        <time>2019-04-02T15:56:10Z</time>
      </trkpt>
      <trkpt lat="41.51339423" lon="1.525874845">
        <ele>524.00000</ele>
        <time>2019-04-02T15:56:15Z</time>
      </trkpt>
      <trkpt lat="41.51350370" lon="1.525830924">
        <ele>525.00000</ele>
        <time>2019-04-02T15:56:18Z</time>
      </trkpt>
      <trkpt lat="41.51357428" lon="1.525804270">
        <ele>525.00000</ele>
        <time>2019-04-02T15:56:20Z</time>
      </trkpt>
      <trkpt lat="41.51374652" lon="1.525730676">
        <ele>526.00000</ele>
        <time>2019-04-02T15:56:25Z</time>
      </trkpt>
      <trkpt lat="41.51396387" lon="1.525646271">
        <ele>527.00000</ele>
        <time>2019-04-02T15:56:31Z</time>
      </trkpt>
      <trkpt lat="41.51399874" lon="1.525630177">
        <ele>527.00000</ele>
        <time>2019-04-02T15:56:32Z</time>
      </trkpt>
      <trkpt lat="41.51403612" lon="1.525615844">
        <ele>528.00000</ele>
        <time>2019-04-02T15:56:33Z</time>
      </trkpt>
      <trkpt lat="41.51411147" lon="1.525593884">
        <ele>528.00000</ele>
        <time>2019-04-02T15:56:35Z</time>
      </trkpt>
      <trkpt lat="41.51428238" lon="1.525513501">
        <ele>529.00000</ele>
        <time>2019-04-02T15:56:40Z</time>
      </trkpt>
      <trkpt lat="41.51431926" lon="1.525504868">
        <ele>530.00000</ele>
        <time>2019-04-02T15:56:41Z</time>
      </trkpt>
      <trkpt lat="41.51446661" lon="1.525445273">
        <ele>530.00000</ele>
        <time>2019-04-02T15:56:45Z</time>
      </trkpt>
      <trkpt lat="41.51469527" lon="1.525351563">
        <ele>532.00000</ele>
        <time>2019-04-02T15:56:51Z</time>
      </trkpt>
      <trkpt lat="41.51488915" lon="1.525277718">
        <ele>533.00000</ele>
        <time>2019-04-02T15:56:56Z</time>
      </trkpt>
      <trkpt lat="41.51496978" lon="1.525250729">
        <ele>534.00000</ele>
        <time>2019-04-02T15:56:58Z</time>
      </trkpt>
      <trkpt lat="41.51527178" lon="1.525130867">
        <ele>535.00000</ele>
        <time>2019-04-02T15:57:06Z</time>
      </trkpt>
      <trkpt lat="41.51545241" lon="1.525055430">
        <ele>536.00000</ele>
        <time>2019-04-02T15:57:11Z</time>
      </trkpt>
      <trkpt lat="41.51559767" lon="1.525001702">
        <ele>537.00000</ele>
        <time>2019-04-02T15:57:15Z</time>
      </trkpt>
      <trkpt lat="41.51567428" lon="1.524979406">
        <ele>537.00000</ele>
        <time>2019-04-02T15:57:17Z</time>
      </trkpt>
      <trkpt lat="41.51582532" lon="1.524919392">
        <ele>538.00000</ele>
        <time>2019-04-02T15:57:21Z</time>
      </trkpt>
      <trkpt lat="41.51597888" lon="1.524860467">
        <ele>539.00000</ele>
        <time>2019-04-02T15:57:25Z</time>
      </trkpt>
      <trkpt lat="41.51609530" lon="1.524833310">
        <ele>540.00000</ele>
        <time>2019-04-02T15:57:28Z</time>
      </trkpt>
      <trkpt lat="41.51621282" lon="1.524810763">
        <ele>541.00000</ele>
        <time>2019-04-02T15:57:31Z</time>
      </trkpt>
      <trkpt lat="41.51625129" lon="1.524806572">
        <ele>541.00000</ele>
        <time>2019-04-02T15:57:32Z</time>
      </trkpt>
      <trkpt lat="41.51644265" lon="1.524821491">
        <ele>542.00000</ele>
        <time>2019-04-02T15:57:37Z</time>
      </trkpt>
      <trkpt lat="41.51651792" lon="1.524835154">
        <ele>542.00000</ele>
        <time>2019-04-02T15:57:39Z</time>
      </trkpt>
      <trkpt lat="41.51671850" lon="1.524844458">
        <ele>543.00000</ele>
        <time>2019-04-02T15:57:44Z</time>
      </trkpt>
      <trkpt lat="41.51679242" lon="1.524854935">
        <ele>544.00000</ele>
        <time>2019-04-02T15:57:46Z</time>
      </trkpt>
      <trkpt lat="41.51682914" lon="1.524856109">
        <ele>544.00000</ele>
        <time>2019-04-02T15:57:47Z</time>
      </trkpt>
      <trkpt lat="41.51702041" lon="1.524887373">
        <ele>545.00000</ele>
        <time>2019-04-02T15:57:52Z</time>
      </trkpt>
      <trkpt lat="41.51721160" lon="1.524909501">
        <ele>546.00000</ele>
        <time>2019-04-02T15:57:57Z</time>
      </trkpt>
      <trkpt lat="41.51736667" lon="1.524931797">
        <ele>547.00000</ele>
        <time>2019-04-02T15:58:01Z</time>
      </trkpt>
      <trkpt lat="41.51740447" lon="1.524935401">
        <ele>548.00000</ele>
        <time>2019-04-02T15:58:02Z</time>
      </trkpt>
      <trkpt lat="41.51758963" lon="1.524935904">
        <ele>549.00000</ele>
        <time>2019-04-02T15:58:07Z</time>
      </trkpt>
      <trkpt lat="41.51766548" lon="1.524934144">
        <ele>549.00000</ele>
        <time>2019-04-02T15:58:09Z</time>
      </trkpt>
      <trkpt lat="41.51773774" lon="1.524916542">
        <ele>550.00000</ele>
        <time>2019-04-02T15:58:11Z</time>
      </trkpt>
      <trkpt lat="41.51784955" lon="1.524909418">
        <ele>551.00000</ele>
        <time>2019-04-02T15:58:14Z</time>
      </trkpt>
      <trkpt lat="41.51796530" lon="1.524877985">
        <ele>551.00000</ele>
        <time>2019-04-02T15:58:17Z</time>
      </trkpt>
      <trkpt lat="41.51809087" lon="1.524829287">
        <ele>551.00000</ele>
        <time>2019-04-02T15:58:20Z</time>
      </trkpt>
      <trkpt lat="41.51835313" lon="1.524757705">
        <ele>550.00000</ele>
        <time>2019-04-02T15:58:25Z</time>
      </trkpt>
      <trkpt lat="41.51853729" lon="1.524720489">
        <ele>550.00000</ele>
        <time>2019-04-02T15:58:28Z</time>
      </trkpt>
      <trkpt lat="41.51873828" lon="1.524690985">
        <ele>549.00000</ele>
        <time>2019-04-02T15:58:31Z</time>
      </trkpt>
      <trkpt lat="41.51895630" lon="1.524659302">
        <ele>549.00000</ele>
        <time>2019-04-02T15:58:34Z</time>
      </trkpt>
      <trkpt lat="41.51918219" lon="1.524641700">
        <ele>548.00000</ele>
        <time>2019-04-02T15:58:37Z</time>
      </trkpt>
      <trkpt lat="41.51938495" lon="1.524762986">
        <ele>549.00000</ele>
        <time>2019-04-02T15:58:40Z</time>
      </trkpt>
      <trkpt lat="41.51946223" lon="1.524915704">
        <ele>550.00000</ele>
        <time>2019-04-02T15:58:42Z</time>
      </trkpt>
      <trkpt lat="41.51948394" lon="1.525000780">
        <ele>550.00000</ele>
        <time>2019-04-02T15:58:43Z</time>
      </trkpt>
      <trkpt lat="41.51950774" lon="1.525083929">
        <ele>551.00000</ele>
        <time>2019-04-02T15:58:44Z</time>
      </trkpt>
      <trkpt lat="41.51954865" lon="1.525256345">
        <ele>551.00000</ele>
        <time>2019-04-02T15:58:46Z</time>
      </trkpt>
      <trkpt lat="41.51962274" lon="1.525617772">
        <ele>551.00000</ele>
        <time>2019-04-02T15:58:50Z</time>
      </trkpt>
      <trkpt lat="41.51977127" lon="1.526288827">
        <ele>551.00000</ele>
        <time>2019-04-02T15:58:57Z</time>
      </trkpt>
      <trkpt lat="41.51989641" lon="1.526846727">
        <ele>552.00000</ele>
        <time>2019-04-02T15:59:03Z</time>
      </trkpt>
      <trkpt lat="41.51995425" lon="1.527106817">
        <ele>553.00000</ele>
        <time>2019-04-02T15:59:06Z</time>
      </trkpt>
      <trkpt lat="41.52001552" lon="1.527351317">
        <ele>553.00000</ele>
        <time>2019-04-02T15:59:09Z</time>
      </trkpt>
      <trkpt lat="41.52015097" lon="1.527664298">
        <ele>553.00000</ele>
        <time>2019-04-02T15:59:13Z</time>
      </trkpt>
      <trkpt lat="41.52040016" lon="1.527916677">
        <ele>552.00000</ele>
        <time>2019-04-02T15:59:17Z</time>
      </trkpt>
      <trkpt lat="41.52047124" lon="1.527971411">
        <ele>552.00000</ele>
        <time>2019-04-02T15:59:18Z</time>
      </trkpt>
      <trkpt lat="41.52077894" lon="1.528195291">
        <ele>551.00000</ele>
        <time>2019-04-02T15:59:22Z</time>
      </trkpt>
      <trkpt lat="41.52094507" lon="1.528305681">
        <ele>550.00000</ele>
        <time>2019-04-02T15:59:24Z</time>
      </trkpt>
      <trkpt lat="41.52102663" lon="1.528365360">
        <ele>550.00000</ele>
        <time>2019-04-02T15:59:25Z</time>
      </trkpt>
      <trkpt lat="41.52144279" lon="1.528655542">
        <ele>549.00000</ele>
        <time>2019-04-02T15:59:30Z</time>
      </trkpt>
      <trkpt lat="41.52161478" lon="1.528777163">
        <ele>548.00000</ele>
        <time>2019-04-02T15:59:32Z</time>
      </trkpt>
      <trkpt lat="41.52186758" lon="1.528971875">
        <ele>548.00000</ele>
        <time>2019-04-02T15:59:35Z</time>
      </trkpt>
      <trkpt lat="41.52218853" lon="1.529197515">
        <ele>547.00000</ele>
        <time>2019-04-02T15:59:39Z</time>
      </trkpt>
      <trkpt lat="41.52262522" lon="1.529538910">
        <ele>548.00000</ele>
        <time>2019-04-02T15:59:45Z</time>
      </trkpt>
      <trkpt lat="41.52268390" lon="1.529609067">
        <ele>549.00000</ele>
        <time>2019-04-02T15:59:46Z</time>
      </trkpt>
      <trkpt lat="41.52280149" lon="1.529836468">
        <ele>550.00000</ele>
        <time>2019-04-02T15:59:49Z</time>
      </trkpt>
      <trkpt lat="41.52282589" lon="1.529909474">
        <ele>550.00000</ele>
        <time>2019-04-02T15:59:50Z</time>
      </trkpt>
      <trkpt lat="41.52286260" lon="1.530071077">
        <ele>551.00000</ele>
        <time>2019-04-02T15:59:52Z</time>
      </trkpt>
      <trkpt lat="41.52288070" lon="1.530149616">
        <ele>551.00000</ele>
        <time>2019-04-02T15:59:53Z</time>
      </trkpt>
      <trkpt lat="41.52291599" lon="1.530307447">
        <ele>552.00000</ele>
        <time>2019-04-02T15:59:55Z</time>
      </trkpt>
      <trkpt lat="41.52294835" lon="1.530464775">
        <ele>553.00000</ele>
        <time>2019-04-02T15:59:57Z</time>
      </trkpt>
      <trkpt lat="41.52300719" lon="1.530776247">
        <ele>554.00000</ele>
        <time>2019-04-02T16:00:01Z</time>
      </trkpt>
      <trkpt lat="41.52304147" lon="1.530929971">
        <ele>555.00000</ele>
        <time>2019-04-02T16:00:03Z</time>
      </trkpt>
      <trkpt lat="41.52306888" lon="1.531087802">
        <ele>555.00000</ele>
        <time>2019-04-02T16:00:05Z</time>
      </trkpt>
      <trkpt lat="41.52311448" lon="1.531327189">
        <ele>556.00000</ele>
        <time>2019-04-02T16:00:08Z</time>
      </trkpt>
      <trkpt lat="41.52315102" lon="1.531482758">
        <ele>557.00000</ele>
        <time>2019-04-02T16:00:10Z</time>
      </trkpt>
      <trkpt lat="41.52316988" lon="1.531559284">
        <ele>557.00000</ele>
        <time>2019-04-02T16:00:11Z</time>
      </trkpt>
      <trkpt lat="41.52325236" lon="1.531777214">
        <ele>559.00000</ele>
        <time>2019-04-02T16:00:14Z</time>
      </trkpt>
      <trkpt lat="41.52334263" lon="1.531878132">
        <ele>560.00000</ele>
        <time>2019-04-02T16:00:16Z</time>
      </trkpt>
      <trkpt lat="41.52339066" lon="1.531920880">
        <ele>560.00000</ele>
        <time>2019-04-02T16:00:17Z</time>
      </trkpt>
      <trkpt lat="41.52353826" lon="1.531991371">
        <ele>561.00000</ele>
        <time>2019-04-02T16:00:20Z</time>
      </trkpt>
      <trkpt lat="41.52358788" lon="1.532008051">
        <ele>561.00000</ele>
        <time>2019-04-02T16:00:21Z</time>
      </trkpt>
      <trkpt lat="41.52363692" lon="1.532010231">
        <ele>561.00000</ele>
        <time>2019-04-02T16:00:22Z</time>
      </trkpt>
      <trkpt lat="41.52377597" lon="1.532017271">
        <ele>562.00000</ele>
        <time>2019-04-02T16:00:25Z</time>
      </trkpt>
      <trkpt lat="41.52399726" lon="1.532043842">
        <ele>563.00000</ele>
        <time>2019-04-02T16:00:30Z</time>
      </trkpt>
      <trkpt lat="41.52408518" lon="1.532049290">
        <ele>564.00000</ele>
        <time>2019-04-02T16:00:32Z</time>
      </trkpt>
      <trkpt lat="41.52412793" lon="1.532059600">
        <ele>564.00000</ele>
        <time>2019-04-02T16:00:33Z</time>
      </trkpt>
      <trkpt lat="41.52416833" lon="1.532057253">
        <ele>564.00000</ele>
        <time>2019-04-02T16:00:34Z</time>
      </trkpt>
      <trkpt lat="41.52429917" lon="1.532050464">
        <ele>565.00000</ele>
        <time>2019-04-02T16:00:37Z</time>
      </trkpt>
      <trkpt lat="41.52434108" lon="1.532037639">
        <ele>565.00000</ele>
        <time>2019-04-02T16:00:38Z</time>
      </trkpt>
      <trkpt lat="41.52441786" lon="1.531979972">
        <ele>566.00000</ele>
        <time>2019-04-02T16:00:40Z</time>
      </trkpt>
      <trkpt lat="41.52444812" lon="1.531942756">
        <ele>566.00000</ele>
        <time>2019-04-02T16:00:41Z</time>
      </trkpt>
      <trkpt lat="41.52449388" lon="1.531788110">
        <ele>566.00000</ele>
        <time>2019-04-02T16:00:44Z</time>
      </trkpt>
      <trkpt lat="41.52450344" lon="1.531729940">
        <ele>567.00000</ele>
        <time>2019-04-02T16:00:45Z</time>
      </trkpt>
      <trkpt lat="41.52451937" lon="1.531603625">
        <ele>567.00000</ele>
        <time>2019-04-02T16:00:47Z</time>
      </trkpt>
      <trkpt lat="41.52453839" lon="1.531411763">
        <ele>568.00000</ele>
        <time>2019-04-02T16:00:50Z</time>
      </trkpt>
      <trkpt lat="41.52454418" lon="1.531347725">
        <ele>568.00000</ele>
        <time>2019-04-02T16:00:51Z</time>
      </trkpt>
      <trkpt lat="41.52458919" lon="1.531086796">
        <ele>568.00000</ele>
        <time>2019-04-02T16:00:55Z</time>
      </trkpt>
      <trkpt lat="41.52463939" lon="1.530969785">
        <ele>569.00000</ele>
        <time>2019-04-02T16:00:57Z</time>
      </trkpt>
      <trkpt lat="41.52477610" lon="1.530883032">
        <ele>569.00000</ele>
        <time>2019-04-02T16:01:00Z</time>
      </trkpt>
      <trkpt lat="41.52488389" lon="1.530892169">
        <ele>569.00000</ele>
        <time>2019-04-02T16:01:02Z</time>
      </trkpt>
      <trkpt lat="41.52498900" lon="1.530906669">
        <ele>569.00000</ele>
        <time>2019-04-02T16:01:04Z</time>
      </trkpt>
      <trkpt lat="41.52513870" lon="1.530909854">
        <ele>570.00000</ele>
        <time>2019-04-02T16:01:07Z</time>
      </trkpt>
      <trkpt lat="41.52528329" lon="1.530892336">
        <ele>570.00000</ele>
        <time>2019-04-02T16:01:10Z</time>
      </trkpt>
      <trkpt lat="41.52546149" lon="1.530779264">
        <ele>571.00000</ele>
        <time>2019-04-02T16:01:14Z</time>
      </trkpt>
      <trkpt lat="41.52551271" lon="1.530749173">
        <ele>571.00000</ele>
        <time>2019-04-02T16:01:15Z</time>
      </trkpt>
      <trkpt lat="41.52583004" lon="1.530599724">
        <ele>571.00000</ele>
        <time>2019-04-02T16:01:21Z</time>
      </trkpt>
      <trkpt lat="41.52599014" lon="1.530569549">
        <ele>572.00000</ele>
        <time>2019-04-02T16:01:24Z</time>
      </trkpt>
      <trkpt lat="41.52613992" lon="1.530551696">
        <ele>573.00000</ele>
        <time>2019-04-02T16:01:27Z</time>
      </trkpt>
      <trkpt lat="41.52632307" lon="1.530539207">
        <ele>575.00000</ele>
        <time>2019-04-02T16:01:31Z</time>
      </trkpt>
      <trkpt lat="41.52641527" lon="1.530527807">
        <ele>575.00000</ele>
        <time>2019-04-02T16:01:33Z</time>
      </trkpt>
      <trkpt lat="41.52649808" lon="1.530519090">
        <ele>576.00000</ele>
        <time>2019-04-02T16:01:35Z</time>
      </trkpt>
      <trkpt lat="41.52662146" lon="1.530517917">
        <ele>577.00000</ele>
        <time>2019-04-02T16:01:38Z</time>
      </trkpt>
      <trkpt lat="41.52666295" lon="1.530516324">
        <ele>577.00000</ele>
        <time>2019-04-02T16:01:39Z</time>
      </trkpt>
      <trkpt lat="41.52682581" lon="1.530507272">
        <ele>578.00000</ele>
        <time>2019-04-02T16:01:43Z</time>
      </trkpt>
      <trkpt lat="41.52695196" lon="1.530493525">
        <ele>579.00000</ele>
        <time>2019-04-02T16:01:46Z</time>
      </trkpt>
      <trkpt lat="41.52699454" lon="1.530492436">
        <ele>579.00000</ele>
        <time>2019-04-02T16:01:47Z</time>
      </trkpt>
      <trkpt lat="41.52716184" lon="1.530477516">
        <ele>580.00000</ele>
        <time>2019-04-02T16:01:51Z</time>
      </trkpt>
      <trkpt lat="41.52720258" lon="1.530482629">
        <ele>580.00000</ele>
        <time>2019-04-02T16:01:52Z</time>
      </trkpt>
      <trkpt lat="41.52724013" lon="1.530479779">
        <ele>581.00000</ele>
        <time>2019-04-02T16:01:53Z</time>
      </trkpt>
      <trkpt lat="41.52736695" lon="1.530480114">
        <ele>581.00000</ele>
        <time>2019-04-02T16:01:56Z</time>
      </trkpt>
      <trkpt lat="41.52755663" lon="1.530464859">
        <ele>581.00000</ele>
        <time>2019-04-02T16:02:00Z</time>
      </trkpt>
      <trkpt lat="41.52786081" lon="1.530399061">
        <ele>582.00000</ele>
        <time>2019-04-02T16:02:06Z</time>
      </trkpt>
      <trkpt lat="41.52826080" lon="1.530251791">
        <ele>582.00000</ele>
        <time>2019-04-02T16:02:13Z</time>
      </trkpt>
      <trkpt lat="41.52831746" lon="1.530233686">
        <ele>582.00000</ele>
        <time>2019-04-02T16:02:14Z</time>
      </trkpt>
      <trkpt lat="41.52857378" lon="1.530144503">
        <ele>584.00000</ele>
        <time>2019-04-02T16:02:19Z</time>
      </trkpt>
      <trkpt lat="41.52862197" lon="1.530135786">
        <ele>584.00000</ele>
        <time>2019-04-02T16:02:20Z</time>
      </trkpt>
      <trkpt lat="41.52866908" lon="1.530136372">
        <ele>584.00000</ele>
        <time>2019-04-02T16:02:21Z</time>
      </trkpt>
      <trkpt lat="41.52881015" lon="1.530173085">
        <ele>585.00000</ele>
        <time>2019-04-02T16:02:24Z</time>
      </trkpt>
      <trkpt lat="41.52885566" lon="1.530202673">
        <ele>585.00000</ele>
        <time>2019-04-02T16:02:25Z</time>
      </trkpt>
      <trkpt lat="41.52892816" lon="1.530283391">
        <ele>586.00000</ele>
        <time>2019-04-02T16:02:27Z</time>
      </trkpt>
      <trkpt lat="41.52898348" lon="1.530390093">
        <ele>587.00000</ele>
        <time>2019-04-02T16:02:29Z</time>
      </trkpt>
      <trkpt lat="41.52903218" lon="1.530505847">
        <ele>587.00000</ele>
        <time>2019-04-02T16:02:31Z</time>
      </trkpt>
      <trkpt lat="41.52909781" lon="1.530676335">
        <ele>588.00000</ele>
        <time>2019-04-02T16:02:34Z</time>
      </trkpt>
      <trkpt lat="41.52916562" lon="1.530835004">
        <ele>589.00000</ele>
        <time>2019-04-02T16:02:37Z</time>
      </trkpt>
      <trkpt lat="41.52918817" lon="1.530888229">
        <ele>590.00000</ele>
        <time>2019-04-02T16:02:38Z</time>
      </trkpt>
      <trkpt lat="41.52927886" lon="1.531106075">
        <ele>591.00000</ele>
        <time>2019-04-02T16:02:42Z</time>
      </trkpt>
      <trkpt lat="41.52936813" lon="1.531310761">
        <ele>592.00000</ele>
        <time>2019-04-02T16:02:46Z</time>
      </trkpt>
      <trkpt lat="41.52939084" lon="1.531362812">
        <ele>592.00000</ele>
        <time>2019-04-02T16:02:47Z</time>
      </trkpt>
      <trkpt lat="41.52948053" lon="1.531566493">
        <ele>593.00000</ele>
        <time>2019-04-02T16:02:51Z</time>
      </trkpt>
      <trkpt lat="41.52959184" lon="1.531814681">
        <ele>594.00000</ele>
        <time>2019-04-02T16:02:56Z</time>
      </trkpt>
      <trkpt lat="41.52968195" lon="1.532013583">
        <ele>595.00000</ele>
        <time>2019-04-02T16:03:00Z</time>
      </trkpt>
      <trkpt lat="41.52978530" lon="1.532267471">
        <ele>597.00000</ele>
        <time>2019-04-02T16:03:05Z</time>
      </trkpt>
      <trkpt lat="41.52986777" lon="1.532468218">
        <ele>598.00000</ele>
        <time>2019-04-02T16:03:09Z</time>
      </trkpt>
      <trkpt lat="41.52996115" lon="1.532726380">
        <ele>599.00000</ele>
        <time>2019-04-02T16:03:14Z</time>
      </trkpt>
      <trkpt lat="41.52997624" lon="1.532782204">
        <ele>599.00000</ele>
        <time>2019-04-02T16:03:15Z</time>
      </trkpt>
      <trkpt lat="41.53000909" lon="1.532946489">
        <ele>599.00000</ele>
        <time>2019-04-02T16:03:18Z</time>
      </trkpt>
      <trkpt lat="41.53002854" lon="1.533064842">
        <ele>600.00000</ele>
        <time>2019-04-02T16:03:20Z</time>
      </trkpt>
      <trkpt lat="41.53009417" lon="1.533533306">
        <ele>600.00000</ele>
        <time>2019-04-02T16:03:27Z</time>
      </trkpt>
      <trkpt lat="41.53016089" lon="1.534052565">
        <ele>601.00000</ele>
        <time>2019-04-02T16:03:34Z</time>
      </trkpt>
      <trkpt lat="41.53024672" lon="1.534677101">
        <ele>602.00000</ele>
        <time>2019-04-02T16:03:42Z</time>
      </trkpt>
      <trkpt lat="41.53028285" lon="1.534994859">
        <ele>602.00000</ele>
        <time>2019-04-02T16:03:46Z</time>
      </trkpt>
      <trkpt lat="41.53030640" lon="1.535324184">
        <ele>603.00000</ele>
        <time>2019-04-02T16:03:50Z</time>
      </trkpt>
      <trkpt lat="41.53026524" lon="1.535724001">
        <ele>603.00000</ele>
        <time>2019-04-02T16:03:55Z</time>
      </trkpt>
      <trkpt lat="41.53024940" lon="1.535804299">
        <ele>603.00000</ele>
        <time>2019-04-02T16:03:56Z</time>
      </trkpt>
      <trkpt lat="41.53016986" lon="1.536434870">
        <ele>604.00000</ele>
        <time>2019-04-02T16:04:03Z</time>
      </trkpt>
      <trkpt lat="41.53022074" lon="1.536942478">
        <ele>604.00000</ele>
        <time>2019-04-02T16:04:08Z</time>
      </trkpt>
      <trkpt lat="41.53025795" lon="1.537165353">
        <ele>602.00000</ele>
        <time>2019-04-02T16:04:10Z</time>
      </trkpt>
      <trkpt lat="41.53029114" lon="1.537397615">
        <ele>601.00000</ele>
        <time>2019-04-02T16:04:12Z</time>
      </trkpt>
      <trkpt lat="41.53032350" lon="1.537642618">
        <ele>599.00000</ele>
        <time>2019-04-02T16:04:14Z</time>
      </trkpt>
      <trkpt lat="41.53035988" lon="1.537891728">
        <ele>598.00000</ele>
        <time>2019-04-02T16:04:16Z</time>
      </trkpt>
      <trkpt lat="41.53040246" lon="1.538146035">
        <ele>597.00000</ele>
        <time>2019-04-02T16:04:18Z</time>
      </trkpt>
      <trkpt lat="41.53048368" lon="1.538535375">
        <ele>596.00000</ele>
        <time>2019-04-02T16:04:21Z</time>
      </trkpt>
      <trkpt lat="41.53052508" lon="1.538662109">
        <ele>595.00000</ele>
        <time>2019-04-02T16:04:22Z</time>
      </trkpt>
      <trkpt lat="41.53058040" lon="1.538781384">
        <ele>594.00000</ele>
        <time>2019-04-02T16:04:23Z</time>
      </trkpt>
      <trkpt lat="41.53069398" lon="1.539021609">
        <ele>593.00000</ele>
        <time>2019-04-02T16:04:25Z</time>
      </trkpt>
      <trkpt lat="41.53075022" lon="1.539148511">
        <ele>593.00000</ele>
        <time>2019-04-02T16:04:26Z</time>
      </trkpt>
      <trkpt lat="41.53080797" lon="1.539273736">
        <ele>592.00000</ele>
        <time>2019-04-02T16:04:27Z</time>
      </trkpt>
      <trkpt lat="41.53092674" lon="1.539523852">
        <ele>591.00000</ele>
        <time>2019-04-02T16:04:29Z</time>
      </trkpt>
      <trkpt lat="41.53104652" lon="1.539773549">
        <ele>590.00000</ele>
        <time>2019-04-02T16:04:31Z</time>
      </trkpt>
      <trkpt lat="41.53116814" lon="1.540026683">
        <ele>588.00000</ele>
        <time>2019-04-02T16:04:33Z</time>
      </trkpt>
      <trkpt lat="41.53122732" lon="1.540152579">
        <ele>587.00000</ele>
        <time>2019-04-02T16:04:34Z</time>
      </trkpt>
      <trkpt lat="41.53128675" lon="1.540277050">
        <ele>587.00000</ele>
        <time>2019-04-02T16:04:35Z</time>
      </trkpt>
      <trkpt lat="41.53134810" lon="1.540399594">
        <ele>586.00000</ele>
        <time>2019-04-02T16:04:36Z</time>
      </trkpt>
      <trkpt lat="41.53146545" lon="1.540651638">
        <ele>585.00000</ele>
        <time>2019-04-02T16:04:38Z</time>
      </trkpt>
      <trkpt lat="41.53158581" lon="1.540911141">
        <ele>584.00000</ele>
        <time>2019-04-02T16:04:40Z</time>
      </trkpt>
      <trkpt lat="41.53168941" lon="1.541189001">
        <ele>582.00000</ele>
        <time>2019-04-02T16:04:42Z</time>
      </trkpt>
      <trkpt lat="41.53172805" lon="1.541335014">
        <ele>581.00000</ele>
        <time>2019-04-02T16:04:43Z</time>
      </trkpt>
      <trkpt lat="41.53179720" lon="1.541631063">
        <ele>580.00000</ele>
        <time>2019-04-02T16:04:45Z</time>
      </trkpt>
      <trkpt lat="41.53183425" lon="1.541779758">
        <ele>579.00000</ele>
        <time>2019-04-02T16:04:46Z</time>
      </trkpt>
      <trkpt lat="41.53190902" lon="1.542074382">
        <ele>578.00000</ele>
        <time>2019-04-02T16:04:48Z</time>
      </trkpt>
      <trkpt lat="41.53197851" lon="1.542370095">
        <ele>577.00000</ele>
        <time>2019-04-02T16:04:50Z</time>
      </trkpt>
      <trkpt lat="41.53209074" lon="1.542813079">
        <ele>576.00000</ele>
        <time>2019-04-02T16:04:53Z</time>
      </trkpt>
      <trkpt lat="41.53212695" lon="1.542960768">
        <ele>576.00000</ele>
        <time>2019-04-02T16:04:54Z</time>
      </trkpt>
      <trkpt lat="41.53227816" lon="1.543570635">
        <ele>574.00000</ele>
        <time>2019-04-02T16:04:58Z</time>
      </trkpt>
      <trkpt lat="41.53235309" lon="1.543875737">
        <ele>573.00000</ele>
        <time>2019-04-02T16:05:00Z</time>
      </trkpt>
      <trkpt lat="41.53239316" lon="1.544029628">
        <ele>572.00000</ele>
        <time>2019-04-02T16:05:01Z</time>
      </trkpt>
      <trkpt lat="41.53243096" lon="1.544184023">
        <ele>572.00000</ele>
        <time>2019-04-02T16:05:02Z</time>
      </trkpt>
      <trkpt lat="41.53255065" lon="1.544639496">
        <ele>570.00000</ele>
        <time>2019-04-02T16:05:05Z</time>
      </trkpt>
      <trkpt lat="41.53270966" lon="1.545069823">
        <ele>569.00000</ele>
        <time>2019-04-02T16:05:08Z</time>
      </trkpt>
      <trkpt lat="41.53282709" lon="1.545348437">
        <ele>568.00000</ele>
        <time>2019-04-02T16:05:10Z</time>
      </trkpt>
      <trkpt lat="41.53294159" lon="1.545627806">
        <ele>566.00000</ele>
        <time>2019-04-02T16:05:12Z</time>
      </trkpt>
      <trkpt lat="41.53311291" lon="1.546041872">
        <ele>565.00000</ele>
        <time>2019-04-02T16:05:15Z</time>
      </trkpt>
      <trkpt lat="41.53322657" lon="1.546320402">
        <ele>564.00000</ele>
        <time>2019-04-02T16:05:17Z</time>
      </trkpt>
      <trkpt lat="41.53334140" lon="1.546592479">
        <ele>563.00000</ele>
        <time>2019-04-02T16:05:19Z</time>
      </trkpt>
      <trkpt lat="41.53345330" lon="1.546865310">
        <ele>562.00000</ele>
        <time>2019-04-02T16:05:21Z</time>
      </trkpt>
      <trkpt lat="41.53356260" lon="1.547138141">
        <ele>560.00000</ele>
        <time>2019-04-02T16:05:23Z</time>
      </trkpt>
      <trkpt lat="41.53367483" lon="1.547402422">
        <ele>559.00000</ele>
        <time>2019-04-02T16:05:25Z</time>
      </trkpt>
      <trkpt lat="41.53372957" lon="1.547534940">
        <ele>559.00000</ele>
        <time>2019-04-02T16:05:26Z</time>
      </trkpt>
      <trkpt lat="41.53388849" lon="1.547938780">
        <ele>557.00000</ele>
        <time>2019-04-02T16:05:29Z</time>
      </trkpt>
      <trkpt lat="41.53405169" lon="1.548336418">
        <ele>556.00000</ele>
        <time>2019-04-02T16:05:32Z</time>
      </trkpt>
      <trkpt lat="41.53422678" lon="1.548723494">
        <ele>555.00000</ele>
        <time>2019-04-02T16:05:35Z</time>
      </trkpt>
      <trkpt lat="41.53437430" lon="1.548953913">
        <ele>554.00000</ele>
        <time>2019-04-02T16:05:37Z</time>
      </trkpt>
      <trkpt lat="41.53445913" lon="1.549056004">
        <ele>554.00000</ele>
        <time>2019-04-02T16:05:38Z</time>
      </trkpt>
      <trkpt lat="41.53454789" lon="1.549150887">
        <ele>553.00000</ele>
        <time>2019-04-02T16:05:39Z</time>
      </trkpt>
      <trkpt lat="41.53473414" lon="1.549331434">
        <ele>553.00000</ele>
        <time>2019-04-02T16:05:41Z</time>
      </trkpt>
      <trkpt lat="41.53500856" lon="1.549627231">
        <ele>551.00000</ele>
        <time>2019-04-02T16:05:44Z</time>
      </trkpt>
      <trkpt lat="41.53508752" lon="1.549747176">
        <ele>551.00000</ele>
        <time>2019-04-02T16:05:45Z</time>
      </trkpt>
      <trkpt lat="41.53515441" lon="1.549876760">
        <ele>549.00000</ele>
        <time>2019-04-02T16:05:46Z</time>
      </trkpt>
      <trkpt lat="41.53520395" lon="1.550020594">
        <ele>549.00000</ele>
        <time>2019-04-02T16:05:47Z</time>
      </trkpt>
      <trkpt lat="41.53527930" lon="1.550313793">
        <ele>548.00000</ele>
        <time>2019-04-02T16:05:49Z</time>
      </trkpt>
      <trkpt lat="41.53531257" lon="1.550460979">
        <ele>548.00000</ele>
        <time>2019-04-02T16:05:50Z</time>
      </trkpt>
      <trkpt lat="41.53534946" lon="1.550606070">
        <ele>548.00000</ele>
        <time>2019-04-02T16:05:51Z</time>
      </trkpt>
      <trkpt lat="41.53542179" lon="1.550890468">
        <ele>547.00000</ele>
        <time>2019-04-02T16:05:53Z</time>
      </trkpt>
      <trkpt lat="41.53552749" lon="1.551311071">
        <ele>546.00000</ele>
        <time>2019-04-02T16:05:56Z</time>
      </trkpt>
      <trkpt lat="41.53566227" lon="1.551836282">
        <ele>546.00000</ele>
        <time>2019-04-02T16:06:00Z</time>
      </trkpt>
      <trkpt lat="41.53585011" lon="1.552565256">
        <ele>546.00000</ele>
        <time>2019-04-02T16:06:06Z</time>
      </trkpt>
      <trkpt lat="41.53587928" lon="1.552691403">
        <ele>545.00000</ele>
        <time>2019-04-02T16:06:07Z</time>
      </trkpt>
      <trkpt lat="41.53594373" lon="1.552944201">
        <ele>545.00000</ele>
        <time>2019-04-02T16:06:09Z</time>
      </trkpt>
      <trkpt lat="41.53601179" lon="1.553203454">
        <ele>543.00000</ele>
        <time>2019-04-02T16:06:11Z</time>
      </trkpt>
      <trkpt lat="41.53610927" lon="1.553597906">
        <ele>542.00000</ele>
        <time>2019-04-02T16:06:14Z</time>
      </trkpt>
      <trkpt lat="41.53614322" lon="1.553730927">
        <ele>542.00000</ele>
        <time>2019-04-02T16:06:15Z</time>
      </trkpt>
      <trkpt lat="41.53621095" lon="1.554000405">
        <ele>541.00000</ele>
        <time>2019-04-02T16:06:17Z</time>
      </trkpt>
      <trkpt lat="41.53632352" lon="1.554408101">
        <ele>540.00000</ele>
        <time>2019-04-02T16:06:20Z</time>
      </trkpt>
      <trkpt lat="41.53639292" lon="1.554693840">
        <ele>539.00000</ele>
        <time>2019-04-02T16:06:22Z</time>
      </trkpt>
      <trkpt lat="41.53650037" lon="1.555118132">
        <ele>537.00000</ele>
        <time>2019-04-02T16:06:25Z</time>
      </trkpt>
      <trkpt lat="41.53657506" lon="1.555406134">
        <ele>536.00000</ele>
        <time>2019-04-02T16:06:27Z</time>
      </trkpt>
      <trkpt lat="41.53668561" lon="1.555837718">
        <ele>535.00000</ele>
        <time>2019-04-02T16:06:30Z</time>
      </trkpt>
      <trkpt lat="41.53672534" lon="1.555983144">
        <ele>534.00000</ele>
        <time>2019-04-02T16:06:31Z</time>
      </trkpt>
      <trkpt lat="41.53680145" lon="1.556278858">
        <ele>534.00000</ele>
        <time>2019-04-02T16:06:33Z</time>
      </trkpt>
      <trkpt lat="41.53687002" lon="1.556579349">
        <ele>532.00000</ele>
        <time>2019-04-02T16:06:35Z</time>
      </trkpt>
      <trkpt lat="41.53698208" lon="1.557021494">
        <ele>531.00000</ele>
        <time>2019-04-02T16:06:38Z</time>
      </trkpt>
      <trkpt lat="41.53702206" lon="1.557166250">
        <ele>530.00000</ele>
        <time>2019-04-02T16:06:39Z</time>
      </trkpt>
      <trkpt lat="41.53711209" lon="1.557448050">
        <ele>530.00000</ele>
        <time>2019-04-02T16:06:41Z</time>
      </trkpt>
      <trkpt lat="41.53732264" lon="1.558010643">
        <ele>529.00000</ele>
        <time>2019-04-02T16:06:45Z</time>
      </trkpt>
      <trkpt lat="41.53737486" lon="1.558151459">
        <ele>528.00000</ele>
        <time>2019-04-02T16:06:46Z</time>
      </trkpt>
      <trkpt lat="41.53748122" lon="1.558428397">
        <ele>527.00000</ele>
        <time>2019-04-02T16:06:48Z</time>
      </trkpt>
      <trkpt lat="41.53758767" lon="1.558701395">
        <ele>526.00000</ele>
        <time>2019-04-02T16:06:50Z</time>
      </trkpt>
      <trkpt lat="41.53779999" lon="1.559254601">
        <ele>525.00000</ele>
        <time>2019-04-02T16:06:54Z</time>
      </trkpt>
      <trkpt lat="41.53785263" lon="1.559393573">
        <ele>524.00000</ele>
        <time>2019-04-02T16:06:55Z</time>
      </trkpt>
      <trkpt lat="41.53790426" lon="1.559533132">
        <ele>524.00000</ele>
        <time>2019-04-02T16:06:56Z</time>
      </trkpt>
      <trkpt lat="41.53800627" lon="1.559806298">
        <ele>522.00000</ele>
        <time>2019-04-02T16:06:58Z</time>
      </trkpt>
      <trkpt lat="41.53821347" lon="1.560353050">
        <ele>521.00000</ele>
        <time>2019-04-02T16:07:02Z</time>
      </trkpt>
      <trkpt lat="41.53831807" lon="1.560624372">
        <ele>520.00000</ele>
        <time>2019-04-02T16:07:04Z</time>
      </trkpt>
      <trkpt lat="41.53847691" lon="1.561039779">
        <ele>520.00000</ele>
        <time>2019-04-02T16:07:07Z</time>
      </trkpt>
      <trkpt lat="41.53858361" lon="1.561318561">
        <ele>519.00000</ele>
        <time>2019-04-02T16:07:09Z</time>
      </trkpt>
      <trkpt lat="41.53877061" lon="1.561898589">
        <ele>517.00000</ele>
        <time>2019-04-02T16:07:13Z</time>
      </trkpt>
      <trkpt lat="41.53884747" lon="1.562197739">
        <ele>516.00000</ele>
        <time>2019-04-02T16:07:15Z</time>
      </trkpt>
      <trkpt lat="41.53896122" lon="1.562650110">
        <ele>515.00000</ele>
        <time>2019-04-02T16:07:18Z</time>
      </trkpt>
      <trkpt lat="41.53903380" lon="1.562946913">
        <ele>514.00000</ele>
        <time>2019-04-02T16:07:20Z</time>
      </trkpt>
      <trkpt lat="41.53906742" lon="1.563094267">
        <ele>513.00000</ele>
        <time>2019-04-02T16:07:21Z</time>
      </trkpt>
      <trkpt lat="41.53920580" lon="1.563674965">
        <ele>512.00000</ele>
        <time>2019-04-02T16:07:25Z</time>
      </trkpt>
      <trkpt lat="41.53930764" lon="1.564108645">
        <ele>511.00000</ele>
        <time>2019-04-02T16:07:28Z</time>
      </trkpt>
      <trkpt lat="41.53934528" lon="1.564250802">
        <ele>510.00000</ele>
        <time>2019-04-02T16:07:29Z</time>
      </trkpt>
      <trkpt lat="41.53941543" lon="1.564537379">
        <ele>509.00000</ele>
        <time>2019-04-02T16:07:31Z</time>
      </trkpt>
      <trkpt lat="41.53952172" lon="1.564978687">
        <ele>508.00000</ele>
        <time>2019-04-02T16:07:34Z</time>
      </trkpt>
      <trkpt lat="41.53963479" lon="1.565427621">
        <ele>507.00000</ele>
        <time>2019-04-02T16:07:37Z</time>
      </trkpt>
      <trkpt lat="41.53977510" lon="1.566030783">
        <ele>506.00000</ele>
        <time>2019-04-02T16:07:41Z</time>
      </trkpt>
      <trkpt lat="41.53987878" lon="1.566488938">
        <ele>505.00000</ele>
        <time>2019-04-02T16:07:44Z</time>
      </trkpt>
      <trkpt lat="41.53995112" lon="1.566800326">
        <ele>504.00000</ele>
        <time>2019-04-02T16:07:46Z</time>
      </trkpt>
      <trkpt lat="41.53999261" lon="1.566953631">
        <ele>504.00000</ele>
        <time>2019-04-02T16:07:47Z</time>
      </trkpt>
      <trkpt lat="41.54010124" lon="1.567418575">
        <ele>503.00000</ele>
        <time>2019-04-02T16:07:50Z</time>
      </trkpt>
      <trkpt lat="41.54021238" lon="1.567888548">
        <ele>501.00000</ele>
        <time>2019-04-02T16:07:53Z</time>
      </trkpt>
      <trkpt lat="41.54037592" lon="1.568490704">
        <ele>500.00000</ele>
        <time>2019-04-02T16:07:57Z</time>
      </trkpt>
      <trkpt lat="41.54050583" lon="1.568759931">
        <ele>499.00000</ele>
        <time>2019-04-02T16:07:59Z</time>
      </trkpt>
      <trkpt lat="41.54064657" lon="1.569015411">
        <ele>498.00000</ele>
        <time>2019-04-02T16:08:01Z</time>
      </trkpt>
      <trkpt lat="41.54086475" lon="1.569412294">
        <ele>497.00000</ele>
        <time>2019-04-02T16:08:04Z</time>
      </trkpt>
      <trkpt lat="41.54093725" lon="1.569547578">
        <ele>497.00000</ele>
        <time>2019-04-02T16:08:05Z</time>
      </trkpt>
      <trkpt lat="41.54115644" lon="1.569956280">
        <ele>495.00000</ele>
        <time>2019-04-02T16:08:08Z</time>
      </trkpt>
      <trkpt lat="41.54127638" lon="1.570254256">
        <ele>494.00000</ele>
        <time>2019-04-02T16:08:10Z</time>
      </trkpt>
      <trkpt lat="41.54131184" lon="1.570412339">
        <ele>493.00000</ele>
        <time>2019-04-02T16:08:11Z</time>
      </trkpt>
      <trkpt lat="41.54133941" lon="1.570576960">
        <ele>492.00000</ele>
        <time>2019-04-02T16:08:12Z</time>
      </trkpt>
      <trkpt lat="41.54137403" lon="1.570901339">
        <ele>491.00000</ele>
        <time>2019-04-02T16:08:14Z</time>
      </trkpt>
      <trkpt lat="41.54139230" lon="1.571059087">
        <ele>491.00000</ele>
        <time>2019-04-02T16:08:15Z</time>
      </trkpt>
      <trkpt lat="41.54143530" lon="1.571537945">
        <ele>490.00000</ele>
        <time>2019-04-02T16:08:18Z</time>
      </trkpt>
      <trkpt lat="41.54148082" lon="1.571853272">
        <ele>489.00000</ele>
        <time>2019-04-02T16:08:20Z</time>
      </trkpt>
      <trkpt lat="41.54151326" lon="1.572004733">
        <ele>489.00000</ele>
        <time>2019-04-02T16:08:21Z</time>
      </trkpt>
      <trkpt lat="41.54156950" lon="1.572145214">
        <ele>489.00000</ele>
        <time>2019-04-02T16:08:22Z</time>
      </trkpt>
      <trkpt lat="41.54171710" lon="1.572393653">
        <ele>488.00000</ele>
        <time>2019-04-02T16:08:24Z</time>
      </trkpt>
      <trkpt lat="41.54179472" lon="1.572507899">
        <ele>488.00000</ele>
        <time>2019-04-02T16:08:25Z</time>
      </trkpt>
      <trkpt lat="41.54212379" lon="1.572970831">
        <ele>487.00000</ele>
        <time>2019-04-02T16:08:29Z</time>
      </trkpt>
      <trkpt lat="41.54220501" lon="1.573090692">
        <ele>486.00000</ele>
        <time>2019-04-02T16:08:30Z</time>
      </trkpt>
      <trkpt lat="41.54245547" lon="1.573451030">
        <ele>485.00000</ele>
        <time>2019-04-02T16:08:33Z</time>
      </trkpt>
      <trkpt lat="41.54252923" lon="1.573577513">
        <ele>484.00000</ele>
        <time>2019-04-02T16:08:34Z</time>
      </trkpt>
      <trkpt lat="41.54265596" lon="1.573850344">
        <ele>483.00000</ele>
        <time>2019-04-02T16:08:36Z</time>
      </trkpt>
      <trkpt lat="41.54273542" lon="1.574155027">
        <ele>482.00000</ele>
        <time>2019-04-02T16:08:38Z</time>
      </trkpt>
      <trkpt lat="41.54276727" lon="1.574310762">
        <ele>481.00000</ele>
        <time>2019-04-02T16:08:39Z</time>
      </trkpt>
      <trkpt lat="41.54279887" lon="1.574469096">
        <ele>481.00000</ele>
        <time>2019-04-02T16:08:40Z</time>
      </trkpt>
      <trkpt lat="41.54285972" lon="1.574790123">
        <ele>480.00000</ele>
        <time>2019-04-02T16:08:42Z</time>
      </trkpt>
      <trkpt lat="41.54291706" lon="1.575122047">
        <ele>479.00000</ele>
        <time>2019-04-02T16:08:44Z</time>
      </trkpt>
      <trkpt lat="41.54298068" lon="1.575453551">
        <ele>477.00000</ele>
        <time>2019-04-02T16:08:46Z</time>
      </trkpt>
      <trkpt lat="41.54301278" lon="1.575620518">
        <ele>476.00000</ele>
        <time>2019-04-02T16:08:47Z</time>
      </trkpt>
      <trkpt lat="41.54304681" lon="1.575787654">
        <ele>476.00000</ele>
        <time>2019-04-02T16:08:48Z</time>
      </trkpt>
      <trkpt lat="41.54318913" lon="1.576476898">
        <ele>474.00000</ele>
        <time>2019-04-02T16:08:52Z</time>
      </trkpt>
      <trkpt lat="41.54325795" lon="1.576833967">
        <ele>473.00000</ele>
        <time>2019-04-02T16:08:54Z</time>
      </trkpt>
      <trkpt lat="41.54332995" lon="1.577189108">
        <ele>472.00000</ele>
        <time>2019-04-02T16:08:56Z</time>
      </trkpt>
      <trkpt lat="41.54341980" lon="1.577538633">
        <ele>470.00000</ele>
        <time>2019-04-02T16:08:58Z</time>
      </trkpt>
      <trkpt lat="41.54351427" lon="1.577891260">
        <ele>469.00000</ele>
        <time>2019-04-02T16:09:00Z</time>
      </trkpt>
      <trkpt lat="41.54356858" lon="1.578068789">
        <ele>468.00000</ele>
        <time>2019-04-02T16:09:01Z</time>
      </trkpt>
      <trkpt lat="41.54361946" lon="1.578246569">
        <ele>467.00000</ele>
        <time>2019-04-02T16:09:02Z</time>
      </trkpt>
      <trkpt lat="41.54371870" lon="1.578599195">
        <ele>465.00000</ele>
        <time>2019-04-02T16:09:04Z</time>
      </trkpt>
      <trkpt lat="41.54381786" lon="1.578947631">
        <ele>464.00000</ele>
        <time>2019-04-02T16:09:06Z</time>
      </trkpt>
      <trkpt lat="41.54395876" lon="1.579468399">
        <ele>462.00000</ele>
        <time>2019-04-02T16:09:09Z</time>
      </trkpt>
      <trkpt lat="41.54410335" lon="1.579984137">
        <ele>461.00000</ele>
        <time>2019-04-02T16:09:12Z</time>
      </trkpt>
      <trkpt lat="41.54424265" lon="1.580491242">
        <ele>460.00000</ele>
        <time>2019-04-02T16:09:15Z</time>
      </trkpt>
      <trkpt lat="41.54431415" lon="1.580638345">
        <ele>459.00000</ele>
        <time>2019-04-02T16:09:16Z</time>
      </trkpt>
      <trkpt lat="41.54439680" lon="1.580777149">
        <ele>458.00000</ele>
        <time>2019-04-02T16:09:17Z</time>
      </trkpt>
      <trkpt lat="41.54458883" lon="1.581012597">
        <ele>457.00000</ele>
        <time>2019-04-02T16:09:19Z</time>
      </trkpt>
      <trkpt lat="41.54469209" lon="1.581120807">
        <ele>457.00000</ele>
        <time>2019-04-02T16:09:20Z</time>
      </trkpt>
      <trkpt lat="41.54489661" lon="1.581336641">
        <ele>456.00000</ele>
        <time>2019-04-02T16:09:22Z</time>
      </trkpt>
      <trkpt lat="41.54517715" lon="1.581698404">
        <ele>456.00000</ele>
        <time>2019-04-02T16:09:25Z</time>
      </trkpt>
      <trkpt lat="41.54531026" lon="1.581997806">
        <ele>455.00000</ele>
        <time>2019-04-02T16:09:27Z</time>
      </trkpt>
      <trkpt lat="41.54538595" lon="1.582331070">
        <ele>453.00000</ele>
        <time>2019-04-02T16:09:29Z</time>
      </trkpt>
      <trkpt lat="41.54545878" lon="1.582659306">
        <ele>452.00000</ele>
        <time>2019-04-02T16:09:31Z</time>
      </trkpt>
      <trkpt lat="41.54554503" lon="1.582987206">
        <ele>451.00000</ele>
        <time>2019-04-02T16:09:33Z</time>
      </trkpt>
      <trkpt lat="41.54559692" lon="1.583143947">
        <ele>450.00000</ele>
        <time>2019-04-02T16:09:34Z</time>
      </trkpt>
      <trkpt lat="41.54572047" lon="1.583445696">
        <ele>450.00000</ele>
        <time>2019-04-02T16:09:36Z</time>
      </trkpt>
      <trkpt lat="41.54591308" lon="1.583898235">
        <ele>448.00000</ele>
        <time>2019-04-02T16:09:39Z</time>
      </trkpt>
      <trkpt lat="41.54625951" lon="1.584618659">
        <ele>448.00000</ele>
        <time>2019-04-02T16:09:44Z</time>
      </trkpt>
      <trkpt lat="41.54633092" lon="1.584757547">
        <ele>447.00000</ele>
        <time>2019-04-02T16:09:45Z</time>
      </trkpt>
      <trkpt lat="41.54640208" lon="1.584898447">
        <ele>447.00000</ele>
        <time>2019-04-02T16:09:46Z</time>
      </trkpt>
      <trkpt lat="41.54677307" lon="1.585561791">
        <ele>446.00000</ele>
        <time>2019-04-02T16:09:51Z</time>
      </trkpt>
      <trkpt lat="41.54685487" lon="1.585675450">
        <ele>446.00000</ele>
        <time>2019-04-02T16:09:52Z</time>
      </trkpt>
      <trkpt lat="41.54727213" lon="1.586226643">
        <ele>445.00000</ele>
        <time>2019-04-02T16:09:57Z</time>
      </trkpt>
      <trkpt lat="41.54743591" lon="1.586436778">
        <ele>445.00000</ele>
        <time>2019-04-02T16:09:59Z</time>
      </trkpt>
      <trkpt lat="41.54782458" lon="1.586969448">
        <ele>445.00000</ele>
        <time>2019-04-02T16:10:04Z</time>
      </trkpt>
      <trkpt lat="41.54790060" lon="1.587078664">
        <ele>444.00000</ele>
        <time>2019-04-02T16:10:05Z</time>
      </trkpt>
      <trkpt lat="41.54805139" lon="1.587301790">
        <ele>444.00000</ele>
        <time>2019-04-02T16:10:07Z</time>
      </trkpt>
      <trkpt lat="41.54828047" lon="1.587634384">
        <ele>442.00000</ele>
        <time>2019-04-02T16:10:10Z</time>
      </trkpt>
      <trkpt lat="41.54850670" lon="1.587960189">
        <ele>442.00000</ele>
        <time>2019-04-02T16:10:13Z</time>
      </trkpt>
      <trkpt lat="41.54864885" lon="1.588177280">
        <ele>441.00000</ele>
        <time>2019-04-02T16:10:15Z</time>
      </trkpt>
      <trkpt lat="41.54885161" lon="1.588522363">
        <ele>440.00000</ele>
        <time>2019-04-02T16:10:18Z</time>
      </trkpt>
      <trkpt lat="41.54891632" lon="1.588644571">
        <ele>439.00000</ele>
        <time>2019-04-02T16:10:19Z</time>
      </trkpt>
      <trkpt lat="41.54910692" lon="1.589023685">
        <ele>438.00000</ele>
        <time>2019-04-02T16:10:22Z</time>
      </trkpt>
      <trkpt lat="41.54929527" lon="1.589418221">
        <ele>437.00000</ele>
        <time>2019-04-02T16:10:25Z</time>
      </trkpt>
      <trkpt lat="41.54942753" lon="1.589680658">
        <ele>437.00000</ele>
        <time>2019-04-02T16:10:27Z</time>
      </trkpt>
      <trkpt lat="41.54949358" lon="1.589810913">
        <ele>436.00000</ele>
        <time>2019-04-02T16:10:28Z</time>
      </trkpt>
      <trkpt lat="41.54969366" lon="1.590202180">
        <ele>435.00000</ele>
        <time>2019-04-02T16:10:31Z</time>
      </trkpt>
      <trkpt lat="41.55000119" lon="1.590686319">
        <ele>434.00000</ele>
        <time>2019-04-02T16:10:35Z</time>
      </trkpt>
      <trkpt lat="41.55026371" lon="1.591016566">
        <ele>432.00000</ele>
        <time>2019-04-02T16:10:38Z</time>
      </trkpt>
      <trkpt lat="41.55036563" lon="1.591100217">
        <ele>432.00000</ele>
        <time>2019-04-02T16:10:39Z</time>
      </trkpt>
      <trkpt lat="41.55058868" lon="1.591210775">
        <ele>431.00000</ele>
        <time>2019-04-02T16:10:41Z</time>
      </trkpt>
      <trkpt lat="41.55069949" lon="1.591265592">
        <ele>431.00000</ele>
        <time>2019-04-02T16:10:42Z</time>
      </trkpt>
      <trkpt lat="41.55097274" lon="1.591542446">
        <ele>430.00000</ele>
        <time>2019-04-02T16:10:45Z</time>
      </trkpt>
      <trkpt lat="41.55103887" lon="1.591664738">
        <ele>430.00000</ele>
        <time>2019-04-02T16:10:46Z</time>
      </trkpt>
      <trkpt lat="41.55114213" lon="1.591923320">
        <ele>430.00000</ele>
        <time>2019-04-02T16:10:48Z</time>
      </trkpt>
      <trkpt lat="41.55133894" lon="1.592462612">
        <ele>428.00000</ele>
        <time>2019-04-02T16:10:52Z</time>
      </trkpt>
      <trkpt lat="41.55139183" lon="1.592597560">
        <ele>427.00000</ele>
        <time>2019-04-02T16:10:53Z</time>
      </trkpt>
      <trkpt lat="41.55149828" lon="1.592869469">
        <ele>426.00000</ele>
        <time>2019-04-02T16:10:55Z</time>
      </trkpt>
      <trkpt lat="41.55155067" lon="1.593009028">
        <ele>426.00000</ele>
        <time>2019-04-02T16:10:56Z</time>
      </trkpt>
      <trkpt lat="41.55160398" lon="1.593149760">
        <ele>425.00000</ele>
        <time>2019-04-02T16:10:57Z</time>
      </trkpt>
      <trkpt lat="41.55165595" lon="1.593291331">
        <ele>424.00000</ele>
        <time>2019-04-02T16:10:58Z</time>
      </trkpt>
      <trkpt lat="41.55181193" lon="1.593719227">
        <ele>422.00000</ele>
        <time>2019-04-02T16:11:01Z</time>
      </trkpt>
      <trkpt lat="41.55190765" lon="1.594009911">
        <ele>421.00000</ele>
        <time>2019-04-02T16:11:03Z</time>
      </trkpt>
      <trkpt lat="41.55194814" lon="1.594159444">
        <ele>420.00000</ele>
        <time>2019-04-02T16:11:04Z</time>
      </trkpt>
      <trkpt lat="41.55198183" lon="1.594311241">
        <ele>419.00000</ele>
        <time>2019-04-02T16:11:05Z</time>
      </trkpt>
      <trkpt lat="41.55202366" lon="1.594622964">
        <ele>418.00000</ele>
        <time>2019-04-02T16:11:07Z</time>
      </trkpt>
      <trkpt lat="41.55203095" lon="1.594780376">
        <ele>417.00000</ele>
        <time>2019-04-02T16:11:08Z</time>
      </trkpt>
      <trkpt lat="41.55203145" lon="1.594937369">
        <ele>416.00000</ele>
        <time>2019-04-02T16:11:09Z</time>
      </trkpt>
      <trkpt lat="41.55201687" lon="1.595251355">
        <ele>415.00000</ele>
        <time>2019-04-02T16:11:11Z</time>
      </trkpt>
      <trkpt lat="41.55201050" lon="1.595406169">
        <ele>414.00000</ele>
        <time>2019-04-02T16:11:12Z</time>
      </trkpt>
      <trkpt lat="41.55201301" lon="1.595718730">
        <ele>413.00000</ele>
        <time>2019-04-02T16:11:14Z</time>
      </trkpt>
      <trkpt lat="41.55203808" lon="1.595871280">
        <ele>413.00000</ele>
        <time>2019-04-02T16:11:15Z</time>
      </trkpt>
      <trkpt lat="41.55215199" lon="1.596143357">
        <ele>413.00000</ele>
        <time>2019-04-02T16:11:17Z</time>
      </trkpt>
      <trkpt lat="41.55222767" lon="1.596264392">
        <ele>412.00000</ele>
        <time>2019-04-02T16:11:18Z</time>
      </trkpt>
      <trkpt lat="41.55238735" lon="1.596497325">
        <ele>411.00000</ele>
        <time>2019-04-02T16:11:20Z</time>
      </trkpt>
      <trkpt lat="41.55254954" lon="1.596728917">
        <ele>408.00000</ele>
        <time>2019-04-02T16:11:22Z</time>
      </trkpt>
      <trkpt lat="41.55263160" lon="1.596843665">
        <ele>408.00000</ele>
        <time>2019-04-02T16:11:23Z</time>
      </trkpt>
      <trkpt lat="41.55271232" lon="1.596961012">
        <ele>407.00000</ele>
        <time>2019-04-02T16:11:24Z</time>
      </trkpt>
      <trkpt lat="41.55286730" lon="1.597204422">
        <ele>405.00000</ele>
        <time>2019-04-02T16:11:26Z</time>
      </trkpt>
      <trkpt lat="41.55299906" lon="1.597471050">
        <ele>404.00000</ele>
        <time>2019-04-02T16:11:28Z</time>
      </trkpt>
      <trkpt lat="41.55316041" lon="1.597891571">
        <ele>403.00000</ele>
        <time>2019-04-02T16:11:31Z</time>
      </trkpt>
      <trkpt lat="41.55326267" lon="1.598173119">
        <ele>401.00000</ele>
        <time>2019-04-02T16:11:33Z</time>
      </trkpt>
      <trkpt lat="41.55341614" lon="1.598577210">
        <ele>400.00000</ele>
        <time>2019-04-02T16:11:36Z</time>
      </trkpt>
      <trkpt lat="41.55351178" lon="1.598830092">
        <ele>401.00000</ele>
        <time>2019-04-02T16:11:38Z</time>
      </trkpt>
      <trkpt lat="41.55378629" lon="1.599519671">
        <ele>401.00000</ele>
        <time>2019-04-02T16:11:44Z</time>
      </trkpt>
      <trkpt lat="41.55383608" lon="1.599616818">
        <ele>401.00000</ele>
        <time>2019-04-02T16:11:45Z</time>
      </trkpt>
      <trkpt lat="41.55401486" lon="1.599863246">
        <ele>400.00000</ele>
        <time>2019-04-02T16:11:48Z</time>
      </trkpt>
      <trkpt lat="41.55408301" lon="1.599938683">
        <ele>400.00000</ele>
        <time>2019-04-02T16:11:49Z</time>
      </trkpt>
      <trkpt lat="41.55429616" lon="1.600165581">
        <ele>399.00000</ele>
        <time>2019-04-02T16:11:52Z</time>
      </trkpt>
      <trkpt lat="41.55450881" lon="1.600384935">
        <ele>398.00000</ele>
        <time>2019-04-02T16:11:55Z</time>
      </trkpt>
      <trkpt lat="41.55493277" lon="1.600827500">
        <ele>397.00000</ele>
        <time>2019-04-02T16:12:01Z</time>
      </trkpt>
      <trkpt lat="41.55514265" lon="1.601056745">
        <ele>396.00000</ele>
        <time>2019-04-02T16:12:04Z</time>
      </trkpt>
      <trkpt lat="41.55521230" lon="1.601131511">
        <ele>395.00000</ele>
        <time>2019-04-02T16:12:05Z</time>
      </trkpt>
      <trkpt lat="41.55535094" lon="1.601284481">
        <ele>394.00000</ele>
        <time>2019-04-02T16:12:07Z</time>
      </trkpt>
      <trkpt lat="41.55549360" lon="1.601439211">
        <ele>393.00000</ele>
        <time>2019-04-02T16:12:09Z</time>
      </trkpt>
      <trkpt lat="41.55564296" lon="1.601599054">
        <ele>394.00000</ele>
        <time>2019-04-02T16:12:11Z</time>
      </trkpt>
      <trkpt lat="41.55609534" lon="1.602080427">
        <ele>391.00000</ele>
        <time>2019-04-02T16:12:17Z</time>
      </trkpt>
      <trkpt lat="41.55623934" lon="1.602233815">
        <ele>390.00000</ele>
        <time>2019-04-02T16:12:19Z</time>
      </trkpt>
      <trkpt lat="41.55631159" lon="1.602308917">
        <ele>390.00000</ele>
        <time>2019-04-02T16:12:20Z</time>
      </trkpt>
      <trkpt lat="41.55673068" lon="1.602767407">
        <ele>389.00000</ele>
        <time>2019-04-02T16:12:26Z</time>
      </trkpt>
      <trkpt lat="41.55686555" lon="1.602927334">
        <ele>389.00000</ele>
        <time>2019-04-02T16:12:28Z</time>
      </trkpt>
      <trkpt lat="41.55692867" lon="1.603016434">
        <ele>388.00000</ele>
        <time>2019-04-02T16:12:29Z</time>
      </trkpt>
      <trkpt lat="41.55698424" lon="1.603111652">
        <ele>388.00000</ele>
        <time>2019-04-02T16:12:30Z</time>
      </trkpt>
      <trkpt lat="41.55706479" lon="1.603323714">
        <ele>387.00000</ele>
        <time>2019-04-02T16:12:32Z</time>
      </trkpt>
      <trkpt lat="41.55723486" lon="1.603978173">
        <ele>386.00000</ele>
        <time>2019-04-02T16:12:38Z</time>
      </trkpt>
      <trkpt lat="41.55737207" lon="1.604508580">
        <ele>385.00000</ele>
        <time>2019-04-02T16:12:43Z</time>
      </trkpt>
      <trkpt lat="41.55742722" lon="1.604718966">
        <ele>385.00000</ele>
        <time>2019-04-02T16:12:45Z</time>
      </trkpt>
      <trkpt lat="41.55757156" lon="1.605131942">
        <ele>384.00000</ele>
        <time>2019-04-02T16:12:49Z</time>
      </trkpt>
      <trkpt lat="41.55762503" lon="1.605226406">
        <ele>384.00000</ele>
        <time>2019-04-02T16:12:50Z</time>
      </trkpt>
      <trkpt lat="41.55784372" lon="1.605437714">
        <ele>383.00000</ele>
        <time>2019-04-02T16:12:53Z</time>
      </trkpt>
      <trkpt lat="41.55793081" lon="1.605495298">
        <ele>382.00000</ele>
        <time>2019-04-02T16:12:54Z</time>
      </trkpt>
      <trkpt lat="41.55802116" lon="1.605553803">
        <ele>382.00000</ele>
        <time>2019-04-02T16:12:55Z</time>
      </trkpt>
      <trkpt lat="41.55829500" lon="1.605737367">
        <ele>380.00000</ele>
        <time>2019-04-02T16:12:58Z</time>
      </trkpt>
      <trkpt lat="41.55838678" lon="1.605797968">
        <ele>379.00000</ele>
        <time>2019-04-02T16:12:59Z</time>
      </trkpt>
      <trkpt lat="41.55857705" lon="1.605923781">
        <ele>378.00000</ele>
        <time>2019-04-02T16:13:01Z</time>
      </trkpt>
      <trkpt lat="41.55887964" lon="1.606119750">
        <ele>377.00000</ele>
        <time>2019-04-02T16:13:04Z</time>
      </trkpt>
      <trkpt lat="41.55908382" lon="1.606258219">
        <ele>376.00000</ele>
        <time>2019-04-02T16:13:06Z</time>
      </trkpt>
      <trkpt lat="41.55928649" lon="1.606396939">
        <ele>374.00000</ele>
        <time>2019-04-02T16:13:08Z</time>
      </trkpt>
      <trkpt lat="41.55975479" lon="1.606782171">
        <ele>375.00000</ele>
        <time>2019-04-02T16:13:13Z</time>
      </trkpt>
      <trkpt lat="41.56010692" lon="1.607285588">
        <ele>374.00000</ele>
        <time>2019-04-02T16:13:18Z</time>
      </trkpt>
      <trkpt lat="41.56025393" lon="1.607468482">
        <ele>374.00000</ele>
        <time>2019-04-02T16:13:20Z</time>
      </trkpt>
      <trkpt lat="41.56043071" lon="1.607614327">
        <ele>374.00000</ele>
        <time>2019-04-02T16:13:22Z</time>
      </trkpt>
      <trkpt lat="41.56052693" lon="1.607673587">
        <ele>373.00000</ele>
        <time>2019-04-02T16:13:23Z</time>
      </trkpt>
      <trkpt lat="41.56062525" lon="1.607728907">
        <ele>373.00000</ele>
        <time>2019-04-02T16:13:24Z</time>
      </trkpt>
      <trkpt lat="41.56072399" lon="1.607786910">
        <ele>372.00000</ele>
        <time>2019-04-02T16:13:25Z</time>
      </trkpt>
      <trkpt lat="41.56092859" lon="1.607896294">
        <ele>372.00000</ele>
        <time>2019-04-02T16:13:27Z</time>
      </trkpt>
      <trkpt lat="41.56103203" lon="1.607949016">
        <ele>371.00000</ele>
        <time>2019-04-02T16:13:28Z</time>
      </trkpt>
      <trkpt lat="41.56154181" lon="1.608216315">
        <ele>370.00000</ele>
        <time>2019-04-02T16:13:33Z</time>
      </trkpt>
      <trkpt lat="41.56184247" lon="1.608370291">
        <ele>369.00000</ele>
        <time>2019-04-02T16:13:36Z</time>
      </trkpt>
      <trkpt lat="41.56194272" lon="1.608422677">
        <ele>369.00000</ele>
        <time>2019-04-02T16:13:37Z</time>
      </trkpt>
      <trkpt lat="41.56213768" lon="1.608531475">
        <ele>368.00000</ele>
        <time>2019-04-02T16:13:39Z</time>
      </trkpt>
      <trkpt lat="41.56252384" lon="1.608736328">
        <ele>367.00000</ele>
        <time>2019-04-02T16:13:43Z</time>
      </trkpt>
      <trkpt lat="41.56262425" lon="1.608785195">
        <ele>367.00000</ele>
        <time>2019-04-02T16:13:44Z</time>
      </trkpt>
      <trkpt lat="41.56300865" lon="1.608985858">
        <ele>365.00000</ele>
        <time>2019-04-02T16:13:48Z</time>
      </trkpt>
      <trkpt lat="41.56338047" lon="1.609193393">
        <ele>364.00000</ele>
        <time>2019-04-02T16:13:52Z</time>
      </trkpt>
      <trkpt lat="41.56347175" lon="1.609246451">
        <ele>364.00000</ele>
        <time>2019-04-02T16:13:53Z</time>
      </trkpt>
      <trkpt lat="41.56402504" lon="1.609517522">
        <ele>363.00000</ele>
        <time>2019-04-02T16:13:59Z</time>
      </trkpt>
      <trkpt lat="41.56431505" lon="1.609515678">
        <ele>363.00000</ele>
        <time>2019-04-02T16:14:02Z</time>
      </trkpt>
      <trkpt lat="41.56450859" lon="1.609464883">
        <ele>363.00000</ele>
        <time>2019-04-02T16:14:04Z</time>
      </trkpt>
      <trkpt lat="41.56480430" lon="1.609382070">
        <ele>363.00000</ele>
        <time>2019-04-02T16:14:07Z</time>
      </trkpt>
      <trkpt lat="41.56490455" lon="1.609354997">
        <ele>363.00000</ele>
        <time>2019-04-02T16:14:08Z</time>
      </trkpt>
      <trkpt lat="41.56510999" lon="1.609315099">
        <ele>362.00000</ele>
        <time>2019-04-02T16:14:10Z</time>
      </trkpt>
      <trkpt lat="41.56521770" lon="1.609306298">
        <ele>361.00000</ele>
        <time>2019-04-02T16:14:11Z</time>
      </trkpt>
      <trkpt lat="41.56532834" lon="1.609309818">
        <ele>360.00000</ele>
        <time>2019-04-02T16:14:12Z</time>
      </trkpt>
      <trkpt lat="41.56554794" lon="1.609356924">
        <ele>359.00000</ele>
        <time>2019-04-02T16:14:14Z</time>
      </trkpt>
      <trkpt lat="41.56575405" lon="1.609441917">
        <ele>358.00000</ele>
        <time>2019-04-02T16:14:16Z</time>
      </trkpt>
      <trkpt lat="41.56593058" lon="1.609528250">
        <ele>357.00000</ele>
        <time>2019-04-02T16:14:18Z</time>
      </trkpt>
      <trkpt lat="41.56601775" lon="1.609524562">
        <ele>357.00000</ele>
        <time>2019-04-02T16:14:19Z</time>
      </trkpt>
      <trkpt lat="41.56609947" lon="1.609485922">
        <ele>357.00000</ele>
        <time>2019-04-02T16:14:20Z</time>
      </trkpt>
      <trkpt lat="41.56625680" lon="1.609375532">
        <ele>357.00000</ele>
        <time>2019-04-02T16:14:22Z</time>
      </trkpt>
      <trkpt lat="41.56643089" lon="1.609295653">
        <ele>356.00000</ele>
        <time>2019-04-02T16:14:24Z</time>
      </trkpt>
      <trkpt lat="41.56652410" lon="1.609262544">
        <ele>355.00000</ele>
        <time>2019-04-02T16:14:25Z</time>
      </trkpt>
      <trkpt lat="41.56662074" lon="1.609233208">
        <ele>355.00000</ele>
        <time>2019-04-02T16:14:26Z</time>
      </trkpt>
      <trkpt lat="41.56682610" lon="1.609195237">
        <ele>354.00000</ele>
        <time>2019-04-02T16:14:28Z</time>
      </trkpt>
      <trkpt lat="41.56704956" lon="1.609174869">
        <ele>352.00000</ele>
        <time>2019-04-02T16:14:30Z</time>
      </trkpt>
      <trkpt lat="41.56727856" lon="1.609172103">
        <ele>350.00000</ele>
        <time>2019-04-02T16:14:32Z</time>
      </trkpt>
      <trkpt lat="41.56738853" lon="1.609192974">
        <ele>350.00000</ele>
        <time>2019-04-02T16:14:33Z</time>
      </trkpt>
      <trkpt lat="41.56748685" lon="1.609225748">
        <ele>349.00000</ele>
        <time>2019-04-02T16:14:34Z</time>
      </trkpt>
      <trkpt lat="41.56767091" lon="1.609252318">
        <ele>348.00000</ele>
        <time>2019-04-02T16:14:36Z</time>
      </trkpt>
      <trkpt lat="41.56775909" lon="1.609256342">
        <ele>347.00000</ele>
        <time>2019-04-02T16:14:37Z</time>
      </trkpt>
      <trkpt lat="41.56791600" lon="1.609344435">
        <ele>347.00000</ele>
        <time>2019-04-02T16:14:39Z</time>
      </trkpt>
      <trkpt lat="41.56798230" lon="1.609423393">
        <ele>347.00000</ele>
        <time>2019-04-02T16:14:40Z</time>
      </trkpt>
      <trkpt lat="41.56808297" lon="1.609627073">
        <ele>346.00000</ele>
        <time>2019-04-02T16:14:42Z</time>
      </trkpt>
      <trkpt lat="41.56816595" lon="1.609977269">
        <ele>346.00000</ele>
        <time>2019-04-02T16:14:45Z</time>
      </trkpt>
      <trkpt lat="41.56818279" lon="1.610081540">
        <ele>346.00000</ele>
        <time>2019-04-02T16:14:46Z</time>
      </trkpt>
      <trkpt lat="41.56824097" lon="1.610455121">
        <ele>348.00000</ele>
        <time>2019-04-02T16:14:50Z</time>
      </trkpt>
      <trkpt lat="41.56826494" lon="1.610632482">
        <ele>349.00000</ele>
        <time>2019-04-02T16:14:52Z</time>
      </trkpt>
      <trkpt lat="41.56830090" lon="1.610903218">
        <ele>350.00000</ele>
        <time>2019-04-02T16:14:55Z</time>
      </trkpt>
      <trkpt lat="41.56831632" lon="1.611303286">
        <ele>351.00000</ele>
        <time>2019-04-02T16:14:59Z</time>
      </trkpt>
      <trkpt lat="41.56831783" lon="1.612078612">
        <ele>350.00000</ele>
        <time>2019-04-02T16:15:06Z</time>
      </trkpt>
      <trkpt lat="41.56831699" lon="1.612194282">
        <ele>350.00000</ele>
        <time>2019-04-02T16:15:07Z</time>
      </trkpt>
      <trkpt lat="41.56829553" lon="1.612660987">
        <ele>349.00000</ele>
        <time>2019-04-02T16:15:11Z</time>
      </trkpt>
      <trkpt lat="41.56826636" lon="1.613015960">
        <ele>349.00000</ele>
        <time>2019-04-02T16:15:14Z</time>
      </trkpt>
      <trkpt lat="41.56822110" lon="1.613350566">
        <ele>348.00000</ele>
        <time>2019-04-02T16:15:17Z</time>
      </trkpt>
      <trkpt lat="41.56816679" lon="1.613671006">
        <ele>348.00000</ele>
        <time>2019-04-02T16:15:20Z</time>
      </trkpt>
      <trkpt lat="41.56801524" lon="1.614419175">
        <ele>347.00000</ele>
        <time>2019-04-02T16:15:27Z</time>
      </trkpt>
      <trkpt lat="41.56796562" lon="1.614738693">
        <ele>347.00000</ele>
        <time>2019-04-02T16:15:30Z</time>
      </trkpt>
      <trkpt lat="41.56791432" lon="1.615167930">
        <ele>346.00000</ele>
        <time>2019-04-02T16:15:34Z</time>
      </trkpt>
      <trkpt lat="41.56789303" lon="1.615974605">
        <ele>346.00000</ele>
        <time>2019-04-02T16:15:41Z</time>
      </trkpt>
      <trkpt lat="41.56792161" lon="1.616338714">
        <ele>345.00000</ele>
        <time>2019-04-02T16:15:44Z</time>
      </trkpt>
      <trkpt lat="41.56795338" lon="1.616588998">
        <ele>344.00000</ele>
        <time>2019-04-02T16:15:46Z</time>
      </trkpt>
      <trkpt lat="41.56796872" lon="1.616718079">
        <ele>344.00000</ele>
        <time>2019-04-02T16:15:47Z</time>
      </trkpt>
      <trkpt lat="41.56800325" lon="1.616979259">
        <ele>342.00000</ele>
        <time>2019-04-02T16:15:49Z</time>
      </trkpt>
      <trkpt lat="41.56804223" lon="1.617241529">
        <ele>341.00000</ele>
        <time>2019-04-02T16:15:51Z</time>
      </trkpt>
      <trkpt lat="41.56806687" lon="1.617514109">
        <ele>341.00000</ele>
        <time>2019-04-02T16:15:53Z</time>
      </trkpt>
      <trkpt lat="41.56809328" lon="1.617795154">
        <ele>340.00000</ele>
        <time>2019-04-02T16:15:55Z</time>
      </trkpt>
      <trkpt lat="41.56811448" lon="1.618083659">
        <ele>338.00000</ele>
        <time>2019-04-02T16:15:57Z</time>
      </trkpt>
      <trkpt lat="41.56813359" lon="1.618373002">
        <ele>337.00000</ele>
        <time>2019-04-02T16:15:59Z</time>
      </trkpt>
      <trkpt lat="41.56814172" lon="1.618516165">
        <ele>337.00000</ele>
        <time>2019-04-02T16:16:00Z</time>
      </trkpt>
      <trkpt lat="41.56815430" lon="1.618803581">
        <ele>336.00000</ele>
        <time>2019-04-02T16:16:02Z</time>
      </trkpt>
      <trkpt lat="41.56814868" lon="1.619092253">
        <ele>334.00000</ele>
        <time>2019-04-02T16:16:04Z</time>
      </trkpt>
      <trkpt lat="41.56813770" lon="1.619386291">
        <ele>333.00000</ele>
        <time>2019-04-02T16:16:06Z</time>
      </trkpt>
      <trkpt lat="41.56810769" lon="1.619828101">
        <ele>332.00000</ele>
        <time>2019-04-02T16:16:09Z</time>
      </trkpt>
      <trkpt lat="41.56807928" lon="1.620122054">
        <ele>331.00000</ele>
        <time>2019-04-02T16:16:11Z</time>
      </trkpt>
      <trkpt lat="41.56804315" lon="1.620412236">
        <ele>330.00000</ele>
        <time>2019-04-02T16:16:13Z</time>
      </trkpt>
      <trkpt lat="41.56802136" lon="1.620556572">
        <ele>330.00000</ele>
        <time>2019-04-02T16:16:14Z</time>
      </trkpt>
      <trkpt lat="41.56795087" lon="1.620989413">
        <ele>328.00000</ele>
        <time>2019-04-02T16:16:17Z</time>
      </trkpt>
      <trkpt lat="41.56789219" lon="1.621276913">
        <ele>327.00000</ele>
        <time>2019-04-02T16:16:19Z</time>
      </trkpt>
      <trkpt lat="41.56786001" lon="1.621418232">
        <ele>326.00000</ele>
        <time>2019-04-02T16:16:20Z</time>
      </trkpt>
      <trkpt lat="41.56778893" lon="1.621695505">
        <ele>325.00000</ele>
        <time>2019-04-02T16:16:22Z</time>
      </trkpt>
      <trkpt lat="41.56762464" lon="1.622234294">
        <ele>324.00000</ele>
        <time>2019-04-02T16:16:26Z</time>
      </trkpt>
      <trkpt lat="41.56758223" lon="1.622367817">
        <ele>323.00000</ele>
        <time>2019-04-02T16:16:27Z</time>
      </trkpt>
      <trkpt lat="41.56749112" lon="1.622627405">
        <ele>323.00000</ele>
        <time>2019-04-02T16:16:29Z</time>
      </trkpt>
      <trkpt lat="41.56735081" lon="1.623006518">
        <ele>321.00000</ele>
        <time>2019-04-02T16:16:32Z</time>
      </trkpt>
      <trkpt lat="41.56730613" lon="1.623130487">
        <ele>321.00000</ele>
        <time>2019-04-02T16:16:33Z</time>
      </trkpt>
      <trkpt lat="41.56726062" lon="1.623252192">
        <ele>320.00000</ele>
        <time>2019-04-02T16:16:34Z</time>
      </trkpt>
      <trkpt lat="41.56717294" lon="1.623493842">
        <ele>318.00000</ele>
        <time>2019-04-02T16:16:36Z</time>
      </trkpt>
      <trkpt lat="41.56708477" lon="1.623725015">
        <ele>317.00000</ele>
        <time>2019-04-02T16:16:38Z</time>
      </trkpt>
      <trkpt lat="41.56700153" lon="1.623954512">
        <ele>317.00000</ele>
        <time>2019-04-02T16:16:40Z</time>
      </trkpt>
      <trkpt lat="41.56691771" lon="1.624180739">
        <ele>318.00000</ele>
        <time>2019-04-02T16:16:42Z</time>
      </trkpt>
      <trkpt lat="41.56676273" lon="1.624646857">
        <ele>317.00000</ele>
        <time>2019-04-02T16:16:46Z</time>
      </trkpt>
      <trkpt lat="41.56667774" lon="1.624872162">
        <ele>317.00000</ele>
        <time>2019-04-02T16:16:48Z</time>
      </trkpt>
      <trkpt lat="41.56643676" lon="1.625548917">
        <ele>316.00000</ele>
        <time>2019-04-02T16:16:54Z</time>
      </trkpt>
      <trkpt lat="41.56635789" lon="1.625771122">
        <ele>316.00000</ele>
        <time>2019-04-02T16:16:56Z</time>
      </trkpt>
      <trkpt lat="41.56627809" lon="1.625980250">
        <ele>315.00000</ele>
        <time>2019-04-02T16:16:58Z</time>
      </trkpt>
      <trkpt lat="41.56601188" lon="1.626672931">
        <ele>315.00000</ele>
        <time>2019-04-02T16:17:05Z</time>
      </trkpt>
      <trkpt lat="41.56597634" lon="1.626770077">
        <ele>315.00000</ele>
        <time>2019-04-02T16:17:06Z</time>
      </trkpt>
      <trkpt lat="41.56590510" lon="1.626959089">
        <ele>314.00000</ele>
        <time>2019-04-02T16:17:08Z</time>
      </trkpt>
      <trkpt lat="41.56563461" lon="1.627691332">
        <ele>315.00000</ele>
        <time>2019-04-02T16:17:16Z</time>
      </trkpt>
      <trkpt lat="41.56541392" lon="1.628316286">
        <ele>313.00000</ele>
        <time>2019-04-02T16:17:23Z</time>
      </trkpt>
      <trkpt lat="41.56538274" lon="1.628402704">
        <ele>313.00000</ele>
        <time>2019-04-02T16:17:24Z</time>
      </trkpt>
      <trkpt lat="41.56525810" lon="1.628745943">
        <ele>315.00000</ele>
        <time>2019-04-02T16:17:28Z</time>
      </trkpt>
      <trkpt lat="41.56513379" lon="1.629092535">
        <ele>314.00000</ele>
        <time>2019-04-02T16:17:32Z</time>
      </trkpt>
      <trkpt lat="41.56510219" lon="1.629174677">
        <ele>313.00000</ele>
        <time>2019-04-02T16:17:33Z</time>
      </trkpt>
      <trkpt lat="41.56486113" lon="1.629832154">
        <ele>314.00000</ele>
        <time>2019-04-02T16:17:41Z</time>
      </trkpt>
      <trkpt lat="41.56460548" lon="1.630533970">
        <ele>314.00000</ele>
        <time>2019-04-02T16:17:50Z</time>
      </trkpt>
      <trkpt lat="41.56457849" lon="1.630609491">
        <ele>314.00000</ele>
        <time>2019-04-02T16:17:51Z</time>
      </trkpt>
      <trkpt lat="41.56455217" lon="1.630685348">
        <ele>315.00000</ele>
        <time>2019-04-02T16:17:52Z</time>
      </trkpt>
      <trkpt lat="41.56431245" lon="1.631301082">
        <ele>316.00000</ele>
        <time>2019-04-02T16:18:00Z</time>
      </trkpt>
      <trkpt lat="41.56399847" lon="1.631983704">
        <ele>315.00000</ele>
        <time>2019-04-02T16:18:09Z</time>
      </trkpt>
      <trkpt lat="41.56372480" lon="1.632465329">
        <ele>316.00000</ele>
        <time>2019-04-02T16:18:16Z</time>
      </trkpt>
      <trkpt lat="41.56343218" lon="1.632928010">
        <ele>317.00000</ele>
        <time>2019-04-02T16:18:23Z</time>
      </trkpt>
      <trkpt lat="41.56334342" lon="1.633058767">
        <ele>317.00000</ele>
        <time>2019-04-02T16:18:25Z</time>
      </trkpt>
      <trkpt lat="41.56295567" lon="1.633602250">
        <ele>317.00000</ele>
        <time>2019-04-02T16:18:34Z</time>
      </trkpt>
      <trkpt lat="41.56287269" lon="1.633713394">
        <ele>318.00000</ele>
        <time>2019-04-02T16:18:36Z</time>
      </trkpt>
      <trkpt lat="41.56267706" lon="1.633993769">
        <ele>319.00000</ele>
        <time>2019-04-02T16:18:41Z</time>
      </trkpt>
      <trkpt lat="41.56260338" lon="1.634112708">
        <ele>319.00000</ele>
        <time>2019-04-02T16:18:43Z</time>
      </trkpt>
      <trkpt lat="41.56237950" lon="1.634450415">
        <ele>319.00000</ele>
        <time>2019-04-02T16:18:49Z</time>
      </trkpt>
      <trkpt lat="41.56218973" lon="1.634850734">
        <ele>318.00000</ele>
        <time>2019-04-02T16:18:55Z</time>
      </trkpt>
      <trkpt lat="41.56197633" lon="1.635389775">
        <ele>318.00000</ele>
        <time>2019-04-02T16:19:02Z</time>
      </trkpt>
      <trkpt lat="41.56195211" lon="1.635476192">
        <ele>318.00000</ele>
        <time>2019-04-02T16:19:03Z</time>
      </trkpt>
      <trkpt lat="41.56179872" lon="1.636100225">
        <ele>318.00000</ele>
        <time>2019-04-02T16:19:10Z</time>
      </trkpt>
      <trkpt lat="41.56174507" lon="1.636489732">
        <ele>318.00000</ele>
        <time>2019-04-02T16:19:14Z</time>
      </trkpt>
      <trkpt lat="41.56172806" lon="1.636590817">
        <ele>318.00000</ele>
        <time>2019-04-02T16:19:15Z</time>
      </trkpt>
      <trkpt lat="41.56171607" lon="1.636697351">
        <ele>317.00000</ele>
        <time>2019-04-02T16:19:16Z</time>
      </trkpt>
      <trkpt lat="41.56170828" lon="1.636806735">
        <ele>317.00000</ele>
        <time>2019-04-02T16:19:17Z</time>
      </trkpt>
      <trkpt lat="41.56170040" lon="1.637140670">
        <ele>316.00000</ele>
        <time>2019-04-02T16:19:20Z</time>
      </trkpt>
      <trkpt lat="41.56170216" lon="1.637255251">
        <ele>316.00000</ele>
        <time>2019-04-02T16:19:21Z</time>
      </trkpt>
      <trkpt lat="41.56171465" lon="1.637611901">
        <ele>314.00000</ele>
        <time>2019-04-02T16:19:24Z</time>
      </trkpt>
      <trkpt lat="41.56173376" lon="1.637851623">
        <ele>313.00000</ele>
        <time>2019-04-02T16:19:26Z</time>
      </trkpt>
      <trkpt lat="41.56175832" lon="1.638096794">
        <ele>312.00000</ele>
        <time>2019-04-02T16:19:28Z</time>
      </trkpt>
      <trkpt lat="41.56177693" lon="1.638221433">
        <ele>312.00000</ele>
        <time>2019-04-02T16:19:29Z</time>
      </trkpt>
      <trkpt lat="41.56184733" lon="1.638596523">
        <ele>311.00000</ele>
        <time>2019-04-02T16:19:32Z</time>
      </trkpt>
      <trkpt lat="41.56190198" lon="1.638847393">
        <ele>310.00000</ele>
        <time>2019-04-02T16:19:34Z</time>
      </trkpt>
      <trkpt lat="41.56193568" lon="1.638968344">
        <ele>309.00000</ele>
        <time>2019-04-02T16:19:35Z</time>
      </trkpt>
      <trkpt lat="41.56200877" lon="1.639212174">
        <ele>308.00000</ele>
        <time>2019-04-02T16:19:37Z</time>
      </trkpt>
      <trkpt lat="41.56208404" lon="1.639457931">
        <ele>307.00000</ele>
        <time>2019-04-02T16:19:39Z</time>
      </trkpt>
      <trkpt lat="41.56228370" lon="1.639935448">
        <ele>306.00000</ele>
        <time>2019-04-02T16:19:43Z</time>
      </trkpt>
      <trkpt lat="41.56233767" lon="1.640057070">
        <ele>306.00000</ele>
        <time>2019-04-02T16:19:44Z</time>
      </trkpt>
      <trkpt lat="41.56250196" lon="1.640427466">
        <ele>304.00000</ele>
        <time>2019-04-02T16:19:47Z</time>
      </trkpt>
      <trkpt lat="41.56266390" lon="1.640800377">
        <ele>303.00000</ele>
        <time>2019-04-02T16:19:50Z</time>
      </trkpt>
      <trkpt lat="41.56276716" lon="1.641047140">
        <ele>302.00000</ele>
        <time>2019-04-02T16:19:52Z</time>
      </trkpt>
      <trkpt lat="41.56281670" lon="1.641168426">
        <ele>301.00000</ele>
        <time>2019-04-02T16:19:53Z</time>
      </trkpt>
      <trkpt lat="41.56286984" lon="1.641289293">
        <ele>301.00000</ele>
        <time>2019-04-02T16:19:54Z</time>
      </trkpt>
      <trkpt lat="41.56297445" lon="1.641532117">
        <ele>300.00000</ele>
        <time>2019-04-02T16:19:56Z</time>
      </trkpt>
      <trkpt lat="41.56318148" lon="1.642009383">
        <ele>299.00000</ele>
        <time>2019-04-02T16:20:00Z</time>
      </trkpt>
      <trkpt lat="41.56328592" lon="1.642256649">
        <ele>298.00000</ele>
        <time>2019-04-02T16:20:02Z</time>
      </trkpt>
      <trkpt lat="41.56349916" lon="1.642760485">
        <ele>296.00000</ele>
        <time>2019-04-02T16:20:06Z</time>
      </trkpt>
      <trkpt lat="41.56359940" lon="1.643019150">
        <ele>295.00000</ele>
        <time>2019-04-02T16:20:08Z</time>
      </trkpt>
      <trkpt lat="41.56370049" lon="1.643274798">
        <ele>294.00000</ele>
        <time>2019-04-02T16:20:10Z</time>
      </trkpt>
      <trkpt lat="41.56375179" lon="1.643400359">
        <ele>293.00000</ele>
        <time>2019-04-02T16:20:11Z</time>
      </trkpt>
      <trkpt lat="41.56385228" lon="1.643645949">
        <ele>292.00000</ele>
        <time>2019-04-02T16:20:13Z</time>
      </trkpt>
      <trkpt lat="41.56401791" lon="1.643992122">
        <ele>293.00000</ele>
        <time>2019-04-02T16:20:16Z</time>
      </trkpt>
      <trkpt lat="41.56438697" lon="1.644656974">
        <ele>291.00000</ele>
        <time>2019-04-02T16:20:22Z</time>
      </trkpt>
      <trkpt lat="41.56463817" lon="1.645052097">
        <ele>291.00000</ele>
        <time>2019-04-02T16:20:26Z</time>
      </trkpt>
      <trkpt lat="41.56475166" lon="1.645209426">
        <ele>292.00000</ele>
        <time>2019-04-02T16:20:28Z</time>
      </trkpt>
      <trkpt lat="41.56485040" lon="1.645347811">
        <ele>293.00000</ele>
        <time>2019-04-02T16:20:30Z</time>
      </trkpt>
      <trkpt lat="41.56494109" lon="1.645468594">
        <ele>295.00000</ele>
        <time>2019-04-02T16:20:32Z</time>
      </trkpt>
      <trkpt lat="41.56506045" lon="1.645633047">
        <ele>296.00000</ele>
        <time>2019-04-02T16:20:35Z</time>
      </trkpt>
      <trkpt lat="41.56517101" lon="1.645789202">
        <ele>297.00000</ele>
        <time>2019-04-02T16:20:38Z</time>
      </trkpt>
      <trkpt lat="41.56531082" lon="1.646015932">
        <ele>298.00000</ele>
        <time>2019-04-02T16:20:42Z</time>
      </trkpt>
      <trkpt lat="41.56545340" lon="1.646281387">
        <ele>297.00000</ele>
        <time>2019-04-02T16:20:46Z</time>
      </trkpt>
      <trkpt lat="41.56550805" lon="1.646329918">
        <ele>297.00000</ele>
        <time>2019-04-02T16:20:47Z</time>
      </trkpt>
      <trkpt lat="41.56570812" lon="1.646372415">
        <ele>297.00000</ele>
        <time>2019-04-02T16:20:50Z</time>
      </trkpt>
      <trkpt lat="41.56589395" lon="1.646226234">
        <ele>297.00000</ele>
        <time>2019-04-02T16:20:53Z</time>
      </trkpt>
      <trkpt lat="41.56597928" lon="1.645953739">
        <ele>297.00000</ele>
        <time>2019-04-02T16:20:56Z</time>
      </trkpt>
      <trkpt lat="41.56593988" lon="1.645661126">
        <ele>297.00000</ele>
        <time>2019-04-02T16:20:59Z</time>
      </trkpt>
      <trkpt lat="41.56591700" lon="1.645572613">
        <ele>297.00000</ele>
        <time>2019-04-02T16:21:00Z</time>
      </trkpt>
      <trkpt lat="41.56590677" lon="1.645480496">
        <ele>297.00000</ele>
        <time>2019-04-02T16:21:01Z</time>
      </trkpt>
      <trkpt lat="41.56592555" lon="1.645292490">
        <ele>298.00000</ele>
        <time>2019-04-02T16:21:03Z</time>
      </trkpt>
      <trkpt lat="41.56597492" lon="1.645107921">
        <ele>297.00000</ele>
        <time>2019-04-02T16:21:05Z</time>
      </trkpt>
      <trkpt lat="41.56606511" lon="1.644825786">
        <ele>297.00000</ele>
        <time>2019-04-02T16:21:08Z</time>
      </trkpt>
      <trkpt lat="41.56618924" lon="1.644552955">
        <ele>297.00000</ele>
        <time>2019-04-02T16:21:11Z</time>
      </trkpt>
      <trkpt lat="41.56624590" lon="1.644478859">
        <ele>297.00000</ele>
        <time>2019-04-02T16:21:12Z</time>
      </trkpt>
      <trkpt lat="41.56642838" lon="1.644280627">
        <ele>296.00000</ele>
        <time>2019-04-02T16:21:15Z</time>
      </trkpt>
      <trkpt lat="41.56649619" lon="1.644230168">
        <ele>296.00000</ele>
        <time>2019-04-02T16:21:16Z</time>
      </trkpt>
      <trkpt lat="41.56656987" lon="1.644200412">
        <ele>296.00000</ele>
        <time>2019-04-02T16:21:17Z</time>
      </trkpt>
      <trkpt lat="41.56694554" lon="1.644138889">
        <ele>297.00000</ele>
        <time>2019-04-02T16:21:22Z</time>
      </trkpt>
      <trkpt lat="41.56701813" lon="1.644124723">
        <ele>297.00000</ele>
        <time>2019-04-02T16:21:23Z</time>
      </trkpt>
      <trkpt lat="41.56753605" lon="1.644037635">
        <ele>298.00000</ele>
        <time>2019-04-02T16:21:30Z</time>
      </trkpt>
      <trkpt lat="41.56813669" lon="1.643924983">
        <ele>299.00000</ele>
        <time>2019-04-02T16:21:38Z</time>
      </trkpt>
      <trkpt lat="41.56858563" lon="1.643847450">
        <ele>300.00000</ele>
        <time>2019-04-02T16:21:44Z</time>
      </trkpt>
      <trkpt lat="41.56916314" lon="1.643717950">
        <ele>301.00000</ele>
        <time>2019-04-02T16:21:52Z</time>
      </trkpt>
      <trkpt lat="41.56923967" lon="1.643569171">
        <ele>301.00000</ele>
        <time>2019-04-02T16:21:54Z</time>
      </trkpt>
      <trkpt lat="41.56939515" lon="1.642937595">
        <ele>302.00000</ele>
        <time>2019-04-02T16:22:01Z</time>
      </trkpt>
      <trkpt lat="41.56941929" lon="1.642852434">
        <ele>302.00000</ele>
        <time>2019-04-02T16:22:02Z</time>
      </trkpt>
      <trkpt lat="41.56947813" lon="1.642703404">
        <ele>302.00000</ele>
        <time>2019-04-02T16:22:04Z</time>
      </trkpt>
      <trkpt lat="41.56952289" lon="1.642653280">
        <ele>302.00000</ele>
        <time>2019-04-02T16:22:05Z</time>
      </trkpt>
      <trkpt lat="41.56965575" lon="1.642665769">
        <ele>302.00000</ele>
        <time>2019-04-02T16:22:07Z</time>
      </trkpt>
      <trkpt lat="41.56977837" lon="1.642788983">
        <ele>303.00000</ele>
        <time>2019-04-02T16:22:09Z</time>
      </trkpt>
      <trkpt lat="41.56982515" lon="1.642861822">
        <ele>303.00000</ele>
        <time>2019-04-02T16:22:10Z</time>
      </trkpt>
      <trkpt lat="41.56991324" lon="1.643012696">
        <ele>303.00000</ele>
        <time>2019-04-02T16:22:12Z</time>
      </trkpt>
      <trkpt lat="41.57014500" lon="1.643359037">
        <ele>303.00000</ele>
        <time>2019-04-02T16:22:17Z</time>
      </trkpt>
      <trkpt lat="41.57028615" lon="1.643418045">
        <ele>303.00000</ele>
        <time>2019-04-02T16:22:20Z</time>
      </trkpt>
      <trkpt lat="41.57031415" lon="1.643371358">
        <ele>303.00000</ele>
        <time>2019-04-02T16:22:23Z</time>
      </trkpt>
      <trkpt lat="41.57042202" lon="1.643114369">
        <ele>303.00000</ele>
        <time>2019-04-02T16:22:25Z</time>
      </trkpt>
      <trkpt lat="41.57061967" lon="1.642444403">
        <ele>304.00000</ele>
        <time>2019-04-02T16:22:31Z</time>
      </trkpt>
      <trkpt lat="41.57064816" lon="1.642342312">
        <ele>303.00000</ele>
        <time>2019-04-02T16:22:32Z</time>
      </trkpt>
      <trkpt lat="41.57074254" lon="1.642054812">
        <ele>304.00000</ele>
        <time>2019-04-02T16:22:35Z</time>
      </trkpt>
      <trkpt lat="41.57086073" lon="1.641679806">
        <ele>304.00000</ele>
        <time>2019-04-02T16:22:39Z</time>
      </trkpt>
      <trkpt lat="41.57103264" lon="1.641031717">
        <ele>305.00000</ele>
        <time>2019-04-02T16:22:46Z</time>
      </trkpt>
      <trkpt lat="41.57113783" lon="1.640291512">
        <ele>305.00000</ele>
        <time>2019-04-02T16:22:54Z</time>
      </trkpt>
      <trkpt lat="41.57115502" lon="1.640200652">
        <ele>305.00000</ele>
        <time>2019-04-02T16:22:55Z</time>
      </trkpt>
      <trkpt lat="41.57122526" lon="1.639652391">
        <ele>306.00000</ele>
        <time>2019-04-02T16:23:01Z</time>
      </trkpt>
      <trkpt lat="41.57123917" lon="1.639467068">
        <ele>306.00000</ele>
        <time>2019-04-02T16:23:03Z</time>
      </trkpt>
      <trkpt lat="41.57131226" lon="1.639022240">
        <ele>307.00000</ele>
        <time>2019-04-02T16:23:08Z</time>
      </trkpt>
      <trkpt lat="41.57139063" lon="1.638799617">
        <ele>307.00000</ele>
        <time>2019-04-02T16:23:11Z</time>
      </trkpt>
      <trkpt lat="41.57141687" lon="1.638734238">
        <ele>307.00000</ele>
        <time>2019-04-02T16:23:12Z</time>
      </trkpt>
      <trkpt lat="41.57143807" lon="1.638662908">
        <ele>307.00000</ele>
        <time>2019-04-02T16:23:13Z</time>
      </trkpt>
      <trkpt lat="41.57151024" lon="1.638357136">
        <ele>308.00000</ele>
        <time>2019-04-02T16:23:17Z</time>
      </trkpt>
      <trkpt lat="41.57154670" lon="1.638198215">
        <ele>308.00000</ele>
        <time>2019-04-02T16:23:19Z</time>
      </trkpt>
      <trkpt lat="41.57170764" lon="1.637664791">
        <ele>308.00000</ele>
        <time>2019-04-02T16:23:26Z</time>
      </trkpt>
      <trkpt lat="41.57180059" lon="1.637556832">
        <ele>308.00000</ele>
        <time>2019-04-02T16:23:28Z</time>
      </trkpt>
      <trkpt lat="41.57186756" lon="1.637551132">
        <ele>308.00000</ele>
        <time>2019-04-02T16:23:29Z</time>
      </trkpt>
      <trkpt lat="41.57192464" lon="1.637559346">
        <ele>308.00000</ele>
        <time>2019-04-02T16:23:30Z</time>
      </trkpt>
      <trkpt lat="41.57201869" lon="1.637593545">
        <ele>309.00000</ele>
        <time>2019-04-02T16:23:32Z</time>
      </trkpt>
      <trkpt lat="41.57207585" lon="1.637610308">
        <ele>309.00000</ele>
        <time>2019-04-02T16:23:33Z</time>
      </trkpt>
      <trkpt lat="41.57248766" lon="1.637750370">
        <ele>310.00000</ele>
        <time>2019-04-02T16:23:40Z</time>
      </trkpt>
      <trkpt lat="41.57283014" lon="1.637898478">
        <ele>310.00000</ele>
        <time>2019-04-02T16:23:46Z</time>
      </trkpt>
      <trkpt lat="41.57294824" lon="1.637927312">
        <ele>311.00000</ele>
        <time>2019-04-02T16:23:48Z</time>
      </trkpt>
      <trkpt lat="41.57318000" lon="1.637985063">
        <ele>311.00000</ele>
        <time>2019-04-02T16:23:52Z</time>
      </trkpt>
      <trkpt lat="41.57322661" lon="1.638009790">
        <ele>311.00000</ele>
        <time>2019-04-02T16:23:53Z</time>
      </trkpt>
      <trkpt lat="41.57336692" lon="1.638077348">
        <ele>311.00000</ele>
        <time>2019-04-02T16:23:57Z</time>
      </trkpt>
    </trkseg>
  </trk>
</gpx>
